<?xml version="1.0" encoding="utf-8"?>
<gpx xmlns:xsi="http://www.w3.org/2001/XMLSchema-instance" xmlns:xsd="http://www.w3.org/2001/XMLSchema" xsi:schemaLocation="http://www.topografix.com/GPX/1/1 http://www.topografix.com/GPX/1/1/gpx.xsd" version="1.1" creator="SportTracks 3.1" xmlns="http://www.topografix.com/GPX/1/1">
 <metadata />
 <trk>
  <name />
  <cmt />
  <trkseg>
   <trkpt lat="46.1782455444336" lon="7.02281427383423">
    <ele>435</ele>
    <time>2012-03-09T10:37:15Z</time>
   </trkpt>
   <trkpt lat="46.1782684326172" lon="7.02279043197632">
    <ele>435.828582763672</ele>
    <time>2012-03-09T10:37:16Z</time>
   </trkpt>
   <trkpt lat="46.1783409118652" lon="7.02281427383423">
    <ele>437.485717773438</ele>
    <time>2012-03-09T10:37:18Z</time>
   </trkpt>
   <trkpt lat="46.1783638000488" lon="7.02283239364624">
    <ele>439.142852783203</ele>
    <time>2012-03-09T10:37:20Z</time>
   </trkpt>
   <trkpt lat="46.1783981323242" lon="7.02282667160034">
    <ele>439.971405029297</ele>
    <time>2012-03-09T10:37:21Z</time>
   </trkpt>
   <trkpt lat="46.1784248352051" lon="7.02280139923096">
    <ele>440.799987792969</ele>
    <time>2012-03-09T10:37:22Z</time>
   </trkpt>
   <trkpt lat="46.1784362792969" lon="7.02276039123535">
    <ele>440.799987792969</ele>
    <time>2012-03-09T10:37:23Z</time>
   </trkpt>
   <trkpt lat="46.178409576416" lon="7.02265167236328">
    <ele>440.415985107422</ele>
    <time>2012-03-09T10:37:26Z</time>
   </trkpt>
   <trkpt lat="46.1784248352051" lon="7.02256679534912">
    <ele>439.903991699219</ele>
    <time>2012-03-09T10:37:30Z</time>
   </trkpt>
   <trkpt lat="46.1784477233887" lon="7.02251625061035">
    <ele>439.647979736328</ele>
    <time>2012-03-09T10:37:32Z</time>
   </trkpt>
   <trkpt lat="46.1784324645996" lon="7.02243518829346">
    <ele>439.391998291016</ele>
    <time>2012-03-09T10:37:34Z</time>
   </trkpt>
   <trkpt lat="46.1783409118652" lon="7.02236604690552">
    <ele>439.007995605469</ele>
    <time>2012-03-09T10:37:37Z</time>
   </trkpt>
   <trkpt lat="46.1783638000488" lon="7.02223491668701">
    <ele>438.496002197266</ele>
    <time>2012-03-09T10:37:41Z</time>
   </trkpt>
   <trkpt lat="46.1784172058106" lon="7.02215719223022">
    <ele>438.111999511719</ele>
    <time>2012-03-09T10:37:44Z</time>
   </trkpt>
   <trkpt lat="46.1784324645996" lon="7.02213764190674">
    <ele>437.984008789062</ele>
    <time>2012-03-09T10:37:45Z</time>
   </trkpt>
   <trkpt lat="46.1784515380859" lon="7.02211999893188">
    <ele>437.856018066406</ele>
    <time>2012-03-09T10:37:46Z</time>
   </trkpt>
   <trkpt lat="46.1784706115723" lon="7.02209854125976">
    <ele>437.727996826172</ele>
    <time>2012-03-09T10:37:47Z</time>
   </trkpt>
   <trkpt lat="46.1784782409668" lon="7.02207803726196">
    <ele>437.600006103516</ele>
    <time>2012-03-09T10:37:48Z</time>
   </trkpt>
   <trkpt lat="46.1785507202148" lon="7.02196311950684">
    <ele>438</ele>
    <time>2012-03-09T10:37:53Z</time>
   </trkpt>
   <trkpt lat="46.1785659790039" lon="7.02194356918335">
    <ele>438.399993896484</ele>
    <time>2012-03-09T10:37:54Z</time>
   </trkpt>
   <trkpt lat="46.1785774230957" lon="7.02192068099976">
    <ele>438.799987792969</ele>
    <time>2012-03-09T10:37:55Z</time>
   </trkpt>
   <trkpt lat="46.1785888671875" lon="7.02190637588501">
    <ele>439.200012207031</ele>
    <time>2012-03-09T10:37:56Z</time>
   </trkpt>
   <trkpt lat="46.1786003112793" lon="7.02189016342163">
    <ele>439.600006103516</ele>
    <time>2012-03-09T10:37:57Z</time>
   </trkpt>
   <trkpt lat="46.1786422729492" lon="7.02183389663696">
    <ele>439.600006103516</ele>
    <time>2012-03-09T10:38:00Z</time>
   </trkpt>
   <trkpt lat="46.1787071228027" lon="7.02175378799438">
    <ele>440.600006103516</ele>
    <time>2012-03-09T10:38:04Z</time>
   </trkpt>
   <trkpt lat="46.1787223815918" lon="7.02173519134522">
    <ele>440.850006103516</ele>
    <time>2012-03-09T10:38:05Z</time>
   </trkpt>
   <trkpt lat="46.1787376403809" lon="7.02171230316162">
    <ele>441.100006103516</ele>
    <time>2012-03-09T10:38:06Z</time>
   </trkpt>
   <trkpt lat="46.1787490844727" lon="7.02169227600098">
    <ele>441.350006103516</ele>
    <time>2012-03-09T10:38:07Z</time>
   </trkpt>
   <trkpt lat="46.1787643432617" lon="7.02167415618896">
    <ele>441.600006103516</ele>
    <time>2012-03-09T10:38:08Z</time>
   </trkpt>
   <trkpt lat="46.1788520812988" lon="7.02155780792236">
    <ele>441.600006103516</ele>
    <time>2012-03-09T10:38:13Z</time>
   </trkpt>
   <trkpt lat="46.178882598877" lon="7.02151346206665">
    <ele>442.399993896484</ele>
    <time>2012-03-09T10:38:15Z</time>
   </trkpt>
   <trkpt lat="46.178897857666" lon="7.02149486541748">
    <ele>442.800018310547</ele>
    <time>2012-03-09T10:38:16Z</time>
   </trkpt>
   <trkpt lat="46.1789093017578" lon="7.02147531509399">
    <ele>443.200012207031</ele>
    <time>2012-03-09T10:38:17Z</time>
   </trkpt>
   <trkpt lat="46.1789283752441" lon="7.02145910263062">
    <ele>443.600006103516</ele>
    <time>2012-03-09T10:38:18Z</time>
   </trkpt>
   <trkpt lat="46.1789817810059" lon="7.02139472961426">
    <ele>443.600006103516</ele>
    <time>2012-03-09T10:38:21Z</time>
   </trkpt>
   <trkpt lat="46.1790161132812" lon="7.02135181427002">
    <ele>444.266662597656</ele>
    <time>2012-03-09T10:38:23Z</time>
   </trkpt>
   <trkpt lat="46.1790313720703" lon="7.02133131027222">
    <ele>444.600006103516</ele>
    <time>2012-03-09T10:38:24Z</time>
   </trkpt>
   <trkpt lat="46.1790466308594" lon="7.02131366729736">
    <ele>444.933349609375</ele>
    <time>2012-03-09T10:38:25Z</time>
   </trkpt>
   <trkpt lat="46.1790618896484" lon="7.02129220962524">
    <ele>445.266662597656</ele>
    <time>2012-03-09T10:38:26Z</time>
   </trkpt>
   <trkpt lat="46.1790771484375" lon="7.02127695083618">
    <ele>445.600006103516</ele>
    <time>2012-03-09T10:38:27Z</time>
   </trkpt>
   <trkpt lat="46.1791038513184" lon="7.02123498916626">
    <ele>445.600006103516</ele>
    <time>2012-03-09T10:38:29Z</time>
   </trkpt>
   <trkpt lat="46.1791572570801" lon="7.02115774154663">
    <ele>446.548156738281</ele>
    <time>2012-03-09T10:38:33Z</time>
   </trkpt>
   <trkpt lat="46.1791801452637" lon="7.02113580703735">
    <ele>446.785186767578</ele>
    <time>2012-03-09T10:38:34Z</time>
   </trkpt>
   <trkpt lat="46.17919921875" lon="7.02111053466797">
    <ele>447.022216796875</ele>
    <time>2012-03-09T10:38:35Z</time>
   </trkpt>
   <trkpt lat="46.1792182922363" lon="7.02109146118164">
    <ele>447.25927734375</ele>
    <time>2012-03-09T10:38:36Z</time>
   </trkpt>
   <trkpt lat="46.1792335510254" lon="7.02107048034668">
    <ele>447.496307373047</ele>
    <time>2012-03-09T10:38:37Z</time>
   </trkpt>
   <trkpt lat="46.1793098449707" lon="7.02097415924072">
    <ele>448.681488037109</ele>
    <time>2012-03-09T10:38:42Z</time>
   </trkpt>
   <trkpt lat="46.1793212890625" lon="7.02095985412598">
    <ele>448.918518066406</ele>
    <time>2012-03-09T10:38:43Z</time>
   </trkpt>
   <trkpt lat="46.1793327331543" lon="7.02094316482544">
    <ele>449.155548095703</ele>
    <time>2012-03-09T10:38:44Z</time>
   </trkpt>
   <trkpt lat="46.1793479919434" lon="7.02092456817627">
    <ele>449.392608642578</ele>
    <time>2012-03-09T10:38:45Z</time>
   </trkpt>
   <trkpt lat="46.1793632507324" lon="7.02089929580688">
    <ele>449.629638671875</ele>
    <time>2012-03-09T10:38:46Z</time>
   </trkpt>
   <trkpt lat="46.1794548034668" lon="7.02079153060913">
    <ele>451.051849365234</ele>
    <time>2012-03-09T10:38:52Z</time>
   </trkpt>
   <trkpt lat="46.1794700622559" lon="7.02077960968018">
    <ele>451.288879394531</ele>
    <time>2012-03-09T10:38:53Z</time>
   </trkpt>
   <trkpt lat="46.1794891357422" lon="7.02076721191406">
    <ele>451.525939941406</ele>
    <time>2012-03-09T10:38:54Z</time>
   </trkpt>
   <trkpt lat="46.1795082092285" lon="7.02074909210205">
    <ele>451.762969970703</ele>
    <time>2012-03-09T10:38:55Z</time>
   </trkpt>
   <trkpt lat="46.1795272827148" lon="7.02072143554688">
    <ele>452</ele>
    <time>2012-03-09T10:38:56Z</time>
   </trkpt>
   <trkpt lat="46.1795616149902" lon="7.0206995010376">
    <ele>452</ele>
    <time>2012-03-09T10:38:58Z</time>
   </trkpt>
   <trkpt lat="46.1796493530273" lon="7.02063083648682">
    <ele>453.375</ele>
    <time>2012-03-09T10:39:03Z</time>
   </trkpt>
   <trkpt lat="46.1796684265137" lon="7.02061891555786">
    <ele>453.650024414062</ele>
    <time>2012-03-09T10:39:04Z</time>
   </trkpt>
   <trkpt lat="46.1796836853027" lon="7.02060127258301">
    <ele>453.925018310547</ele>
    <time>2012-03-09T10:39:05Z</time>
   </trkpt>
   <trkpt lat="46.1796913146973" lon="7.02059078216553">
    <ele>454.200012207031</ele>
    <time>2012-03-09T10:39:06Z</time>
   </trkpt>
   <trkpt lat="46.1797065734863" lon="7.02057886123657">
    <ele>454.200012207031</ele>
    <time>2012-03-09T10:39:07Z</time>
   </trkpt>
   <trkpt lat="46.179817199707" lon="7.02049112319946">
    <ele>455.519989013672</ele>
    <time>2012-03-09T10:39:13Z</time>
   </trkpt>
   <trkpt lat="46.1798362731934" lon="7.02047729492188">
    <ele>455.739990234375</ele>
    <time>2012-03-09T10:39:14Z</time>
   </trkpt>
   <trkpt lat="46.179859161377" lon="7.02045774459839">
    <ele>455.959991455078</ele>
    <time>2012-03-09T10:39:15Z</time>
   </trkpt>
   <trkpt lat="46.1798782348633" lon="7.02044010162354">
    <ele>456.179992675781</ele>
    <time>2012-03-09T10:39:16Z</time>
   </trkpt>
   <trkpt lat="46.1798934936523" lon="7.02042770385742">
    <ele>456.399993896484</ele>
    <time>2012-03-09T10:39:17Z</time>
   </trkpt>
   <trkpt lat="46.1799659729004" lon="7.02038049697876">
    <ele>456.399993896484</ele>
    <time>2012-03-09T10:39:21Z</time>
   </trkpt>
   <trkpt lat="46.1800270080566" lon="7.02033185958862">
    <ele>457.257141113281</ele>
    <time>2012-03-09T10:39:24Z</time>
   </trkpt>
   <trkpt lat="46.1800422668457" lon="7.02032279968262">
    <ele>457.542846679688</ele>
    <time>2012-03-09T10:39:25Z</time>
   </trkpt>
   <trkpt lat="46.1800575256348" lon="7.0203046798706">
    <ele>457.828552246094</ele>
    <time>2012-03-09T10:39:26Z</time>
   </trkpt>
   <trkpt lat="46.1800765991211" lon="7.02029132843018">
    <ele>458.114288330078</ele>
    <time>2012-03-09T10:39:27Z</time>
   </trkpt>
   <trkpt lat="46.1800918579102" lon="7.02027273178101">
    <ele>458.399993896484</ele>
    <time>2012-03-09T10:39:28Z</time>
   </trkpt>
   <trkpt lat="46.1801834106445" lon="7.02020072937012">
    <ele>458.399993896484</ele>
    <time>2012-03-09T10:39:33Z</time>
   </trkpt>
   <trkpt lat="46.1802558898926" lon="7.02013349533081">
    <ele>459.5</ele>
    <time>2012-03-09T10:39:37Z</time>
   </trkpt>
   <trkpt lat="46.1802749633789" lon="7.0201153755188">
    <ele>459.774993896484</ele>
    <time>2012-03-09T10:39:38Z</time>
   </trkpt>
   <trkpt lat="46.1802940368652" lon="7.02010107040405">
    <ele>460.049987792969</ele>
    <time>2012-03-09T10:39:39Z</time>
   </trkpt>
   <trkpt lat="46.180305480957" lon="7.0200924873352">
    <ele>460.325012207031</ele>
    <time>2012-03-09T10:39:40Z</time>
   </trkpt>
   <trkpt lat="46.1803245544434" lon="7.02008247375488">
    <ele>460.600006103516</ele>
    <time>2012-03-09T10:39:41Z</time>
   </trkpt>
   <trkpt lat="46.1803588867188" lon="7.02008152008057">
    <ele>460.600006103516</ele>
    <time>2012-03-09T10:39:43Z</time>
   </trkpt>
   <trkpt lat="46.1804046630859" lon="7.02008104324341">
    <ele>461.074066162109</ele>
    <time>2012-03-09T10:39:45Z</time>
   </trkpt>
   <trkpt lat="46.1804466247559" lon="7.02009153366089">
    <ele>461.548156738281</ele>
    <time>2012-03-09T10:39:47Z</time>
   </trkpt>
   <trkpt lat="46.1804695129394" lon="7.0200891494751">
    <ele>461.785186767578</ele>
    <time>2012-03-09T10:39:48Z</time>
   </trkpt>
   <trkpt lat="46.1804885864258" lon="7.02009916305542">
    <ele>462.022216796875</ele>
    <time>2012-03-09T10:39:49Z</time>
   </trkpt>
   <trkpt lat="46.1805076599121" lon="7.02010440826416">
    <ele>462.25927734375</ele>
    <time>2012-03-09T10:39:50Z</time>
   </trkpt>
   <trkpt lat="46.1805267333984" lon="7.02011299133301">
    <ele>462.496307373047</ele>
    <time>2012-03-09T10:39:51Z</time>
   </trkpt>
   <trkpt lat="46.1806144714356" lon="7.02013921737671">
    <ele>463.444458007812</ele>
    <time>2012-03-09T10:39:55Z</time>
   </trkpt>
   <trkpt lat="46.1806335449219" lon="7.02014780044556">
    <ele>463.681488037109</ele>
    <time>2012-03-09T10:39:56Z</time>
   </trkpt>
   <trkpt lat="46.1806526184082" lon="7.02015113830566">
    <ele>463.918518066406</ele>
    <time>2012-03-09T10:39:57Z</time>
   </trkpt>
   <trkpt lat="46.1806755065918" lon="7.0201621055603">
    <ele>464.155548095703</ele>
    <time>2012-03-09T10:39:58Z</time>
   </trkpt>
   <trkpt lat="46.1806945800781" lon="7.02016973495483">
    <ele>464.392608642578</ele>
    <time>2012-03-09T10:39:59Z</time>
   </trkpt>
   <trkpt lat="46.180835723877" lon="7.02020311355591">
    <ele>466.051849365234</ele>
    <time>2012-03-09T10:40:06Z</time>
   </trkpt>
   <trkpt lat="46.180850982666" lon="7.02020072937012">
    <ele>466.288879394531</ele>
    <time>2012-03-09T10:40:07Z</time>
   </trkpt>
   <trkpt lat="46.1808700561523" lon="7.02019882202148">
    <ele>466.525939941406</ele>
    <time>2012-03-09T10:40:08Z</time>
   </trkpt>
   <trkpt lat="46.1808853149414" lon="7.02019166946411">
    <ele>466.762969970703</ele>
    <time>2012-03-09T10:40:09Z</time>
   </trkpt>
   <trkpt lat="46.1809005737305" lon="7.02017974853516">
    <ele>467</ele>
    <time>2012-03-09T10:40:10Z</time>
   </trkpt>
   <trkpt lat="46.1809310913086" lon="7.02016067504883">
    <ele>467</ele>
    <time>2012-03-09T10:40:12Z</time>
   </trkpt>
   <trkpt lat="46.181022644043" lon="7.02003049850464">
    <ele>468.333343505859</ele>
    <time>2012-03-09T10:40:18Z</time>
   </trkpt>
   <trkpt lat="46.1810264587402" lon="7.01999998092651">
    <ele>468.555541992188</ele>
    <time>2012-03-09T10:40:19Z</time>
   </trkpt>
   <trkpt lat="46.1810340881348" lon="7.01997375488281">
    <ele>468.777770996094</ele>
    <time>2012-03-09T10:40:20Z</time>
   </trkpt>
   <trkpt lat="46.1810417175293" lon="7.01994609832764">
    <ele>469</ele>
    <time>2012-03-09T10:40:21Z</time>
   </trkpt>
   <trkpt lat="46.181079864502" lon="7.01975297927856">
    <ele>469</ele>
    <time>2012-03-09T10:40:28Z</time>
   </trkpt>
   <trkpt lat="46.1810913085938" lon="7.01972723007202">
    <ele>469.440002441406</ele>
    <time>2012-03-09T10:40:29Z</time>
   </trkpt>
   <trkpt lat="46.1810989379883" lon="7.01970100402832">
    <ele>469.880004882812</ele>
    <time>2012-03-09T10:40:30Z</time>
   </trkpt>
   <trkpt lat="46.1811027526856" lon="7.01967239379883">
    <ele>470.320007324219</ele>
    <time>2012-03-09T10:40:31Z</time>
   </trkpt>
   <trkpt lat="46.1811141967773" lon="7.01964664459228">
    <ele>470.760009765625</ele>
    <time>2012-03-09T10:40:32Z</time>
   </trkpt>
   <trkpt lat="46.1811218261719" lon="7.01962423324585">
    <ele>471.200012207031</ele>
    <time>2012-03-09T10:40:33Z</time>
   </trkpt>
   <trkpt lat="46.1811332702637" lon="7.01957321166992">
    <ele>471.200012207031</ele>
    <time>2012-03-09T10:40:35Z</time>
   </trkpt>
   <trkpt lat="46.1811485290527" lon="7.01950120925903">
    <ele>472.057159423828</ele>
    <time>2012-03-09T10:40:38Z</time>
   </trkpt>
   <trkpt lat="46.1811561584473" lon="7.01947593688965">
    <ele>472.342864990234</ele>
    <time>2012-03-09T10:40:39Z</time>
   </trkpt>
   <trkpt lat="46.1811714172363" lon="7.01945543289185">
    <ele>472.628570556641</ele>
    <time>2012-03-09T10:40:40Z</time>
   </trkpt>
   <trkpt lat="46.1811790466309" lon="7.0194296836853">
    <ele>472.914306640625</ele>
    <time>2012-03-09T10:40:41Z</time>
   </trkpt>
   <trkpt lat="46.1811866760254" lon="7.01940870285034">
    <ele>473.200012207031</ele>
    <time>2012-03-09T10:40:42Z</time>
   </trkpt>
   <trkpt lat="46.181209564209" lon="7.01936340332031">
    <ele>473.200012207031</ele>
    <time>2012-03-09T10:40:44Z</time>
   </trkpt>
   <trkpt lat="46.181224822998" lon="7.01931238174438">
    <ele>473.666687011719</ele>
    <time>2012-03-09T10:40:46Z</time>
   </trkpt>
   <trkpt lat="46.1812286376953" lon="7.01929521560669">
    <ele>473.900024414062</ele>
    <time>2012-03-09T10:40:47Z</time>
   </trkpt>
   <trkpt lat="46.1812362670898" lon="7.01927471160889">
    <ele>474.133331298828</ele>
    <time>2012-03-09T10:40:48Z</time>
   </trkpt>
   <trkpt lat="46.1812438964844" lon="7.01924514770508">
    <ele>474.366668701172</ele>
    <time>2012-03-09T10:40:49Z</time>
   </trkpt>
   <trkpt lat="46.1812591552734" lon="7.01922512054443">
    <ele>474.600006103516</ele>
    <time>2012-03-09T10:40:50Z</time>
   </trkpt>
   <trkpt lat="46.1812705993652" lon="7.0191969871521">
    <ele>474.833343505859</ele>
    <time>2012-03-09T10:40:51Z</time>
   </trkpt>
   <trkpt lat="46.181339263916" lon="7.0190486907959">
    <ele>476.233337402344</ele>
    <time>2012-03-09T10:40:57Z</time>
   </trkpt>
   <trkpt lat="46.1813583374023" lon="7.0190315246582">
    <ele>476.466674804688</ele>
    <time>2012-03-09T10:40:58Z</time>
   </trkpt>
   <trkpt lat="46.1813659667969" lon="7.01901149749756">
    <ele>476.700012207031</ele>
    <time>2012-03-09T10:40:59Z</time>
   </trkpt>
   <trkpt lat="46.1813774108887" lon="7.01898813247681">
    <ele>476.933349609375</ele>
    <time>2012-03-09T10:41:00Z</time>
   </trkpt>
   <trkpt lat="46.1813888549805" lon="7.01896810531616">
    <ele>477.166687011719</ele>
    <time>2012-03-09T10:41:01Z</time>
   </trkpt>
   <trkpt lat="46.1814651489258" lon="7.01883745193482">
    <ele>478.566680908203</ele>
    <time>2012-03-09T10:41:07Z</time>
   </trkpt>
   <trkpt lat="46.1814765930176" lon="7.01881837844849">
    <ele>478.800018310547</ele>
    <time>2012-03-09T10:41:08Z</time>
   </trkpt>
   <trkpt lat="46.1814880371094" lon="7.01879930496216">
    <ele>479.033355712891</ele>
    <time>2012-03-09T10:41:09Z</time>
   </trkpt>
   <trkpt lat="46.1815032958984" lon="7.01877880096436">
    <ele>479.266662597656</ele>
    <time>2012-03-09T10:41:10Z</time>
   </trkpt>
   <trkpt lat="46.1815605163574" lon="7.01864624023438">
    <ele>480.666687011719</ele>
    <time>2012-03-09T10:41:16Z</time>
   </trkpt>
   <trkpt lat="46.1815719604492" lon="7.01862478256226">
    <ele>480.899993896484</ele>
    <time>2012-03-09T10:41:17Z</time>
   </trkpt>
   <trkpt lat="46.1815872192383" lon="7.01860761642456">
    <ele>481.133331298828</ele>
    <time>2012-03-09T10:41:18Z</time>
   </trkpt>
   <trkpt lat="46.1815948486328" lon="7.01858711242676">
    <ele>481.366668701172</ele>
    <time>2012-03-09T10:41:19Z</time>
   </trkpt>
   <trkpt lat="46.1816062927246" lon="7.01856756210327">
    <ele>481.600006103516</ele>
    <time>2012-03-09T10:41:20Z</time>
   </trkpt>
   <trkpt lat="46.1816520690918" lon="7.01849174499512">
    <ele>481.600006103516</ele>
    <time>2012-03-09T10:41:23Z</time>
   </trkpt>
   <trkpt lat="46.1816902160644" lon="7.01842451095581">
    <ele>482.5</ele>
    <time>2012-03-09T10:41:26Z</time>
   </trkpt>
   <trkpt lat="46.1817054748535" lon="7.01840543746948">
    <ele>482.799987792969</ele>
    <time>2012-03-09T10:41:27Z</time>
   </trkpt>
   <trkpt lat="46.1817169189453" lon="7.01837921142578">
    <ele>483.100006103516</ele>
    <time>2012-03-09T10:41:28Z</time>
   </trkpt>
   <trkpt lat="46.1817283630371" lon="7.01835441589356">
    <ele>483.399993896484</ele>
    <time>2012-03-09T10:41:29Z</time>
   </trkpt>
   <trkpt lat="46.1817436218262" lon="7.01833057403564">
    <ele>483.700012207031</ele>
    <time>2012-03-09T10:41:30Z</time>
   </trkpt>
   <trkpt lat="46.1817665100098" lon="7.01824903488159">
    <ele>484.600006103516</ele>
    <time>2012-03-09T10:41:33Z</time>
   </trkpt>
   <trkpt lat="46.1817779541016" lon="7.0182147026062">
    <ele>484.899993896484</ele>
    <time>2012-03-09T10:41:34Z</time>
   </trkpt>
   <trkpt lat="46.1817817687988" lon="7.01819133758545">
    <ele>485.199981689453</ele>
    <time>2012-03-09T10:41:35Z</time>
   </trkpt>
   <trkpt lat="46.1817893981934" lon="7.01817226409912">
    <ele>485.5</ele>
    <time>2012-03-09T10:41:36Z</time>
   </trkpt>
   <trkpt lat="46.1818008422852" lon="7.01815509796143">
    <ele>485.799987792969</ele>
    <time>2012-03-09T10:41:37Z</time>
   </trkpt>
   <trkpt lat="46.181827545166" lon="7.01808834075928">
    <ele>485.799987792969</ele>
    <time>2012-03-09T10:41:40Z</time>
   </trkpt>
   <trkpt lat="46.1818389892578" lon="7.01806688308716">
    <ele>486.239990234375</ele>
    <time>2012-03-09T10:41:41Z</time>
   </trkpt>
   <trkpt lat="46.1818466186523" lon="7.01805067062378">
    <ele>486.679992675781</ele>
    <time>2012-03-09T10:41:42Z</time>
   </trkpt>
   <trkpt lat="46.1818580627441" lon="7.01802968978882">
    <ele>487.119995117188</ele>
    <time>2012-03-09T10:41:43Z</time>
   </trkpt>
   <trkpt lat="46.1818656921387" lon="7.01800298690796">
    <ele>487.559997558594</ele>
    <time>2012-03-09T10:41:44Z</time>
   </trkpt>
   <trkpt lat="46.1818771362305" lon="7.01798152923584">
    <ele>488</ele>
    <time>2012-03-09T10:41:45Z</time>
   </trkpt>
   <trkpt lat="46.1818962097168" lon="7.01794672012329">
    <ele>488</ele>
    <time>2012-03-09T10:41:47Z</time>
   </trkpt>
   <trkpt lat="46.181957244873" lon="7.0178804397583">
    <ele>488.992004394531</ele>
    <time>2012-03-09T10:41:51Z</time>
   </trkpt>
   <trkpt lat="46.1819725036621" lon="7.01786994934082">
    <ele>489.239990234375</ele>
    <time>2012-03-09T10:41:52Z</time>
   </trkpt>
   <trkpt lat="46.1819877624512" lon="7.01785469055176">
    <ele>489.488006591797</ele>
    <time>2012-03-09T10:41:53Z</time>
   </trkpt>
   <trkpt lat="46.181999206543" lon="7.01783466339111">
    <ele>489.735992431641</ele>
    <time>2012-03-09T10:41:54Z</time>
   </trkpt>
   <trkpt lat="46.1820182800293" lon="7.01782131195068">
    <ele>489.984008789062</ele>
    <time>2012-03-09T10:41:55Z</time>
   </trkpt>
   <trkpt lat="46.1820755004883" lon="7.017746925354">
    <ele>490.976013183594</ele>
    <time>2012-03-09T10:41:59Z</time>
   </trkpt>
   <trkpt lat="46.1820907592773" lon="7.01773023605347">
    <ele>491.223999023438</ele>
    <time>2012-03-09T10:42:00Z</time>
   </trkpt>
   <trkpt lat="46.1821098327637" lon="7.01771688461304">
    <ele>491.472015380859</ele>
    <time>2012-03-09T10:42:01Z</time>
   </trkpt>
   <trkpt lat="46.1821250915527" lon="7.01770401000976">
    <ele>491.720001220703</ele>
    <time>2012-03-09T10:42:02Z</time>
   </trkpt>
   <trkpt lat="46.1821441650391" lon="7.0176887512207">
    <ele>491.968017578125</ele>
    <time>2012-03-09T10:42:03Z</time>
   </trkpt>
   <trkpt lat="46.1822242736816" lon="7.01762008666992">
    <ele>493.2080078125</ele>
    <time>2012-03-09T10:42:08Z</time>
   </trkpt>
   <trkpt lat="46.1822395324707" lon="7.01760768890381">
    <ele>493.456024169922</ele>
    <time>2012-03-09T10:42:09Z</time>
   </trkpt>
   <trkpt lat="46.1822547912598" lon="7.01759481430054">
    <ele>493.704010009766</ele>
    <time>2012-03-09T10:42:10Z</time>
   </trkpt>
   <trkpt lat="46.1822738647461" lon="7.01758623123169">
    <ele>493.952026367188</ele>
    <time>2012-03-09T10:42:11Z</time>
   </trkpt>
   <trkpt lat="46.1822891235352" lon="7.01756763458252">
    <ele>494.200012207031</ele>
    <time>2012-03-09T10:42:12Z</time>
   </trkpt>
   <trkpt lat="46.1823539733887" lon="7.01751661300659">
    <ele>494.200012207031</ele>
    <time>2012-03-09T10:42:16Z</time>
   </trkpt>
   <trkpt lat="46.1823654174805" lon="7.01750040054321">
    <ele>494.600006103516</ele>
    <time>2012-03-09T10:42:17Z</time>
   </trkpt>
   <trkpt lat="46.1823844909668" lon="7.01748418807983">
    <ele>495</ele>
    <time>2012-03-09T10:42:18Z</time>
   </trkpt>
   <trkpt lat="46.1823959350586" lon="7.01745510101318">
    <ele>495.400024414062</ele>
    <time>2012-03-09T10:42:19Z</time>
   </trkpt>
   <trkpt lat="46.1824111938477" lon="7.0174355506897">
    <ele>495.800018310547</ele>
    <time>2012-03-09T10:42:20Z</time>
   </trkpt>
   <trkpt lat="46.1824264526367" lon="7.01741981506348">
    <ele>496.200012207031</ele>
    <time>2012-03-09T10:42:21Z</time>
   </trkpt>
   <trkpt lat="46.1824340820312" lon="7.01739883422852">
    <ele>496.200012207031</ele>
    <time>2012-03-09T10:42:22Z</time>
   </trkpt>
   <trkpt lat="46.1824493408203" lon="7.01737785339356">
    <ele>496.475006103516</ele>
    <time>2012-03-09T10:42:23Z</time>
   </trkpt>
   <trkpt lat="46.1824836730957" lon="7.01730632781982">
    <ele>497.299987792969</ele>
    <time>2012-03-09T10:42:26Z</time>
   </trkpt>
   <trkpt lat="46.1824913024902" lon="7.01728439331055">
    <ele>497.575012207031</ele>
    <time>2012-03-09T10:42:27Z</time>
   </trkpt>
   <trkpt lat="46.1825065612793" lon="7.01726198196411">
    <ele>497.850006103516</ele>
    <time>2012-03-09T10:42:28Z</time>
   </trkpt>
   <trkpt lat="46.1825103759766" lon="7.01724052429199">
    <ele>498.125</ele>
    <time>2012-03-09T10:42:29Z</time>
   </trkpt>
   <trkpt lat="46.1825180053711" lon="7.01722621917725">
    <ele>498.399993896484</ele>
    <time>2012-03-09T10:42:30Z</time>
   </trkpt>
   <trkpt lat="46.1825408935547" lon="7.01717519760132">
    <ele>498.399993896484</ele>
    <time>2012-03-09T10:42:32Z</time>
   </trkpt>
   <trkpt lat="46.1825523376465" lon="7.01715326309204">
    <ele>498.581817626953</ele>
    <time>2012-03-09T10:42:33Z</time>
   </trkpt>
   <trkpt lat="46.1825561523438" lon="7.01712799072266">
    <ele>498.763641357422</ele>
    <time>2012-03-09T10:42:34Z</time>
   </trkpt>
   <trkpt lat="46.1825675964356" lon="7.01710319519043">
    <ele>498.945434570312</ele>
    <time>2012-03-09T10:42:35Z</time>
   </trkpt>
   <trkpt lat="46.1825790405273" lon="7.01698923110962">
    <ele>499.672729492188</ele>
    <time>2012-03-09T10:42:39Z</time>
   </trkpt>
   <trkpt lat="46.1825866699219" lon="7.01696300506592">
    <ele>499.854553222656</ele>
    <time>2012-03-09T10:42:40Z</time>
   </trkpt>
   <trkpt lat="46.1825904846191" lon="7.01693725585938">
    <ele>500.036346435547</ele>
    <time>2012-03-09T10:42:41Z</time>
   </trkpt>
   <trkpt lat="46.1825904846191" lon="7.01690769195557">
    <ele>500.218170166016</ele>
    <time>2012-03-09T10:42:42Z</time>
   </trkpt>
   <trkpt lat="46.1825942993164" lon="7.01687717437744">
    <ele>500.399993896484</ele>
    <time>2012-03-09T10:42:43Z</time>
   </trkpt>
   <trkpt lat="46.1825981140137" lon="7.01679563522339">
    <ele>500.399993896484</ele>
    <time>2012-03-09T10:42:46Z</time>
   </trkpt>
   <trkpt lat="46.1826019287109" lon="7.01676988601685">
    <ele>500.766662597656</ele>
    <time>2012-03-09T10:42:47Z</time>
   </trkpt>
   <trkpt lat="46.1826057434082" lon="7.01674318313599">
    <ele>501.133331298828</ele>
    <time>2012-03-09T10:42:48Z</time>
   </trkpt>
   <trkpt lat="46.1826133728027" lon="7.01671361923218">
    <ele>501.5</ele>
    <time>2012-03-09T10:42:49Z</time>
   </trkpt>
   <trkpt lat="46.1826171875" lon="7.01668453216553">
    <ele>501.866668701172</ele>
    <time>2012-03-09T10:42:50Z</time>
   </trkpt>
   <trkpt lat="46.1826133728027" lon="7.01665639877319">
    <ele>502.233337402344</ele>
    <time>2012-03-09T10:42:51Z</time>
   </trkpt>
   <trkpt lat="46.1826210021973" lon="7.01663160324097">
    <ele>502.600006103516</ele>
    <time>2012-03-09T10:42:52Z</time>
   </trkpt>
   <trkpt lat="46.1826286315918" lon="7.01657295227051">
    <ele>502.600006103516</ele>
    <time>2012-03-09T10:42:54Z</time>
   </trkpt>
   <trkpt lat="46.1826400756836" lon="7.0164270401001">
    <ele>503.920013427734</ele>
    <time>2012-03-09T10:42:59Z</time>
   </trkpt>
   <trkpt lat="46.1826438903809" lon="7.01639795303345">
    <ele>504.184020996094</ele>
    <time>2012-03-09T10:43:00Z</time>
   </trkpt>
   <trkpt lat="46.1826477050781" lon="7.01637268066406">
    <ele>504.447998046875</ele>
    <time>2012-03-09T10:43:01Z</time>
   </trkpt>
   <trkpt lat="46.1826477050781" lon="7.01635122299194">
    <ele>504.712005615234</ele>
    <time>2012-03-09T10:43:02Z</time>
   </trkpt>
   <trkpt lat="46.1826515197754" lon="7.01632595062256">
    <ele>504.976013183594</ele>
    <time>2012-03-09T10:43:03Z</time>
   </trkpt>
   <trkpt lat="46.1826667785644" lon="7.01619958877564">
    <ele>506.296020507812</ele>
    <time>2012-03-09T10:43:08Z</time>
   </trkpt>
   <trkpt lat="46.1826705932617" lon="7.01617288589478">
    <ele>506.559997558594</ele>
    <time>2012-03-09T10:43:09Z</time>
   </trkpt>
   <trkpt lat="46.182674407959" lon="7.01614904403686">
    <ele>506.824005126953</ele>
    <time>2012-03-09T10:43:10Z</time>
   </trkpt>
   <trkpt lat="46.1826782226562" lon="7.01612377166748">
    <ele>507.088012695312</ele>
    <time>2012-03-09T10:43:11Z</time>
   </trkpt>
   <trkpt lat="46.182689666748" lon="7.01601934432983">
    <ele>508.144012451172</ele>
    <time>2012-03-09T10:43:15Z</time>
   </trkpt>
   <trkpt lat="46.1826934814453" lon="7.01599502563476">
    <ele>508.408020019531</ele>
    <time>2012-03-09T10:43:16Z</time>
   </trkpt>
   <trkpt lat="46.1827011108398" lon="7.01596832275391">
    <ele>508.671997070312</ele>
    <time>2012-03-09T10:43:17Z</time>
   </trkpt>
   <trkpt lat="46.1827087402344" lon="7.01594352722168">
    <ele>508.936004638672</ele>
    <time>2012-03-09T10:43:18Z</time>
   </trkpt>
   <trkpt lat="46.1827163696289" lon="7.01591920852661">
    <ele>509.200012207031</ele>
    <time>2012-03-09T10:43:19Z</time>
   </trkpt>
   <trkpt lat="46.1827583312988" lon="7.01582098007202">
    <ele>509.200012207031</ele>
    <time>2012-03-09T10:43:23Z</time>
   </trkpt>
   <trkpt lat="46.1827697753906" lon="7.01580190658569">
    <ele>509.640014648438</ele>
    <time>2012-03-09T10:43:24Z</time>
   </trkpt>
   <trkpt lat="46.1827774047852" lon="7.01578140258789">
    <ele>510.080017089844</ele>
    <time>2012-03-09T10:43:25Z</time>
   </trkpt>
   <trkpt lat="46.1827850341797" lon="7.01575803756714">
    <ele>510.519989013672</ele>
    <time>2012-03-09T10:43:26Z</time>
   </trkpt>
   <trkpt lat="46.1828002929688" lon="7.01573467254639">
    <ele>510.959991455078</ele>
    <time>2012-03-09T10:43:27Z</time>
   </trkpt>
   <trkpt lat="46.1828117370606" lon="7.01571178436279">
    <ele>511.399993896484</ele>
    <time>2012-03-09T10:43:28Z</time>
   </trkpt>
   <trkpt lat="46.1828422546387" lon="7.01565027236938">
    <ele>511.399993896484</ele>
    <time>2012-03-09T10:43:31Z</time>
   </trkpt>
   <trkpt lat="46.182861328125" lon="7.01560163497925">
    <ele>512.52001953125</ele>
    <time>2012-03-09T10:43:33Z</time>
   </trkpt>
   <trkpt lat="46.1828689575195" lon="7.0155839920044">
    <ele>513.080017089844</ele>
    <time>2012-03-09T10:43:34Z</time>
   </trkpt>
   <trkpt lat="46.1828804016113" lon="7.01555728912354">
    <ele>513.640014648438</ele>
    <time>2012-03-09T10:43:35Z</time>
   </trkpt>
   <trkpt lat="46.1828842163086" lon="7.01553201675415">
    <ele>514.200012207031</ele>
    <time>2012-03-09T10:43:36Z</time>
   </trkpt>
   <trkpt lat="46.1828994750977" lon="7.01548290252686">
    <ele>514.200012207031</ele>
    <time>2012-03-09T10:43:38Z</time>
   </trkpt>
   <trkpt lat="46.1829452514648" lon="7.01537895202637">
    <ele>515.422241210938</ele>
    <time>2012-03-09T10:43:43Z</time>
   </trkpt>
   <trkpt lat="46.1829490661621" lon="7.01535177230835">
    <ele>515.666687011719</ele>
    <time>2012-03-09T10:43:44Z</time>
   </trkpt>
   <trkpt lat="46.1829643249512" lon="7.0153317451477">
    <ele>515.9111328125</ele>
    <time>2012-03-09T10:43:45Z</time>
   </trkpt>
   <trkpt lat="46.182975769043" lon="7.01531028747559">
    <ele>516.155578613281</ele>
    <time>2012-03-09T10:43:46Z</time>
   </trkpt>
   <trkpt lat="46.1829872131348" lon="7.01528120040894">
    <ele>516.400024414062</ele>
    <time>2012-03-09T10:43:47Z</time>
   </trkpt>
   <trkpt lat="46.1829986572266" lon="7.01525974273682">
    <ele>516.400024414062</ele>
    <time>2012-03-09T10:43:48Z</time>
   </trkpt>
   <trkpt lat="46.1830406188965" lon="7.01512289047241">
    <ele>517.511108398438</ele>
    <time>2012-03-09T10:43:53Z</time>
   </trkpt>
   <trkpt lat="46.183048248291" lon="7.01509761810303">
    <ele>517.733337402344</ele>
    <time>2012-03-09T10:43:54Z</time>
   </trkpt>
   <trkpt lat="46.1830444335938" lon="7.01506853103638">
    <ele>517.95556640625</ele>
    <time>2012-03-09T10:43:55Z</time>
   </trkpt>
   <trkpt lat="46.1830444335938" lon="7.01503896713257">
    <ele>518.177795410156</ele>
    <time>2012-03-09T10:43:56Z</time>
   </trkpt>
   <trkpt lat="46.1830406188965" lon="7.01500654220581">
    <ele>518.400024414062</ele>
    <time>2012-03-09T10:43:57Z</time>
   </trkpt>
   <trkpt lat="46.1829948425293" lon="7.01490163803101">
    <ele>518.400024414062</ele>
    <time>2012-03-09T10:44:01Z</time>
   </trkpt>
   <trkpt lat="46.1829795837402" lon="7.01488065719604">
    <ele>518.644470214844</ele>
    <time>2012-03-09T10:44:02Z</time>
   </trkpt>
   <trkpt lat="46.1829566955566" lon="7.01486492156982">
    <ele>518.888916015625</ele>
    <time>2012-03-09T10:44:03Z</time>
   </trkpt>
   <trkpt lat="46.1828918457031" lon="7.01482582092285">
    <ele>519.622192382812</ele>
    <time>2012-03-09T10:44:06Z</time>
   </trkpt>
   <trkpt lat="46.1828727722168" lon="7.01481533050537">
    <ele>519.866638183594</ele>
    <time>2012-03-09T10:44:07Z</time>
   </trkpt>
   <trkpt lat="46.1828536987305" lon="7.01479625701904">
    <ele>520.111083984375</ele>
    <time>2012-03-09T10:44:08Z</time>
   </trkpt>
   <trkpt lat="46.1828308105469" lon="7.01479196548462">
    <ele>520.355529785156</ele>
    <time>2012-03-09T10:44:09Z</time>
   </trkpt>
   <trkpt lat="46.1828155517578" lon="7.01477479934692">
    <ele>520.599975585938</ele>
    <time>2012-03-09T10:44:10Z</time>
   </trkpt>
   <trkpt lat="46.1827697753906" lon="7.01475143432617">
    <ele>520.599975585938</ele>
    <time>2012-03-09T10:44:12Z</time>
   </trkpt>
   <trkpt lat="46.1827507019043" lon="7.01474189758301">
    <ele>520.844421386719</ele>
    <time>2012-03-09T10:44:13Z</time>
   </trkpt>
   <trkpt lat="46.182731628418" lon="7.01473093032837">
    <ele>521.0888671875</ele>
    <time>2012-03-09T10:44:14Z</time>
   </trkpt>
   <trkpt lat="46.182689666748" lon="7.01470947265625">
    <ele>521.577758789062</ele>
    <time>2012-03-09T10:44:16Z</time>
   </trkpt>
   <trkpt lat="46.1826705932617" lon="7.01470327377319">
    <ele>521.822204589844</ele>
    <time>2012-03-09T10:44:17Z</time>
   </trkpt>
   <trkpt lat="46.1826553344727" lon="7.01469087600708">
    <ele>522.066650390625</ele>
    <time>2012-03-09T10:44:18Z</time>
   </trkpt>
   <trkpt lat="46.1826400756836" lon="7.01466464996338">
    <ele>522.311096191406</ele>
    <time>2012-03-09T10:44:19Z</time>
   </trkpt>
   <trkpt lat="46.1826248168945" lon="7.01464176177978">
    <ele>522.555541992188</ele>
    <time>2012-03-09T10:44:20Z</time>
   </trkpt>
   <trkpt lat="46.1826095581055" lon="7.01462030410767">
    <ele>522.799987792969</ele>
    <time>2012-03-09T10:44:21Z</time>
   </trkpt>
   <trkpt lat="46.1825981140137" lon="7.01459550857544">
    <ele>522.799987792969</ele>
    <time>2012-03-09T10:44:22Z</time>
   </trkpt>
   <trkpt lat="46.1825904846191" lon="7.01457023620606">
    <ele>523.099975585938</ele>
    <time>2012-03-09T10:44:23Z</time>
   </trkpt>
   <trkpt lat="46.1825828552246" lon="7.01454973220825">
    <ele>523.400024414062</ele>
    <time>2012-03-09T10:44:24Z</time>
   </trkpt>
   <trkpt lat="46.1825675964356" lon="7.01451683044434">
    <ele>523.700012207031</ele>
    <time>2012-03-09T10:44:25Z</time>
   </trkpt>
   <trkpt lat="46.1825637817383" lon="7.01449346542358">
    <ele>524</ele>
    <time>2012-03-09T10:44:26Z</time>
   </trkpt>
   <trkpt lat="46.182559967041" lon="7.01446485519409">
    <ele>524.299987792969</ele>
    <time>2012-03-09T10:44:27Z</time>
   </trkpt>
   <trkpt lat="46.1825561523438" lon="7.01443958282471">
    <ele>524.599975585938</ele>
    <time>2012-03-09T10:44:28Z</time>
   </trkpt>
   <trkpt lat="46.1825561523438" lon="7.01441526412964">
    <ele>524.900024414062</ele>
    <time>2012-03-09T10:44:29Z</time>
   </trkpt>
   <trkpt lat="46.182559967041" lon="7.01439237594604">
    <ele>525.200012207031</ele>
    <time>2012-03-09T10:44:30Z</time>
   </trkpt>
   <trkpt lat="46.1825637817383" lon="7.01431465148926">
    <ele>525.200012207031</ele>
    <time>2012-03-09T10:44:33Z</time>
   </trkpt>
   <trkpt lat="46.1825714111328" lon="7.01427030563354">
    <ele>525.86669921875</ele>
    <time>2012-03-09T10:44:35Z</time>
   </trkpt>
   <trkpt lat="46.1825752258301" lon="7.01424741744995">
    <ele>526.200012207031</ele>
    <time>2012-03-09T10:44:36Z</time>
   </trkpt>
   <trkpt lat="46.1825790405273" lon="7.0142240524292">
    <ele>526.533325195312</ele>
    <time>2012-03-09T10:44:37Z</time>
   </trkpt>
   <trkpt lat="46.1825866699219" lon="7.0141978263855">
    <ele>526.86669921875</ele>
    <time>2012-03-09T10:44:38Z</time>
   </trkpt>
   <trkpt lat="46.1825942993164" lon="7.01417398452759">
    <ele>527.200012207031</ele>
    <time>2012-03-09T10:44:39Z</time>
   </trkpt>
   <trkpt lat="46.1826057434082" lon="7.01415491104126">
    <ele>527.200012207031</ele>
    <time>2012-03-09T10:44:40Z</time>
   </trkpt>
   <trkpt lat="46.1826477050781" lon="7.01408290863037">
    <ele>528.142883300781</ele>
    <time>2012-03-09T10:44:43Z</time>
   </trkpt>
   <trkpt lat="46.1826591491699" lon="7.01406240463257">
    <ele>528.457153320312</ele>
    <time>2012-03-09T10:44:44Z</time>
   </trkpt>
   <trkpt lat="46.1826705932617" lon="7.01404190063476">
    <ele>528.771423339844</ele>
    <time>2012-03-09T10:44:45Z</time>
   </trkpt>
   <trkpt lat="46.1826820373535" lon="7.0140175819397">
    <ele>529.085754394531</ele>
    <time>2012-03-09T10:44:46Z</time>
   </trkpt>
   <trkpt lat="46.1826972961426" lon="7.01399564743042">
    <ele>529.400024414062</ele>
    <time>2012-03-09T10:44:47Z</time>
   </trkpt>
   <trkpt lat="46.1827163696289" lon="7.01396226882935">
    <ele>529.400024414062</ele>
    <time>2012-03-09T10:44:49Z</time>
   </trkpt>
   <trkpt lat="46.1827354431152" lon="7.01394033432007">
    <ele>529.840026855469</ele>
    <time>2012-03-09T10:44:50Z</time>
   </trkpt>
   <trkpt lat="46.1827507019043" lon="7.01391696929932">
    <ele>530.280029296875</ele>
    <time>2012-03-09T10:44:51Z</time>
   </trkpt>
   <trkpt lat="46.1827659606934" lon="7.0138955116272">
    <ele>530.719970703125</ele>
    <time>2012-03-09T10:44:52Z</time>
   </trkpt>
   <trkpt lat="46.1827774047852" lon="7.0138750076294">
    <ele>531.159973144531</ele>
    <time>2012-03-09T10:44:53Z</time>
   </trkpt>
   <trkpt lat="46.1827926635742" lon="7.01384973526001">
    <ele>531.599975585938</ele>
    <time>2012-03-09T10:44:54Z</time>
   </trkpt>
   <trkpt lat="46.1828079223633" lon="7.01382398605347">
    <ele>531.599975585938</ele>
    <time>2012-03-09T10:44:55Z</time>
   </trkpt>
   <trkpt lat="46.1828155517578" lon="7.01379871368408">
    <ele>531.875</ele>
    <time>2012-03-09T10:44:56Z</time>
   </trkpt>
   <trkpt lat="46.1828460693359" lon="7.01376962661743">
    <ele>532.424987792969</ele>
    <time>2012-03-09T10:44:58Z</time>
   </trkpt>
   <trkpt lat="46.1828575134277" lon="7.0137505531311">
    <ele>532.699951171875</ele>
    <time>2012-03-09T10:44:59Z</time>
   </trkpt>
   <trkpt lat="46.1828727722168" lon="7.01372957229614">
    <ele>532.974975585938</ele>
    <time>2012-03-09T10:45:00Z</time>
   </trkpt>
   <trkpt lat="46.1828918457031" lon="7.01370811462402">
    <ele>533.25</ele>
    <time>2012-03-09T10:45:01Z</time>
   </trkpt>
   <trkpt lat="46.1829147338867" lon="7.01368379592896">
    <ele>533.524963378906</ele>
    <time>2012-03-09T10:45:02Z</time>
   </trkpt>
   <trkpt lat="46.182933807373" lon="7.01365852355957">
    <ele>533.799987792969</ele>
    <time>2012-03-09T10:45:03Z</time>
   </trkpt>
   <trkpt lat="46.1829833984375" lon="7.01359128952026">
    <ele>533.799987792969</ele>
    <time>2012-03-09T10:45:06Z</time>
   </trkpt>
   <trkpt lat="46.182991027832" lon="7.01356792449951">
    <ele>534.239990234375</ele>
    <time>2012-03-09T10:45:07Z</time>
   </trkpt>
   <trkpt lat="46.1830024719238" lon="7.01353979110718">
    <ele>534.679992675781</ele>
    <time>2012-03-09T10:45:08Z</time>
   </trkpt>
   <trkpt lat="46.1830139160156" lon="7.01351356506348">
    <ele>535.119995117188</ele>
    <time>2012-03-09T10:45:09Z</time>
   </trkpt>
   <trkpt lat="46.1830215454102" lon="7.01348447799683">
    <ele>535.559997558594</ele>
    <time>2012-03-09T10:45:10Z</time>
   </trkpt>
   <trkpt lat="46.1830291748047" lon="7.01345729827881">
    <ele>536</ele>
    <time>2012-03-09T10:45:11Z</time>
   </trkpt>
   <trkpt lat="46.1830444335938" lon="7.01340103149414">
    <ele>536</ele>
    <time>2012-03-09T10:45:13Z</time>
   </trkpt>
   <trkpt lat="46.1830711364746" lon="7.01332330703735">
    <ele>536.787475585938</ele>
    <time>2012-03-09T10:45:16Z</time>
   </trkpt>
   <trkpt lat="46.1830711364746" lon="7.01329660415649">
    <ele>537.049987792969</ele>
    <time>2012-03-09T10:45:17Z</time>
   </trkpt>
   <trkpt lat="46.1830749511719" lon="7.01326608657837">
    <ele>537.3125</ele>
    <time>2012-03-09T10:45:18Z</time>
   </trkpt>
   <trkpt lat="46.1830787658691" lon="7.0132360458374">
    <ele>537.575012207031</ele>
    <time>2012-03-09T10:45:19Z</time>
   </trkpt>
   <trkpt lat="46.1830825805664" lon="7.01320600509644">
    <ele>537.837524414062</ele>
    <time>2012-03-09T10:45:20Z</time>
   </trkpt>
   <trkpt lat="46.1830673217773" lon="7.01305818557739">
    <ele>539.150024414062</ele>
    <time>2012-03-09T10:45:25Z</time>
   </trkpt>
   <trkpt lat="46.1830596923828" lon="7.01303052902222">
    <ele>539.412536621094</ele>
    <time>2012-03-09T10:45:26Z</time>
   </trkpt>
   <trkpt lat="46.183048248291" lon="7.01300287246704">
    <ele>539.674987792969</ele>
    <time>2012-03-09T10:45:27Z</time>
   </trkpt>
   <trkpt lat="46.1830368041992" lon="7.01297950744629">
    <ele>539.9375</ele>
    <time>2012-03-09T10:45:28Z</time>
   </trkpt>
   <trkpt lat="46.1830253601074" lon="7.01296091079712">
    <ele>540.200012207031</ele>
    <time>2012-03-09T10:45:29Z</time>
   </trkpt>
   <trkpt lat="46.1830024719238" lon="7.01291847229004">
    <ele>540.200012207031</ele>
    <time>2012-03-09T10:45:31Z</time>
   </trkpt>
   <trkpt lat="46.1829872131348" lon="7.01289796829224">
    <ele>540.485717773438</ele>
    <time>2012-03-09T10:45:32Z</time>
   </trkpt>
   <trkpt lat="46.1829566955566" lon="7.01286172866821">
    <ele>541.05712890625</ele>
    <time>2012-03-09T10:45:34Z</time>
   </trkpt>
   <trkpt lat="46.1829452514648" lon="7.01284170150757">
    <ele>541.342895507812</ele>
    <time>2012-03-09T10:45:35Z</time>
   </trkpt>
   <trkpt lat="46.1829299926758" lon="7.01282167434692">
    <ele>541.628601074219</ele>
    <time>2012-03-09T10:45:36Z</time>
   </trkpt>
   <trkpt lat="46.182918548584" lon="7.0128026008606">
    <ele>541.914306640625</ele>
    <time>2012-03-09T10:45:37Z</time>
   </trkpt>
   <trkpt lat="46.1829032897949" lon="7.01278638839722">
    <ele>542.200012207031</ele>
    <time>2012-03-09T10:45:38Z</time>
   </trkpt>
   <trkpt lat="46.182861328125" lon="7.01272630691528">
    <ele>542.200012207031</ele>
    <time>2012-03-09T10:45:41Z</time>
   </trkpt>
   <trkpt lat="46.1828346252441" lon="7.01268768310547">
    <ele>542.933349609375</ele>
    <time>2012-03-09T10:45:43Z</time>
   </trkpt>
   <trkpt lat="46.1828231811523" lon="7.01266384124756">
    <ele>543.300048828125</ele>
    <time>2012-03-09T10:45:44Z</time>
   </trkpt>
   <trkpt lat="46.1828117370606" lon="7.01263952255249">
    <ele>543.666687011719</ele>
    <time>2012-03-09T10:45:45Z</time>
   </trkpt>
   <trkpt lat="46.1827964782715" lon="7.01261758804321">
    <ele>544.033325195312</ele>
    <time>2012-03-09T10:45:46Z</time>
   </trkpt>
   <trkpt lat="46.1827812194824" lon="7.01259708404541">
    <ele>544.400024414062</ele>
    <time>2012-03-09T10:45:47Z</time>
   </trkpt>
   <trkpt lat="46.1827659606934" lon="7.01257562637329">
    <ele>544.400024414062</ele>
    <time>2012-03-09T10:45:48Z</time>
   </trkpt>
   <trkpt lat="46.1827278137207" lon="7.01248216629028">
    <ele>545.400024414062</ele>
    <time>2012-03-09T10:45:52Z</time>
   </trkpt>
   <trkpt lat="46.1827201843262" lon="7.01245403289795">
    <ele>545.650024414062</ele>
    <time>2012-03-09T10:45:53Z</time>
   </trkpt>
   <trkpt lat="46.1827163696289" lon="7.01242589950562">
    <ele>545.900024414062</ele>
    <time>2012-03-09T10:45:54Z</time>
   </trkpt>
   <trkpt lat="46.1827125549316" lon="7.01239585876465">
    <ele>546.150024414062</ele>
    <time>2012-03-09T10:45:55Z</time>
   </trkpt>
   <trkpt lat="46.1827125549316" lon="7.01236820220947">
    <ele>546.400024414062</ele>
    <time>2012-03-09T10:45:56Z</time>
   </trkpt>
   <trkpt lat="46.1827201843262" lon="7.01228046417236">
    <ele>546.400024414062</ele>
    <time>2012-03-09T10:45:59Z</time>
   </trkpt>
   <trkpt lat="46.1827278137207" lon="7.0122537612915">
    <ele>546.880004882812</ele>
    <time>2012-03-09T10:46:00Z</time>
   </trkpt>
   <trkpt lat="46.1827354431152" lon="7.0122275352478">
    <ele>547.359985351562</ele>
    <time>2012-03-09T10:46:01Z</time>
   </trkpt>
   <trkpt lat="46.182746887207" lon="7.01220273971558">
    <ele>547.840026855469</ele>
    <time>2012-03-09T10:46:02Z</time>
   </trkpt>
   <trkpt lat="46.1827583312988" lon="7.01217937469482">
    <ele>548.320007324219</ele>
    <time>2012-03-09T10:46:03Z</time>
   </trkpt>
   <trkpt lat="46.1827659606934" lon="7.0121545791626">
    <ele>548.799987792969</ele>
    <time>2012-03-09T10:46:04Z</time>
   </trkpt>
   <trkpt lat="46.1828002929688" lon="7.01208686828613">
    <ele>548.799987792969</ele>
    <time>2012-03-09T10:46:07Z</time>
   </trkpt>
   <trkpt lat="46.1828117370606" lon="7.01206493377686">
    <ele>549.200012207031</ele>
    <time>2012-03-09T10:46:08Z</time>
   </trkpt>
   <trkpt lat="46.1828269958496" lon="7.01204299926758">
    <ele>549.599975585938</ele>
    <time>2012-03-09T10:46:09Z</time>
   </trkpt>
   <trkpt lat="46.1828422546387" lon="7.01202392578125">
    <ele>550</ele>
    <time>2012-03-09T10:46:10Z</time>
   </trkpt>
   <trkpt lat="46.1828536987305" lon="7.01200437545776">
    <ele>550.399963378906</ele>
    <time>2012-03-09T10:46:11Z</time>
   </trkpt>
   <trkpt lat="46.1828689575195" lon="7.01198244094849">
    <ele>550.799987792969</ele>
    <time>2012-03-09T10:46:12Z</time>
   </trkpt>
   <trkpt lat="46.1828918457031" lon="7.01193618774414">
    <ele>550.799987792969</ele>
    <time>2012-03-09T10:46:14Z</time>
   </trkpt>
   <trkpt lat="46.1829681396484" lon="7.011803150177">
    <ele>552</ele>
    <time>2012-03-09T10:46:20Z</time>
   </trkpt>
   <trkpt lat="46.1829833984375" lon="7.0117883682251">
    <ele>552.200012207031</ele>
    <time>2012-03-09T10:46:21Z</time>
   </trkpt>
   <trkpt lat="46.1829986572266" lon="7.01177215576172">
    <ele>552.399963378906</ele>
    <time>2012-03-09T10:46:22Z</time>
   </trkpt>
   <trkpt lat="46.1830139160156" lon="7.0117597579956">
    <ele>552.599975585938</ele>
    <time>2012-03-09T10:46:23Z</time>
   </trkpt>
   <trkpt lat="46.1830291748047" lon="7.01175403594971">
    <ele>552.799987792969</ele>
    <time>2012-03-09T10:46:24Z</time>
   </trkpt>
   <trkpt lat="46.1830863952637" lon="7.01174116134644">
    <ele>552.799987792969</ele>
    <time>2012-03-09T10:46:27Z</time>
   </trkpt>
   <trkpt lat="46.1831245422363" lon="7.01175165176392">
    <ele>553.679992675781</ele>
    <time>2012-03-09T10:46:29Z</time>
   </trkpt>
   <trkpt lat="46.1831436157227" lon="7.01175928115845">
    <ele>554.119995117188</ele>
    <time>2012-03-09T10:46:30Z</time>
   </trkpt>
   <trkpt lat="46.183162689209" lon="7.0117621421814">
    <ele>554.559997558594</ele>
    <time>2012-03-09T10:46:31Z</time>
   </trkpt>
   <trkpt lat="46.1831817626953" lon="7.01176977157593">
    <ele>555</ele>
    <time>2012-03-09T10:46:32Z</time>
   </trkpt>
   <trkpt lat="46.1832046508789" lon="7.01178073883057">
    <ele>555</ele>
    <time>2012-03-09T10:46:33Z</time>
   </trkpt>
   <trkpt lat="46.1833267211914" lon="7.01180791854858">
    <ele>556.444458007812</ele>
    <time>2012-03-09T10:46:38Z</time>
   </trkpt>
   <trkpt lat="46.183349609375" lon="7.01180601119995">
    <ele>556.733337402344</ele>
    <time>2012-03-09T10:46:39Z</time>
   </trkpt>
   <trkpt lat="46.1833801269531" lon="7.01180124282837">
    <ele>557.022216796875</ele>
    <time>2012-03-09T10:46:40Z</time>
   </trkpt>
   <trkpt lat="46.183406829834" lon="7.01178789138794">
    <ele>557.311096191406</ele>
    <time>2012-03-09T10:46:41Z</time>
   </trkpt>
   <trkpt lat="46.1834373474121" lon="7.01176834106445">
    <ele>557.599975585938</ele>
    <time>2012-03-09T10:46:42Z</time>
   </trkpt>
   <trkpt lat="46.1834907531738" lon="7.01167678833008">
    <ele>557.599975585938</ele>
    <time>2012-03-09T10:46:45Z</time>
   </trkpt>
   <trkpt lat="46.1834945678711" lon="7.01156759262085">
    <ele>558.147827148438</ele>
    <time>2012-03-09T10:46:48Z</time>
   </trkpt>
   <trkpt lat="46.1834678649902" lon="7.01149749755859">
    <ele>558.513000488281</ele>
    <time>2012-03-09T10:46:50Z</time>
   </trkpt>
   <trkpt lat="46.1833953857422" lon="7.01137638092041">
    <ele>559.243469238281</ele>
    <time>2012-03-09T10:46:54Z</time>
   </trkpt>
   <trkpt lat="46.1833763122559" lon="7.01135063171387">
    <ele>559.426086425781</ele>
    <time>2012-03-09T10:46:55Z</time>
   </trkpt>
   <trkpt lat="46.1833572387695" lon="7.01132535934448">
    <ele>559.608703613281</ele>
    <time>2012-03-09T10:46:56Z</time>
   </trkpt>
   <trkpt lat="46.1833343505859" lon="7.01129865646362">
    <ele>559.791259765625</ele>
    <time>2012-03-09T10:46:57Z</time>
   </trkpt>
   <trkpt lat="46.1831855773926" lon="7.01114988327026">
    <ele>561.069580078125</ele>
    <time>2012-03-09T10:47:04Z</time>
   </trkpt>
   <trkpt lat="46.1831665039062" lon="7.01113080978394">
    <ele>561.252136230469</ele>
    <time>2012-03-09T10:47:05Z</time>
   </trkpt>
   <trkpt lat="46.1831474304199" lon="7.01111507415772">
    <ele>561.434753417969</ele>
    <time>2012-03-09T10:47:06Z</time>
   </trkpt>
   <trkpt lat="46.1831321716309" lon="7.01109409332275">
    <ele>561.617370605469</ele>
    <time>2012-03-09T10:47:07Z</time>
   </trkpt>
   <trkpt lat="46.1831169128418" lon="7.01107549667358">
    <ele>561.799987792969</ele>
    <time>2012-03-09T10:47:08Z</time>
   </trkpt>
   <trkpt lat="46.1830711364746" lon="7.01102113723755">
    <ele>561.799987792969</ele>
    <time>2012-03-09T10:47:11Z</time>
   </trkpt>
   <trkpt lat="46.1830177307129" lon="7.01097011566162">
    <ele>562.599975585938</ele>
    <time>2012-03-09T10:47:14Z</time>
   </trkpt>
   <trkpt lat="46.1830024719238" lon="7.01095485687256">
    <ele>562.866638183594</ele>
    <time>2012-03-09T10:47:15Z</time>
   </trkpt>
   <trkpt lat="46.1829833984375" lon="7.01094007492065">
    <ele>563.13330078125</ele>
    <time>2012-03-09T10:47:16Z</time>
   </trkpt>
   <trkpt lat="46.1829643249512" lon="7.01092481613159">
    <ele>563.400024414062</ele>
    <time>2012-03-09T10:47:17Z</time>
   </trkpt>
   <trkpt lat="46.1829528808594" lon="7.01090860366821">
    <ele>563.666687011719</ele>
    <time>2012-03-09T10:47:18Z</time>
   </trkpt>
   <trkpt lat="46.1829032897949" lon="7.01085758209228">
    <ele>564.466674804688</ele>
    <time>2012-03-09T10:47:21Z</time>
   </trkpt>
   <trkpt lat="46.1828842163086" lon="7.01084280014038">
    <ele>564.733337402344</ele>
    <time>2012-03-09T10:47:22Z</time>
   </trkpt>
   <trkpt lat="46.1828651428223" lon="7.01082944869995">
    <ele>565</ele>
    <time>2012-03-09T10:47:23Z</time>
   </trkpt>
   <trkpt lat="46.1828460693359" lon="7.01081705093384">
    <ele>565.266662597656</ele>
    <time>2012-03-09T10:47:24Z</time>
   </trkpt>
   <trkpt lat="46.1828269958496" lon="7.01080417633057">
    <ele>565.533325195312</ele>
    <time>2012-03-09T10:47:25Z</time>
   </trkpt>
   <trkpt lat="46.1827049255371" lon="7.01071310043335">
    <ele>567.133361816406</ele>
    <time>2012-03-09T10:47:31Z</time>
   </trkpt>
   <trkpt lat="46.1826858520508" lon="7.01069211959839">
    <ele>567.400024414062</ele>
    <time>2012-03-09T10:47:32Z</time>
   </trkpt>
   <trkpt lat="46.1826705932617" lon="7.01067304611206">
    <ele>567.666687011719</ele>
    <time>2012-03-09T10:47:33Z</time>
   </trkpt>
   <trkpt lat="46.1826553344727" lon="7.01065444946289">
    <ele>567.933349609375</ele>
    <time>2012-03-09T10:47:34Z</time>
   </trkpt>
   <trkpt lat="46.1826324462891" lon="7.01064109802246">
    <ele>568.200012207031</ele>
    <time>2012-03-09T10:47:35Z</time>
   </trkpt>
   <trkpt lat="46.1825866699219" lon="7.0106143951416">
    <ele>568.200012207031</ele>
    <time>2012-03-09T10:47:37Z</time>
   </trkpt>
   <trkpt lat="46.1825485229492" lon="7.01057624816894">
    <ele>568.786682128906</ele>
    <time>2012-03-09T10:47:39Z</time>
   </trkpt>
   <trkpt lat="46.1825332641602" lon="7.01055812835693">
    <ele>569.080017089844</ele>
    <time>2012-03-09T10:47:40Z</time>
   </trkpt>
   <trkpt lat="46.1825218200684" lon="7.01053810119629">
    <ele>569.373352050781</ele>
    <time>2012-03-09T10:47:41Z</time>
   </trkpt>
   <trkpt lat="46.1825103759766" lon="7.01051807403564">
    <ele>569.666687011719</ele>
    <time>2012-03-09T10:47:42Z</time>
   </trkpt>
   <trkpt lat="46.1824951171875" lon="7.01050329208374">
    <ele>569.960021972656</ele>
    <time>2012-03-09T10:47:43Z</time>
   </trkpt>
   <trkpt lat="46.1824111938477" lon="7.01049137115478">
    <ele>571.426635742188</ele>
    <time>2012-03-09T10:47:48Z</time>
   </trkpt>
   <trkpt lat="46.1823997497559" lon="7.01049709320068">
    <ele>571.719970703125</ele>
    <time>2012-03-09T10:47:49Z</time>
   </trkpt>
   <trkpt lat="46.1823921203613" lon="7.01050615310669">
    <ele>572.013305664062</ele>
    <time>2012-03-09T10:47:50Z</time>
   </trkpt>
   <trkpt lat="46.1823806762695" lon="7.01052045822144">
    <ele>572.306640625</ele>
    <time>2012-03-09T10:47:51Z</time>
   </trkpt>
   <trkpt lat="46.182373046875" lon="7.01053094863892">
    <ele>572.599975585938</ele>
    <time>2012-03-09T10:47:52Z</time>
   </trkpt>
   <trkpt lat="46.1823577880859" lon="7.0105471611023">
    <ele>572.599975585938</ele>
    <time>2012-03-09T10:47:53Z</time>
   </trkpt>
   <trkpt lat="46.1823196411133" lon="7.010573387146">
    <ele>573.199951171875</ele>
    <time>2012-03-09T10:47:56Z</time>
   </trkpt>
   <trkpt lat="46.1823081970215" lon="7.01056861877441">
    <ele>573.399963378906</ele>
    <time>2012-03-09T10:47:57Z</time>
   </trkpt>
   <trkpt lat="46.1822776794434" lon="7.01055335998535">
    <ele>573.799987792969</ele>
    <time>2012-03-09T10:47:59Z</time>
   </trkpt>
   <trkpt lat="46.182201385498" lon="7.01060199737549">
    <ele>574</ele>
    <time>2012-03-09T10:48:00Z</time>
   </trkpt>
   <trkpt lat="46.1821784973144" lon="7.01059865951538">
    <ele>574.199951171875</ele>
    <time>2012-03-09T10:48:01Z</time>
   </trkpt>
   <trkpt lat="46.1821784973144" lon="7.01058340072632">
    <ele>574.399963378906</ele>
    <time>2012-03-09T10:48:02Z</time>
   </trkpt>
   <trkpt lat="46.1821823120117" lon="7.01056241989136">
    <ele>574.599975585938</ele>
    <time>2012-03-09T10:48:03Z</time>
   </trkpt>
   <trkpt lat="46.182186126709" lon="7.01054191589356">
    <ele>574.599975585938</ele>
    <time>2012-03-09T10:48:04Z</time>
   </trkpt>
   <trkpt lat="46.1822128295898" lon="7.01050519943237">
    <ele>575.47998046875</ele>
    <time>2012-03-09T10:48:06Z</time>
   </trkpt>
   <trkpt lat="46.1822242736816" lon="7.0104832649231">
    <ele>575.919982910156</ele>
    <time>2012-03-09T10:48:07Z</time>
   </trkpt>
   <trkpt lat="46.1822319030762" lon="7.0104603767395">
    <ele>576.359985351562</ele>
    <time>2012-03-09T10:48:08Z</time>
   </trkpt>
   <trkpt lat="46.182243347168" lon="7.01043701171875">
    <ele>576.799987792969</ele>
    <time>2012-03-09T10:48:09Z</time>
   </trkpt>
   <trkpt lat="46.1822738647461" lon="7.01037311553955">
    <ele>576.799987792969</ele>
    <time>2012-03-09T10:48:12Z</time>
   </trkpt>
   <trkpt lat="46.1823234558106" lon="7.01031923294067">
    <ele>577.567993164062</ele>
    <time>2012-03-09T10:48:15Z</time>
   </trkpt>
   <trkpt lat="46.1823387145996" lon="7.01029777526856">
    <ele>577.823974609375</ele>
    <time>2012-03-09T10:48:16Z</time>
   </trkpt>
   <trkpt lat="46.1823539733887" lon="7.01027822494507">
    <ele>578.080017089844</ele>
    <time>2012-03-09T10:48:17Z</time>
   </trkpt>
   <trkpt lat="46.1823692321777" lon="7.01025915145874">
    <ele>578.335998535156</ele>
    <time>2012-03-09T10:48:18Z</time>
   </trkpt>
   <trkpt lat="46.1823844909668" lon="7.0102391242981">
    <ele>578.591979980469</ele>
    <time>2012-03-09T10:48:19Z</time>
   </trkpt>
   <trkpt lat="46.1824531555176" lon="7.01013040542602">
    <ele>579.872009277344</ele>
    <time>2012-03-09T10:48:24Z</time>
   </trkpt>
   <trkpt lat="46.1824645996094" lon="7.01010465621948">
    <ele>580.127990722656</ele>
    <time>2012-03-09T10:48:25Z</time>
   </trkpt>
   <trkpt lat="46.1824722290039" lon="7.01008033752441">
    <ele>580.383972167969</ele>
    <time>2012-03-09T10:48:26Z</time>
   </trkpt>
   <trkpt lat="46.1824836730957" lon="7.01005744934082">
    <ele>580.640014648438</ele>
    <time>2012-03-09T10:48:27Z</time>
   </trkpt>
   <trkpt lat="46.1824913024902" lon="7.0100302696228">
    <ele>580.89599609375</ele>
    <time>2012-03-09T10:48:28Z</time>
   </trkpt>
   <trkpt lat="46.1824913024902" lon="7.00988912582398">
    <ele>582.176025390625</ele>
    <time>2012-03-09T10:48:33Z</time>
   </trkpt>
   <trkpt lat="46.1824798583984" lon="7.00986194610596">
    <ele>582.432006835938</ele>
    <time>2012-03-09T10:48:34Z</time>
   </trkpt>
   <trkpt lat="46.1824722290039" lon="7.00983428955078">
    <ele>582.68798828125</ele>
    <time>2012-03-09T10:48:35Z</time>
   </trkpt>
   <trkpt lat="46.1824607849121" lon="7.00980854034424">
    <ele>582.944030761719</ele>
    <time>2012-03-09T10:48:36Z</time>
   </trkpt>
   <trkpt lat="46.182445526123" lon="7.0097804069519">
    <ele>583.200012207031</ele>
    <time>2012-03-09T10:48:37Z</time>
   </trkpt>
   <trkpt lat="46.1824188232422" lon="7.00972509384155">
    <ele>583.200012207031</ele>
    <time>2012-03-09T10:48:39Z</time>
   </trkpt>
   <trkpt lat="46.1823501586914" lon="7.00962829589844">
    <ele>584.200012207031</ele>
    <time>2012-03-09T10:48:43Z</time>
   </trkpt>
   <trkpt lat="46.1823310852051" lon="7.00960922241211">
    <ele>584.450012207031</ele>
    <time>2012-03-09T10:48:44Z</time>
   </trkpt>
   <trkpt lat="46.1823081970215" lon="7.00958681106567">
    <ele>584.700012207031</ele>
    <time>2012-03-09T10:48:45Z</time>
   </trkpt>
   <trkpt lat="46.1822929382324" lon="7.0095648765564">
    <ele>584.950012207031</ele>
    <time>2012-03-09T10:48:46Z</time>
   </trkpt>
   <trkpt lat="46.1822776794434" lon="7.00954389572144">
    <ele>585.200012207031</ele>
    <time>2012-03-09T10:48:47Z</time>
   </trkpt>
   <trkpt lat="46.182201385498" lon="7.00946092605591">
    <ele>585.200012207031</ele>
    <time>2012-03-09T10:48:52Z</time>
   </trkpt>
   <trkpt lat="46.1821746826172" lon="7.0094199180603">
    <ele>586.080017089844</ele>
    <time>2012-03-09T10:48:54Z</time>
   </trkpt>
   <trkpt lat="46.1821632385254" lon="7.00939846038818">
    <ele>586.52001953125</ele>
    <time>2012-03-09T10:48:55Z</time>
   </trkpt>
   <trkpt lat="46.1821479797363" lon="7.00937700271606">
    <ele>586.960021972656</ele>
    <time>2012-03-09T10:48:56Z</time>
   </trkpt>
   <trkpt lat="46.18212890625" lon="7.00935697555542">
    <ele>587.400024414062</ele>
    <time>2012-03-09T10:48:57Z</time>
   </trkpt>
   <trkpt lat="46.1821174621582" lon="7.00933599472046">
    <ele>587.400024414062</ele>
    <time>2012-03-09T10:48:58Z</time>
   </trkpt>
   <trkpt lat="46.1820487976074" lon="7.00920820236206">
    <ele>588.511108398438</ele>
    <time>2012-03-09T10:49:03Z</time>
   </trkpt>
   <trkpt lat="46.1820335388184" lon="7.00918292999268">
    <ele>588.733337402344</ele>
    <time>2012-03-09T10:49:04Z</time>
   </trkpt>
   <trkpt lat="46.182014465332" lon="7.00915718078613">
    <ele>588.95556640625</ele>
    <time>2012-03-09T10:49:05Z</time>
   </trkpt>
   <trkpt lat="46.1820182800293" lon="7.00913286209106">
    <ele>589.177795410156</ele>
    <time>2012-03-09T10:49:06Z</time>
   </trkpt>
   <trkpt lat="46.1820259094238" lon="7.00910425186157">
    <ele>589.400024414062</ele>
    <time>2012-03-09T10:49:07Z</time>
   </trkpt>
   <trkpt lat="46.1820831298828" lon="7.00900220870972">
    <ele>589.400024414062</ele>
    <time>2012-03-09T10:49:11Z</time>
   </trkpt>
   <trkpt lat="46.1821746826172" lon="7.00890779495239">
    <ele>586.934692382812</ele>
    <time>2012-03-09T10:49:15Z</time>
   </trkpt>
   <trkpt lat="46.1821975708008" lon="7.00888442993164">
    <ele>586.318420410156</ele>
    <time>2012-03-09T10:49:16Z</time>
   </trkpt>
   <trkpt lat="46.1822547912598" lon="7.0088038444519">
    <ele>584.469421386719</ele>
    <time>2012-03-09T10:49:19Z</time>
   </trkpt>
   <trkpt lat="46.1823120117188" lon="7.00874376296997">
    <ele>583.236755371094</ele>
    <time>2012-03-09T10:49:21Z</time>
   </trkpt>
   <trkpt lat="46.1823387145996" lon="7.00872802734375">
    <ele>582.620422363281</ele>
    <time>2012-03-09T10:49:22Z</time>
   </trkpt>
   <trkpt lat="46.1824073791504" lon="7.008713722229">
    <ele>581.387756347656</ele>
    <time>2012-03-09T10:49:24Z</time>
   </trkpt>
   <trkpt lat="46.1824722290039" lon="7.00872802734375">
    <ele>580.155151367188</ele>
    <time>2012-03-09T10:49:26Z</time>
   </trkpt>
   <trkpt lat="46.1825332641602" lon="7.00879573822022">
    <ele>578.922485351562</ele>
    <time>2012-03-09T10:49:28Z</time>
   </trkpt>
   <trkpt lat="46.1825637817383" lon="7.00884008407593">
    <ele>578.30615234375</ele>
    <time>2012-03-09T10:49:29Z</time>
   </trkpt>
   <trkpt lat="46.1826095581055" lon="7.00890016555786">
    <ele>577.689819335938</ele>
    <time>2012-03-09T10:49:30Z</time>
   </trkpt>
   <trkpt lat="46.1826667785644" lon="7.00896596908569">
    <ele>577.073486328125</ele>
    <time>2012-03-09T10:49:31Z</time>
   </trkpt>
   <trkpt lat="46.182731628418" lon="7.00903701782226">
    <ele>576.457153320312</ele>
    <time>2012-03-09T10:49:32Z</time>
   </trkpt>
   <trkpt lat="46.1827964782715" lon="7.00911283493042">
    <ele>575.8408203125</ele>
    <time>2012-03-09T10:49:33Z</time>
   </trkpt>
   <trkpt lat="46.1828994750977" lon="7.00916910171509">
    <ele>575.224487304688</ele>
    <time>2012-03-09T10:49:34Z</time>
   </trkpt>
   <trkpt lat="46.1829719543457" lon="7.00924587249756">
    <ele>574.608154296875</ele>
    <time>2012-03-09T10:49:35Z</time>
   </trkpt>
   <trkpt lat="46.1830749511719" lon="7.00930738449097">
    <ele>573.991882324219</ele>
    <time>2012-03-09T10:49:36Z</time>
   </trkpt>
   <trkpt lat="46.1831474304199" lon="7.00938367843628">
    <ele>573.375549316406</ele>
    <time>2012-03-09T10:49:37Z</time>
   </trkpt>
   <trkpt lat="46.1832160949707" lon="7.00946283340454">
    <ele>572.759216308594</ele>
    <time>2012-03-09T10:49:38Z</time>
   </trkpt>
   <trkpt lat="46.1832695007324" lon="7.00955867767334">
    <ele>572.142883300781</ele>
    <time>2012-03-09T10:49:39Z</time>
   </trkpt>
   <trkpt lat="46.1833114624023" lon="7.00966215133667">
    <ele>571.526550292969</ele>
    <time>2012-03-09T10:49:40Z</time>
   </trkpt>
   <trkpt lat="46.183349609375" lon="7.00976896286011">
    <ele>570.910217285156</ele>
    <time>2012-03-09T10:49:41Z</time>
   </trkpt>
   <trkpt lat="46.1833839416504" lon="7.00988149642944">
    <ele>570.293884277344</ele>
    <time>2012-03-09T10:49:42Z</time>
   </trkpt>
   <trkpt lat="46.1834106445312" lon="7.00998592376709">
    <ele>569.677551269531</ele>
    <time>2012-03-09T10:49:43Z</time>
   </trkpt>
   <trkpt lat="46.1834373474121" lon="7.01008367538452">
    <ele>569.061218261719</ele>
    <time>2012-03-09T10:49:44Z</time>
   </trkpt>
   <trkpt lat="46.1834678649902" lon="7.01016998291016">
    <ele>568.444885253906</ele>
    <time>2012-03-09T10:49:45Z</time>
   </trkpt>
   <trkpt lat="46.1835250854492" lon="7.01024341583252">
    <ele>567.82861328125</ele>
    <time>2012-03-09T10:49:46Z</time>
   </trkpt>
   <trkpt lat="46.18359375" lon="7.01031827926636">
    <ele>567.212280273438</ele>
    <time>2012-03-09T10:49:47Z</time>
   </trkpt>
   <trkpt lat="46.1836624145508" lon="7.0103907585144">
    <ele>566.595947265625</ele>
    <time>2012-03-09T10:49:48Z</time>
   </trkpt>
   <trkpt lat="46.1837310791016" lon="7.01046180725098">
    <ele>565.979614257812</ele>
    <time>2012-03-09T10:49:49Z</time>
   </trkpt>
   <trkpt lat="46.1838150024414" lon="7.01053524017334">
    <ele>565.36328125</ele>
    <time>2012-03-09T10:49:50Z</time>
   </trkpt>
   <trkpt lat="46.1838912963867" lon="7.01059150695801">
    <ele>564.746948242188</ele>
    <time>2012-03-09T10:49:51Z</time>
   </trkpt>
   <trkpt lat="46.1839714050293" lon="7.01062822341919">
    <ele>564.130615234375</ele>
    <time>2012-03-09T10:49:52Z</time>
   </trkpt>
   <trkpt lat="46.1840629577637" lon="7.01064538955688">
    <ele>563.514282226562</ele>
    <time>2012-03-09T10:49:53Z</time>
   </trkpt>
   <trkpt lat="46.1841506958008" lon="7.01066017150879">
    <ele>562.89794921875</ele>
    <time>2012-03-09T10:49:54Z</time>
   </trkpt>
   <trkpt lat="46.1842384338379" lon="7.01068019866943">
    <ele>562.281616210938</ele>
    <time>2012-03-09T10:49:55Z</time>
   </trkpt>
   <trkpt lat="46.1843223571777" lon="7.0106930732727">
    <ele>561.665344238281</ele>
    <time>2012-03-09T10:49:56Z</time>
   </trkpt>
   <trkpt lat="46.1844062805176" lon="7.01069068908691">
    <ele>561.049011230469</ele>
    <time>2012-03-09T10:49:57Z</time>
   </trkpt>
   <trkpt lat="46.1844749450684" lon="7.01067781448364">
    <ele>560.432678222656</ele>
    <time>2012-03-09T10:49:58Z</time>
   </trkpt>
   <trkpt lat="46.1845397949219" lon="7.01066637039185">
    <ele>559.816345214844</ele>
    <time>2012-03-09T10:49:59Z</time>
   </trkpt>
   <trkpt lat="46.1845932006836" lon="7.01067495346069">
    <ele>559.200012207031</ele>
    <time>2012-03-09T10:50:00Z</time>
   </trkpt>
   <trkpt lat="46.1846389770508" lon="7.01070308685303">
    <ele>559.200012207031</ele>
    <time>2012-03-09T10:50:01Z</time>
   </trkpt>
   <trkpt lat="46.1847991943359" lon="7.01080656051636">
    <ele>559.82861328125</ele>
    <time>2012-03-09T10:50:05Z</time>
   </trkpt>
   <trkpt lat="46.1848449707031" lon="7.01079082489014">
    <ele>560.142883300781</ele>
    <time>2012-03-09T10:50:07Z</time>
   </trkpt>
   <trkpt lat="46.184871673584" lon="7.01077461242676">
    <ele>560.300048828125</ele>
    <time>2012-03-09T10:50:08Z</time>
   </trkpt>
   <trkpt lat="46.1849327087402" lon="7.01074123382568">
    <ele>560.614318847656</ele>
    <time>2012-03-09T10:50:10Z</time>
   </trkpt>
   <trkpt lat="46.185001373291" lon="7.01072072982788">
    <ele>560.928588867188</ele>
    <time>2012-03-09T10:50:12Z</time>
   </trkpt>
   <trkpt lat="46.1850357055664" lon="7.01070547103882">
    <ele>561.085754394531</ele>
    <time>2012-03-09T10:50:13Z</time>
   </trkpt>
   <trkpt lat="46.1850662231445" lon="7.01068735122681">
    <ele>561.242858886719</ele>
    <time>2012-03-09T10:50:14Z</time>
   </trkpt>
   <trkpt lat="46.1851043701172" lon="7.01067161560059">
    <ele>561.400024414062</ele>
    <time>2012-03-09T10:50:15Z</time>
   </trkpt>
   <trkpt lat="46.1851692199707" lon="7.01065254211426">
    <ele>561.400024414062</ele>
    <time>2012-03-09T10:50:17Z</time>
   </trkpt>
   <trkpt lat="46.1852035522461" lon="7.01063919067383">
    <ele>561.8125</ele>
    <time>2012-03-09T10:50:18Z</time>
   </trkpt>
   <trkpt lat="46.185245513916" lon="7.01062393188476">
    <ele>562.225036621094</ele>
    <time>2012-03-09T10:50:19Z</time>
   </trkpt>
   <trkpt lat="46.1852874755859" lon="7.01061058044434">
    <ele>562.637512207031</ele>
    <time>2012-03-09T10:50:20Z</time>
   </trkpt>
   <trkpt lat="46.1853256225586" lon="7.01059722900391">
    <ele>563.050048828125</ele>
    <time>2012-03-09T10:50:21Z</time>
   </trkpt>
   <trkpt lat="46.1853561401367" lon="7.01059484481812">
    <ele>563.462524414062</ele>
    <time>2012-03-09T10:50:22Z</time>
   </trkpt>
   <trkpt lat="46.1853828430176" lon="7.01058912277222">
    <ele>563.875</ele>
    <time>2012-03-09T10:50:23Z</time>
   </trkpt>
   <trkpt lat="46.1854095458984" lon="7.01059007644653">
    <ele>564.287536621094</ele>
    <time>2012-03-09T10:50:24Z</time>
   </trkpt>
   <trkpt lat="46.1854362487793" lon="7.01059436798096">
    <ele>564.700012207031</ele>
    <time>2012-03-09T10:50:25Z</time>
   </trkpt>
   <trkpt lat="46.1854591369629" lon="7.0105996131897">
    <ele>565.112487792969</ele>
    <time>2012-03-09T10:50:26Z</time>
   </trkpt>
   <trkpt lat="46.1854782104492" lon="7.01060438156128">
    <ele>565.525024414062</ele>
    <time>2012-03-09T10:50:27Z</time>
   </trkpt>
   <trkpt lat="46.1855163574219" lon="7.01061201095581">
    <ele>566.349975585938</ele>
    <time>2012-03-09T10:50:29Z</time>
   </trkpt>
   <trkpt lat="46.1855354309082" lon="7.01060676574707">
    <ele>566.762512207031</ele>
    <time>2012-03-09T10:50:30Z</time>
   </trkpt>
   <trkpt lat="46.1855545043945" lon="7.0105996131897">
    <ele>567.174987792969</ele>
    <time>2012-03-09T10:50:31Z</time>
   </trkpt>
   <trkpt lat="46.1855735778809" lon="7.01059341430664">
    <ele>567.587524414062</ele>
    <time>2012-03-09T10:50:32Z</time>
   </trkpt>
   <trkpt lat="46.1855964660644" lon="7.010582447052">
    <ele>568</ele>
    <time>2012-03-09T10:50:33Z</time>
   </trkpt>
   <trkpt lat="46.1856155395508" lon="7.01056289672852">
    <ele>568</ele>
    <time>2012-03-09T10:50:34Z</time>
   </trkpt>
   <trkpt lat="46.1856536865234" lon="7.01052093505859">
    <ele>568.799987792969</ele>
    <time>2012-03-09T10:50:36Z</time>
   </trkpt>
   <trkpt lat="46.1856689453125" lon="7.01050424575806">
    <ele>569.200012207031</ele>
    <time>2012-03-09T10:50:37Z</time>
   </trkpt>
   <trkpt lat="46.1856842041016" lon="7.01049089431763">
    <ele>569.599975585938</ele>
    <time>2012-03-09T10:50:38Z</time>
   </trkpt>
   <trkpt lat="46.1857032775879" lon="7.01047372817993">
    <ele>570</ele>
    <time>2012-03-09T10:50:39Z</time>
   </trkpt>
   <trkpt lat="46.1857643127441" lon="7.01043844223022">
    <ele>570</ele>
    <time>2012-03-09T10:50:41Z</time>
   </trkpt>
   <trkpt lat="46.1858215332031" lon="7.01039838790894">
    <ele>570.619995117188</ele>
    <time>2012-03-09T10:50:43Z</time>
   </trkpt>
   <trkpt lat="46.185848236084" lon="7.01038026809692">
    <ele>570.929992675781</ele>
    <time>2012-03-09T10:50:44Z</time>
   </trkpt>
   <trkpt lat="46.1858749389648" lon="7.01036500930786">
    <ele>571.239990234375</ele>
    <time>2012-03-09T10:50:45Z</time>
   </trkpt>
   <trkpt lat="46.185905456543" lon="7.01035308837891">
    <ele>571.549987792969</ele>
    <time>2012-03-09T10:50:46Z</time>
   </trkpt>
   <trkpt lat="46.1859321594238" lon="7.01034498214722">
    <ele>571.859985351562</ele>
    <time>2012-03-09T10:50:47Z</time>
   </trkpt>
   <trkpt lat="46.1860389709473" lon="7.01028919219971">
    <ele>573.099975585938</ele>
    <time>2012-03-09T10:50:51Z</time>
   </trkpt>
   <trkpt lat="46.1860694885254" lon="7.01027822494507">
    <ele>573.410034179688</ele>
    <time>2012-03-09T10:50:52Z</time>
   </trkpt>
   <trkpt lat="46.1861000061035" lon="7.0102686882019">
    <ele>573.720031738281</ele>
    <time>2012-03-09T10:50:53Z</time>
   </trkpt>
   <trkpt lat="46.1861267089844" lon="7.01025915145874">
    <ele>574.030029296875</ele>
    <time>2012-03-09T10:50:54Z</time>
   </trkpt>
   <trkpt lat="46.186149597168" lon="7.01024866104126">
    <ele>574.340026855469</ele>
    <time>2012-03-09T10:50:55Z</time>
   </trkpt>
   <trkpt lat="46.186222076416" lon="7.01022243499756">
    <ele>575.27001953125</ele>
    <time>2012-03-09T10:50:58Z</time>
   </trkpt>
   <trkpt lat="46.1862449645996" lon="7.01020908355713">
    <ele>575.580017089844</ele>
    <time>2012-03-09T10:50:59Z</time>
   </trkpt>
   <trkpt lat="46.1862640380859" lon="7.01020050048828">
    <ele>575.890014648438</ele>
    <time>2012-03-09T10:51:00Z</time>
   </trkpt>
   <trkpt lat="46.1862831115723" lon="7.01019716262817">
    <ele>576.200012207031</ele>
    <time>2012-03-09T10:51:01Z</time>
   </trkpt>
   <trkpt lat="46.1863441467285" lon="7.01019287109375">
    <ele>576.200012207031</ele>
    <time>2012-03-09T10:51:04Z</time>
   </trkpt>
   <trkpt lat="46.1863632202148" lon="7.01019144058228">
    <ele>576.600036621094</ele>
    <time>2012-03-09T10:51:05Z</time>
   </trkpt>
   <trkpt lat="46.1863784790039" lon="7.01019239425659">
    <ele>577</ele>
    <time>2012-03-09T10:51:06Z</time>
   </trkpt>
   <trkpt lat="46.1864013671875" lon="7.01019287109375">
    <ele>577.400024414062</ele>
    <time>2012-03-09T10:51:07Z</time>
   </trkpt>
   <trkpt lat="46.1864204406738" lon="7.01019763946533">
    <ele>577.799987792969</ele>
    <time>2012-03-09T10:51:08Z</time>
   </trkpt>
   <trkpt lat="46.1864395141602" lon="7.01019859313965">
    <ele>578.200012207031</ele>
    <time>2012-03-09T10:51:09Z</time>
   </trkpt>
   <trkpt lat="46.1864624023438" lon="7.01019287109375">
    <ele>578.200012207031</ele>
    <time>2012-03-09T10:51:10Z</time>
   </trkpt>
   <trkpt lat="46.186595916748" lon="7.01015138626099">
    <ele>579.435302734375</ele>
    <time>2012-03-09T10:51:15Z</time>
   </trkpt>
   <trkpt lat="46.1866264343262" lon="7.01015090942383">
    <ele>579.682373046875</ele>
    <time>2012-03-09T10:51:16Z</time>
   </trkpt>
   <trkpt lat="46.186653137207" lon="7.0101466178894">
    <ele>579.929443359375</ele>
    <time>2012-03-09T10:51:17Z</time>
   </trkpt>
   <trkpt lat="46.1866836547852" lon="7.01013660430908">
    <ele>580.176452636719</ele>
    <time>2012-03-09T10:51:18Z</time>
   </trkpt>
   <trkpt lat="46.1867065429688" lon="7.01012563705444">
    <ele>580.423522949219</ele>
    <time>2012-03-09T10:51:19Z</time>
   </trkpt>
   <trkpt lat="46.1868438720703" lon="7.01008462905884">
    <ele>581.658813476562</ele>
    <time>2012-03-09T10:51:24Z</time>
   </trkpt>
   <trkpt lat="46.1868705749512" lon="7.01007747650146">
    <ele>581.905883789062</ele>
    <time>2012-03-09T10:51:25Z</time>
   </trkpt>
   <trkpt lat="46.1869010925293" lon="7.01006746292114">
    <ele>582.152954101562</ele>
    <time>2012-03-09T10:51:26Z</time>
   </trkpt>
   <trkpt lat="46.1869316101074" lon="7.01005935668945">
    <ele>582.400024414062</ele>
    <time>2012-03-09T10:51:27Z</time>
   </trkpt>
   <trkpt lat="46.1870231628418" lon="7.01004457473755">
    <ele>583.388244628906</ele>
    <time>2012-03-09T10:51:31Z</time>
   </trkpt>
   <trkpt lat="46.1870422363281" lon="7.01003551483154">
    <ele>583.63525390625</ele>
    <time>2012-03-09T10:51:32Z</time>
   </trkpt>
   <trkpt lat="46.1870613098144" lon="7.01002931594849">
    <ele>583.88232421875</ele>
    <time>2012-03-09T10:51:33Z</time>
   </trkpt>
   <trkpt lat="46.187084197998" lon="7.01002264022827">
    <ele>584.12939453125</ele>
    <time>2012-03-09T10:51:34Z</time>
   </trkpt>
   <trkpt lat="46.1871070861816" lon="7.0100154876709">
    <ele>584.37646484375</ele>
    <time>2012-03-09T10:51:35Z</time>
   </trkpt>
   <trkpt lat="46.187183380127" lon="7.01000547409058">
    <ele>585.611755371094</ele>
    <time>2012-03-09T10:51:40Z</time>
   </trkpt>
   <trkpt lat="46.187198638916" lon="7.00999450683594">
    <ele>585.858825683594</ele>
    <time>2012-03-09T10:51:41Z</time>
   </trkpt>
   <trkpt lat="46.1872177124023" lon="7.00998163223267">
    <ele>586.105834960938</ele>
    <time>2012-03-09T10:51:42Z</time>
   </trkpt>
   <trkpt lat="46.1872367858887" lon="7.00996971130371">
    <ele>586.352905273438</ele>
    <time>2012-03-09T10:51:43Z</time>
   </trkpt>
   <trkpt lat="46.187255859375" lon="7.00995540618896">
    <ele>586.599975585938</ele>
    <time>2012-03-09T10:51:44Z</time>
   </trkpt>
   <trkpt lat="46.1873054504394" lon="7.00990629196167">
    <ele>586.599975585938</ele>
    <time>2012-03-09T10:51:47Z</time>
   </trkpt>
   <trkpt lat="46.1873626708984" lon="7.00985240936279">
    <ele>587.857116699219</ele>
    <time>2012-03-09T10:51:51Z</time>
   </trkpt>
   <trkpt lat="46.1873779296875" lon="7.00984048843384">
    <ele>588.17138671875</ele>
    <time>2012-03-09T10:51:52Z</time>
   </trkpt>
   <trkpt lat="46.1873931884766" lon="7.00982475280762">
    <ele>588.485717773438</ele>
    <time>2012-03-09T10:51:53Z</time>
   </trkpt>
   <trkpt lat="46.1874084472656" lon="7.00980949401856">
    <ele>588.799987792969</ele>
    <time>2012-03-09T10:51:54Z</time>
   </trkpt>
   <trkpt lat="46.1874313354492" lon="7.00978994369507">
    <ele>588.799987792969</ele>
    <time>2012-03-09T10:51:55Z</time>
   </trkpt>
   <trkpt lat="46.1875419616699" lon="7.00972986221314">
    <ele>590</ele>
    <time>2012-03-09T10:52:00Z</time>
   </trkpt>
   <trkpt lat="46.1875610351562" lon="7.0097165107727">
    <ele>590.239990234375</ele>
    <time>2012-03-09T10:52:01Z</time>
   </trkpt>
   <trkpt lat="46.1875801086426" lon="7.00970458984375">
    <ele>590.47998046875</ele>
    <time>2012-03-09T10:52:02Z</time>
   </trkpt>
   <trkpt lat="46.1876029968262" lon="7.00969743728638">
    <ele>590.720031738281</ele>
    <time>2012-03-09T10:52:03Z</time>
   </trkpt>
   <trkpt lat="46.1876220703125" lon="7.00969696044922">
    <ele>590.960021972656</ele>
    <time>2012-03-09T10:52:04Z</time>
   </trkpt>
   <trkpt lat="46.1876335144043" lon="7.00970458984375">
    <ele>591.200012207031</ele>
    <time>2012-03-09T10:52:05Z</time>
   </trkpt>
   <trkpt lat="46.1876487731934" lon="7.00970554351807">
    <ele>591.200012207031</ele>
    <time>2012-03-09T10:52:06Z</time>
   </trkpt>
   <trkpt lat="46.1877098083496" lon="7.00969886779785">
    <ele>592.25</ele>
    <time>2012-03-09T10:52:10Z</time>
   </trkpt>
   <trkpt lat="46.1877288818359" lon="7.00969648361206">
    <ele>592.512512207031</ele>
    <time>2012-03-09T10:52:11Z</time>
   </trkpt>
   <trkpt lat="46.187744140625" lon="7.00969219207764">
    <ele>592.775024414062</ele>
    <time>2012-03-09T10:52:12Z</time>
   </trkpt>
   <trkpt lat="46.1877593994141" lon="7.00968742370606">
    <ele>593.037536621094</ele>
    <time>2012-03-09T10:52:13Z</time>
   </trkpt>
   <trkpt lat="46.1877822875977" lon="7.00967979431152">
    <ele>593.300048828125</ele>
    <time>2012-03-09T10:52:14Z</time>
   </trkpt>
   <trkpt lat="46.1878623962402" lon="7.00964450836182">
    <ele>594.350036621094</ele>
    <time>2012-03-09T10:52:18Z</time>
   </trkpt>
   <trkpt lat="46.1878814697266" lon="7.00963401794434">
    <ele>594.612548828125</ele>
    <time>2012-03-09T10:52:19Z</time>
   </trkpt>
   <trkpt lat="46.1878967285156" lon="7.00962686538696">
    <ele>594.875</ele>
    <time>2012-03-09T10:52:20Z</time>
   </trkpt>
   <trkpt lat="46.187915802002" lon="7.00961828231812">
    <ele>595.137512207031</ele>
    <time>2012-03-09T10:52:21Z</time>
   </trkpt>
   <trkpt lat="46.1879348754883" lon="7.00960779190064">
    <ele>595.400024414062</ele>
    <time>2012-03-09T10:52:22Z</time>
   </trkpt>
   <trkpt lat="46.1879653930664" lon="7.00958442687988">
    <ele>595.400024414062</ele>
    <time>2012-03-09T10:52:24Z</time>
   </trkpt>
   <trkpt lat="46.1880264282227" lon="7.0095477104187">
    <ele>596.224975585938</ele>
    <time>2012-03-09T10:52:27Z</time>
   </trkpt>
   <trkpt lat="46.188045501709" lon="7.00953722000122">
    <ele>596.5</ele>
    <time>2012-03-09T10:52:28Z</time>
   </trkpt>
   <trkpt lat="46.1880683898926" lon="7.0095272064209">
    <ele>596.775024414062</ele>
    <time>2012-03-09T10:52:29Z</time>
   </trkpt>
   <trkpt lat="46.1880912780762" lon="7.00951862335205">
    <ele>597.049987792969</ele>
    <time>2012-03-09T10:52:30Z</time>
   </trkpt>
   <trkpt lat="46.1881103515625" lon="7.00950765609741">
    <ele>597.324951171875</ele>
    <time>2012-03-09T10:52:31Z</time>
   </trkpt>
   <trkpt lat="46.1881256103516" lon="7.00950288772583">
    <ele>597.599975585938</ele>
    <time>2012-03-09T10:52:32Z</time>
   </trkpt>
   <trkpt lat="46.1881408691406" lon="7.00949859619141">
    <ele>597.599975585938</ele>
    <time>2012-03-09T10:52:33Z</time>
   </trkpt>
   <trkpt lat="46.1881523132324" lon="7.0095009803772">
    <ele>597.885681152344</ele>
    <time>2012-03-09T10:52:34Z</time>
   </trkpt>
   <trkpt lat="46.188175201416" lon="7.00949382781982">
    <ele>598.457092285156</ele>
    <time>2012-03-09T10:52:36Z</time>
   </trkpt>
   <trkpt lat="46.1881904602051" lon="7.00948143005371">
    <ele>598.742858886719</ele>
    <time>2012-03-09T10:52:37Z</time>
   </trkpt>
   <trkpt lat="46.1882095336914" lon="7.00946807861328">
    <ele>599.028564453125</ele>
    <time>2012-03-09T10:52:38Z</time>
   </trkpt>
   <trkpt lat="46.1882247924805" lon="7.00945520401001">
    <ele>599.314270019531</ele>
    <time>2012-03-09T10:52:39Z</time>
   </trkpt>
   <trkpt lat="46.1882438659668" lon="7.00944375991821">
    <ele>599.599975585938</ele>
    <time>2012-03-09T10:52:40Z</time>
   </trkpt>
   <trkpt lat="46.1883087158203" lon="7.00936508178711">
    <ele>599.599975585938</ele>
    <time>2012-03-09T10:52:44Z</time>
   </trkpt>
   <trkpt lat="46.1883239746094" lon="7.00934314727783">
    <ele>600.039978027344</ele>
    <time>2012-03-09T10:52:45Z</time>
   </trkpt>
   <trkpt lat="46.1883354187012" lon="7.0093240737915">
    <ele>600.47998046875</ele>
    <time>2012-03-09T10:52:46Z</time>
   </trkpt>
   <trkpt lat="46.1883506774902" lon="7.00929975509644">
    <ele>600.919982910156</ele>
    <time>2012-03-09T10:52:47Z</time>
   </trkpt>
   <trkpt lat="46.188362121582" lon="7.00927972793579">
    <ele>601.359985351562</ele>
    <time>2012-03-09T10:52:48Z</time>
   </trkpt>
   <trkpt lat="46.1883697509766" lon="7.0092568397522">
    <ele>601.799987792969</ele>
    <time>2012-03-09T10:52:49Z</time>
   </trkpt>
   <trkpt lat="46.1883888244629" lon="7.00920248031616">
    <ele>601.799987792969</ele>
    <time>2012-03-09T10:52:51Z</time>
   </trkpt>
   <trkpt lat="46.188404083252" lon="7.00910663604736">
    <ele>602.900024414062</ele>
    <time>2012-03-09T10:52:55Z</time>
   </trkpt>
   <trkpt lat="46.1884078979492" lon="7.00908374786377">
    <ele>603.174987792969</ele>
    <time>2012-03-09T10:52:56Z</time>
   </trkpt>
   <trkpt lat="46.1884155273438" lon="7.00905227661133">
    <ele>603.450012207031</ele>
    <time>2012-03-09T10:52:57Z</time>
   </trkpt>
   <trkpt lat="46.188419342041" lon="7.00902032852173">
    <ele>603.724975585938</ele>
    <time>2012-03-09T10:52:58Z</time>
   </trkpt>
   <trkpt lat="46.1884155273438" lon="7.00898933410644">
    <ele>604</ele>
    <time>2012-03-09T10:52:59Z</time>
   </trkpt>
   <trkpt lat="46.188419342041" lon="7.00891733169556">
    <ele>604</ele>
    <time>2012-03-09T10:53:01Z</time>
   </trkpt>
   <trkpt lat="46.1884155273438" lon="7.00881147384644">
    <ele>605.142883300781</ele>
    <time>2012-03-09T10:53:05Z</time>
   </trkpt>
   <trkpt lat="46.1884155273438" lon="7.00878715515137">
    <ele>605.428588867188</ele>
    <time>2012-03-09T10:53:06Z</time>
   </trkpt>
   <trkpt lat="46.1884117126465" lon="7.00876140594482">
    <ele>605.714294433594</ele>
    <time>2012-03-09T10:53:07Z</time>
   </trkpt>
   <trkpt lat="46.1884155273438" lon="7.00873279571533">
    <ele>606</ele>
    <time>2012-03-09T10:53:08Z</time>
   </trkpt>
   <trkpt lat="46.1884269714356" lon="7.00864458084106">
    <ele>606</ele>
    <time>2012-03-09T10:53:11Z</time>
   </trkpt>
   <trkpt lat="46.1884460449219" lon="7.00858640670776">
    <ele>606.733337402344</ele>
    <time>2012-03-09T10:53:13Z</time>
   </trkpt>
   <trkpt lat="46.1884460449219" lon="7.00856494903564">
    <ele>607.099975585938</ele>
    <time>2012-03-09T10:53:14Z</time>
   </trkpt>
   <trkpt lat="46.1884422302246" lon="7.00854444503784">
    <ele>607.466674804688</ele>
    <time>2012-03-09T10:53:15Z</time>
   </trkpt>
   <trkpt lat="46.1884422302246" lon="7.00851202011108">
    <ele>607.833374023438</ele>
    <time>2012-03-09T10:53:16Z</time>
   </trkpt>
   <trkpt lat="46.1884422302246" lon="7.00848531723022">
    <ele>608.200012207031</ele>
    <time>2012-03-09T10:53:17Z</time>
   </trkpt>
   <trkpt lat="46.1884613037109" lon="7.008376121521">
    <ele>608.200012207031</ele>
    <time>2012-03-09T10:53:21Z</time>
   </trkpt>
   <trkpt lat="46.1884727478027" lon="7.00834798812866">
    <ele>608.566650390625</ele>
    <time>2012-03-09T10:53:22Z</time>
   </trkpt>
   <trkpt lat="46.1884803771973" lon="7.00831079483032">
    <ele>608.933349609375</ele>
    <time>2012-03-09T10:53:23Z</time>
   </trkpt>
   <trkpt lat="46.1884880065918" lon="7.00827693939209">
    <ele>609.300048828125</ele>
    <time>2012-03-09T10:53:24Z</time>
   </trkpt>
   <trkpt lat="46.1884994506836" lon="7.00824785232544">
    <ele>609.666687011719</ele>
    <time>2012-03-09T10:53:25Z</time>
   </trkpt>
   <trkpt lat="46.1885108947754" lon="7.00821352005005">
    <ele>610.033325195312</ele>
    <time>2012-03-09T10:53:26Z</time>
   </trkpt>
   <trkpt lat="46.1885223388672" lon="7.00818681716919">
    <ele>610.400024414062</ele>
    <time>2012-03-09T10:53:27Z</time>
   </trkpt>
   <trkpt lat="46.188533782959" lon="7.00815534591675">
    <ele>610.400024414062</ele>
    <time>2012-03-09T10:53:28Z</time>
   </trkpt>
   <trkpt lat="46.1885643005371" lon="7.00807523727417">
    <ele>611.342834472656</ele>
    <time>2012-03-09T10:53:31Z</time>
   </trkpt>
   <trkpt lat="46.1885795593262" lon="7.008056640625">
    <ele>611.657165527344</ele>
    <time>2012-03-09T10:53:32Z</time>
   </trkpt>
   <trkpt lat="46.1885948181152" lon="7.00803995132446">
    <ele>611.971435546875</ele>
    <time>2012-03-09T10:53:33Z</time>
   </trkpt>
   <trkpt lat="46.188606262207" lon="7.00801849365234">
    <ele>612.285705566406</ele>
    <time>2012-03-09T10:53:34Z</time>
   </trkpt>
   <trkpt lat="46.1886177062988" lon="7.00800323486328">
    <ele>612.599975585938</ele>
    <time>2012-03-09T10:53:35Z</time>
   </trkpt>
   <trkpt lat="46.1886596679688" lon="7.00796604156494">
    <ele>612.599975585938</ele>
    <time>2012-03-09T10:53:38Z</time>
   </trkpt>
   <trkpt lat="46.1886901855469" lon="7.00794076919556">
    <ele>613.116638183594</ele>
    <time>2012-03-09T10:53:40Z</time>
   </trkpt>
   <trkpt lat="46.1887054443359" lon="7.00792455673218">
    <ele>613.375</ele>
    <time>2012-03-09T10:53:41Z</time>
   </trkpt>
   <trkpt lat="46.188720703125" lon="7.00790643692017">
    <ele>613.63330078125</ele>
    <time>2012-03-09T10:53:42Z</time>
   </trkpt>
   <trkpt lat="46.1887397766113" lon="7.00788354873657">
    <ele>613.891662597656</ele>
    <time>2012-03-09T10:53:43Z</time>
   </trkpt>
   <trkpt lat="46.1887550354004" lon="7.0078592300415">
    <ele>614.149963378906</ele>
    <time>2012-03-09T10:53:44Z</time>
   </trkpt>
   <trkpt lat="46.1888160705566" lon="7.00772094726562">
    <ele>615.441650390625</ele>
    <time>2012-03-09T10:53:49Z</time>
   </trkpt>
   <trkpt lat="46.1888198852539" lon="7.00768947601318">
    <ele>615.699951171875</ele>
    <time>2012-03-09T10:53:50Z</time>
   </trkpt>
   <trkpt lat="46.1888236999512" lon="7.00765943527222">
    <ele>615.958312988281</ele>
    <time>2012-03-09T10:53:51Z</time>
   </trkpt>
   <trkpt lat="46.1888275146484" lon="7.00762796401978">
    <ele>616.216674804688</ele>
    <time>2012-03-09T10:53:52Z</time>
   </trkpt>
   <trkpt lat="46.1888313293457" lon="7.00760078430176">
    <ele>616.474975585938</ele>
    <time>2012-03-09T10:53:53Z</time>
   </trkpt>
   <trkpt lat="46.1888236999512" lon="7.00745677947998">
    <ele>617.766662597656</ele>
    <time>2012-03-09T10:53:58Z</time>
   </trkpt>
   <trkpt lat="46.1888160705566" lon="7.00742959976196">
    <ele>618.024963378906</ele>
    <time>2012-03-09T10:53:59Z</time>
   </trkpt>
   <trkpt lat="46.1888046264648" lon="7.00740337371826">
    <ele>618.283325195312</ele>
    <time>2012-03-09T10:54:00Z</time>
   </trkpt>
   <trkpt lat="46.1887893676758" lon="7.00738334655762">
    <ele>618.541625976562</ele>
    <time>2012-03-09T10:54:01Z</time>
   </trkpt>
   <trkpt lat="46.188777923584" lon="7.00736093521118">
    <ele>618.799987792969</ele>
    <time>2012-03-09T10:54:02Z</time>
   </trkpt>
   <trkpt lat="46.1887512207031" lon="7.00731515884399">
    <ele>618.799987792969</ele>
    <time>2012-03-09T10:54:04Z</time>
   </trkpt>
   <trkpt lat="46.1887016296387" lon="7.00726985931396">
    <ele>619.657104492188</ele>
    <time>2012-03-09T10:54:07Z</time>
   </trkpt>
   <trkpt lat="46.1886825561523" lon="7.00725936889648">
    <ele>619.94287109375</ele>
    <time>2012-03-09T10:54:08Z</time>
   </trkpt>
   <trkpt lat="46.1886672973633" lon="7.00724935531616">
    <ele>620.228576660156</ele>
    <time>2012-03-09T10:54:09Z</time>
   </trkpt>
   <trkpt lat="46.1886520385742" lon="7.00723505020142">
    <ele>620.514282226562</ele>
    <time>2012-03-09T10:54:10Z</time>
   </trkpt>
   <trkpt lat="46.1886405944824" lon="7.0072169303894">
    <ele>620.799987792969</ele>
    <time>2012-03-09T10:54:11Z</time>
   </trkpt>
   <trkpt lat="46.1885681152344" lon="7.00715732574463">
    <ele>620.799987792969</ele>
    <time>2012-03-09T10:54:15Z</time>
   </trkpt>
   <trkpt lat="46.1885108947754" lon="7.00711393356323">
    <ele>621.900024414062</ele>
    <time>2012-03-09T10:54:18Z</time>
   </trkpt>
   <trkpt lat="46.1884880065918" lon="7.00710439682007">
    <ele>622.266662597656</ele>
    <time>2012-03-09T10:54:19Z</time>
   </trkpt>
   <trkpt lat="46.1884727478027" lon="7.00709247589111">
    <ele>622.63330078125</ele>
    <time>2012-03-09T10:54:20Z</time>
   </trkpt>
   <trkpt lat="46.1884574890137" lon="7.00707721710205">
    <ele>623</ele>
    <time>2012-03-09T10:54:21Z</time>
   </trkpt>
   <trkpt lat="46.1884117126465" lon="7.00702953338623">
    <ele>623</ele>
    <time>2012-03-09T10:54:24Z</time>
   </trkpt>
   <trkpt lat="46.1883964538574" lon="7.00701427459717">
    <ele>623.400024414062</ele>
    <time>2012-03-09T10:54:25Z</time>
   </trkpt>
   <trkpt lat="46.1883811950684" lon="7.00699996948242">
    <ele>623.799987792969</ele>
    <time>2012-03-09T10:54:26Z</time>
   </trkpt>
   <trkpt lat="46.1883659362793" lon="7.00698518753052">
    <ele>624.200012207031</ele>
    <time>2012-03-09T10:54:27Z</time>
   </trkpt>
   <trkpt lat="46.1883544921875" lon="7.00696659088135">
    <ele>624.599975585938</ele>
    <time>2012-03-09T10:54:28Z</time>
   </trkpt>
   <trkpt lat="46.188346862793" lon="7.00694704055786">
    <ele>625</ele>
    <time>2012-03-09T10:54:29Z</time>
   </trkpt>
   <trkpt lat="46.1882972717285" lon="7.00690507888794">
    <ele>625</ele>
    <time>2012-03-09T10:54:32Z</time>
   </trkpt>
   <trkpt lat="46.1882591247559" lon="7.00685596466064">
    <ele>625.857116699219</ele>
    <time>2012-03-09T10:54:35Z</time>
   </trkpt>
   <trkpt lat="46.1882514953613" lon="7.00683307647705">
    <ele>626.142883300781</ele>
    <time>2012-03-09T10:54:36Z</time>
   </trkpt>
   <trkpt lat="46.1882400512695" lon="7.00681161880493">
    <ele>626.428588867188</ele>
    <time>2012-03-09T10:54:37Z</time>
   </trkpt>
   <trkpt lat="46.188232421875" lon="7.0067868232727">
    <ele>626.714294433594</ele>
    <time>2012-03-09T10:54:38Z</time>
   </trkpt>
   <trkpt lat="46.1882247924805" lon="7.0067629814148">
    <ele>627</ele>
    <time>2012-03-09T10:54:39Z</time>
   </trkpt>
   <trkpt lat="46.1882133483887" lon="7.0066614151001">
    <ele>627</ele>
    <time>2012-03-09T10:54:43Z</time>
   </trkpt>
   <trkpt lat="46.1882133483887" lon="7.00663614273071">
    <ele>627.549987792969</ele>
    <time>2012-03-09T10:54:44Z</time>
   </trkpt>
   <trkpt lat="46.1882095336914" lon="7.00660991668701">
    <ele>628.099975585938</ele>
    <time>2012-03-09T10:54:45Z</time>
   </trkpt>
   <trkpt lat="46.1882057189941" lon="7.00658321380615">
    <ele>628.650024414062</ele>
    <time>2012-03-09T10:54:46Z</time>
   </trkpt>
   <trkpt lat="46.1882019042969" lon="7.00655555725098">
    <ele>629.200012207031</ele>
    <time>2012-03-09T10:54:47Z</time>
   </trkpt>
   <trkpt lat="46.1881980895996" lon="7.00652885437012">
    <ele>629.200012207031</ele>
    <time>2012-03-09T10:54:48Z</time>
   </trkpt>
   <trkpt lat="46.1881866455078" lon="7.00650453567505">
    <ele>629.450012207031</ele>
    <time>2012-03-09T10:54:49Z</time>
   </trkpt>
   <trkpt lat="46.1881484985352" lon="7.00643491744995">
    <ele>630.200012207031</ele>
    <time>2012-03-09T10:54:52Z</time>
   </trkpt>
   <trkpt lat="46.1881332397461" lon="7.00641393661499">
    <ele>630.450012207031</ele>
    <time>2012-03-09T10:54:53Z</time>
   </trkpt>
   <trkpt lat="46.188117980957" lon="7.00639486312866">
    <ele>630.700012207031</ele>
    <time>2012-03-09T10:54:54Z</time>
   </trkpt>
   <trkpt lat="46.188102722168" lon="7.00637912750244">
    <ele>630.950012207031</ele>
    <time>2012-03-09T10:54:55Z</time>
   </trkpt>
   <trkpt lat="46.1880912780762" lon="7.00636053085327">
    <ele>631.200012207031</ele>
    <time>2012-03-09T10:54:56Z</time>
   </trkpt>
   <trkpt lat="46.1880493164062" lon="7.00629568099976">
    <ele>631.200012207031</ele>
    <time>2012-03-09T10:54:59Z</time>
   </trkpt>
   <trkpt lat="46.1879997253418" lon="7.00617027282715">
    <ele>632.512512207031</ele>
    <time>2012-03-09T10:55:04Z</time>
   </trkpt>
   <trkpt lat="46.1879997253418" lon="7.00613451004028">
    <ele>632.775024414062</ele>
    <time>2012-03-09T10:55:05Z</time>
   </trkpt>
   <trkpt lat="46.1879997253418" lon="7.00610208511352">
    <ele>633.037536621094</ele>
    <time>2012-03-09T10:55:06Z</time>
   </trkpt>
   <trkpt lat="46.1880073547363" lon="7.00606870651245">
    <ele>633.300048828125</ele>
    <time>2012-03-09T10:55:07Z</time>
   </trkpt>
   <trkpt lat="46.1880111694336" lon="7.00603199005127">
    <ele>633.5625</ele>
    <time>2012-03-09T10:55:08Z</time>
   </trkpt>
   <trkpt lat="46.1880378723144" lon="7.005934715271">
    <ele>634.350036621094</ele>
    <time>2012-03-09T10:55:11Z</time>
   </trkpt>
   <trkpt lat="46.1880493164062" lon="7.00591039657593">
    <ele>634.612548828125</ele>
    <time>2012-03-09T10:55:12Z</time>
   </trkpt>
   <trkpt lat="46.188060760498" lon="7.0058856010437">
    <ele>634.875</ele>
    <time>2012-03-09T10:55:13Z</time>
   </trkpt>
   <trkpt lat="46.1880722045898" lon="7.00585985183716">
    <ele>635.137512207031</ele>
    <time>2012-03-09T10:55:14Z</time>
   </trkpt>
   <trkpt lat="46.1880836486816" lon="7.00583219528198">
    <ele>635.400024414062</ele>
    <time>2012-03-09T10:55:15Z</time>
   </trkpt>
   <trkpt lat="46.1881065368652" lon="7.00576972961426">
    <ele>635.400024414062</ele>
    <time>2012-03-09T10:55:17Z</time>
   </trkpt>
   <trkpt lat="46.188117980957" lon="7.0056619644165">
    <ele>635.950012207031</ele>
    <time>2012-03-09T10:55:20Z</time>
   </trkpt>
   <trkpt lat="46.1880798339844" lon="7.00560474395752">
    <ele>636.316650390625</ele>
    <time>2012-03-09T10:55:22Z</time>
   </trkpt>
   <trkpt lat="46.1879959106445" lon="7.00557994842529">
    <ele>636.866638183594</ele>
    <time>2012-03-09T10:55:25Z</time>
   </trkpt>
   <trkpt lat="46.1879730224609" lon="7.00558757781982">
    <ele>637.049987792969</ele>
    <time>2012-03-09T10:55:26Z</time>
   </trkpt>
   <trkpt lat="46.1879539489746" lon="7.0055980682373">
    <ele>637.233337402344</ele>
    <time>2012-03-09T10:55:27Z</time>
   </trkpt>
   <trkpt lat="46.1879386901856" lon="7.00561475753784">
    <ele>637.416625976562</ele>
    <time>2012-03-09T10:55:28Z</time>
   </trkpt>
   <trkpt lat="46.1879234313965" lon="7.00563335418701">
    <ele>637.599975585938</ele>
    <time>2012-03-09T10:55:29Z</time>
   </trkpt>
   <trkpt lat="46.1878929138184" lon="7.0056734085083">
    <ele>637.599975585938</ele>
    <time>2012-03-09T10:55:31Z</time>
   </trkpt>
   <trkpt lat="46.1878509521484" lon="7.00572729110718">
    <ele>638.457092285156</ele>
    <time>2012-03-09T10:55:34Z</time>
   </trkpt>
   <trkpt lat="46.1878433227539" lon="7.00573873519898">
    <ele>638.742858886719</ele>
    <time>2012-03-09T10:55:35Z</time>
   </trkpt>
   <trkpt lat="46.1878395080566" lon="7.00575304031372">
    <ele>639.028564453125</ele>
    <time>2012-03-09T10:55:36Z</time>
   </trkpt>
   <trkpt lat="46.1878318786621" lon="7.00577354431152">
    <ele>639.314270019531</ele>
    <time>2012-03-09T10:55:37Z</time>
   </trkpt>
   <trkpt lat="46.1878204345703" lon="7.00579595565796">
    <ele>639.599975585938</ele>
    <time>2012-03-09T10:55:38Z</time>
   </trkpt>
   <trkpt lat="46.1877937316894" lon="7.00584030151367">
    <ele>639.599975585938</ele>
    <time>2012-03-09T10:55:41Z</time>
   </trkpt>
   <trkpt lat="46.1877632141113" lon="7.00588274002075">
    <ele>640.159973144531</ele>
    <time>2012-03-09T10:55:43Z</time>
   </trkpt>
   <trkpt lat="46.1877517700195" lon="7.0059003829956">
    <ele>640.440002441406</ele>
    <time>2012-03-09T10:55:44Z</time>
   </trkpt>
   <trkpt lat="46.1877326965332" lon="7.00591659545898">
    <ele>640.719970703125</ele>
    <time>2012-03-09T10:55:45Z</time>
   </trkpt>
   <trkpt lat="46.1877136230469" lon="7.0059404373169">
    <ele>641</ele>
    <time>2012-03-09T10:55:46Z</time>
   </trkpt>
   <trkpt lat="46.1876983642578" lon="7.00596332550049">
    <ele>641.279968261719</ele>
    <time>2012-03-09T10:55:47Z</time>
   </trkpt>
   <trkpt lat="46.1876258850098" lon="7.00611400604248">
    <ele>642.679992675781</ele>
    <time>2012-03-09T10:55:52Z</time>
   </trkpt>
   <trkpt lat="46.1876106262207" lon="7.00614547729492">
    <ele>642.9599609375</ele>
    <time>2012-03-09T10:55:53Z</time>
   </trkpt>
   <trkpt lat="46.1875991821289" lon="7.00617218017578">
    <ele>643.239990234375</ele>
    <time>2012-03-09T10:55:54Z</time>
   </trkpt>
   <trkpt lat="46.1875915527344" lon="7.00619888305664">
    <ele>643.519958496094</ele>
    <time>2012-03-09T10:55:55Z</time>
   </trkpt>
   <trkpt lat="46.1875801086426" lon="7.00622797012329">
    <ele>643.799987792969</ele>
    <time>2012-03-09T10:55:56Z</time>
   </trkpt>
   <trkpt lat="46.1875686645508" lon="7.00631856918335">
    <ele>643.799987792969</ele>
    <time>2012-03-09T10:55:59Z</time>
   </trkpt>
   <trkpt lat="46.1875610351562" lon="7.00638914108276">
    <ele>644.742858886719</ele>
    <time>2012-03-09T10:56:02Z</time>
   </trkpt>
   <trkpt lat="46.1875610351562" lon="7.00641202926636">
    <ele>645.05712890625</ele>
    <time>2012-03-09T10:56:03Z</time>
   </trkpt>
   <trkpt lat="46.1875610351562" lon="7.00643873214722">
    <ele>645.371398925781</ele>
    <time>2012-03-09T10:56:04Z</time>
   </trkpt>
   <trkpt lat="46.1875610351562" lon="7.00646448135376">
    <ele>645.685729980469</ele>
    <time>2012-03-09T10:56:05Z</time>
   </trkpt>
   <trkpt lat="46.1875686645508" lon="7.00648927688599">
    <ele>646</ele>
    <time>2012-03-09T10:56:06Z</time>
   </trkpt>
   <trkpt lat="46.1875877380371" lon="7.00662422180176">
    <ele>646</ele>
    <time>2012-03-09T10:56:11Z</time>
   </trkpt>
   <trkpt lat="46.1875877380371" lon="7.00665092468262">
    <ele>646.323059082031</ele>
    <time>2012-03-09T10:56:12Z</time>
   </trkpt>
   <trkpt lat="46.1875877380371" lon="7.00668001174927">
    <ele>646.646179199219</ele>
    <time>2012-03-09T10:56:13Z</time>
   </trkpt>
   <trkpt lat="46.1876029968262" lon="7.00670433044434">
    <ele>646.96923828125</ele>
    <time>2012-03-09T10:56:14Z</time>
   </trkpt>
   <trkpt lat="46.1876068115234" lon="7.00673484802246">
    <ele>647.292297363281</ele>
    <time>2012-03-09T10:56:15Z</time>
   </trkpt>
   <trkpt lat="46.1876068115234" lon="7.00676727294922">
    <ele>647.615417480469</ele>
    <time>2012-03-09T10:56:16Z</time>
   </trkpt>
   <trkpt lat="46.1876258850098" lon="7.00690841674805">
    <ele>649.230773925781</ele>
    <time>2012-03-09T10:56:21Z</time>
   </trkpt>
   <trkpt lat="46.187629699707" lon="7.00693368911743">
    <ele>649.553833007812</ele>
    <time>2012-03-09T10:56:22Z</time>
   </trkpt>
   <trkpt lat="46.1876335144043" lon="7.00696229934692">
    <ele>649.876953125</ele>
    <time>2012-03-09T10:56:23Z</time>
   </trkpt>
   <trkpt lat="46.1876373291016" lon="7.00699329376221">
    <ele>650.200012207031</ele>
    <time>2012-03-09T10:56:24Z</time>
   </trkpt>
   <trkpt lat="46.1876411437988" lon="7.00708150863648">
    <ele>650.200012207031</ele>
    <time>2012-03-09T10:56:27Z</time>
   </trkpt>
   <trkpt lat="46.187629699707" lon="7.0072021484375">
    <ele>651.300048828125</ele>
    <time>2012-03-09T10:56:31Z</time>
   </trkpt>
   <trkpt lat="46.1876373291016" lon="7.00723314285278">
    <ele>651.575012207031</ele>
    <time>2012-03-09T10:56:32Z</time>
   </trkpt>
   <trkpt lat="46.1876373291016" lon="7.00726270675659">
    <ele>651.850036621094</ele>
    <time>2012-03-09T10:56:33Z</time>
   </trkpt>
   <trkpt lat="46.187629699707" lon="7.00729370117188">
    <ele>652.125</ele>
    <time>2012-03-09T10:56:34Z</time>
   </trkpt>
   <trkpt lat="46.1876258850098" lon="7.00732660293579">
    <ele>652.400024414062</ele>
    <time>2012-03-09T10:56:35Z</time>
   </trkpt>
   <trkpt lat="46.1876182556152" lon="7.00735425949097">
    <ele>652.400024414062</ele>
    <time>2012-03-09T10:56:36Z</time>
   </trkpt>
   <trkpt lat="46.187572479248" lon="7.00741577148438">
    <ele>653.342834472656</ele>
    <time>2012-03-09T10:56:39Z</time>
   </trkpt>
   <trkpt lat="46.187557220459" lon="7.00742959976196">
    <ele>653.657165527344</ele>
    <time>2012-03-09T10:56:40Z</time>
   </trkpt>
   <trkpt lat="46.1875457763672" lon="7.00743818283081">
    <ele>653.971435546875</ele>
    <time>2012-03-09T10:56:41Z</time>
   </trkpt>
   <trkpt lat="46.1875343322754" lon="7.00743961334228">
    <ele>654.285705566406</ele>
    <time>2012-03-09T10:56:42Z</time>
   </trkpt>
   <trkpt lat="46.1875190734863" lon="7.00744104385376">
    <ele>654.599975585938</ele>
    <time>2012-03-09T10:56:43Z</time>
   </trkpt>
   <trkpt lat="46.1874885559082" lon="7.00744724273682">
    <ele>654.599975585938</ele>
    <time>2012-03-09T10:56:46Z</time>
   </trkpt>
   <trkpt lat="46.1874656677246" lon="7.00744295120239">
    <ele>655.47998046875</ele>
    <time>2012-03-09T10:56:48Z</time>
   </trkpt>
   <trkpt lat="46.187442779541" lon="7.00743532180786">
    <ele>655.919982910156</ele>
    <time>2012-03-09T10:56:49Z</time>
   </trkpt>
   <trkpt lat="46.1874237060547" lon="7.00742769241333">
    <ele>656.359985351562</ele>
    <time>2012-03-09T10:56:50Z</time>
   </trkpt>
   <trkpt lat="46.1874084472656" lon="7.00741958618164">
    <ele>656.799987792969</ele>
    <time>2012-03-09T10:56:51Z</time>
   </trkpt>
   <trkpt lat="46.1873512268066" lon="7.00739240646362">
    <ele>656.799987792969</ele>
    <time>2012-03-09T10:56:54Z</time>
   </trkpt>
   <trkpt lat="46.187313079834" lon="7.00735759735107">
    <ele>657.359985351562</ele>
    <time>2012-03-09T10:56:56Z</time>
   </trkpt>
   <trkpt lat="46.1872978210449" lon="7.0073447227478">
    <ele>657.640014648438</ele>
    <time>2012-03-09T10:56:57Z</time>
   </trkpt>
   <trkpt lat="46.1872787475586" lon="7.00732851028442">
    <ele>657.919982910156</ele>
    <time>2012-03-09T10:56:58Z</time>
   </trkpt>
   <trkpt lat="46.1872596740723" lon="7.00731229782104">
    <ele>658.200012207031</ele>
    <time>2012-03-09T10:56:59Z</time>
   </trkpt>
   <trkpt lat="46.1872406005859" lon="7.0072922706604">
    <ele>658.47998046875</ele>
    <time>2012-03-09T10:57:00Z</time>
   </trkpt>
   <trkpt lat="46.1871566772461" lon="7.00720024108887">
    <ele>659.880004882812</ele>
    <time>2012-03-09T10:57:05Z</time>
   </trkpt>
   <trkpt lat="46.1871376037598" lon="7.00718307495117">
    <ele>660.159973144531</ele>
    <time>2012-03-09T10:57:06Z</time>
   </trkpt>
   <trkpt lat="46.1871109008789" lon="7.00716686248779">
    <ele>660.440002441406</ele>
    <time>2012-03-09T10:57:07Z</time>
   </trkpt>
   <trkpt lat="46.1870918273926" lon="7.00715065002441">
    <ele>660.719970703125</ele>
    <time>2012-03-09T10:57:08Z</time>
   </trkpt>
   <trkpt lat="46.1870727539062" lon="7.00713300704956">
    <ele>661</ele>
    <time>2012-03-09T10:57:09Z</time>
   </trkpt>
   <trkpt lat="46.1870422363281" lon="7.00710391998291">
    <ele>661</ele>
    <time>2012-03-09T10:57:11Z</time>
   </trkpt>
   <trkpt lat="46.18701171875" lon="7.00707244873047">
    <ele>661.559997558594</ele>
    <time>2012-03-09T10:57:13Z</time>
   </trkpt>
   <trkpt lat="46.1869964599609" lon="7.00705766677856">
    <ele>661.840026855469</ele>
    <time>2012-03-09T10:57:14Z</time>
   </trkpt>
   <trkpt lat="46.1869812011719" lon="7.00704050064087">
    <ele>662.119995117188</ele>
    <time>2012-03-09T10:57:15Z</time>
   </trkpt>
   <trkpt lat="46.1869659423828" lon="7.00702667236328">
    <ele>662.400024414062</ele>
    <time>2012-03-09T10:57:16Z</time>
   </trkpt>
   <trkpt lat="46.1869468688965" lon="7.0070161819458">
    <ele>662.679992675781</ele>
    <time>2012-03-09T10:57:17Z</time>
   </trkpt>
   <trkpt lat="46.1868705749512" lon="7.00695133209228">
    <ele>664.080017089844</ele>
    <time>2012-03-09T10:57:22Z</time>
   </trkpt>
   <trkpt lat="46.1868591308594" lon="7.00693941116333">
    <ele>664.359985351562</ele>
    <time>2012-03-09T10:57:23Z</time>
   </trkpt>
   <trkpt lat="46.1868438720703" lon="7.00692272186279">
    <ele>664.640014648438</ele>
    <time>2012-03-09T10:57:24Z</time>
   </trkpt>
   <trkpt lat="46.1868362426758" lon="7.00691032409668">
    <ele>664.919982910156</ele>
    <time>2012-03-09T10:57:25Z</time>
   </trkpt>
   <trkpt lat="46.1868209838867" lon="7.00689697265625">
    <ele>665.200012207031</ele>
    <time>2012-03-09T10:57:26Z</time>
   </trkpt>
   <trkpt lat="46.1867752075195" lon="7.00688123703003">
    <ele>665.200012207031</ele>
    <time>2012-03-09T10:57:28Z</time>
   </trkpt>
   <trkpt lat="46.1867027282715" lon="7.00688076019287">
    <ele>666.142883300781</ele>
    <time>2012-03-09T10:57:31Z</time>
   </trkpt>
   <trkpt lat="46.1866798400879" lon="7.00688362121582">
    <ele>666.457153320312</ele>
    <time>2012-03-09T10:57:32Z</time>
   </trkpt>
   <trkpt lat="46.1866607666016" lon="7.00689029693604">
    <ele>666.771423339844</ele>
    <time>2012-03-09T10:57:33Z</time>
   </trkpt>
   <trkpt lat="46.1866416931152" lon="7.00690031051636">
    <ele>667.085754394531</ele>
    <time>2012-03-09T10:57:34Z</time>
   </trkpt>
   <trkpt lat="46.1866188049316" lon="7.00690698623657">
    <ele>667.400024414062</ele>
    <time>2012-03-09T10:57:35Z</time>
   </trkpt>
   <trkpt lat="46.1865768432617" lon="7.00691366195679">
    <ele>667.400024414062</ele>
    <time>2012-03-09T10:57:37Z</time>
   </trkpt>
   <trkpt lat="46.1865386962891" lon="7.00691843032837">
    <ele>668.066711425781</ele>
    <time>2012-03-09T10:57:39Z</time>
   </trkpt>
   <trkpt lat="46.1865158081055" lon="7.00692987442017">
    <ele>668.400024414062</ele>
    <time>2012-03-09T10:57:40Z</time>
   </trkpt>
   <trkpt lat="46.1864929199219" lon="7.00693988800049">
    <ele>668.733337402344</ele>
    <time>2012-03-09T10:57:41Z</time>
   </trkpt>
   <trkpt lat="46.1864776611328" lon="7.00693941116333">
    <ele>669.066711425781</ele>
    <time>2012-03-09T10:57:42Z</time>
   </trkpt>
   <trkpt lat="46.1864585876465" lon="7.00694036483765">
    <ele>669.400024414062</ele>
    <time>2012-03-09T10:57:43Z</time>
   </trkpt>
   <trkpt lat="46.1864433288574" lon="7.00693988800049">
    <ele>669.400024414062</ele>
    <time>2012-03-09T10:57:44Z</time>
   </trkpt>
   <trkpt lat="46.1863899230957" lon="7.00695037841797">
    <ele>670.280029296875</ele>
    <time>2012-03-09T10:57:48Z</time>
   </trkpt>
   <trkpt lat="46.1863555908203" lon="7.00696086883545">
    <ele>670.719970703125</ele>
    <time>2012-03-09T10:57:50Z</time>
   </trkpt>
   <trkpt lat="46.1863327026367" lon="7.00695848464966">
    <ele>670.940002441406</ele>
    <time>2012-03-09T10:57:51Z</time>
   </trkpt>
   <trkpt lat="46.1863098144531" lon="7.00695943832398">
    <ele>671.159973144531</ele>
    <time>2012-03-09T10:57:52Z</time>
   </trkpt>
   <trkpt lat="46.186279296875" lon="7.0069785118103">
    <ele>671.380004882812</ele>
    <time>2012-03-09T10:57:53Z</time>
   </trkpt>
   <trkpt lat="46.1862449645996" lon="7.00699234008789">
    <ele>671.599975585938</ele>
    <time>2012-03-09T10:57:54Z</time>
   </trkpt>
   <trkpt lat="46.1861915588379" lon="7.00701713562012">
    <ele>671.599975585938</ele>
    <time>2012-03-09T10:57:56Z</time>
   </trkpt>
   <trkpt lat="46.1861381530762" lon="7.00701427459717">
    <ele>672.228576660156</ele>
    <time>2012-03-09T10:57:58Z</time>
   </trkpt>
   <trkpt lat="46.1860961914062" lon="7.00699615478516">
    <ele>672.857116699219</ele>
    <time>2012-03-09T10:58:00Z</time>
   </trkpt>
   <trkpt lat="46.1860694885254" lon="7.00698661804199">
    <ele>673.17138671875</ele>
    <time>2012-03-09T10:58:01Z</time>
   </trkpt>
   <trkpt lat="46.1860466003418" lon="7.0069751739502">
    <ele>673.485717773438</ele>
    <time>2012-03-09T10:58:02Z</time>
   </trkpt>
   <trkpt lat="46.1860237121582" lon="7.00695705413818">
    <ele>673.799987792969</ele>
    <time>2012-03-09T10:58:03Z</time>
   </trkpt>
   <trkpt lat="46.1859664916992" lon="7.00688076019287">
    <ele>673.799987792969</ele>
    <time>2012-03-09T10:58:07Z</time>
   </trkpt>
   <trkpt lat="46.1859512329102" lon="7.00686025619507">
    <ele>674.200012207031</ele>
    <time>2012-03-09T10:58:08Z</time>
   </trkpt>
   <trkpt lat="46.1859397888184" lon="7.00684118270874">
    <ele>674.599975585938</ele>
    <time>2012-03-09T10:58:09Z</time>
   </trkpt>
   <trkpt lat="46.185920715332" lon="7.0068187713623">
    <ele>675</ele>
    <time>2012-03-09T10:58:10Z</time>
   </trkpt>
   <trkpt lat="46.1859016418457" lon="7.00680017471314">
    <ele>675.399963378906</ele>
    <time>2012-03-09T10:58:11Z</time>
   </trkpt>
   <trkpt lat="46.1858825683594" lon="7.00678253173828">
    <ele>675.799987792969</ele>
    <time>2012-03-09T10:58:12Z</time>
   </trkpt>
   <trkpt lat="46.1858367919922" lon="7.00675439834595">
    <ele>675.799987792969</ele>
    <time>2012-03-09T10:58:14Z</time>
   </trkpt>
   <trkpt lat="46.1857757568359" lon="7.00673055648804">
    <ele>676.742858886719</ele>
    <time>2012-03-09T10:58:17Z</time>
   </trkpt>
   <trkpt lat="46.1857566833496" lon="7.00672101974487">
    <ele>677.05712890625</ele>
    <time>2012-03-09T10:58:18Z</time>
   </trkpt>
   <trkpt lat="46.1857376098633" lon="7.00671911239624">
    <ele>677.371398925781</ele>
    <time>2012-03-09T10:58:19Z</time>
   </trkpt>
   <trkpt lat="46.185718536377" lon="7.00671195983887">
    <ele>677.685729980469</ele>
    <time>2012-03-09T10:58:20Z</time>
   </trkpt>
   <trkpt lat="46.1856956481934" lon="7.00671052932739">
    <ele>678</ele>
    <time>2012-03-09T10:58:21Z</time>
   </trkpt>
   <trkpt lat="46.1855926513672" lon="7.00670862197876">
    <ele>678</ele>
    <time>2012-03-09T10:58:26Z</time>
   </trkpt>
   <trkpt lat="46.1855812072754" lon="7.00670003890991">
    <ele>678.440002441406</ele>
    <time>2012-03-09T10:58:27Z</time>
   </trkpt>
   <trkpt lat="46.1855621337891" lon="7.00669384002686">
    <ele>678.880004882812</ele>
    <time>2012-03-09T10:58:28Z</time>
   </trkpt>
   <trkpt lat="46.185546875" lon="7.00668859481812">
    <ele>679.320007324219</ele>
    <time>2012-03-09T10:58:29Z</time>
   </trkpt>
   <trkpt lat="46.1855316162109" lon="7.00668287277222">
    <ele>679.760009765625</ele>
    <time>2012-03-09T10:58:30Z</time>
   </trkpt>
   <trkpt lat="46.1855087280273" lon="7.00668334960938">
    <ele>680.200012207031</ele>
    <time>2012-03-09T10:58:31Z</time>
   </trkpt>
   <trkpt lat="46.185489654541" lon="7.00668859481812">
    <ele>680.200012207031</ele>
    <time>2012-03-09T10:58:32Z</time>
   </trkpt>
   <trkpt lat="46.185474395752" lon="7.0066876411438">
    <ele>680.447082519531</ele>
    <time>2012-03-09T10:58:33Z</time>
   </trkpt>
   <trkpt lat="46.1854286193848" lon="7.00667715072632">
    <ele>681.188232421875</ele>
    <time>2012-03-09T10:58:36Z</time>
   </trkpt>
   <trkpt lat="46.1854133605957" lon="7.0066704750061">
    <ele>681.435302734375</ele>
    <time>2012-03-09T10:58:37Z</time>
   </trkpt>
   <trkpt lat="46.1853981018066" lon="7.00666809082031">
    <ele>681.682373046875</ele>
    <time>2012-03-09T10:58:38Z</time>
   </trkpt>
   <trkpt lat="46.1853828430176" lon="7.00666618347168">
    <ele>681.929443359375</ele>
    <time>2012-03-09T10:58:39Z</time>
   </trkpt>
   <trkpt lat="46.1853637695312" lon="7.0066647529602">
    <ele>682.176513671875</ele>
    <time>2012-03-09T10:58:40Z</time>
   </trkpt>
   <trkpt lat="46.1852912902832" lon="7.00664758682251">
    <ele>683.411804199219</ele>
    <time>2012-03-09T10:58:45Z</time>
   </trkpt>
   <trkpt lat="46.1852607727051" lon="7.00664949417114">
    <ele>683.658874511719</ele>
    <time>2012-03-09T10:58:46Z</time>
   </trkpt>
   <trkpt lat="46.1852378845215" lon="7.00664710998535">
    <ele>683.905883789062</ele>
    <time>2012-03-09T10:58:47Z</time>
   </trkpt>
   <trkpt lat="46.1852264404297" lon="7.00664234161377">
    <ele>684.152954101562</ele>
    <time>2012-03-09T10:58:48Z</time>
   </trkpt>
   <trkpt lat="46.1852188110352" lon="7.00662899017334">
    <ele>684.400024414062</ele>
    <time>2012-03-09T10:58:49Z</time>
   </trkpt>
   <trkpt lat="46.1852111816406" lon="7.00662183761597">
    <ele>684.400024414062</ele>
    <time>2012-03-09T10:58:50Z</time>
   </trkpt>
   <trkpt lat="46.1851234436035" lon="7.00656938552856">
    <ele>685.622192382812</ele>
    <time>2012-03-09T10:58:55Z</time>
   </trkpt>
   <trkpt lat="46.1851005554199" lon="7.00655031204224">
    <ele>685.866638183594</ele>
    <time>2012-03-09T10:58:56Z</time>
   </trkpt>
   <trkpt lat="46.1850929260254" lon="7.00652503967285">
    <ele>686.111083984375</ele>
    <time>2012-03-09T10:58:57Z</time>
   </trkpt>
   <trkpt lat="46.1850852966309" lon="7.00650119781494">
    <ele>686.355529785156</ele>
    <time>2012-03-09T10:58:58Z</time>
   </trkpt>
   <trkpt lat="46.1850700378418" lon="7.00647592544556">
    <ele>686.599975585938</ele>
    <time>2012-03-09T10:58:59Z</time>
   </trkpt>
   <trkpt lat="46.18505859375" lon="7.00645065307617">
    <ele>686.599975585938</ele>
    <time>2012-03-09T10:59:00Z</time>
   </trkpt>
   <trkpt lat="46.1850318908691" lon="7.00638055801392">
    <ele>687.266662597656</ele>
    <time>2012-03-09T10:59:03Z</time>
   </trkpt>
   <trkpt lat="46.1850128173828" lon="7.00634908676148">
    <ele>687.711059570312</ele>
    <time>2012-03-09T10:59:05Z</time>
   </trkpt>
   <trkpt lat="46.185001373291" lon="7.00633001327515">
    <ele>687.933288574219</ele>
    <time>2012-03-09T10:59:06Z</time>
   </trkpt>
   <trkpt lat="46.1849708557129" lon="7.00633239746094">
    <ele>688.155517578125</ele>
    <time>2012-03-09T10:59:07Z</time>
   </trkpt>
   <trkpt lat="46.1849517822266" lon="7.00631904602051">
    <ele>688.377746582031</ele>
    <time>2012-03-09T10:59:08Z</time>
   </trkpt>
   <trkpt lat="46.1849327087402" lon="7.00630044937134">
    <ele>688.599975585938</ele>
    <time>2012-03-09T10:59:09Z</time>
   </trkpt>
   <trkpt lat="46.1849136352539" lon="7.00627708435059">
    <ele>688.599975585938</ele>
    <time>2012-03-09T10:59:10Z</time>
   </trkpt>
   <trkpt lat="46.1848564147949" lon="7.00619411468506">
    <ele>689.857116699219</ele>
    <time>2012-03-09T10:59:14Z</time>
   </trkpt>
   <trkpt lat="46.1848411560059" lon="7.00616836547852">
    <ele>690.17138671875</ele>
    <time>2012-03-09T10:59:15Z</time>
   </trkpt>
   <trkpt lat="46.1848297119141" lon="7.00614404678345">
    <ele>690.485717773438</ele>
    <time>2012-03-09T10:59:16Z</time>
   </trkpt>
   <trkpt lat="46.1848182678223" lon="7.00612163543701">
    <ele>690.799987792969</ele>
    <time>2012-03-09T10:59:17Z</time>
   </trkpt>
   <trkpt lat="46.1847915649414" lon="7.0060658454895">
    <ele>690.799987792969</ele>
    <time>2012-03-09T10:59:20Z</time>
   </trkpt>
   <trkpt lat="46.1847839355469" lon="7.00605392456055">
    <ele>691.13330078125</ele>
    <time>2012-03-09T10:59:21Z</time>
   </trkpt>
   <trkpt lat="46.1847686767578" lon="7.00604581832886">
    <ele>691.466674804688</ele>
    <time>2012-03-09T10:59:22Z</time>
   </trkpt>
   <trkpt lat="46.1847610473633" lon="7.00603485107422">
    <ele>691.799987792969</ele>
    <time>2012-03-09T10:59:23Z</time>
   </trkpt>
   <trkpt lat="46.1847534179688" lon="7.006019115448">
    <ele>692.13330078125</ele>
    <time>2012-03-09T10:59:24Z</time>
   </trkpt>
   <trkpt lat="46.1847457885742" lon="7.00600862503052">
    <ele>692.466674804688</ele>
    <time>2012-03-09T10:59:25Z</time>
   </trkpt>
   <trkpt lat="46.1847343444824" lon="7.00600099563599">
    <ele>692.799987792969</ele>
    <time>2012-03-09T10:59:26Z</time>
   </trkpt>
   <trkpt lat="46.1847152709961" lon="7.00598573684692">
    <ele>692.799987792969</ele>
    <time>2012-03-09T10:59:28Z</time>
   </trkpt>
   <trkpt lat="46.1846923828125" lon="7.00595712661743">
    <ele>693.428588867188</ele>
    <time>2012-03-09T10:59:30Z</time>
   </trkpt>
   <trkpt lat="46.1846771240234" lon="7.00594139099121">
    <ele>693.742858886719</ele>
    <time>2012-03-09T10:59:31Z</time>
   </trkpt>
   <trkpt lat="46.1846656799316" lon="7.00593090057373">
    <ele>694.05712890625</ele>
    <time>2012-03-09T10:59:32Z</time>
   </trkpt>
   <trkpt lat="46.1846618652344" lon="7.00592422485352">
    <ele>694.371398925781</ele>
    <time>2012-03-09T10:59:33Z</time>
   </trkpt>
   <trkpt lat="46.1846580505371" lon="7.00591373443604">
    <ele>694.685729980469</ele>
    <time>2012-03-09T10:59:34Z</time>
   </trkpt>
   <trkpt lat="46.1846542358398" lon="7.00590658187866">
    <ele>695</ele>
    <time>2012-03-09T10:59:35Z</time>
   </trkpt>
   <trkpt lat="46.1845970153809" lon="7.00588703155518">
    <ele>695</ele>
    <time>2012-03-09T10:59:38Z</time>
   </trkpt>
   <trkpt lat="46.1845626831055" lon="7.00588369369507">
    <ele>695.400024414062</ele>
    <time>2012-03-09T10:59:39Z</time>
   </trkpt>
   <trkpt lat="46.1845436096191" lon="7.00587701797485">
    <ele>695.799987792969</ele>
    <time>2012-03-09T10:59:40Z</time>
   </trkpt>
   <trkpt lat="46.1845321655273" lon="7.00586986541748">
    <ele>696.200012207031</ele>
    <time>2012-03-09T10:59:41Z</time>
   </trkpt>
   <trkpt lat="46.1845169067383" lon="7.00585460662842">
    <ele>696.600036621094</ele>
    <time>2012-03-09T10:59:42Z</time>
   </trkpt>
   <trkpt lat="46.1845054626465" lon="7.00584411621094">
    <ele>697</ele>
    <time>2012-03-09T10:59:43Z</time>
   </trkpt>
   <trkpt lat="46.1844940185547" lon="7.00583600997925">
    <ele>697.400024414062</ele>
    <time>2012-03-09T10:59:44Z</time>
   </trkpt>
   <trkpt lat="46.1844711303711" lon="7.0058126449585">
    <ele>697.400024414062</ele>
    <time>2012-03-09T10:59:47Z</time>
   </trkpt>
   <trkpt lat="46.184455871582" lon="7.00580453872681">
    <ele>698.133361816406</ele>
    <time>2012-03-09T10:59:49Z</time>
   </trkpt>
   <trkpt lat="46.1844444274902" lon="7.00580215454102">
    <ele>698.5</ele>
    <time>2012-03-09T10:59:50Z</time>
   </trkpt>
   <trkpt lat="46.1844291687012" lon="7.00579643249512">
    <ele>698.866638183594</ele>
    <time>2012-03-09T10:59:51Z</time>
   </trkpt>
   <trkpt lat="46.1844100952148" lon="7.00579309463501">
    <ele>699.233337402344</ele>
    <time>2012-03-09T10:59:52Z</time>
   </trkpt>
   <trkpt lat="46.1843948364258" lon="7.00578165054321">
    <ele>699.599975585938</ele>
    <time>2012-03-09T10:59:53Z</time>
   </trkpt>
   <trkpt lat="46.1843528747559" lon="7.0057578086853">
    <ele>699.599975585938</ele>
    <time>2012-03-09T10:59:55Z</time>
   </trkpt>
   <trkpt lat="46.1842842102051" lon="7.00571632385254">
    <ele>700.457092285156</ele>
    <time>2012-03-09T10:59:58Z</time>
   </trkpt>
   <trkpt lat="46.1842575073242" lon="7.00570917129517">
    <ele>700.742858886719</ele>
    <time>2012-03-09T10:59:59Z</time>
   </trkpt>
   <trkpt lat="46.1842308044434" lon="7.00570249557495">
    <ele>701.028564453125</ele>
    <time>2012-03-09T11:00:00Z</time>
   </trkpt>
   <trkpt lat="46.1842079162598" lon="7.00569534301758">
    <ele>701.314270019531</ele>
    <time>2012-03-09T11:00:01Z</time>
   </trkpt>
   <trkpt lat="46.1841850280762" lon="7.0056881904602">
    <ele>701.599975585938</ele>
    <time>2012-03-09T11:00:02Z</time>
   </trkpt>
   <trkpt lat="46.1841316223144" lon="7.00566816329956">
    <ele>701.599975585938</ele>
    <time>2012-03-09T11:00:05Z</time>
   </trkpt>
   <trkpt lat="46.1841278076172" lon="7.00566244125366">
    <ele>701.942810058594</ele>
    <time>2012-03-09T11:00:06Z</time>
   </trkpt>
   <trkpt lat="46.1840934753418" lon="7.00565481185913">
    <ele>702.628540039062</ele>
    <time>2012-03-09T11:00:08Z</time>
   </trkpt>
   <trkpt lat="46.1840744018555" lon="7.0056562423706">
    <ele>702.971435546875</ele>
    <time>2012-03-09T11:00:09Z</time>
   </trkpt>
   <trkpt lat="46.1840591430664" lon="7.00565958023071">
    <ele>703.314270019531</ele>
    <time>2012-03-09T11:00:10Z</time>
   </trkpt>
   <trkpt lat="46.1840362548828" lon="7.00566530227661">
    <ele>703.657165527344</ele>
    <time>2012-03-09T11:00:11Z</time>
   </trkpt>
   <trkpt lat="46.1840133666992" lon="7.00566577911377">
    <ele>704</ele>
    <time>2012-03-09T11:00:12Z</time>
   </trkpt>
   <trkpt lat="46.1839294433594" lon="7.00568723678589">
    <ele>704</ele>
    <time>2012-03-09T11:00:16Z</time>
   </trkpt>
   <trkpt lat="46.1838798522949" lon="7.00569009780884">
    <ele>704.666687011719</ele>
    <time>2012-03-09T11:00:18Z</time>
   </trkpt>
   <trkpt lat="46.1838645935059" lon="7.00569534301758">
    <ele>705</ele>
    <time>2012-03-09T11:00:19Z</time>
   </trkpt>
   <trkpt lat="46.1838455200195" lon="7.00570344924927">
    <ele>705.333312988281</ele>
    <time>2012-03-09T11:00:20Z</time>
   </trkpt>
   <trkpt lat="46.1838264465332" lon="7.00571203231812">
    <ele>705.666687011719</ele>
    <time>2012-03-09T11:00:21Z</time>
   </trkpt>
   <trkpt lat="46.1838035583496" lon="7.00572443008423">
    <ele>706</ele>
    <time>2012-03-09T11:00:22Z</time>
   </trkpt>
   <trkpt lat="46.1837692260742" lon="7.0057487487793">
    <ele>706</ele>
    <time>2012-03-09T11:00:24Z</time>
   </trkpt>
   <trkpt lat="46.1837501525879" lon="7.00575113296509">
    <ele>706.314270019531</ele>
    <time>2012-03-09T11:00:25Z</time>
   </trkpt>
   <trkpt lat="46.1836891174316" lon="7.00578212738037">
    <ele>707.257141113281</ele>
    <time>2012-03-09T11:00:28Z</time>
   </trkpt>
   <trkpt lat="46.1836700439453" lon="7.00579404830933">
    <ele>707.571411132812</ele>
    <time>2012-03-09T11:00:29Z</time>
   </trkpt>
   <trkpt lat="46.183650970459" lon="7.00580549240112">
    <ele>707.8857421875</ele>
    <time>2012-03-09T11:00:30Z</time>
   </trkpt>
   <trkpt lat="46.1836357116699" lon="7.00581550598144">
    <ele>708.200012207031</ele>
    <time>2012-03-09T11:00:31Z</time>
   </trkpt>
   <trkpt lat="46.1836166381836" lon="7.00581884384155">
    <ele>708.200012207031</ele>
    <time>2012-03-09T11:00:32Z</time>
   </trkpt>
   <trkpt lat="46.18359375" lon="7.00583171844482">
    <ele>708.700012207031</ele>
    <time>2012-03-09T11:00:34Z</time>
   </trkpt>
   <trkpt lat="46.1835632324219" lon="7.00583600997925">
    <ele>709.200012207031</ele>
    <time>2012-03-09T11:00:36Z</time>
   </trkpt>
   <trkpt lat="46.1835441589356" lon="7.00584030151367">
    <ele>709.450012207031</ele>
    <time>2012-03-09T11:00:37Z</time>
   </trkpt>
   <trkpt lat="46.1835289001465" lon="7.00584936141968">
    <ele>709.700012207031</ele>
    <time>2012-03-09T11:00:38Z</time>
   </trkpt>
   <trkpt lat="46.1835060119629" lon="7.00584745407104">
    <ele>709.950012207031</ele>
    <time>2012-03-09T11:00:39Z</time>
   </trkpt>
   <trkpt lat="46.183479309082" lon="7.00585412979126">
    <ele>710.200012207031</ele>
    <time>2012-03-09T11:00:40Z</time>
   </trkpt>
   <trkpt lat="46.1833724975586" lon="7.00586271286011">
    <ele>710.200012207031</ele>
    <time>2012-03-09T11:00:45Z</time>
   </trkpt>
   <trkpt lat="46.183349609375" lon="7.00586652755737">
    <ele>710.640014648438</ele>
    <time>2012-03-09T11:00:46Z</time>
   </trkpt>
   <trkpt lat="46.1833267211914" lon="7.00586986541748">
    <ele>711.080017089844</ele>
    <time>2012-03-09T11:00:47Z</time>
   </trkpt>
   <trkpt lat="46.1833000183106" lon="7.00587320327759">
    <ele>711.52001953125</ele>
    <time>2012-03-09T11:00:48Z</time>
   </trkpt>
   <trkpt lat="46.1832809448242" lon="7.00587844848633">
    <ele>711.960021972656</ele>
    <time>2012-03-09T11:00:49Z</time>
   </trkpt>
   <trkpt lat="46.1832656860352" lon="7.00587844848633">
    <ele>712.400024414062</ele>
    <time>2012-03-09T11:00:50Z</time>
   </trkpt>
   <trkpt lat="46.1832427978516" lon="7.00587892532349">
    <ele>712.400024414062</ele>
    <time>2012-03-09T11:00:51Z</time>
   </trkpt>
   <trkpt lat="46.183162689209" lon="7.0058798789978">
    <ele>713.400024414062</ele>
    <time>2012-03-09T11:00:55Z</time>
   </trkpt>
   <trkpt lat="46.1831398010254" lon="7.00588083267212">
    <ele>713.650024414062</ele>
    <time>2012-03-09T11:00:56Z</time>
   </trkpt>
   <trkpt lat="46.1831169128418" lon="7.00588321685791">
    <ele>713.900024414062</ele>
    <time>2012-03-09T11:00:57Z</time>
   </trkpt>
   <trkpt lat="46.1830978393555" lon="7.00588226318359">
    <ele>714.150024414062</ele>
    <time>2012-03-09T11:00:58Z</time>
   </trkpt>
   <trkpt lat="46.1830749511719" lon="7.00589084625244">
    <ele>714.400024414062</ele>
    <time>2012-03-09T11:00:59Z</time>
   </trkpt>
   <trkpt lat="46.1829872131348" lon="7.0059232711792">
    <ele>714.400024414062</ele>
    <time>2012-03-09T11:01:03Z</time>
   </trkpt>
   <trkpt lat="46.1829452514648" lon="7.00592708587646">
    <ele>714.917663574219</ele>
    <time>2012-03-09T11:01:05Z</time>
   </trkpt>
   <trkpt lat="46.1829261779785" lon="7.00592613220215">
    <ele>715.176513671875</ele>
    <time>2012-03-09T11:01:06Z</time>
   </trkpt>
   <trkpt lat="46.1829071044922" lon="7.00592613220215">
    <ele>715.435302734375</ele>
    <time>2012-03-09T11:01:07Z</time>
   </trkpt>
   <trkpt lat="46.1828880310059" lon="7.00592803955078">
    <ele>715.694152832031</ele>
    <time>2012-03-09T11:01:08Z</time>
   </trkpt>
   <trkpt lat="46.1828651428223" lon="7.00593042373657">
    <ele>715.952941894531</ele>
    <time>2012-03-09T11:01:09Z</time>
   </trkpt>
   <trkpt lat="46.1827087402344" lon="7.00595426559448">
    <ele>717.764709472656</ele>
    <time>2012-03-09T11:01:16Z</time>
   </trkpt>
   <trkpt lat="46.1826858520508" lon="7.00595235824585">
    <ele>718.023498535156</ele>
    <time>2012-03-09T11:01:17Z</time>
   </trkpt>
   <trkpt lat="46.1826629638672" lon="7.00594806671143">
    <ele>718.282348632812</ele>
    <time>2012-03-09T11:01:18Z</time>
   </trkpt>
   <trkpt lat="46.1826438903809" lon="7.00594758987427">
    <ele>718.541137695312</ele>
    <time>2012-03-09T11:01:19Z</time>
   </trkpt>
   <trkpt lat="46.1826286315918" lon="7.0059404373169">
    <ele>718.799987792969</ele>
    <time>2012-03-09T11:01:20Z</time>
   </trkpt>
   <trkpt lat="46.1825904846191" lon="7.00592803955078">
    <ele>718.799987792969</ele>
    <time>2012-03-09T11:01:22Z</time>
   </trkpt>
   <trkpt lat="46.1825523376465" lon="7.00590181350708">
    <ele>719.466674804688</ele>
    <time>2012-03-09T11:01:24Z</time>
   </trkpt>
   <trkpt lat="46.1825370788574" lon="7.00588464736938">
    <ele>719.799987792969</ele>
    <time>2012-03-09T11:01:25Z</time>
   </trkpt>
   <trkpt lat="46.1825180053711" lon="7.00586986541748">
    <ele>720.13330078125</ele>
    <time>2012-03-09T11:01:26Z</time>
   </trkpt>
   <trkpt lat="46.1824989318848" lon="7.00585269927978">
    <ele>720.466674804688</ele>
    <time>2012-03-09T11:01:27Z</time>
   </trkpt>
   <trkpt lat="46.1824913024902" lon="7.00583028793335">
    <ele>720.799987792969</ele>
    <time>2012-03-09T11:01:28Z</time>
   </trkpt>
   <trkpt lat="46.1824760437012" lon="7.00577592849732">
    <ele>720.799987792969</ele>
    <time>2012-03-09T11:01:30Z</time>
   </trkpt>
   <trkpt lat="46.1824645996094" lon="7.00572299957275">
    <ele>721.466674804688</ele>
    <time>2012-03-09T11:01:32Z</time>
   </trkpt>
   <trkpt lat="46.1823768615723" lon="7.00579166412354">
    <ele>721.799987792969</ele>
    <time>2012-03-09T11:01:33Z</time>
   </trkpt>
   <trkpt lat="46.1823616027832" lon="7.00579071044922">
    <ele>722.13330078125</ele>
    <time>2012-03-09T11:01:34Z</time>
   </trkpt>
   <trkpt lat="46.1823501586914" lon="7.00577735900879">
    <ele>722.466674804688</ele>
    <time>2012-03-09T11:01:35Z</time>
   </trkpt>
   <trkpt lat="46.1823425292969" lon="7.00576162338257">
    <ele>722.799987792969</ele>
    <time>2012-03-09T11:01:36Z</time>
   </trkpt>
   <trkpt lat="46.1823577880859" lon="7.00567770004272">
    <ele>722.799987792969</ele>
    <time>2012-03-09T11:01:40Z</time>
   </trkpt>
   <trkpt lat="46.1823768615723" lon="7.00563812255859">
    <ele>723.679992675781</ele>
    <time>2012-03-09T11:01:42Z</time>
   </trkpt>
   <trkpt lat="46.1823844909668" lon="7.00561761856079">
    <ele>724.119995117188</ele>
    <time>2012-03-09T11:01:43Z</time>
   </trkpt>
   <trkpt lat="46.1823959350586" lon="7.00559520721436">
    <ele>724.559997558594</ele>
    <time>2012-03-09T11:01:44Z</time>
   </trkpt>
   <trkpt lat="46.1823997497559" lon="7.00558137893677">
    <ele>725</ele>
    <time>2012-03-09T11:01:45Z</time>
   </trkpt>
   <trkpt lat="46.1824150085449" lon="7.00556182861328">
    <ele>725</ele>
    <time>2012-03-09T11:01:46Z</time>
   </trkpt>
   <trkpt lat="46.1824607849121" lon="7.00545406341553">
    <ele>726.222229003906</ele>
    <time>2012-03-09T11:01:51Z</time>
   </trkpt>
   <trkpt lat="46.1824684143066" lon="7.00543594360352">
    <ele>726.466674804688</ele>
    <time>2012-03-09T11:01:52Z</time>
   </trkpt>
   <trkpt lat="46.1824760437012" lon="7.0054202079773">
    <ele>726.711120605469</ele>
    <time>2012-03-09T11:01:53Z</time>
   </trkpt>
   <trkpt lat="46.1824798583984" lon="7.00540399551392">
    <ele>726.95556640625</ele>
    <time>2012-03-09T11:01:54Z</time>
   </trkpt>
   <trkpt lat="46.1824951171875" lon="7.00538682937622">
    <ele>727.200012207031</ele>
    <time>2012-03-09T11:01:55Z</time>
   </trkpt>
   <trkpt lat="46.1825065612793" lon="7.00536394119263">
    <ele>727.200012207031</ele>
    <time>2012-03-09T11:01:56Z</time>
   </trkpt>
   <trkpt lat="46.1825523376465" lon="7.00525331497192">
    <ele>728.300048828125</ele>
    <time>2012-03-09T11:02:01Z</time>
   </trkpt>
   <trkpt lat="46.182559967041" lon="7.00523138046265">
    <ele>728.52001953125</ele>
    <time>2012-03-09T11:02:02Z</time>
   </trkpt>
   <trkpt lat="46.1825714111328" lon="7.00521326065064">
    <ele>728.739990234375</ele>
    <time>2012-03-09T11:02:03Z</time>
   </trkpt>
   <trkpt lat="46.1825828552246" lon="7.0051908493042">
    <ele>728.960021972656</ele>
    <time>2012-03-09T11:02:04Z</time>
   </trkpt>
   <trkpt lat="46.1825942993164" lon="7.00516605377197">
    <ele>729.180053710938</ele>
    <time>2012-03-09T11:02:05Z</time>
   </trkpt>
   <trkpt lat="46.1826019287109" lon="7.00514554977417">
    <ele>729.400024414062</ele>
    <time>2012-03-09T11:02:06Z</time>
   </trkpt>
   <trkpt lat="46.1826133728027" lon="7.00513076782226">
    <ele>729.400024414062</ele>
    <time>2012-03-09T11:02:07Z</time>
   </trkpt>
   <trkpt lat="46.1826248168945" lon="7.0051121711731">
    <ele>729.662536621094</ele>
    <time>2012-03-09T11:02:08Z</time>
   </trkpt>
   <trkpt lat="46.1826591491699" lon="7.00503873825073">
    <ele>730.450012207031</ele>
    <time>2012-03-09T11:02:11Z</time>
   </trkpt>
   <trkpt lat="46.1826705932617" lon="7.00501728057861">
    <ele>730.712524414062</ele>
    <time>2012-03-09T11:02:12Z</time>
   </trkpt>
   <trkpt lat="46.1826782226562" lon="7.00500583648682">
    <ele>730.974975585938</ele>
    <time>2012-03-09T11:02:13Z</time>
   </trkpt>
   <trkpt lat="46.1826858520508" lon="7.00498819351196">
    <ele>731.237487792969</ele>
    <time>2012-03-09T11:02:14Z</time>
   </trkpt>
   <trkpt lat="46.182689666748" lon="7.00497579574585">
    <ele>731.5</ele>
    <time>2012-03-09T11:02:15Z</time>
   </trkpt>
   <trkpt lat="46.1827125549316" lon="7.00493574142456">
    <ele>732.549987792969</ele>
    <time>2012-03-09T11:02:19Z</time>
   </trkpt>
   <trkpt lat="46.1827201843262" lon="7.0049295425415">
    <ele>732.8125</ele>
    <time>2012-03-09T11:02:20Z</time>
   </trkpt>
   <trkpt lat="46.1827278137207" lon="7.00491952896118">
    <ele>733.074951171875</ele>
    <time>2012-03-09T11:02:21Z</time>
   </trkpt>
   <trkpt lat="46.1827430725098" lon="7.00491380691528">
    <ele>733.337463378906</ele>
    <time>2012-03-09T11:02:22Z</time>
   </trkpt>
   <trkpt lat="46.1827583312988" lon="7.00491237640381">
    <ele>733.599975585938</ele>
    <time>2012-03-09T11:02:23Z</time>
   </trkpt>
   <trkpt lat="46.182788848877" lon="7.00489473342896">
    <ele>733.599975585938</ele>
    <time>2012-03-09T11:02:25Z</time>
   </trkpt>
   <trkpt lat="46.182861328125" lon="7.0048623085022">
    <ele>734.699951171875</ele>
    <time>2012-03-09T11:02:29Z</time>
   </trkpt>
   <trkpt lat="46.1828765869141" lon="7.0048565864563">
    <ele>734.974975585938</ele>
    <time>2012-03-09T11:02:30Z</time>
   </trkpt>
   <trkpt lat="46.1828842163086" lon="7.00485134124756">
    <ele>735.25</ele>
    <time>2012-03-09T11:02:31Z</time>
   </trkpt>
   <trkpt lat="46.1828956604004" lon="7.00484848022461">
    <ele>735.524963378906</ele>
    <time>2012-03-09T11:02:32Z</time>
   </trkpt>
   <trkpt lat="46.1829109191894" lon="7.00483751296997">
    <ele>735.799987792969</ele>
    <time>2012-03-09T11:02:33Z</time>
   </trkpt>
   <trkpt lat="46.1830024719238" lon="7.00482416152954">
    <ele>735.799987792969</ele>
    <time>2012-03-09T11:02:37Z</time>
   </trkpt>
   <trkpt lat="46.1830291748047" lon="7.00482702255249">
    <ele>736.239990234375</ele>
    <time>2012-03-09T11:02:38Z</time>
   </trkpt>
   <trkpt lat="46.183048248291" lon="7.00481271743774">
    <ele>736.679992675781</ele>
    <time>2012-03-09T11:02:39Z</time>
   </trkpt>
   <trkpt lat="46.1830711364746" lon="7.00482082366943">
    <ele>737.119995117188</ele>
    <time>2012-03-09T11:02:40Z</time>
   </trkpt>
   <trkpt lat="46.1830940246582" lon="7.00482702255249">
    <ele>737.559997558594</ele>
    <time>2012-03-09T11:02:41Z</time>
   </trkpt>
   <trkpt lat="46.1831207275391" lon="7.00484561920166">
    <ele>738</ele>
    <time>2012-03-09T11:02:42Z</time>
   </trkpt>
   <trkpt lat="46.1831970214844" lon="7.00482225418091">
    <ele>738</ele>
    <time>2012-03-09T11:02:45Z</time>
   </trkpt>
   <trkpt lat="46.1832504272461" lon="7.00471591949463">
    <ele>738.857116699219</ele>
    <time>2012-03-09T11:02:48Z</time>
   </trkpt>
   <trkpt lat="46.1832618713379" lon="7.00468301773071">
    <ele>739.142883300781</ele>
    <time>2012-03-09T11:02:49Z</time>
   </trkpt>
   <trkpt lat="46.1832580566406" lon="7.00464963912964">
    <ele>739.428588867188</ele>
    <time>2012-03-09T11:02:50Z</time>
   </trkpt>
   <trkpt lat="46.1832504272461" lon="7.00462818145752">
    <ele>739.714294433594</ele>
    <time>2012-03-09T11:02:51Z</time>
   </trkpt>
   <trkpt lat="46.183235168457" lon="7.00460624694824">
    <ele>740</ele>
    <time>2012-03-09T11:02:52Z</time>
   </trkpt>
   <trkpt lat="46.1831932067871" lon="7.00458765029907">
    <ele>740</ele>
    <time>2012-03-09T11:02:54Z</time>
   </trkpt>
   <trkpt lat="46.1831741333008" lon="7.00458383560181">
    <ele>740.210510253906</ele>
    <time>2012-03-09T11:02:55Z</time>
   </trkpt>
   <trkpt lat="46.1830902099609" lon="7.00454711914062">
    <ele>741.26318359375</ele>
    <time>2012-03-09T11:03:00Z</time>
   </trkpt>
   <trkpt lat="46.1830863952637" lon="7.00454187393188">
    <ele>741.473693847656</ele>
    <time>2012-03-09T11:03:01Z</time>
   </trkpt>
   <trkpt lat="46.1830787658691" lon="7.00453042984009">
    <ele>741.684204101562</ele>
    <time>2012-03-09T11:03:02Z</time>
   </trkpt>
   <trkpt lat="46.1830635070801" lon="7.00452566146851">
    <ele>741.894714355469</ele>
    <time>2012-03-09T11:03:03Z</time>
   </trkpt>
   <trkpt lat="46.1830520629883" lon="7.00451993942261">
    <ele>742.105285644531</ele>
    <time>2012-03-09T11:03:04Z</time>
   </trkpt>
   <trkpt lat="46.1830444335938" lon="7.00451850891113">
    <ele>742.315795898438</ele>
    <time>2012-03-09T11:03:05Z</time>
   </trkpt>
   <trkpt lat="46.1830139160156" lon="7.00447988510132">
    <ele>743.157897949219</ele>
    <time>2012-03-09T11:03:09Z</time>
   </trkpt>
   <trkpt lat="46.1829986572266" lon="7.00447368621826">
    <ele>743.368408203125</ele>
    <time>2012-03-09T11:03:10Z</time>
   </trkpt>
   <trkpt lat="46.1829833984375" lon="7.00446462631226">
    <ele>743.578918457031</ele>
    <time>2012-03-09T11:03:11Z</time>
   </trkpt>
   <trkpt lat="46.1829681396484" lon="7.00445890426636">
    <ele>743.789489746094</ele>
    <time>2012-03-09T11:03:12Z</time>
   </trkpt>
   <trkpt lat="46.1829528808594" lon="7.00445699691772">
    <ele>744</ele>
    <time>2012-03-09T11:03:13Z</time>
   </trkpt>
   <trkpt lat="46.182933807373" lon="7.00445508956909">
    <ele>744</ele>
    <time>2012-03-09T11:03:14Z</time>
   </trkpt>
   <trkpt lat="46.1828994750977" lon="7.00444602966309">
    <ele>744.440002441406</ele>
    <time>2012-03-09T11:03:16Z</time>
   </trkpt>
   <trkpt lat="46.1828460693359" lon="7.00443029403686">
    <ele>745.099975585938</ele>
    <time>2012-03-09T11:03:19Z</time>
   </trkpt>
   <trkpt lat="46.1828422546387" lon="7.00442600250244">
    <ele>745.320007324219</ele>
    <time>2012-03-09T11:03:20Z</time>
   </trkpt>
   <trkpt lat="46.1828308105469" lon="7.00442028045654">
    <ele>745.5400390625</ele>
    <time>2012-03-09T11:03:21Z</time>
   </trkpt>
   <trkpt lat="46.1828231811523" lon="7.0044150352478">
    <ele>745.760009765625</ele>
    <time>2012-03-09T11:03:22Z</time>
   </trkpt>
   <trkpt lat="46.1828155517578" lon="7.00441026687622">
    <ele>745.97998046875</ele>
    <time>2012-03-09T11:03:23Z</time>
   </trkpt>
   <trkpt lat="46.182804107666" lon="7.00441265106201">
    <ele>746.200012207031</ele>
    <time>2012-03-09T11:03:24Z</time>
   </trkpt>
   <trkpt lat="46.1827507019043" lon="7.00441312789917">
    <ele>746.200012207031</ele>
    <time>2012-03-09T11:03:27Z</time>
   </trkpt>
   <trkpt lat="46.1827354431152" lon="7.00441884994507">
    <ele>746.600036621094</ele>
    <time>2012-03-09T11:03:28Z</time>
   </trkpt>
   <trkpt lat="46.1827201843262" lon="7.00441598892212">
    <ele>747</ele>
    <time>2012-03-09T11:03:29Z</time>
   </trkpt>
   <trkpt lat="46.1827049255371" lon="7.00441217422485">
    <ele>747.400024414062</ele>
    <time>2012-03-09T11:03:30Z</time>
   </trkpt>
   <trkpt lat="46.182689666748" lon="7.0044059753418">
    <ele>747.799987792969</ele>
    <time>2012-03-09T11:03:31Z</time>
   </trkpt>
   <trkpt lat="46.1826782226562" lon="7.00440549850464">
    <ele>748.200012207031</ele>
    <time>2012-03-09T11:03:32Z</time>
   </trkpt>
   <trkpt lat="46.1826629638672" lon="7.0044059753418">
    <ele>748.200012207031</ele>
    <time>2012-03-09T11:03:33Z</time>
   </trkpt>
   <trkpt lat="46.1825675964356" lon="7.00440168380737">
    <ele>749.300048828125</ele>
    <time>2012-03-09T11:03:37Z</time>
   </trkpt>
   <trkpt lat="46.1825485229492" lon="7.00440263748169">
    <ele>749.575012207031</ele>
    <time>2012-03-09T11:03:38Z</time>
   </trkpt>
   <trkpt lat="46.1825370788574" lon="7.00439691543579">
    <ele>749.850036621094</ele>
    <time>2012-03-09T11:03:39Z</time>
   </trkpt>
   <trkpt lat="46.1825180053711" lon="7.00439977645874">
    <ele>750.125</ele>
    <time>2012-03-09T11:03:40Z</time>
   </trkpt>
   <trkpt lat="46.182502746582" lon="7.00440311431885">
    <ele>750.400024414062</ele>
    <time>2012-03-09T11:03:41Z</time>
   </trkpt>
   <trkpt lat="46.182487487793" lon="7.00440454483032">
    <ele>750.400024414062</ele>
    <time>2012-03-09T11:03:42Z</time>
   </trkpt>
   <trkpt lat="46.1824111938477" lon="7.00441265106201">
    <ele>751.542907714844</ele>
    <time>2012-03-09T11:03:46Z</time>
   </trkpt>
   <trkpt lat="46.1823768615723" lon="7.00440835952759">
    <ele>751.82861328125</ele>
    <time>2012-03-09T11:03:47Z</time>
   </trkpt>
   <trkpt lat="46.1823463439941" lon="7.00440835952759">
    <ele>752.114318847656</ele>
    <time>2012-03-09T11:03:48Z</time>
   </trkpt>
   <trkpt lat="46.1823196411133" lon="7.00440740585327">
    <ele>752.400024414062</ele>
    <time>2012-03-09T11:03:49Z</time>
   </trkpt>
   <trkpt lat="46.182243347168" lon="7.0044059753418">
    <ele>752.400024414062</ele>
    <time>2012-03-09T11:03:54Z</time>
   </trkpt>
   <trkpt lat="46.1822280883789" lon="7.00441074371338">
    <ele>752.840026855469</ele>
    <time>2012-03-09T11:03:55Z</time>
   </trkpt>
   <trkpt lat="46.1822166442871" lon="7.00441646575928">
    <ele>753.280029296875</ele>
    <time>2012-03-09T11:03:56Z</time>
   </trkpt>
   <trkpt lat="46.1821975708008" lon="7.00442552566528">
    <ele>753.719970703125</ele>
    <time>2012-03-09T11:03:57Z</time>
   </trkpt>
   <trkpt lat="46.1821746826172" lon="7.0044322013855">
    <ele>754.159973144531</ele>
    <time>2012-03-09T11:03:58Z</time>
   </trkpt>
   <trkpt lat="46.1821556091309" lon="7.00443840026856">
    <ele>754.599975585938</ele>
    <time>2012-03-09T11:03:59Z</time>
   </trkpt>
   <trkpt lat="46.1821212768555" lon="7.00445795059204">
    <ele>754.599975585938</ele>
    <time>2012-03-09T11:04:01Z</time>
   </trkpt>
   <trkpt lat="46.182056427002" lon="7.00454568862915">
    <ele>755.690856933594</ele>
    <time>2012-03-09T11:04:07Z</time>
   </trkpt>
   <trkpt lat="46.1820411682129" lon="7.00457000732422">
    <ele>756.054504394531</ele>
    <time>2012-03-09T11:04:09Z</time>
   </trkpt>
   <trkpt lat="46.1820220947266" lon="7.00459384918213">
    <ele>756.236328125</ele>
    <time>2012-03-09T11:04:10Z</time>
   </trkpt>
   <trkpt lat="46.181999206543" lon="7.00461721420288">
    <ele>756.418151855469</ele>
    <time>2012-03-09T11:04:11Z</time>
   </trkpt>
   <trkpt lat="46.1819801330566" lon="7.00464010238648">
    <ele>756.599975585938</ele>
    <time>2012-03-09T11:04:12Z</time>
   </trkpt>
   <trkpt lat="46.1818962097168" lon="7.00471019744873">
    <ele>756.599975585938</ele>
    <time>2012-03-09T11:04:14Z</time>
   </trkpt>
   <trkpt lat="46.181812286377" lon="7.0047550201416">
    <ele>757.199951171875</ele>
    <time>2012-03-09T11:04:16Z</time>
   </trkpt>
   <trkpt lat="46.1817817687988" lon="7.00475978851318">
    <ele>757.5</ele>
    <time>2012-03-09T11:04:17Z</time>
   </trkpt>
   <trkpt lat="46.1817626953125" lon="7.00475358963013">
    <ele>757.799987792969</ele>
    <time>2012-03-09T11:04:18Z</time>
   </trkpt>
   <trkpt lat="46.1817283630371" lon="7.00475406646728">
    <ele>758.099975585938</ele>
    <time>2012-03-09T11:04:19Z</time>
   </trkpt>
   <trkpt lat="46.1817016601562" lon="7.00475645065308">
    <ele>758.399963378906</ele>
    <time>2012-03-09T11:04:20Z</time>
   </trkpt>
   <trkpt lat="46.1816062927246" lon="7.00470781326294">
    <ele>759.599975585938</ele>
    <time>2012-03-09T11:04:24Z</time>
   </trkpt>
   <trkpt lat="46.181583404541" lon="7.00469493865967">
    <ele>759.900024414062</ele>
    <time>2012-03-09T11:04:25Z</time>
   </trkpt>
   <trkpt lat="46.1815567016602" lon="7.00468730926514">
    <ele>760.200012207031</ele>
    <time>2012-03-09T11:04:26Z</time>
   </trkpt>
   <trkpt lat="46.1815338134766" lon="7.00467157363892">
    <ele>760.5</ele>
    <time>2012-03-09T11:04:27Z</time>
   </trkpt>
   <trkpt lat="46.1815185546875" lon="7.00465679168701">
    <ele>760.799987792969</ele>
    <time>2012-03-09T11:04:28Z</time>
   </trkpt>
   <trkpt lat="46.1814613342285" lon="7.00457334518433">
    <ele>762</ele>
    <time>2012-03-09T11:04:32Z</time>
   </trkpt>
   <trkpt lat="46.1814460754394" lon="7.00455141067505">
    <ele>762.299987792969</ele>
    <time>2012-03-09T11:04:33Z</time>
   </trkpt>
   <trkpt lat="46.1814346313477" lon="7.00452423095703">
    <ele>762.600036621094</ele>
    <time>2012-03-09T11:04:34Z</time>
   </trkpt>
   <trkpt lat="46.1814193725586" lon="7.00450038909912">
    <ele>762.900024414062</ele>
    <time>2012-03-09T11:04:35Z</time>
   </trkpt>
   <trkpt lat="46.1814079284668" lon="7.00447797775268">
    <ele>763.200012207031</ele>
    <time>2012-03-09T11:04:36Z</time>
   </trkpt>
   <trkpt lat="46.1813812255859" lon="7.0044322013855">
    <ele>763.200012207031</ele>
    <time>2012-03-09T11:04:38Z</time>
   </trkpt>
   <trkpt lat="46.1813697814941" lon="7.00440740585327">
    <ele>763.600036621094</ele>
    <time>2012-03-09T11:04:39Z</time>
   </trkpt>
   <trkpt lat="46.1813621520996" lon="7.0043830871582">
    <ele>764</ele>
    <time>2012-03-09T11:04:40Z</time>
   </trkpt>
   <trkpt lat="46.1813507080078" lon="7.00436019897461">
    <ele>764.400024414062</ele>
    <time>2012-03-09T11:04:41Z</time>
   </trkpt>
   <trkpt lat="46.181339263916" lon="7.00434064865112">
    <ele>764.799987792969</ele>
    <time>2012-03-09T11:04:42Z</time>
   </trkpt>
   <trkpt lat="46.1813278198242" lon="7.004319190979">
    <ele>765.200012207031</ele>
    <time>2012-03-09T11:04:43Z</time>
   </trkpt>
   <trkpt lat="46.1812973022461" lon="7.0042781829834">
    <ele>765.200012207031</ele>
    <time>2012-03-09T11:04:45Z</time>
   </trkpt>
   <trkpt lat="46.1812591552734" lon="7.00421285629272">
    <ele>766.05712890625</ele>
    <time>2012-03-09T11:04:48Z</time>
   </trkpt>
   <trkpt lat="46.1812553405762" lon="7.00418329238892">
    <ele>766.342895507812</ele>
    <time>2012-03-09T11:04:49Z</time>
   </trkpt>
   <trkpt lat="46.1812515258789" lon="7.00415420532226">
    <ele>766.628601074219</ele>
    <time>2012-03-09T11:04:50Z</time>
   </trkpt>
   <trkpt lat="46.1812477111816" lon="7.00412511825562">
    <ele>766.914306640625</ele>
    <time>2012-03-09T11:04:51Z</time>
   </trkpt>
   <trkpt lat="46.1812438964844" lon="7.00410032272339">
    <ele>767.200012207031</ele>
    <time>2012-03-09T11:04:52Z</time>
   </trkpt>
   <trkpt lat="46.181209564209" lon="7.00395011901856">
    <ele>767.200012207031</ele>
    <time>2012-03-09T11:04:57Z</time>
   </trkpt>
   <trkpt lat="46.1811866760254" lon="7.00386428833008">
    <ele>768.300048828125</ele>
    <time>2012-03-09T11:05:00Z</time>
   </trkpt>
   <trkpt lat="46.1811752319336" lon="7.00383186340332">
    <ele>768.666687011719</ele>
    <time>2012-03-09T11:05:01Z</time>
   </trkpt>
   <trkpt lat="46.1811714172363" lon="7.00380086898804">
    <ele>769.033325195312</ele>
    <time>2012-03-09T11:05:02Z</time>
   </trkpt>
   <trkpt lat="46.1811676025391" lon="7.00377368927002">
    <ele>769.400024414062</ele>
    <time>2012-03-09T11:05:03Z</time>
   </trkpt>
   <trkpt lat="46.1811561584473" lon="7.00375270843506">
    <ele>769.400024414062</ele>
    <time>2012-03-09T11:05:04Z</time>
   </trkpt>
   <trkpt lat="46.1811180114746" lon="7.00363636016846">
    <ele>770.5</ele>
    <time>2012-03-09T11:05:08Z</time>
   </trkpt>
   <trkpt lat="46.1811103820801" lon="7.00360631942749">
    <ele>770.775024414062</ele>
    <time>2012-03-09T11:05:09Z</time>
   </trkpt>
   <trkpt lat="46.1811027526856" lon="7.00357341766357">
    <ele>771.049987792969</ele>
    <time>2012-03-09T11:05:10Z</time>
   </trkpt>
   <trkpt lat="46.181095123291" lon="7.00354051589966">
    <ele>771.324951171875</ele>
    <time>2012-03-09T11:05:11Z</time>
   </trkpt>
   <trkpt lat="46.1810874938965" lon="7.0035080909729">
    <ele>771.599975585938</ele>
    <time>2012-03-09T11:05:12Z</time>
   </trkpt>
   <trkpt lat="46.1810607910156" lon="7.00342607498169">
    <ele>771.599975585938</ele>
    <time>2012-03-09T11:05:15Z</time>
   </trkpt>
   <trkpt lat="46.1810340881348" lon="7.00334405899048">
    <ele>772.457092285156</ele>
    <time>2012-03-09T11:05:18Z</time>
   </trkpt>
   <trkpt lat="46.1810264587402" lon="7.0033221244812">
    <ele>772.742858886719</ele>
    <time>2012-03-09T11:05:19Z</time>
   </trkpt>
   <trkpt lat="46.1810150146484" lon="7.00330448150635">
    <ele>773.028564453125</ele>
    <time>2012-03-09T11:05:20Z</time>
   </trkpt>
   <trkpt lat="46.1810111999512" lon="7.00327396392822">
    <ele>773.314270019531</ele>
    <time>2012-03-09T11:05:21Z</time>
   </trkpt>
   <trkpt lat="46.1810073852539" lon="7.00324583053589">
    <ele>773.599975585938</ele>
    <time>2012-03-09T11:05:22Z</time>
   </trkpt>
   <trkpt lat="46.1809883117676" lon="7.00316095352173">
    <ele>773.599975585938</ele>
    <time>2012-03-09T11:05:25Z</time>
   </trkpt>
   <trkpt lat="46.1809768676758" lon="7.00310134887695">
    <ele>774.159973144531</ele>
    <time>2012-03-09T11:05:27Z</time>
   </trkpt>
   <trkpt lat="46.180965423584" lon="7.00307273864746">
    <ele>774.440002441406</ele>
    <time>2012-03-09T11:05:28Z</time>
   </trkpt>
   <trkpt lat="46.1809577941894" lon="7.00303983688354">
    <ele>774.719970703125</ele>
    <time>2012-03-09T11:05:29Z</time>
   </trkpt>
   <trkpt lat="46.1809501647949" lon="7.00301170349121">
    <ele>775</ele>
    <time>2012-03-09T11:05:30Z</time>
   </trkpt>
   <trkpt lat="46.1809425354004" lon="7.00298881530762">
    <ele>775.279968261719</ele>
    <time>2012-03-09T11:05:31Z</time>
   </trkpt>
   <trkpt lat="46.1809425354004" lon="7.00282859802246">
    <ele>776.679992675781</ele>
    <time>2012-03-09T11:05:36Z</time>
   </trkpt>
   <trkpt lat="46.1809425354004" lon="7.00279426574707">
    <ele>776.9599609375</ele>
    <time>2012-03-09T11:05:37Z</time>
   </trkpt>
   <trkpt lat="46.1809463500977" lon="7.00276279449463">
    <ele>777.239990234375</ele>
    <time>2012-03-09T11:05:38Z</time>
   </trkpt>
   <trkpt lat="46.1809425354004" lon="7.00273036956787">
    <ele>777.519958496094</ele>
    <time>2012-03-09T11:05:39Z</time>
   </trkpt>
   <trkpt lat="46.1809425354004" lon="7.00269842147827">
    <ele>777.799987792969</ele>
    <time>2012-03-09T11:05:40Z</time>
   </trkpt>
   <trkpt lat="46.1809234619141" lon="7.0026125907898">
    <ele>777.799987792969</ele>
    <time>2012-03-09T11:05:43Z</time>
   </trkpt>
   <trkpt lat="46.1809196472168" lon="7.00255537033081">
    <ele>778.533325195312</ele>
    <time>2012-03-09T11:05:45Z</time>
   </trkpt>
   <trkpt lat="46.1809120178223" lon="7.00252151489258">
    <ele>778.900024414062</ele>
    <time>2012-03-09T11:05:46Z</time>
   </trkpt>
   <trkpt lat="46.1809043884277" lon="7.00249290466309">
    <ele>779.266662597656</ele>
    <time>2012-03-09T11:05:47Z</time>
   </trkpt>
   <trkpt lat="46.180908203125" lon="7.00246334075928">
    <ele>779.63330078125</ele>
    <time>2012-03-09T11:05:48Z</time>
   </trkpt>
   <trkpt lat="46.1809043884277" lon="7.00243139266968">
    <ele>780</ele>
    <time>2012-03-09T11:05:49Z</time>
   </trkpt>
   <trkpt lat="46.1808967590332" lon="7.00233936309814">
    <ele>780</ele>
    <time>2012-03-09T11:05:52Z</time>
   </trkpt>
   <trkpt lat="46.1809234619141" lon="7.00225877761841">
    <ele>780.733337402344</ele>
    <time>2012-03-09T11:05:55Z</time>
   </trkpt>
   <trkpt lat="46.1809616088867" lon="7.00225973129272">
    <ele>781.222229003906</ele>
    <time>2012-03-09T11:05:57Z</time>
   </trkpt>
   <trkpt lat="46.1809768676758" lon="7.002281665802">
    <ele>781.466674804688</ele>
    <time>2012-03-09T11:05:58Z</time>
   </trkpt>
   <trkpt lat="46.180980682373" lon="7.00230693817139">
    <ele>781.711120605469</ele>
    <time>2012-03-09T11:05:59Z</time>
   </trkpt>
   <trkpt lat="46.180980682373" lon="7.00233602523804">
    <ele>781.95556640625</ele>
    <time>2012-03-09T11:06:00Z</time>
   </trkpt>
   <trkpt lat="46.1809844970703" lon="7.0023684501648">
    <ele>782.200012207031</ele>
    <time>2012-03-09T11:06:01Z</time>
   </trkpt>
   <trkpt lat="46.1809883117676" lon="7.00243139266968">
    <ele>782.200012207031</ele>
    <time>2012-03-09T11:06:03Z</time>
   </trkpt>
   <trkpt lat="46.1809997558594" lon="7.00249004364014">
    <ele>782.725036621094</ele>
    <time>2012-03-09T11:06:05Z</time>
   </trkpt>
   <trkpt lat="46.1810073852539" lon="7.0025143623352">
    <ele>782.987487792969</ele>
    <time>2012-03-09T11:06:06Z</time>
   </trkpt>
   <trkpt lat="46.1810111999512" lon="7.00254201889038">
    <ele>783.25</ele>
    <time>2012-03-09T11:06:07Z</time>
   </trkpt>
   <trkpt lat="46.1810150146484" lon="7.00256681442261">
    <ele>783.512512207031</ele>
    <time>2012-03-09T11:06:08Z</time>
   </trkpt>
   <trkpt lat="46.1810188293457" lon="7.00259351730347">
    <ele>783.775024414062</ele>
    <time>2012-03-09T11:06:09Z</time>
   </trkpt>
   <trkpt lat="46.1810760498047" lon="7.00277805328369">
    <ele>785.612548828125</ele>
    <time>2012-03-09T11:06:16Z</time>
   </trkpt>
   <trkpt lat="46.1810874938965" lon="7.00279712677002">
    <ele>785.875</ele>
    <time>2012-03-09T11:06:17Z</time>
   </trkpt>
   <trkpt lat="46.1810989379883" lon="7.00282096862793">
    <ele>786.137512207031</ele>
    <time>2012-03-09T11:06:18Z</time>
   </trkpt>
   <trkpt lat="46.1811103820801" lon="7.00284194946289">
    <ele>786.400024414062</ele>
    <time>2012-03-09T11:06:19Z</time>
   </trkpt>
   <trkpt lat="46.1811485290527" lon="7.00291299819946">
    <ele>786.400024414062</ele>
    <time>2012-03-09T11:06:22Z</time>
   </trkpt>
   <trkpt lat="46.1811866760254" lon="7.00295829772949">
    <ele>787.066711425781</ele>
    <time>2012-03-09T11:06:24Z</time>
   </trkpt>
   <trkpt lat="46.1812057495117" lon="7.00297689437866">
    <ele>787.400024414062</ele>
    <time>2012-03-09T11:06:25Z</time>
   </trkpt>
   <trkpt lat="46.181224822998" lon="7.00299501419067">
    <ele>787.733337402344</ele>
    <time>2012-03-09T11:06:26Z</time>
   </trkpt>
   <trkpt lat="46.1812400817871" lon="7.00301694869995">
    <ele>788.066711425781</ele>
    <time>2012-03-09T11:06:27Z</time>
   </trkpt>
   <trkpt lat="46.1812553405762" lon="7.00303745269775">
    <ele>788.400024414062</ele>
    <time>2012-03-09T11:06:28Z</time>
   </trkpt>
   <trkpt lat="46.1812744140625" lon="7.00304889678955">
    <ele>788.400024414062</ele>
    <time>2012-03-09T11:06:29Z</time>
   </trkpt>
   <trkpt lat="46.1813011169434" lon="7.00308990478516">
    <ele>789.028564453125</ele>
    <time>2012-03-09T11:06:31Z</time>
   </trkpt>
   <trkpt lat="46.181324005127" lon="7.003098487854">
    <ele>789.342834472656</ele>
    <time>2012-03-09T11:06:32Z</time>
   </trkpt>
   <trkpt lat="46.1813430786133" lon="7.00311326980591">
    <ele>789.657165527344</ele>
    <time>2012-03-09T11:06:33Z</time>
   </trkpt>
   <trkpt lat="46.1813583374023" lon="7.00312805175781">
    <ele>789.971435546875</ele>
    <time>2012-03-09T11:06:34Z</time>
   </trkpt>
   <trkpt lat="46.1813735961914" lon="7.00314569473267">
    <ele>790.285705566406</ele>
    <time>2012-03-09T11:06:35Z</time>
   </trkpt>
   <trkpt lat="46.1813850402832" lon="7.00315713882446">
    <ele>790.599975585938</ele>
    <time>2012-03-09T11:06:36Z</time>
   </trkpt>
   <trkpt lat="46.1814193725586" lon="7.00317764282226">
    <ele>790.599975585938</ele>
    <time>2012-03-09T11:06:38Z</time>
   </trkpt>
   <trkpt lat="46.1814460754394" lon="7.00321245193482">
    <ele>791.266662597656</ele>
    <time>2012-03-09T11:06:40Z</time>
   </trkpt>
   <trkpt lat="46.181453704834" lon="7.00324296951294">
    <ele>791.599975585938</ele>
    <time>2012-03-09T11:06:41Z</time>
   </trkpt>
   <trkpt lat="46.1814575195312" lon="7.00327682495117">
    <ele>791.933288574219</ele>
    <time>2012-03-09T11:06:42Z</time>
   </trkpt>
   <trkpt lat="46.1814613342285" lon="7.00330924987793">
    <ele>792.266662597656</ele>
    <time>2012-03-09T11:06:43Z</time>
   </trkpt>
   <trkpt lat="46.181468963623" lon="7.00334310531616">
    <ele>792.599975585938</ele>
    <time>2012-03-09T11:06:44Z</time>
   </trkpt>
   <trkpt lat="46.1814956665039" lon="7.00339508056641">
    <ele>792.599975585938</ele>
    <time>2012-03-09T11:06:46Z</time>
   </trkpt>
   <trkpt lat="46.181526184082" lon="7.00344657897949">
    <ele>793.628540039062</ele>
    <time>2012-03-09T11:06:49Z</time>
   </trkpt>
   <trkpt lat="46.1815376281738" lon="7.0034589767456">
    <ele>793.971435546875</ele>
    <time>2012-03-09T11:06:50Z</time>
   </trkpt>
   <trkpt lat="46.1815414428711" lon="7.00347375869751">
    <ele>794.314270019531</ele>
    <time>2012-03-09T11:06:51Z</time>
   </trkpt>
   <trkpt lat="46.1815528869629" lon="7.0034875869751">
    <ele>794.657165527344</ele>
    <time>2012-03-09T11:06:52Z</time>
   </trkpt>
   <trkpt lat="46.1815605163574" lon="7.00350379943848">
    <ele>795</ele>
    <time>2012-03-09T11:06:53Z</time>
   </trkpt>
   <trkpt lat="46.1815910339356" lon="7.00355243682861">
    <ele>795</ele>
    <time>2012-03-09T11:06:56Z</time>
   </trkpt>
   <trkpt lat="46.1816253662109" lon="7.0035662651062">
    <ele>795.571411132812</ele>
    <time>2012-03-09T11:06:58Z</time>
   </trkpt>
   <trkpt lat="46.181640625" lon="7.00356674194336">
    <ele>795.857116699219</ele>
    <time>2012-03-09T11:06:59Z</time>
   </trkpt>
   <trkpt lat="46.1816520690918" lon="7.00356340408325">
    <ele>796.142883300781</ele>
    <time>2012-03-09T11:07:00Z</time>
   </trkpt>
   <trkpt lat="46.1816635131836" lon="7.00356197357178">
    <ele>796.428588867188</ele>
    <time>2012-03-09T11:07:01Z</time>
   </trkpt>
   <trkpt lat="46.1816711425781" lon="7.00357341766357">
    <ele>796.714294433594</ele>
    <time>2012-03-09T11:07:02Z</time>
   </trkpt>
   <trkpt lat="46.1816825866699" lon="7.003577709198">
    <ele>797</ele>
    <time>2012-03-09T11:07:03Z</time>
   </trkpt>
   <trkpt lat="46.1817054748535" lon="7.00356149673462">
    <ele>797</ele>
    <time>2012-03-09T11:07:06Z</time>
   </trkpt>
   <trkpt lat="46.1817169189453" lon="7.00355339050293">
    <ele>797.440002441406</ele>
    <time>2012-03-09T11:07:07Z</time>
   </trkpt>
   <trkpt lat="46.1817321777344" lon="7.00354290008545">
    <ele>797.880004882812</ele>
    <time>2012-03-09T11:07:08Z</time>
   </trkpt>
   <trkpt lat="46.1817474365234" lon="7.00353717803955">
    <ele>798.320007324219</ele>
    <time>2012-03-09T11:07:09Z</time>
   </trkpt>
   <trkpt lat="46.1817588806152" lon="7.00352764129639">
    <ele>798.760009765625</ele>
    <time>2012-03-09T11:07:10Z</time>
   </trkpt>
   <trkpt lat="46.1817665100098" lon="7.00351190567017">
    <ele>799.200012207031</ele>
    <time>2012-03-09T11:07:11Z</time>
   </trkpt>
   <trkpt lat="46.1817855834961" lon="7.00348806381226">
    <ele>799.200012207031</ele>
    <time>2012-03-09T11:07:13Z</time>
   </trkpt>
   <trkpt lat="46.1818351745606" lon="7.00343894958496">
    <ele>800.400024414062</ele>
    <time>2012-03-09T11:07:17Z</time>
   </trkpt>
   <trkpt lat="46.1818542480469" lon="7.00343751907349">
    <ele>800.700012207031</ele>
    <time>2012-03-09T11:07:18Z</time>
   </trkpt>
   <trkpt lat="46.1818733215332" lon="7.0034294128418">
    <ele>801</ele>
    <time>2012-03-09T11:07:19Z</time>
   </trkpt>
   <trkpt lat="46.181884765625" lon="7.00341749191284">
    <ele>801.299987792969</ele>
    <time>2012-03-09T11:07:20Z</time>
   </trkpt>
   <trkpt lat="46.1819076538086" lon="7.00340843200684">
    <ele>801.599975585938</ele>
    <time>2012-03-09T11:07:21Z</time>
   </trkpt>
   <trkpt lat="46.1819763183594" lon="7.00338697433472">
    <ele>801.599975585938</ele>
    <time>2012-03-09T11:07:24Z</time>
   </trkpt>
   <trkpt lat="46.181999206543" lon="7.00338172912598">
    <ele>801.885681152344</ele>
    <time>2012-03-09T11:07:25Z</time>
   </trkpt>
   <trkpt lat="46.1820220947266" lon="7.00337934494018">
    <ele>802.17138671875</ele>
    <time>2012-03-09T11:07:26Z</time>
   </trkpt>
   <trkpt lat="46.1820487976074" lon="7.0033769607544">
    <ele>802.457092285156</ele>
    <time>2012-03-09T11:07:27Z</time>
   </trkpt>
   <trkpt lat="46.1820755004883" lon="7.00337314605713">
    <ele>802.742858886719</ele>
    <time>2012-03-09T11:07:28Z</time>
   </trkpt>
   <trkpt lat="46.1821098327637" lon="7.00336408615112">
    <ele>803.028564453125</ele>
    <time>2012-03-09T11:07:29Z</time>
   </trkpt>
   <trkpt lat="46.1821365356445" lon="7.00336122512817">
    <ele>803.314270019531</ele>
    <time>2012-03-09T11:07:30Z</time>
   </trkpt>
   <trkpt lat="46.1822471618652" lon="7.0033450126648">
    <ele>804.457092285156</ele>
    <time>2012-03-09T11:07:34Z</time>
   </trkpt>
   <trkpt lat="46.1822700500488" lon="7.00333547592163">
    <ele>804.742858886719</ele>
    <time>2012-03-09T11:07:35Z</time>
   </trkpt>
   <trkpt lat="46.1822967529297" lon="7.00332593917847">
    <ele>805.028564453125</ele>
    <time>2012-03-09T11:07:36Z</time>
   </trkpt>
   <trkpt lat="46.1823196411133" lon="7.00331544876099">
    <ele>805.314270019531</ele>
    <time>2012-03-09T11:07:37Z</time>
   </trkpt>
   <trkpt lat="46.1823425292969" lon="7.0033130645752">
    <ele>805.599975585938</ele>
    <time>2012-03-09T11:07:38Z</time>
   </trkpt>
   <trkpt lat="46.182373046875" lon="7.00330686569214">
    <ele>805.599975585938</ele>
    <time>2012-03-09T11:07:39Z</time>
   </trkpt>
   <trkpt lat="46.1824760437012" lon="7.00329208374024">
    <ele>806.822204589844</ele>
    <time>2012-03-09T11:07:44Z</time>
   </trkpt>
   <trkpt lat="46.1824951171875" lon="7.00328302383423">
    <ele>807.066650390625</ele>
    <time>2012-03-09T11:07:45Z</time>
   </trkpt>
   <trkpt lat="46.1825065612793" lon="7.00327968597412">
    <ele>807.311096191406</ele>
    <time>2012-03-09T11:07:46Z</time>
   </trkpt>
   <trkpt lat="46.1825180053711" lon="7.00327348709106">
    <ele>807.555541992188</ele>
    <time>2012-03-09T11:07:47Z</time>
   </trkpt>
   <trkpt lat="46.1825332641602" lon="7.00326871871948">
    <ele>807.799987792969</ele>
    <time>2012-03-09T11:07:48Z</time>
   </trkpt>
   <trkpt lat="46.1825485229492" lon="7.00325870513916">
    <ele>807.799987792969</ele>
    <time>2012-03-09T11:07:49Z</time>
   </trkpt>
   <trkpt lat="46.1825904846191" lon="7.0032467842102">
    <ele>808.657104492188</ele>
    <time>2012-03-09T11:07:52Z</time>
   </trkpt>
   <trkpt lat="46.1826019287109" lon="7.00324440002441">
    <ele>808.94287109375</ele>
    <time>2012-03-09T11:07:53Z</time>
   </trkpt>
   <trkpt lat="46.1826210021973" lon="7.00323390960693">
    <ele>809.228576660156</ele>
    <time>2012-03-09T11:07:54Z</time>
   </trkpt>
   <trkpt lat="46.1826400756836" lon="7.0032320022583">
    <ele>809.514282226562</ele>
    <time>2012-03-09T11:07:55Z</time>
   </trkpt>
   <trkpt lat="46.1826591491699" lon="7.0032320022583">
    <ele>809.799987792969</ele>
    <time>2012-03-09T11:07:56Z</time>
   </trkpt>
   <trkpt lat="46.1827011108398" lon="7.00321292877197">
    <ele>809.799987792969</ele>
    <time>2012-03-09T11:07:58Z</time>
   </trkpt>
   <trkpt lat="46.1827392578125" lon="7.00318908691406">
    <ele>810.533325195312</ele>
    <time>2012-03-09T11:08:00Z</time>
   </trkpt>
   <trkpt lat="46.1827545166016" lon="7.00317764282226">
    <ele>810.900024414062</ele>
    <time>2012-03-09T11:08:01Z</time>
   </trkpt>
   <trkpt lat="46.1827621459961" lon="7.00317144393921">
    <ele>811.266662597656</ele>
    <time>2012-03-09T11:08:02Z</time>
   </trkpt>
   <trkpt lat="46.1827774047852" lon="7.0031623840332">
    <ele>811.63330078125</ele>
    <time>2012-03-09T11:08:03Z</time>
   </trkpt>
   <trkpt lat="46.1827926635742" lon="7.00316429138184">
    <ele>812</ele>
    <time>2012-03-09T11:08:04Z</time>
   </trkpt>
   <trkpt lat="46.1828422546387" lon="7.00315427780151">
    <ele>812</ele>
    <time>2012-03-09T11:08:07Z</time>
   </trkpt>
   <trkpt lat="46.1828842163086" lon="7.00313711166382">
    <ele>812.733337402344</ele>
    <time>2012-03-09T11:08:09Z</time>
   </trkpt>
   <trkpt lat="46.1829071044922" lon="7.00312232971191">
    <ele>813.099975585938</ele>
    <time>2012-03-09T11:08:10Z</time>
   </trkpt>
   <trkpt lat="46.1829261779785" lon="7.00311088562012">
    <ele>813.466674804688</ele>
    <time>2012-03-09T11:08:11Z</time>
   </trkpt>
   <trkpt lat="46.1829452514648" lon="7.00310182571411">
    <ele>813.833374023438</ele>
    <time>2012-03-09T11:08:12Z</time>
   </trkpt>
   <trkpt lat="46.1829643249512" lon="7.0030951499939">
    <ele>814.200012207031</ele>
    <time>2012-03-09T11:08:13Z</time>
   </trkpt>
   <trkpt lat="46.183032989502" lon="7.00306129455566">
    <ele>814.200012207031</ele>
    <time>2012-03-09T11:08:17Z</time>
   </trkpt>
   <trkpt lat="46.1830558776856" lon="7.00306272506714">
    <ele>814.700012207031</ele>
    <time>2012-03-09T11:08:18Z</time>
   </trkpt>
   <trkpt lat="46.1830825805664" lon="7.00305509567261">
    <ele>815.200012207031</ele>
    <time>2012-03-09T11:08:19Z</time>
   </trkpt>
   <trkpt lat="46.1831130981445" lon="7.00305318832398">
    <ele>815.700012207031</ele>
    <time>2012-03-09T11:08:20Z</time>
   </trkpt>
   <trkpt lat="46.1831359863281" lon="7.00305414199829">
    <ele>816.200012207031</ele>
    <time>2012-03-09T11:08:21Z</time>
   </trkpt>
   <trkpt lat="46.183162689209" lon="7.00305223464966">
    <ele>816.200012207031</ele>
    <time>2012-03-09T11:08:22Z</time>
   </trkpt>
   <trkpt lat="46.183277130127" lon="7.00304317474365">
    <ele>817.35791015625</ele>
    <time>2012-03-09T11:08:27Z</time>
   </trkpt>
   <trkpt lat="46.1833038330078" lon="7.00304794311524">
    <ele>817.589477539062</ele>
    <time>2012-03-09T11:08:28Z</time>
   </trkpt>
   <trkpt lat="46.1833305358887" lon="7.00305318832398">
    <ele>817.821044921875</ele>
    <time>2012-03-09T11:08:29Z</time>
   </trkpt>
   <trkpt lat="46.1833457946777" lon="7.00305891036987">
    <ele>818.052612304688</ele>
    <time>2012-03-09T11:08:30Z</time>
   </trkpt>
   <trkpt lat="46.1833648681641" lon="7.00306081771851">
    <ele>818.2841796875</ele>
    <time>2012-03-09T11:08:31Z</time>
   </trkpt>
   <trkpt lat="46.183521270752" lon="7.00307941436768">
    <ele>819.673645019531</ele>
    <time>2012-03-09T11:08:37Z</time>
   </trkpt>
   <trkpt lat="46.1835441589356" lon="7.00308179855347">
    <ele>819.9052734375</ele>
    <time>2012-03-09T11:08:38Z</time>
   </trkpt>
   <trkpt lat="46.1835670471191" lon="7.0030837059021">
    <ele>820.136840820312</ele>
    <time>2012-03-09T11:08:39Z</time>
   </trkpt>
   <trkpt lat="46.1835861206055" lon="7.00308752059936">
    <ele>820.368408203125</ele>
    <time>2012-03-09T11:08:40Z</time>
   </trkpt>
   <trkpt lat="46.1836128234863" lon="7.00309085845947">
    <ele>820.599975585938</ele>
    <time>2012-03-09T11:08:41Z</time>
   </trkpt>
   <trkpt lat="46.183650970459" lon="7.00309371948242">
    <ele>820.599975585938</ele>
    <time>2012-03-09T11:08:43Z</time>
   </trkpt>
   <trkpt lat="46.1836853027344" lon="7.00311088562012">
    <ele>821.17138671875</ele>
    <time>2012-03-09T11:08:45Z</time>
   </trkpt>
   <trkpt lat="46.183708190918" lon="7.00311374664307">
    <ele>821.457092285156</ele>
    <time>2012-03-09T11:08:46Z</time>
   </trkpt>
   <trkpt lat="46.1837501525879" lon="7.00311517715454">
    <ele>821.742858886719</ele>
    <time>2012-03-09T11:08:47Z</time>
   </trkpt>
   <trkpt lat="46.1837882995606" lon="7.00311326980591">
    <ele>822.028564453125</ele>
    <time>2012-03-09T11:08:48Z</time>
   </trkpt>
   <trkpt lat="46.1839294433594" lon="7.00312042236328">
    <ele>823.457092285156</ele>
    <time>2012-03-09T11:08:53Z</time>
   </trkpt>
   <trkpt lat="46.183952331543" lon="7.00312232971191">
    <ele>823.742858886719</ele>
    <time>2012-03-09T11:08:54Z</time>
   </trkpt>
   <trkpt lat="46.183967590332" lon="7.00312614440918">
    <ele>824.028564453125</ele>
    <time>2012-03-09T11:08:55Z</time>
   </trkpt>
   <trkpt lat="46.1839904785156" lon="7.00313186645508">
    <ele>824.314270019531</ele>
    <time>2012-03-09T11:08:56Z</time>
   </trkpt>
   <trkpt lat="46.184009552002" lon="7.00313234329224">
    <ele>824.599975585938</ele>
    <time>2012-03-09T11:08:57Z</time>
   </trkpt>
   <trkpt lat="46.1840324401856" lon="7.00313520431518">
    <ele>824.599975585938</ele>
    <time>2012-03-09T11:08:58Z</time>
   </trkpt>
   <trkpt lat="46.1841087341309" lon="7.00314807891846">
    <ele>825.699951171875</ele>
    <time>2012-03-09T11:09:02Z</time>
   </trkpt>
   <trkpt lat="46.1841278076172" lon="7.00315046310425">
    <ele>825.974975585938</ele>
    <time>2012-03-09T11:09:03Z</time>
   </trkpt>
   <trkpt lat="46.1841430664062" lon="7.00315141677856">
    <ele>826.25</ele>
    <time>2012-03-09T11:09:04Z</time>
   </trkpt>
   <trkpt lat="46.1841659545898" lon="7.00315189361572">
    <ele>826.524963378906</ele>
    <time>2012-03-09T11:09:05Z</time>
   </trkpt>
   <trkpt lat="46.1841926574707" lon="7.00315475463867">
    <ele>826.799987792969</ele>
    <time>2012-03-09T11:09:06Z</time>
   </trkpt>
   <trkpt lat="46.184253692627" lon="7.00316381454468">
    <ele>826.799987792969</ele>
    <time>2012-03-09T11:09:09Z</time>
   </trkpt>
   <trkpt lat="46.1842765808106" lon="7.00316572189331">
    <ele>827.200012207031</ele>
    <time>2012-03-09T11:09:10Z</time>
   </trkpt>
   <trkpt lat="46.1842956542969" lon="7.00316715240478">
    <ele>827.599975585938</ele>
    <time>2012-03-09T11:09:11Z</time>
   </trkpt>
   <trkpt lat="46.1843147277832" lon="7.00316667556763">
    <ele>828</ele>
    <time>2012-03-09T11:09:12Z</time>
   </trkpt>
   <trkpt lat="46.1843376159668" lon="7.00316476821899">
    <ele>828.399963378906</ele>
    <time>2012-03-09T11:09:13Z</time>
   </trkpt>
   <trkpt lat="46.1843605041504" lon="7.00316572189331">
    <ele>828.799987792969</ele>
    <time>2012-03-09T11:09:14Z</time>
   </trkpt>
   <trkpt lat="46.184383392334" lon="7.0031623840332">
    <ele>828.799987792969</ele>
    <time>2012-03-09T11:09:15Z</time>
   </trkpt>
   <trkpt lat="46.1845092773438" lon="7.00318145751953">
    <ele>830.119995117188</ele>
    <time>2012-03-09T11:09:21Z</time>
   </trkpt>
   <trkpt lat="46.1845321655273" lon="7.00318336486816">
    <ele>830.339965820312</ele>
    <time>2012-03-09T11:09:22Z</time>
   </trkpt>
   <trkpt lat="46.1845550537109" lon="7.0031852722168">
    <ele>830.559997558594</ele>
    <time>2012-03-09T11:09:23Z</time>
   </trkpt>
   <trkpt lat="46.1845779418945" lon="7.00319004058838">
    <ele>830.780029296875</ele>
    <time>2012-03-09T11:09:24Z</time>
   </trkpt>
   <trkpt lat="46.1845970153809" lon="7.00318956375122">
    <ele>831</ele>
    <time>2012-03-09T11:09:25Z</time>
   </trkpt>
   <trkpt lat="46.1846466064453" lon="7.00319004058838">
    <ele>831</ele>
    <time>2012-03-09T11:09:27Z</time>
   </trkpt>
   <trkpt lat="46.1846771240234" lon="7.00320529937744">
    <ele>831.559997558594</ele>
    <time>2012-03-09T11:09:29Z</time>
   </trkpt>
   <trkpt lat="46.184700012207" lon="7.00320434570312">
    <ele>831.840026855469</ele>
    <time>2012-03-09T11:09:30Z</time>
   </trkpt>
   <trkpt lat="46.1847114562988" lon="7.00320529937744">
    <ele>832.119995117188</ele>
    <time>2012-03-09T11:09:31Z</time>
   </trkpt>
   <trkpt lat="46.1847267150879" lon="7.0032057762146">
    <ele>832.400024414062</ele>
    <time>2012-03-09T11:09:32Z</time>
   </trkpt>
   <trkpt lat="46.1847457885742" lon="7.00320386886597">
    <ele>832.679992675781</ele>
    <time>2012-03-09T11:09:33Z</time>
   </trkpt>
   <trkpt lat="46.1848373413086" lon="7.00319671630859">
    <ele>834.080017089844</ele>
    <time>2012-03-09T11:09:38Z</time>
   </trkpt>
   <trkpt lat="46.1848564147949" lon="7.00319719314575">
    <ele>834.359985351562</ele>
    <time>2012-03-09T11:09:39Z</time>
   </trkpt>
   <trkpt lat="46.1848754882812" lon="7.00319671630859">
    <ele>834.640014648438</ele>
    <time>2012-03-09T11:09:40Z</time>
   </trkpt>
   <trkpt lat="46.1848907470703" lon="7.00319337844849">
    <ele>834.919982910156</ele>
    <time>2012-03-09T11:09:41Z</time>
   </trkpt>
   <trkpt lat="46.1849021911621" lon="7.00318670272827">
    <ele>835.200012207031</ele>
    <time>2012-03-09T11:09:42Z</time>
   </trkpt>
   <trkpt lat="46.1849708557129" lon="7.00317621231079">
    <ele>835.200012207031</ele>
    <time>2012-03-09T11:09:45Z</time>
   </trkpt>
   <trkpt lat="46.1850242614746" lon="7.00318002700806">
    <ele>836.0400390625</ele>
    <time>2012-03-09T11:09:48Z</time>
   </trkpt>
   <trkpt lat="46.1850395202637" lon="7.00318050384522">
    <ele>836.320007324219</ele>
    <time>2012-03-09T11:09:49Z</time>
   </trkpt>
   <trkpt lat="46.1850547790527" lon="7.00318050384522">
    <ele>836.600036621094</ele>
    <time>2012-03-09T11:09:50Z</time>
   </trkpt>
   <trkpt lat="46.1850738525391" lon="7.00317668914795">
    <ele>836.880004882812</ele>
    <time>2012-03-09T11:09:51Z</time>
   </trkpt>
   <trkpt lat="46.1850891113281" lon="7.00317478179932">
    <ele>837.160034179688</ele>
    <time>2012-03-09T11:09:52Z</time>
   </trkpt>
   <trkpt lat="46.1851806640625" lon="7.00318384170532">
    <ele>838.559997558594</ele>
    <time>2012-03-09T11:09:57Z</time>
   </trkpt>
   <trkpt lat="46.1851997375488" lon="7.00318956375122">
    <ele>838.840026855469</ele>
    <time>2012-03-09T11:09:58Z</time>
   </trkpt>
   <trkpt lat="46.1852188110352" lon="7.00319194793701">
    <ele>839.119995117188</ele>
    <time>2012-03-09T11:09:59Z</time>
   </trkpt>
   <trkpt lat="46.1852378845215" lon="7.00319671630859">
    <ele>839.400024414062</ele>
    <time>2012-03-09T11:10:00Z</time>
   </trkpt>
   <trkpt lat="46.1853179931641" lon="7.00321578979492">
    <ele>839.400024414062</ele>
    <time>2012-03-09T11:10:04Z</time>
   </trkpt>
   <trkpt lat="46.1853408813477" lon="7.00321435928345">
    <ele>839.840026855469</ele>
    <time>2012-03-09T11:10:05Z</time>
   </trkpt>
   <trkpt lat="46.1853637695312" lon="7.00321578979492">
    <ele>840.280029296875</ele>
    <time>2012-03-09T11:10:06Z</time>
   </trkpt>
   <trkpt lat="46.1853828430176" lon="7.00321769714356">
    <ele>840.719970703125</ele>
    <time>2012-03-09T11:10:07Z</time>
   </trkpt>
   <trkpt lat="46.1854019165039" lon="7.00321817398071">
    <ele>841.159973144531</ele>
    <time>2012-03-09T11:10:08Z</time>
   </trkpt>
   <trkpt lat="46.1854248046875" lon="7.0032229423523">
    <ele>841.599975585938</ele>
    <time>2012-03-09T11:10:09Z</time>
   </trkpt>
   <trkpt lat="46.1854858398438" lon="7.00323581695557">
    <ele>841.599975585938</ele>
    <time>2012-03-09T11:10:12Z</time>
   </trkpt>
   <trkpt lat="46.1855125427246" lon="7.00323581695557">
    <ele>841.890869140625</ele>
    <time>2012-03-09T11:10:13Z</time>
   </trkpt>
   <trkpt lat="46.1855316162109" lon="7.00324583053589">
    <ele>842.181823730469</ele>
    <time>2012-03-09T11:10:14Z</time>
   </trkpt>
   <trkpt lat="46.1855583190918" lon="7.00324821472168">
    <ele>842.472717285156</ele>
    <time>2012-03-09T11:10:15Z</time>
   </trkpt>
   <trkpt lat="46.1855812072754" lon="7.00325632095337">
    <ele>842.763610839844</ele>
    <time>2012-03-09T11:10:16Z</time>
   </trkpt>
   <trkpt lat="46.1856002807617" lon="7.00326013565064">
    <ele>843.054504394531</ele>
    <time>2012-03-09T11:10:17Z</time>
   </trkpt>
   <trkpt lat="46.1857032775879" lon="7.00327587127686">
    <ele>844.509094238281</ele>
    <time>2012-03-09T11:10:22Z</time>
   </trkpt>
   <trkpt lat="46.1857223510742" lon="7.00327634811401">
    <ele>844.799987792969</ele>
    <time>2012-03-09T11:10:23Z</time>
   </trkpt>
   <trkpt lat="46.1857414245606" lon="7.00328207015991">
    <ele>845.090881347656</ele>
    <time>2012-03-09T11:10:24Z</time>
   </trkpt>
   <trkpt lat="46.1857643127441" lon="7.00327062606812">
    <ele>845.3818359375</ele>
    <time>2012-03-09T11:10:25Z</time>
   </trkpt>
   <trkpt lat="46.185863494873" lon="7.00321435928345">
    <ele>846.836364746094</ele>
    <time>2012-03-09T11:10:30Z</time>
   </trkpt>
   <trkpt lat="46.1858825683594" lon="7.00320148468018">
    <ele>847.127258300781</ele>
    <time>2012-03-09T11:10:31Z</time>
   </trkpt>
   <trkpt lat="46.1859016418457" lon="7.00318431854248">
    <ele>847.418151855469</ele>
    <time>2012-03-09T11:10:32Z</time>
   </trkpt>
   <trkpt lat="46.185920715332" lon="7.00316715240478">
    <ele>847.709106445312</ele>
    <time>2012-03-09T11:10:33Z</time>
   </trkpt>
   <trkpt lat="46.1859397888184" lon="7.00315189361572">
    <ele>848</ele>
    <time>2012-03-09T11:10:34Z</time>
   </trkpt>
   <trkpt lat="46.1860313415527" lon="7.00307846069336">
    <ele>848</ele>
    <time>2012-03-09T11:10:39Z</time>
   </trkpt>
   <trkpt lat="46.186092376709" lon="7.00304317474365">
    <ele>848.840026855469</ele>
    <time>2012-03-09T11:10:42Z</time>
   </trkpt>
   <trkpt lat="46.1861114501953" lon="7.00303173065186">
    <ele>849.119995117188</ele>
    <time>2012-03-09T11:10:43Z</time>
   </trkpt>
   <trkpt lat="46.1861343383789" lon="7.00302219390869">
    <ele>849.400024414062</ele>
    <time>2012-03-09T11:10:44Z</time>
   </trkpt>
   <trkpt lat="46.1861572265625" lon="7.00302124023438">
    <ele>849.679992675781</ele>
    <time>2012-03-09T11:10:45Z</time>
   </trkpt>
   <trkpt lat="46.1861801147461" lon="7.00301885604858">
    <ele>849.960021972656</ele>
    <time>2012-03-09T11:10:46Z</time>
   </trkpt>
   <trkpt lat="46.1862831115723" lon="7.00300407409668">
    <ele>851.080017089844</ele>
    <time>2012-03-09T11:10:50Z</time>
   </trkpt>
   <trkpt lat="46.1863098144531" lon="7.00299501419067">
    <ele>851.359985351562</ele>
    <time>2012-03-09T11:10:51Z</time>
   </trkpt>
   <trkpt lat="46.1863327026367" lon="7.00298833847046">
    <ele>851.640014648438</ele>
    <time>2012-03-09T11:10:52Z</time>
   </trkpt>
   <trkpt lat="46.1863555908203" lon="7.00298118591309">
    <ele>851.919982910156</ele>
    <time>2012-03-09T11:10:53Z</time>
   </trkpt>
   <trkpt lat="46.1863784790039" lon="7.00297117233276">
    <ele>852.200012207031</ele>
    <time>2012-03-09T11:10:54Z</time>
   </trkpt>
   <trkpt lat="46.1864738464356" lon="7.00283575057983">
    <ele>852.200012207031</ele>
    <time>2012-03-09T11:11:00Z</time>
   </trkpt>
   <trkpt lat="46.1865119934082" lon="7.00264835357666">
    <ele>853.52001953125</ele>
    <time>2012-03-09T11:11:06Z</time>
   </trkpt>
   <trkpt lat="46.1865081787109" lon="7.00262641906738">
    <ele>853.739990234375</ele>
    <time>2012-03-09T11:11:07Z</time>
   </trkpt>
   <trkpt lat="46.1864891052246" lon="7.00260639190674">
    <ele>853.960021972656</ele>
    <time>2012-03-09T11:11:08Z</time>
   </trkpt>
   <trkpt lat="46.1864700317383" lon="7.00258827209473">
    <ele>854.180053710938</ele>
    <time>2012-03-09T11:11:09Z</time>
   </trkpt>
   <trkpt lat="46.186450958252" lon="7.0025691986084">
    <ele>854.400024414062</ele>
    <time>2012-03-09T11:11:10Z</time>
   </trkpt>
   <trkpt lat="46.1863822937012" lon="7.00244188308716">
    <ele>854.400024414062</ele>
    <time>2012-03-09T11:11:15Z</time>
   </trkpt>
   <trkpt lat="46.1863670349121" lon="7.00241422653198">
    <ele>854.800048828125</ele>
    <time>2012-03-09T11:11:16Z</time>
   </trkpt>
   <trkpt lat="46.1863555908203" lon="7.00239372253418">
    <ele>855.200012207031</ele>
    <time>2012-03-09T11:11:17Z</time>
   </trkpt>
   <trkpt lat="46.1863288879394" lon="7.00238943099976">
    <ele>855.600036621094</ele>
    <time>2012-03-09T11:11:18Z</time>
   </trkpt>
   <trkpt lat="46.1862678527832" lon="7.00251626968384">
    <ele>856</ele>
    <time>2012-03-09T11:11:19Z</time>
   </trkpt>
   <trkpt lat="46.1861991882324" lon="7.00269317626953">
    <ele>856.400024414062</ele>
    <time>2012-03-09T11:11:20Z</time>
   </trkpt>
   <trkpt lat="46.1860160827637" lon="7.00285291671753">
    <ele>856.400024414062</ele>
    <time>2012-03-09T11:11:25Z</time>
   </trkpt>
   <trkpt lat="46.1859436035156" lon="7.00288248062134">
    <ele>857.342834472656</ele>
    <time>2012-03-09T11:11:28Z</time>
   </trkpt>
   <trkpt lat="46.1859130859375" lon="7.0028920173645">
    <ele>857.657165527344</ele>
    <time>2012-03-09T11:11:29Z</time>
   </trkpt>
   <trkpt lat="46.1858825683594" lon="7.00289583206177">
    <ele>857.971435546875</ele>
    <time>2012-03-09T11:11:30Z</time>
   </trkpt>
   <trkpt lat="46.1858520507812" lon="7.00290155410767">
    <ele>858.285705566406</ele>
    <time>2012-03-09T11:11:31Z</time>
   </trkpt>
   <trkpt lat="46.1858291625977" lon="7.00290298461914">
    <ele>858.599975585938</ele>
    <time>2012-03-09T11:11:32Z</time>
   </trkpt>
   <trkpt lat="46.1857452392578" lon="7.00289726257324">
    <ele>858.599975585938</ele>
    <time>2012-03-09T11:11:36Z</time>
   </trkpt>
   <trkpt lat="46.1857299804688" lon="7.00288820266724">
    <ele>859.149963378906</ele>
    <time>2012-03-09T11:11:37Z</time>
   </trkpt>
   <trkpt lat="46.1857070922852" lon="7.00288438796997">
    <ele>859.699951171875</ele>
    <time>2012-03-09T11:11:38Z</time>
   </trkpt>
   <trkpt lat="46.1856918334961" lon="7.00287199020386">
    <ele>860.25</ele>
    <time>2012-03-09T11:11:39Z</time>
   </trkpt>
   <trkpt lat="46.1856689453125" lon="7.00286722183228">
    <ele>860.799987792969</ele>
    <time>2012-03-09T11:11:40Z</time>
   </trkpt>
   <trkpt lat="46.1856422424316" lon="7.0028600692749">
    <ele>860.799987792969</ele>
    <time>2012-03-09T11:11:41Z</time>
   </trkpt>
   <trkpt lat="46.1855812072754" lon="7.00283432006836">
    <ele>861.742858886719</ele>
    <time>2012-03-09T11:11:44Z</time>
   </trkpt>
   <trkpt lat="46.1855659484863" lon="7.00282669067383">
    <ele>862.05712890625</ele>
    <time>2012-03-09T11:11:45Z</time>
   </trkpt>
   <trkpt lat="46.1855430603027" lon="7.00282287597656">
    <ele>862.371398925781</ele>
    <time>2012-03-09T11:11:46Z</time>
   </trkpt>
   <trkpt lat="46.1855278015137" lon="7.00282096862793">
    <ele>862.685729980469</ele>
    <time>2012-03-09T11:11:47Z</time>
   </trkpt>
   <trkpt lat="46.1855125427246" lon="7.00281810760498">
    <ele>863</ele>
    <time>2012-03-09T11:11:48Z</time>
   </trkpt>
   <trkpt lat="46.1855010986328" lon="7.00280666351318">
    <ele>863</ele>
    <time>2012-03-09T11:11:49Z</time>
   </trkpt>
   <trkpt lat="46.1854667663574" lon="7.00275945663452">
    <ele>863.825012207031</ele>
    <time>2012-03-09T11:11:52Z</time>
   </trkpt>
   <trkpt lat="46.1854438781738" lon="7.00274229049683">
    <ele>864.099975585938</ele>
    <time>2012-03-09T11:11:53Z</time>
   </trkpt>
   <trkpt lat="46.1854248046875" lon="7.00272703170776">
    <ele>864.375</ele>
    <time>2012-03-09T11:11:54Z</time>
   </trkpt>
   <trkpt lat="46.1854057312012" lon="7.0027117729187">
    <ele>864.650024414062</ele>
    <time>2012-03-09T11:11:55Z</time>
   </trkpt>
   <trkpt lat="46.1853942871094" lon="7.0027003288269">
    <ele>864.924987792969</ele>
    <time>2012-03-09T11:11:56Z</time>
   </trkpt>
   <trkpt lat="46.185375213623" lon="7.00269269943237">
    <ele>865.200012207031</ele>
    <time>2012-03-09T11:11:57Z</time>
   </trkpt>
   <trkpt lat="46.1853408813477" lon="7.00267028808594">
    <ele>865.200012207031</ele>
    <time>2012-03-09T11:11:59Z</time>
   </trkpt>
   <trkpt lat="46.1853179931641" lon="7.00263452529907">
    <ele>865.828552246094</ele>
    <time>2012-03-09T11:12:01Z</time>
   </trkpt>
   <trkpt lat="46.1852989196777" lon="7.00262117385864">
    <ele>866.142883300781</ele>
    <time>2012-03-09T11:12:02Z</time>
   </trkpt>
   <trkpt lat="46.1852798461914" lon="7.00261068344116">
    <ele>866.457153320312</ele>
    <time>2012-03-09T11:12:03Z</time>
   </trkpt>
   <trkpt lat="46.1852607727051" lon="7.00259876251221">
    <ele>866.771423339844</ele>
    <time>2012-03-09T11:12:04Z</time>
   </trkpt>
   <trkpt lat="46.1851806640625" lon="7.00255250930786">
    <ele>868.342834472656</ele>
    <time>2012-03-09T11:12:09Z</time>
   </trkpt>
   <trkpt lat="46.1851654052734" lon="7.00254821777344">
    <ele>868.657104492188</ele>
    <time>2012-03-09T11:12:10Z</time>
   </trkpt>
   <trkpt lat="46.1851501464844" lon="7.00254058837891">
    <ele>868.971435546875</ele>
    <time>2012-03-09T11:12:11Z</time>
   </trkpt>
   <trkpt lat="46.1851348876953" lon="7.00253248214722">
    <ele>869.285705566406</ele>
    <time>2012-03-09T11:12:12Z</time>
   </trkpt>
   <trkpt lat="46.1851234436035" lon="7.00251817703247">
    <ele>869.599975585938</ele>
    <time>2012-03-09T11:12:13Z</time>
   </trkpt>
   <trkpt lat="46.1850776672363" lon="7.00250768661499">
    <ele>869.599975585938</ele>
    <time>2012-03-09T11:12:16Z</time>
   </trkpt>
   <trkpt lat="46.18505859375" lon="7.00250577926636">
    <ele>870</ele>
    <time>2012-03-09T11:12:17Z</time>
   </trkpt>
   <trkpt lat="46.1850357055664" lon="7.00250387191772">
    <ele>870.399963378906</ele>
    <time>2012-03-09T11:12:18Z</time>
   </trkpt>
   <trkpt lat="46.1850204467773" lon="7.00249433517456">
    <ele>870.799987792969</ele>
    <time>2012-03-09T11:12:19Z</time>
   </trkpt>
   <trkpt lat="46.1849975585938" lon="7.00248765945435">
    <ele>871.199951171875</ele>
    <time>2012-03-09T11:12:20Z</time>
   </trkpt>
   <trkpt lat="46.1849822998047" lon="7.00248050689697">
    <ele>871.599975585938</ele>
    <time>2012-03-09T11:12:21Z</time>
   </trkpt>
   <trkpt lat="46.1849632263184" lon="7.00248098373413">
    <ele>871.599975585938</ele>
    <time>2012-03-09T11:12:22Z</time>
   </trkpt>
   <trkpt lat="46.1848983764648" lon="7.00246238708496">
    <ele>872.773315429688</ele>
    <time>2012-03-09T11:12:26Z</time>
   </trkpt>
   <trkpt lat="46.1848793029785" lon="7.00246095657349">
    <ele>873.066650390625</ele>
    <time>2012-03-09T11:12:27Z</time>
   </trkpt>
   <trkpt lat="46.1848526000977" lon="7.00245761871338">
    <ele>873.359985351562</ele>
    <time>2012-03-09T11:12:28Z</time>
   </trkpt>
   <trkpt lat="46.1848335266113" lon="7.0024471282959">
    <ele>873.6533203125</ele>
    <time>2012-03-09T11:12:29Z</time>
   </trkpt>
   <trkpt lat="46.1847534179688" lon="7.00240468978882">
    <ele>874.82666015625</ele>
    <time>2012-03-09T11:12:33Z</time>
   </trkpt>
   <trkpt lat="46.1847305297852" lon="7.00239038467407">
    <ele>875.119995117188</ele>
    <time>2012-03-09T11:12:34Z</time>
   </trkpt>
   <trkpt lat="46.1847076416016" lon="7.00237989425659">
    <ele>875.413330078125</ele>
    <time>2012-03-09T11:12:35Z</time>
   </trkpt>
   <trkpt lat="46.184684753418" lon="7.00236749649048">
    <ele>875.706665039062</ele>
    <time>2012-03-09T11:12:36Z</time>
   </trkpt>
   <trkpt lat="46.1846618652344" lon="7.002357006073">
    <ele>876</ele>
    <time>2012-03-09T11:12:37Z</time>
   </trkpt>
   <trkpt lat="46.1845741271973" lon="7.00230312347412">
    <ele>876</ele>
    <time>2012-03-09T11:12:41Z</time>
   </trkpt>
   <trkpt lat="46.1845359802246" lon="7.00227403640747">
    <ele>876.646179199219</ele>
    <time>2012-03-09T11:12:43Z</time>
   </trkpt>
   <trkpt lat="46.184513092041" lon="7.00225734710693">
    <ele>876.96923828125</ele>
    <time>2012-03-09T11:12:44Z</time>
   </trkpt>
   <trkpt lat="46.184497833252" lon="7.0022463798523">
    <ele>877.292297363281</ele>
    <time>2012-03-09T11:12:45Z</time>
   </trkpt>
   <trkpt lat="46.1844825744629" lon="7.0022382736206">
    <ele>877.615417480469</ele>
    <time>2012-03-09T11:12:46Z</time>
   </trkpt>
   <trkpt lat="46.1844673156738" lon="7.00222635269165">
    <ele>877.9384765625</ele>
    <time>2012-03-09T11:12:47Z</time>
   </trkpt>
   <trkpt lat="46.1844062805176" lon="7.00217771530151">
    <ele>879.230773925781</ele>
    <time>2012-03-09T11:12:51Z</time>
   </trkpt>
   <trkpt lat="46.1843910217285" lon="7.00216293334961">
    <ele>879.553833007812</ele>
    <time>2012-03-09T11:12:52Z</time>
   </trkpt>
   <trkpt lat="46.1843719482422" lon="7.00215864181518">
    <ele>879.876953125</ele>
    <time>2012-03-09T11:12:53Z</time>
   </trkpt>
   <trkpt lat="46.1843566894531" lon="7.00215673446655">
    <ele>880.200012207031</ele>
    <time>2012-03-09T11:12:54Z</time>
   </trkpt>
   <trkpt lat="46.1843338012695" lon="7.00213241577148">
    <ele>880.200012207031</ele>
    <time>2012-03-09T11:12:56Z</time>
   </trkpt>
   <trkpt lat="46.1843032836914" lon="7.00210952758789">
    <ele>880.725036621094</ele>
    <time>2012-03-09T11:12:58Z</time>
   </trkpt>
   <trkpt lat="46.1842880249023" lon="7.00210332870483">
    <ele>880.987487792969</ele>
    <time>2012-03-09T11:12:59Z</time>
   </trkpt>
   <trkpt lat="46.1842765808106" lon="7.00208806991577">
    <ele>881.25</ele>
    <time>2012-03-09T11:13:00Z</time>
   </trkpt>
   <trkpt lat="46.1842575073242" lon="7.00208330154419">
    <ele>881.512512207031</ele>
    <time>2012-03-09T11:13:01Z</time>
   </trkpt>
   <trkpt lat="46.1842422485352" lon="7.00207567214966">
    <ele>881.775024414062</ele>
    <time>2012-03-09T11:13:02Z</time>
   </trkpt>
   <trkpt lat="46.1842269897461" lon="7.00206899642944">
    <ele>882.037475585938</ele>
    <time>2012-03-09T11:13:03Z</time>
   </trkpt>
   <trkpt lat="46.1841773986816" lon="7.00204610824585">
    <ele>882.825012207031</ele>
    <time>2012-03-09T11:13:06Z</time>
   </trkpt>
   <trkpt lat="46.1841621398926" lon="7.00203323364258">
    <ele>883.087524414062</ele>
    <time>2012-03-09T11:13:07Z</time>
   </trkpt>
   <trkpt lat="46.1841430664062" lon="7.00201940536499">
    <ele>883.349975585938</ele>
    <time>2012-03-09T11:13:08Z</time>
   </trkpt>
   <trkpt lat="46.1841239929199" lon="7.0020055770874">
    <ele>883.612487792969</ele>
    <time>2012-03-09T11:13:09Z</time>
   </trkpt>
   <trkpt lat="46.1841049194336" lon="7.00199174880982">
    <ele>883.875</ele>
    <time>2012-03-09T11:13:10Z</time>
   </trkpt>
   <trkpt lat="46.1837921142578" lon="7.0021162033081">
    <ele>888.599975585938</ele>
    <time>2012-03-09T11:13:28Z</time>
   </trkpt>
   <trkpt lat="46.183723449707" lon="7.00217294692993">
    <ele>888.599975585938</ele>
    <time>2012-03-09T11:13:31Z</time>
   </trkpt>
   <trkpt lat="46.1837043762207" lon="7.00218152999878">
    <ele>889.039978027344</ele>
    <time>2012-03-09T11:13:32Z</time>
   </trkpt>
   <trkpt lat="46.1836814880371" lon="7.0021800994873">
    <ele>889.47998046875</ele>
    <time>2012-03-09T11:13:33Z</time>
   </trkpt>
   <trkpt lat="46.1836624145508" lon="7.0021800994873">
    <ele>889.919982910156</ele>
    <time>2012-03-09T11:13:34Z</time>
   </trkpt>
   <trkpt lat="46.1836433410644" lon="7.00217771530151">
    <ele>890.359985351562</ele>
    <time>2012-03-09T11:13:35Z</time>
   </trkpt>
   <trkpt lat="46.1836242675781" lon="7.00218486785889">
    <ele>890.799987792969</ele>
    <time>2012-03-09T11:13:36Z</time>
   </trkpt>
   <trkpt lat="46.1836013793945" lon="7.00218820571899">
    <ele>890.799987792969</ele>
    <time>2012-03-09T11:13:37Z</time>
   </trkpt>
   <trkpt lat="46.1835670471191" lon="7.00218391418457">
    <ele>891.362487792969</ele>
    <time>2012-03-09T11:13:39Z</time>
   </trkpt>
   <trkpt lat="46.1835479736328" lon="7.00218820571899">
    <ele>891.643737792969</ele>
    <time>2012-03-09T11:13:40Z</time>
   </trkpt>
   <trkpt lat="46.183536529541" lon="7.00218200683594">
    <ele>891.924987792969</ele>
    <time>2012-03-09T11:13:41Z</time>
   </trkpt>
   <trkpt lat="46.183521270752" lon="7.00217723846436">
    <ele>892.206237792969</ele>
    <time>2012-03-09T11:13:42Z</time>
   </trkpt>
   <trkpt lat="46.1829643249512" lon="7.00192832946777">
    <ele>899.799987792969</ele>
    <time>2012-03-09T11:14:09Z</time>
   </trkpt>
   <trkpt lat="46.1828727722168" lon="7.00196504592896">
    <ele>899.799987792969</ele>
    <time>2012-03-09T11:14:12Z</time>
   </trkpt>
   <trkpt lat="46.182861328125" lon="7.00197839736938">
    <ele>900.1142578125</ele>
    <time>2012-03-09T11:14:13Z</time>
   </trkpt>
   <trkpt lat="46.1828536987305" lon="7.00197744369507">
    <ele>900.428588867188</ele>
    <time>2012-03-09T11:14:14Z</time>
   </trkpt>
   <trkpt lat="46.1828422546387" lon="7.00198221206665">
    <ele>900.742858886719</ele>
    <time>2012-03-09T11:14:15Z</time>
   </trkpt>
   <trkpt lat="46.1828231811523" lon="7.00198793411255">
    <ele>901.05712890625</ele>
    <time>2012-03-09T11:14:16Z</time>
   </trkpt>
   <trkpt lat="46.182804107666" lon="7.00198888778686">
    <ele>901.371398925781</ele>
    <time>2012-03-09T11:14:17Z</time>
   </trkpt>
   <trkpt lat="46.1827049255371" lon="7.00201797485352">
    <ele>902.628540039062</ele>
    <time>2012-03-09T11:14:21Z</time>
   </trkpt>
   <trkpt lat="46.1826820373535" lon="7.00202083587646">
    <ele>902.94287109375</ele>
    <time>2012-03-09T11:14:22Z</time>
   </trkpt>
   <trkpt lat="46.1826591491699" lon="7.00200796127319">
    <ele>903.257141113281</ele>
    <time>2012-03-09T11:14:23Z</time>
   </trkpt>
   <trkpt lat="46.1826400756836" lon="7.00199508666992">
    <ele>903.571411132812</ele>
    <time>2012-03-09T11:14:24Z</time>
   </trkpt>
   <trkpt lat="46.1826210021973" lon="7.00197267532349">
    <ele>903.885681152344</ele>
    <time>2012-03-09T11:14:25Z</time>
   </trkpt>
   <trkpt lat="46.1825332641602" lon="7.00187730789185">
    <ele>905.142822265625</ele>
    <time>2012-03-09T11:14:29Z</time>
   </trkpt>
   <trkpt lat="46.1825141906738" lon="7.00184631347656">
    <ele>905.457153320312</ele>
    <time>2012-03-09T11:14:30Z</time>
   </trkpt>
   <trkpt lat="46.1824989318848" lon="7.00181674957275">
    <ele>905.771423339844</ele>
    <time>2012-03-09T11:14:31Z</time>
   </trkpt>
   <trkpt lat="46.1824836730957" lon="7.001793384552">
    <ele>906.085693359375</ele>
    <time>2012-03-09T11:14:32Z</time>
   </trkpt>
   <trkpt lat="46.1824340820312" lon="7.00168991088867">
    <ele>907.342834472656</ele>
    <time>2012-03-09T11:14:36Z</time>
   </trkpt>
   <trkpt lat="46.1824264526367" lon="7.00166273117065">
    <ele>907.657104492188</ele>
    <time>2012-03-09T11:14:37Z</time>
   </trkpt>
   <trkpt lat="46.1824150085449" lon="7.00163888931274">
    <ele>907.971435546875</ele>
    <time>2012-03-09T11:14:38Z</time>
   </trkpt>
   <trkpt lat="46.1824035644531" lon="7.00160837173462">
    <ele>908.285705566406</ele>
    <time>2012-03-09T11:14:39Z</time>
   </trkpt>
   <trkpt lat="46.1823959350586" lon="7.00158596038818">
    <ele>908.599975585938</ele>
    <time>2012-03-09T11:14:40Z</time>
   </trkpt>
   <trkpt lat="46.1823844909668" lon="7.00153875350952">
    <ele>908.599975585938</ele>
    <time>2012-03-09T11:14:42Z</time>
   </trkpt>
   <trkpt lat="46.1823692321777" lon="7.00148010253906">
    <ele>909.333312988281</ele>
    <time>2012-03-09T11:14:44Z</time>
   </trkpt>
   <trkpt lat="46.182373046875" lon="7.00144863128662">
    <ele>909.699951171875</ele>
    <time>2012-03-09T11:14:45Z</time>
   </trkpt>
   <trkpt lat="46.182373046875" lon="7.00142431259155">
    <ele>910.066650390625</ele>
    <time>2012-03-09T11:14:46Z</time>
   </trkpt>
   <trkpt lat="46.182373046875" lon="7.00139808654785">
    <ele>910.433349609375</ele>
    <time>2012-03-09T11:14:47Z</time>
   </trkpt>
   <trkpt lat="46.1823768615723" lon="7.00137329101562">
    <ele>910.799987792969</ele>
    <time>2012-03-09T11:14:48Z</time>
   </trkpt>
   <trkpt lat="46.182373046875" lon="7.00134563446045">
    <ele>910.799987792969</ele>
    <time>2012-03-09T11:14:49Z</time>
   </trkpt>
   <trkpt lat="46.1823616027832" lon="7.00132274627686">
    <ele>911.081787109375</ele>
    <time>2012-03-09T11:14:50Z</time>
   </trkpt>
   <trkpt lat="46.1823501586914" lon="7.00126600265503">
    <ele>911.645446777344</ele>
    <time>2012-03-09T11:14:52Z</time>
   </trkpt>
   <trkpt lat="46.1823463439941" lon="7.00123739242554">
    <ele>911.92724609375</ele>
    <time>2012-03-09T11:14:53Z</time>
   </trkpt>
   <trkpt lat="46.1823425292969" lon="7.00120878219604">
    <ele>912.209106445312</ele>
    <time>2012-03-09T11:14:54Z</time>
   </trkpt>
   <trkpt lat="46.1823387145996" lon="7.00117635726929">
    <ele>912.490905761719</ele>
    <time>2012-03-09T11:14:55Z</time>
   </trkpt>
   <trkpt lat="46.1823348999023" lon="7.00114727020264">
    <ele>912.772705078125</ele>
    <time>2012-03-09T11:14:56Z</time>
   </trkpt>
   <trkpt lat="46.1823272705078" lon="7.00104331970215">
    <ele>913.900024414062</ele>
    <time>2012-03-09T11:15:00Z</time>
   </trkpt>
   <trkpt lat="46.1823310852051" lon="7.00102376937866">
    <ele>914.181823730469</ele>
    <time>2012-03-09T11:15:01Z</time>
   </trkpt>
   <trkpt lat="46.1823272705078" lon="7.00099658966064">
    <ele>914.463623046875</ele>
    <time>2012-03-09T11:15:02Z</time>
   </trkpt>
   <trkpt lat="46.1823272705078" lon="7.00097370147705">
    <ele>914.745422363281</ele>
    <time>2012-03-09T11:15:03Z</time>
   </trkpt>
   <trkpt lat="46.1823234558106" lon="7.00094652175903">
    <ele>915.027282714844</ele>
    <time>2012-03-09T11:15:04Z</time>
   </trkpt>
   <trkpt lat="46.1823310852051" lon="7.00086641311646">
    <ele>915.872741699219</ele>
    <time>2012-03-09T11:15:07Z</time>
   </trkpt>
   <trkpt lat="46.1823272705078" lon="7.00083827972412">
    <ele>916.154541015625</ele>
    <time>2012-03-09T11:15:08Z</time>
   </trkpt>
   <trkpt lat="46.1823196411133" lon="7.00082302093506">
    <ele>916.436340332031</ele>
    <time>2012-03-09T11:15:09Z</time>
   </trkpt>
   <trkpt lat="46.1823120117188" lon="7.000807762146">
    <ele>916.718200683594</ele>
    <time>2012-03-09T11:15:10Z</time>
   </trkpt>
   <trkpt lat="46.1823043823242" lon="7.00079250335693">
    <ele>917</ele>
    <time>2012-03-09T11:15:11Z</time>
   </trkpt>
   <trkpt lat="46.1822929382324" lon="7.00075531005859">
    <ele>917</ele>
    <time>2012-03-09T11:15:13Z</time>
   </trkpt>
   <trkpt lat="46.1822929382324" lon="7.00070858001709">
    <ele>917.646179199219</ele>
    <time>2012-03-09T11:15:15Z</time>
   </trkpt>
   <trkpt lat="46.1822814941406" lon="7.00068235397339">
    <ele>917.96923828125</ele>
    <time>2012-03-09T11:15:16Z</time>
   </trkpt>
   <trkpt lat="46.1822776794434" lon="7.00066089630127">
    <ele>918.292297363281</ele>
    <time>2012-03-09T11:15:17Z</time>
   </trkpt>
   <trkpt lat="46.1822662353516" lon="7.00063562393188">
    <ele>918.615417480469</ele>
    <time>2012-03-09T11:15:18Z</time>
   </trkpt>
   <trkpt lat="46.182258605957" lon="7.00061178207398">
    <ele>918.9384765625</ele>
    <time>2012-03-09T11:15:19Z</time>
   </trkpt>
   <trkpt lat="46.1822280883789" lon="7.00054311752319">
    <ele>919.90771484375</ele>
    <time>2012-03-09T11:15:22Z</time>
   </trkpt>
   <trkpt lat="46.1822166442871" lon="7.00051307678223">
    <ele>920.230773925781</ele>
    <time>2012-03-09T11:15:23Z</time>
   </trkpt>
   <trkpt lat="46.1822052001953" lon="7.00048160552978">
    <ele>920.553833007812</ele>
    <time>2012-03-09T11:15:24Z</time>
   </trkpt>
   <trkpt lat="46.1821899414062" lon="7.00045537948608">
    <ele>920.876953125</ele>
    <time>2012-03-09T11:15:25Z</time>
   </trkpt>
   <trkpt lat="46.1821746826172" lon="7.00043058395386">
    <ele>921.200012207031</ele>
    <time>2012-03-09T11:15:26Z</time>
   </trkpt>
   <trkpt lat="46.18212890625" lon="7.00033664703369">
    <ele>921.200012207031</ele>
    <time>2012-03-09T11:15:30Z</time>
   </trkpt>
   <trkpt lat="46.1821098327637" lon="7.00028848648071">
    <ele>921.933349609375</ele>
    <time>2012-03-09T11:15:32Z</time>
   </trkpt>
   <trkpt lat="46.1821060180664" lon="7.00026798248291">
    <ele>922.300048828125</ele>
    <time>2012-03-09T11:15:33Z</time>
   </trkpt>
   <trkpt lat="46.1821022033691" lon="7.00024175643921">
    <ele>922.666687011719</ele>
    <time>2012-03-09T11:15:34Z</time>
   </trkpt>
   <trkpt lat="46.1820907592773" lon="7.00022029876709">
    <ele>923.033325195312</ele>
    <time>2012-03-09T11:15:35Z</time>
   </trkpt>
   <trkpt lat="46.1820831298828" lon="7.00020408630371">
    <ele>923.400024414062</ele>
    <time>2012-03-09T11:15:36Z</time>
   </trkpt>
   <trkpt lat="46.182071685791" lon="7.00018119812012">
    <ele>923.400024414062</ele>
    <time>2012-03-09T11:15:37Z</time>
   </trkpt>
   <trkpt lat="46.182056427002" lon="7.0001220703125">
    <ele>924.066711425781</ele>
    <time>2012-03-09T11:15:39Z</time>
   </trkpt>
   <trkpt lat="46.1820526123047" lon="7.00009202957153">
    <ele>924.400024414062</ele>
    <time>2012-03-09T11:15:40Z</time>
   </trkpt>
   <trkpt lat="46.182056427002" lon="7.00006151199341">
    <ele>924.733337402344</ele>
    <time>2012-03-09T11:15:41Z</time>
   </trkpt>
   <trkpt lat="46.1820526123047" lon="7.00003147125244">
    <ele>925.066711425781</ele>
    <time>2012-03-09T11:15:42Z</time>
   </trkpt>
   <trkpt lat="46.1820526123047" lon="7.00000333786011">
    <ele>925.400024414062</ele>
    <time>2012-03-09T11:15:43Z</time>
   </trkpt>
   <trkpt lat="46.1820487976074" lon="6.99997806549072">
    <ele>925.400024414062</ele>
    <time>2012-03-09T11:15:44Z</time>
   </trkpt>
   <trkpt lat="46.1820259094238" lon="6.99993801116943">
    <ele>926.066711425781</ele>
    <time>2012-03-09T11:15:46Z</time>
   </trkpt>
   <trkpt lat="46.1820220947266" lon="6.99990463256836">
    <ele>926.400024414062</ele>
    <time>2012-03-09T11:15:47Z</time>
   </trkpt>
   <trkpt lat="46.182014465332" lon="6.99987030029297">
    <ele>926.733337402344</ele>
    <time>2012-03-09T11:15:48Z</time>
   </trkpt>
   <trkpt lat="46.1820030212402" lon="6.99983930587768">
    <ele>927.066711425781</ele>
    <time>2012-03-09T11:15:49Z</time>
   </trkpt>
   <trkpt lat="46.1819915771484" lon="6.9998140335083">
    <ele>927.400024414062</ele>
    <time>2012-03-09T11:15:50Z</time>
   </trkpt>
   <trkpt lat="46.1819725036621" lon="6.99979400634766">
    <ele>927.400024414062</ele>
    <time>2012-03-09T11:15:51Z</time>
   </trkpt>
   <trkpt lat="46.1819305419922" lon="6.99973583221436">
    <ele>928.166687011719</ele>
    <time>2012-03-09T11:15:54Z</time>
   </trkpt>
   <trkpt lat="46.1819190979004" lon="6.99971103668213">
    <ele>928.422241210938</ele>
    <time>2012-03-09T11:15:55Z</time>
   </trkpt>
   <trkpt lat="46.1819038391113" lon="6.99969434738159">
    <ele>928.677795410156</ele>
    <time>2012-03-09T11:15:56Z</time>
   </trkpt>
   <trkpt lat="46.1818923950195" lon="6.99967432022095">
    <ele>928.933349609375</ele>
    <time>2012-03-09T11:15:57Z</time>
   </trkpt>
   <trkpt lat="46.1818771362305" lon="6.99965333938599">
    <ele>929.188903808594</ele>
    <time>2012-03-09T11:15:58Z</time>
   </trkpt>
   <trkpt lat="46.1818618774414" lon="6.99963188171387">
    <ele>929.444458007812</ele>
    <time>2012-03-09T11:15:59Z</time>
   </trkpt>
   <trkpt lat="46.1817855834961" lon="6.99951076507568">
    <ele>930.977783203125</ele>
    <time>2012-03-09T11:16:05Z</time>
   </trkpt>
   <trkpt lat="46.1817741394043" lon="6.99949073791504">
    <ele>931.233337402344</ele>
    <time>2012-03-09T11:16:06Z</time>
   </trkpt>
   <trkpt lat="46.1817626953125" lon="6.99946975708008">
    <ele>931.488891601562</ele>
    <time>2012-03-09T11:16:07Z</time>
   </trkpt>
   <trkpt lat="46.1817398071289" lon="6.99946308135986">
    <ele>931.744445800781</ele>
    <time>2012-03-09T11:16:08Z</time>
   </trkpt>
   <trkpt lat="46.181713104248" lon="6.99944448471069">
    <ele>932</ele>
    <time>2012-03-09T11:16:09Z</time>
   </trkpt>
   <trkpt lat="46.1817054748535" lon="6.99941635131836">
    <ele>932</ele>
    <time>2012-03-09T11:16:10Z</time>
   </trkpt>
   <trkpt lat="46.181697845459" lon="6.99938106536865">
    <ele>932.326293945312</ele>
    <time>2012-03-09T11:16:11Z</time>
   </trkpt>
   <trkpt lat="46.1816940307617" lon="6.99934673309326">
    <ele>932.652648925781</ele>
    <time>2012-03-09T11:16:12Z</time>
   </trkpt>
   <trkpt lat="46.181697845459" lon="6.99931049346924">
    <ele>932.978942871094</ele>
    <time>2012-03-09T11:16:13Z</time>
   </trkpt>
   <trkpt lat="46.1816825866699" lon="6.99928855895996">
    <ele>933.305236816406</ele>
    <time>2012-03-09T11:16:14Z</time>
   </trkpt>
   <trkpt lat="46.1816787719727" lon="6.9992561340332">
    <ele>933.631591796875</ele>
    <time>2012-03-09T11:16:15Z</time>
   </trkpt>
   <trkpt lat="46.1816749572754" lon="6.99920225143433">
    <ele>934.284240722656</ele>
    <time>2012-03-09T11:16:17Z</time>
   </trkpt>
   <trkpt lat="46.1816711425781" lon="6.9991717338562">
    <ele>934.610534667969</ele>
    <time>2012-03-09T11:16:18Z</time>
   </trkpt>
   <trkpt lat="46.1816635131836" lon="6.99914407730102">
    <ele>934.936828613281</ele>
    <time>2012-03-09T11:16:19Z</time>
   </trkpt>
   <trkpt lat="46.1816520690918" lon="6.99912071228027">
    <ele>935.26318359375</ele>
    <time>2012-03-09T11:16:20Z</time>
   </trkpt>
   <trkpt lat="46.1816444396973" lon="6.99909687042236">
    <ele>935.589477539062</ele>
    <time>2012-03-09T11:16:21Z</time>
   </trkpt>
   <trkpt lat="46.1815910339356" lon="6.99901628494263">
    <ele>936.894775390625</ele>
    <time>2012-03-09T11:16:25Z</time>
   </trkpt>
   <trkpt lat="46.181583404541" lon="6.99900007247925">
    <ele>937.221069335938</ele>
    <time>2012-03-09T11:16:26Z</time>
   </trkpt>
   <trkpt lat="46.181568145752" lon="6.9989972114563">
    <ele>937.54736328125</ele>
    <time>2012-03-09T11:16:27Z</time>
   </trkpt>
   <trkpt lat="46.1815490722656" lon="6.99899625778198">
    <ele>937.873718261719</ele>
    <time>2012-03-09T11:16:28Z</time>
   </trkpt>
   <trkpt lat="46.181526184082" lon="6.9989972114563">
    <ele>938.200012207031</ele>
    <time>2012-03-09T11:16:29Z</time>
   </trkpt>
   <trkpt lat="46.181468963623" lon="6.99898147583008">
    <ele>938.200012207031</ele>
    <time>2012-03-09T11:16:32Z</time>
   </trkpt>
   <trkpt lat="46.1814270019531" lon="6.99895286560059">
    <ele>939.142883300781</ele>
    <time>2012-03-09T11:16:35Z</time>
   </trkpt>
   <trkpt lat="46.1814155578613" lon="6.99894285202026">
    <ele>939.457153320312</ele>
    <time>2012-03-09T11:16:36Z</time>
   </trkpt>
   <trkpt lat="46.1814002990723" lon="6.99892425537109">
    <ele>939.771423339844</ele>
    <time>2012-03-09T11:16:37Z</time>
   </trkpt>
   <trkpt lat="46.1813926696777" lon="6.9989013671875">
    <ele>940.085693359375</ele>
    <time>2012-03-09T11:16:38Z</time>
   </trkpt>
   <trkpt lat="46.1813812255859" lon="6.99888181686401">
    <ele>940.400024414062</ele>
    <time>2012-03-09T11:16:39Z</time>
   </trkpt>
   <trkpt lat="46.1813507080078" lon="6.99881601333618">
    <ele>941.342834472656</ele>
    <time>2012-03-09T11:16:42Z</time>
   </trkpt>
   <trkpt lat="46.181339263916" lon="6.99879693984985">
    <ele>941.657104492188</ele>
    <time>2012-03-09T11:16:43Z</time>
   </trkpt>
   <trkpt lat="46.1813316345215" lon="6.99878263473511">
    <ele>941.971435546875</ele>
    <time>2012-03-09T11:16:44Z</time>
   </trkpt>
   <trkpt lat="46.1813087463379" lon="6.99876880645752">
    <ele>942.285705566406</ele>
    <time>2012-03-09T11:16:45Z</time>
   </trkpt>
   <trkpt lat="46.1812896728516" lon="6.99874448776245">
    <ele>942.599975585938</ele>
    <time>2012-03-09T11:16:46Z</time>
   </trkpt>
   <trkpt lat="46.181266784668" lon="6.99870872497559">
    <ele>942.599975585938</ele>
    <time>2012-03-09T11:16:48Z</time>
   </trkpt>
   <trkpt lat="46.1812438964844" lon="6.99868249893188">
    <ele>943.186645507812</ele>
    <time>2012-03-09T11:16:50Z</time>
   </trkpt>
   <trkpt lat="46.1812324523926" lon="6.99867105484009">
    <ele>943.47998046875</ele>
    <time>2012-03-09T11:16:51Z</time>
   </trkpt>
   <trkpt lat="46.1812210083008" lon="6.99866533279419">
    <ele>943.773315429688</ele>
    <time>2012-03-09T11:16:52Z</time>
   </trkpt>
   <trkpt lat="46.1811943054199" lon="6.99866724014282">
    <ele>944.066650390625</ele>
    <time>2012-03-09T11:16:53Z</time>
   </trkpt>
   <trkpt lat="46.1811676025391" lon="6.99866199493408">
    <ele>944.359985351562</ele>
    <time>2012-03-09T11:16:54Z</time>
   </trkpt>
   <trkpt lat="46.1811447143555" lon="6.99866533279419">
    <ele>944.6533203125</ele>
    <time>2012-03-09T11:16:55Z</time>
   </trkpt>
   <trkpt lat="46.1810607910156" lon="6.99866104125976">
    <ele>946.119995117188</ele>
    <time>2012-03-09T11:17:00Z</time>
   </trkpt>
   <trkpt lat="46.181037902832" lon="6.99866151809692">
    <ele>946.413330078125</ele>
    <time>2012-03-09T11:17:01Z</time>
   </trkpt>
   <trkpt lat="46.1810188293457" lon="6.99866104125976">
    <ele>946.706665039062</ele>
    <time>2012-03-09T11:17:02Z</time>
   </trkpt>
   <trkpt lat="46.1809959411621" lon="6.99865770339966">
    <ele>947</ele>
    <time>2012-03-09T11:17:03Z</time>
   </trkpt>
   <trkpt lat="46.1809387207031" lon="6.99859762191772">
    <ele>947</ele>
    <time>2012-03-09T11:17:07Z</time>
   </trkpt>
   <trkpt lat="46.1809158325195" lon="6.99855518341064">
    <ele>947.586669921875</ele>
    <time>2012-03-09T11:17:09Z</time>
   </trkpt>
   <trkpt lat="46.1809005737305" lon="6.99853801727295">
    <ele>947.880004882812</ele>
    <time>2012-03-09T11:17:10Z</time>
   </trkpt>
   <trkpt lat="46.1808815002441" lon="6.99851751327515">
    <ele>948.17333984375</ele>
    <time>2012-03-09T11:17:11Z</time>
   </trkpt>
   <trkpt lat="46.1808738708496" lon="6.9985032081604">
    <ele>948.466674804688</ele>
    <time>2012-03-09T11:17:12Z</time>
   </trkpt>
   <trkpt lat="46.1808471679688" lon="6.99849271774292">
    <ele>948.760009765625</ele>
    <time>2012-03-09T11:17:13Z</time>
   </trkpt>
   <trkpt lat="46.1807556152344" lon="6.9983983039856">
    <ele>950.226684570312</ele>
    <time>2012-03-09T11:17:18Z</time>
   </trkpt>
   <trkpt lat="46.1807403564453" lon="6.99838447570801">
    <ele>950.52001953125</ele>
    <time>2012-03-09T11:17:19Z</time>
   </trkpt>
   <trkpt lat="46.1807250976562" lon="6.99835729598999">
    <ele>950.813354492188</ele>
    <time>2012-03-09T11:17:20Z</time>
   </trkpt>
   <trkpt lat="46.1807098388672" lon="6.99834108352661">
    <ele>951.106689453125</ele>
    <time>2012-03-09T11:17:21Z</time>
   </trkpt>
   <trkpt lat="46.1806945800781" lon="6.99832391738892">
    <ele>951.400024414062</ele>
    <time>2012-03-09T11:17:22Z</time>
   </trkpt>
   <trkpt lat="46.1806831359863" lon="6.99829816818237">
    <ele>951.400024414062</ele>
    <time>2012-03-09T11:17:23Z</time>
   </trkpt>
   <trkpt lat="46.1806564331055" lon="6.99825191497803">
    <ele>951.986694335938</ele>
    <time>2012-03-09T11:17:25Z</time>
   </trkpt>
   <trkpt lat="46.1806449890137" lon="6.99822235107422">
    <ele>952.280029296875</ele>
    <time>2012-03-09T11:17:26Z</time>
   </trkpt>
   <trkpt lat="46.1806335449219" lon="6.99819898605347">
    <ele>952.573364257812</ele>
    <time>2012-03-09T11:17:27Z</time>
   </trkpt>
   <trkpt lat="46.1806297302246" lon="6.99817180633545">
    <ele>952.86669921875</ele>
    <time>2012-03-09T11:17:28Z</time>
   </trkpt>
   <trkpt lat="46.1806259155273" lon="6.99814748764038">
    <ele>953.160034179688</ele>
    <time>2012-03-09T11:17:29Z</time>
   </trkpt>
   <trkpt lat="46.1806106567383" lon="6.99800205230713">
    <ele>954.626647949219</ele>
    <time>2012-03-09T11:17:34Z</time>
   </trkpt>
   <trkpt lat="46.1805992126465" lon="6.99798774719238">
    <ele>954.919982910156</ele>
    <time>2012-03-09T11:17:35Z</time>
   </trkpt>
   <trkpt lat="46.180591583252" lon="6.99795818328857">
    <ele>955.213317871094</ele>
    <time>2012-03-09T11:17:36Z</time>
   </trkpt>
   <trkpt lat="46.1805801391602" lon="6.99793148040772">
    <ele>955.506652832031</ele>
    <time>2012-03-09T11:17:37Z</time>
   </trkpt>
   <trkpt lat="46.1805839538574" lon="6.99791574478149">
    <ele>955.799987792969</ele>
    <time>2012-03-09T11:17:38Z</time>
   </trkpt>
   <trkpt lat="46.1805725097656" lon="6.9978837966919">
    <ele>955.799987792969</ele>
    <time>2012-03-09T11:17:40Z</time>
   </trkpt>
   <trkpt lat="46.180549621582" lon="6.99779891967774">
    <ele>956.900024414062</ele>
    <time>2012-03-09T11:17:44Z</time>
   </trkpt>
   <trkpt lat="46.1805305480957" lon="6.99777793884277">
    <ele>957.174987792969</ele>
    <time>2012-03-09T11:17:45Z</time>
   </trkpt>
   <trkpt lat="46.1805267333984" lon="6.99774360656738">
    <ele>957.450012207031</ele>
    <time>2012-03-09T11:17:46Z</time>
   </trkpt>
   <trkpt lat="46.1805229187012" lon="6.99771499633789">
    <ele>957.724975585938</ele>
    <time>2012-03-09T11:17:47Z</time>
   </trkpt>
   <trkpt lat="46.1805114746094" lon="6.99770069122314">
    <ele>958</ele>
    <time>2012-03-09T11:17:48Z</time>
   </trkpt>
   <trkpt lat="46.1805038452148" lon="6.9976544380188">
    <ele>958</ele>
    <time>2012-03-09T11:17:50Z</time>
   </trkpt>
   <trkpt lat="46.1804962158203" lon="6.99764204025268">
    <ele>958.440002441406</ele>
    <time>2012-03-09T11:17:51Z</time>
   </trkpt>
   <trkpt lat="46.1804885864258" lon="6.9976167678833">
    <ele>958.880004882812</ele>
    <time>2012-03-09T11:17:52Z</time>
   </trkpt>
   <trkpt lat="46.180477142334" lon="6.99758958816528">
    <ele>959.320007324219</ele>
    <time>2012-03-09T11:17:53Z</time>
   </trkpt>
   <trkpt lat="46.1804656982422" lon="6.99757385253906">
    <ele>959.760009765625</ele>
    <time>2012-03-09T11:17:54Z</time>
   </trkpt>
   <trkpt lat="46.1804504394531" lon="6.99755764007568">
    <ele>960.200012207031</ele>
    <time>2012-03-09T11:17:55Z</time>
   </trkpt>
   <trkpt lat="46.1804389953613" lon="6.99753141403198">
    <ele>960.200012207031</ele>
    <time>2012-03-09T11:17:56Z</time>
   </trkpt>
   <trkpt lat="46.1803855895996" lon="6.99745941162109">
    <ele>961.05712890625</ele>
    <time>2012-03-09T11:17:59Z</time>
   </trkpt>
   <trkpt lat="46.1803665161133" lon="6.99743223190308">
    <ele>961.342895507812</ele>
    <time>2012-03-09T11:18:00Z</time>
   </trkpt>
   <trkpt lat="46.1803512573242" lon="6.99741077423096">
    <ele>961.628601074219</ele>
    <time>2012-03-09T11:18:01Z</time>
   </trkpt>
   <trkpt lat="46.1803359985352" lon="6.99739408493042">
    <ele>961.914306640625</ele>
    <time>2012-03-09T11:18:02Z</time>
   </trkpt>
   <trkpt lat="46.1803169250488" lon="6.99737644195557">
    <ele>962.200012207031</ele>
    <time>2012-03-09T11:18:03Z</time>
   </trkpt>
   <trkpt lat="46.1802635192871" lon="6.99729633331299">
    <ele>962.200012207031</ele>
    <time>2012-03-09T11:18:06Z</time>
   </trkpt>
   <trkpt lat="46.1802368164062" lon="6.99721813201904">
    <ele>963.142883300781</ele>
    <time>2012-03-09T11:18:09Z</time>
   </trkpt>
   <trkpt lat="46.1802291870117" lon="6.99718475341797">
    <ele>963.457153320312</ele>
    <time>2012-03-09T11:18:10Z</time>
   </trkpt>
   <trkpt lat="46.1802215576172" lon="6.99715900421143">
    <ele>963.771423339844</ele>
    <time>2012-03-09T11:18:11Z</time>
   </trkpt>
   <trkpt lat="46.1802139282227" lon="6.99713182449341">
    <ele>964.085754394531</ele>
    <time>2012-03-09T11:18:12Z</time>
   </trkpt>
   <trkpt lat="46.1802062988281" lon="6.99711036682129">
    <ele>964.400024414062</ele>
    <time>2012-03-09T11:18:13Z</time>
   </trkpt>
   <trkpt lat="46.1802062988281" lon="6.99707698822022">
    <ele>964.400024414062</ele>
    <time>2012-03-09T11:18:14Z</time>
   </trkpt>
   <trkpt lat="46.1802024841309" lon="6.99705457687378">
    <ele>964.840026855469</ele>
    <time>2012-03-09T11:18:15Z</time>
   </trkpt>
   <trkpt lat="46.1801948547363" lon="6.99702453613281">
    <ele>965.280029296875</ele>
    <time>2012-03-09T11:18:16Z</time>
   </trkpt>
   <trkpt lat="46.1801795959473" lon="6.9969973564148">
    <ele>965.719970703125</ele>
    <time>2012-03-09T11:18:17Z</time>
   </trkpt>
   <trkpt lat="46.18017578125" lon="6.99697685241699">
    <ele>966.159973144531</ele>
    <time>2012-03-09T11:18:18Z</time>
   </trkpt>
   <trkpt lat="46.1801605224609" lon="6.99695730209351">
    <ele>966.599975585938</ele>
    <time>2012-03-09T11:18:19Z</time>
   </trkpt>
   <trkpt lat="46.1801338195801" lon="6.99688959121704">
    <ele>966.599975585938</ele>
    <time>2012-03-09T11:18:22Z</time>
   </trkpt>
   <trkpt lat="46.1801071166992" lon="6.99686431884766">
    <ele>967.159973144531</ele>
    <time>2012-03-09T11:18:24Z</time>
   </trkpt>
   <trkpt lat="46.1800918579102" lon="6.9968523979187">
    <ele>967.440002441406</ele>
    <time>2012-03-09T11:18:25Z</time>
   </trkpt>
   <trkpt lat="46.1800765991211" lon="6.99682998657226">
    <ele>967.719970703125</ele>
    <time>2012-03-09T11:18:26Z</time>
   </trkpt>
   <trkpt lat="46.1800651550293" lon="6.99681568145752">
    <ele>968</ele>
    <time>2012-03-09T11:18:27Z</time>
   </trkpt>
   <trkpt lat="46.1800537109375" lon="6.99679327011108">
    <ele>968.279968261719</ele>
    <time>2012-03-09T11:18:28Z</time>
   </trkpt>
   <trkpt lat="46.1799774169922" lon="6.99668169021606">
    <ele>969.679992675781</ele>
    <time>2012-03-09T11:18:33Z</time>
   </trkpt>
   <trkpt lat="46.1799507141113" lon="6.99665927886963">
    <ele>969.9599609375</ele>
    <time>2012-03-09T11:18:34Z</time>
   </trkpt>
   <trkpt lat="46.179931640625" lon="6.99664831161499">
    <ele>970.239990234375</ele>
    <time>2012-03-09T11:18:35Z</time>
   </trkpt>
   <trkpt lat="46.1799201965332" lon="6.99662256240845">
    <ele>970.519958496094</ele>
    <time>2012-03-09T11:18:36Z</time>
   </trkpt>
   <trkpt lat="46.1799087524414" lon="6.99659729003906">
    <ele>970.799987792969</ele>
    <time>2012-03-09T11:18:37Z</time>
   </trkpt>
   <trkpt lat="46.1798934936523" lon="6.99655532836914">
    <ele>970.799987792969</ele>
    <time>2012-03-09T11:18:39Z</time>
   </trkpt>
   <trkpt lat="46.1799011230469" lon="6.99652528762817">
    <ele>971.13330078125</ele>
    <time>2012-03-09T11:18:40Z</time>
   </trkpt>
   <trkpt lat="46.1798934936523" lon="6.99648714065552">
    <ele>971.466674804688</ele>
    <time>2012-03-09T11:18:41Z</time>
   </trkpt>
   <trkpt lat="46.1798896789551" lon="6.99646663665772">
    <ele>971.799987792969</ele>
    <time>2012-03-09T11:18:42Z</time>
   </trkpt>
   <trkpt lat="46.1798858642578" lon="6.99643659591675">
    <ele>972.13330078125</ele>
    <time>2012-03-09T11:18:43Z</time>
   </trkpt>
   <trkpt lat="46.1798934936523" lon="6.9964017868042">
    <ele>972.466674804688</ele>
    <time>2012-03-09T11:18:44Z</time>
   </trkpt>
   <trkpt lat="46.1798858642578" lon="6.99637413024902">
    <ele>972.799987792969</ele>
    <time>2012-03-09T11:18:45Z</time>
   </trkpt>
   <trkpt lat="46.1798820495606" lon="6.99627828598022">
    <ele>972.799987792969</ele>
    <time>2012-03-09T11:18:48Z</time>
   </trkpt>
   <trkpt lat="46.1798820495606" lon="6.99624824523926">
    <ele>973.1142578125</ele>
    <time>2012-03-09T11:18:49Z</time>
   </trkpt>
   <trkpt lat="46.1798896789551" lon="6.99621915817261">
    <ele>973.428588867188</ele>
    <time>2012-03-09T11:18:50Z</time>
   </trkpt>
   <trkpt lat="46.1799011230469" lon="6.99618768692017">
    <ele>973.742858886719</ele>
    <time>2012-03-09T11:18:51Z</time>
   </trkpt>
   <trkpt lat="46.1799049377441" lon="6.99616432189941">
    <ele>974.05712890625</ele>
    <time>2012-03-09T11:18:52Z</time>
   </trkpt>
   <trkpt lat="46.1799049377441" lon="6.99613809585571">
    <ele>974.371398925781</ele>
    <time>2012-03-09T11:18:53Z</time>
   </trkpt>
   <trkpt lat="46.1799087524414" lon="6.99599313735962">
    <ele>975.94287109375</ele>
    <time>2012-03-09T11:18:58Z</time>
   </trkpt>
   <trkpt lat="46.1799125671387" lon="6.99595975875854">
    <ele>976.257141113281</ele>
    <time>2012-03-09T11:18:59Z</time>
   </trkpt>
   <trkpt lat="46.1799087524414" lon="6.9959282875061">
    <ele>976.571411132812</ele>
    <time>2012-03-09T11:19:00Z</time>
   </trkpt>
   <trkpt lat="46.1799049377441" lon="6.99590110778809">
    <ele>976.8857421875</ele>
    <time>2012-03-09T11:19:01Z</time>
   </trkpt>
   <trkpt lat="46.1799049377441" lon="6.99587774276733">
    <ele>977.200012207031</ele>
    <time>2012-03-09T11:19:02Z</time>
   </trkpt>
   <trkpt lat="46.1799125671387" lon="6.99585294723511">
    <ele>977.200012207031</ele>
    <time>2012-03-09T11:19:03Z</time>
   </trkpt>
   <trkpt lat="46.1799125671387" lon="6.99579524993896">
    <ele>977.771423339844</ele>
    <time>2012-03-09T11:19:05Z</time>
   </trkpt>
   <trkpt lat="46.1799163818359" lon="6.99577283859253">
    <ele>978.05712890625</ele>
    <time>2012-03-09T11:19:06Z</time>
   </trkpt>
   <trkpt lat="46.1799201965332" lon="6.99574708938599">
    <ele>978.342895507812</ele>
    <time>2012-03-09T11:19:07Z</time>
   </trkpt>
   <trkpt lat="46.1799163818359" lon="6.9957218170166">
    <ele>978.628601074219</ele>
    <time>2012-03-09T11:19:08Z</time>
   </trkpt>
   <trkpt lat="46.1799163818359" lon="6.99569797515869">
    <ele>978.914306640625</ele>
    <time>2012-03-09T11:19:09Z</time>
   </trkpt>
   <trkpt lat="46.1799163818359" lon="6.99567174911499">
    <ele>979.200012207031</ele>
    <time>2012-03-09T11:19:10Z</time>
   </trkpt>
   <trkpt lat="46.1799163818359" lon="6.99564456939697">
    <ele>979.200012207031</ele>
    <time>2012-03-09T11:19:11Z</time>
   </trkpt>
   <trkpt lat="46.1799087524414" lon="6.99554061889648">
    <ele>980.300048828125</ele>
    <time>2012-03-09T11:19:15Z</time>
   </trkpt>
   <trkpt lat="46.1799087524414" lon="6.99551439285278">
    <ele>980.575012207031</ele>
    <time>2012-03-09T11:19:16Z</time>
   </trkpt>
   <trkpt lat="46.1799011230469" lon="6.99549388885498">
    <ele>980.850036621094</ele>
    <time>2012-03-09T11:19:17Z</time>
   </trkpt>
   <trkpt lat="46.1798973083496" lon="6.99546480178833">
    <ele>981.125</ele>
    <time>2012-03-09T11:19:18Z</time>
   </trkpt>
   <trkpt lat="46.1798896789551" lon="6.99544286727905">
    <ele>981.400024414062</ele>
    <time>2012-03-09T11:19:19Z</time>
   </trkpt>
   <trkpt lat="46.179859161377" lon="6.99535036087036">
    <ele>981.400024414062</ele>
    <time>2012-03-09T11:19:23Z</time>
   </trkpt>
   <trkpt lat="46.1798515319824" lon="6.99533700942993">
    <ele>981.900024414062</ele>
    <time>2012-03-09T11:19:24Z</time>
   </trkpt>
   <trkpt lat="46.1798515319824" lon="6.99530744552612">
    <ele>982.400024414062</ele>
    <time>2012-03-09T11:19:25Z</time>
   </trkpt>
   <trkpt lat="46.1798477172852" lon="6.995276927948">
    <ele>982.900024414062</ele>
    <time>2012-03-09T11:19:26Z</time>
   </trkpt>
   <trkpt lat="46.1798515319824" lon="6.99524211883545">
    <ele>983.400024414062</ele>
    <time>2012-03-09T11:19:27Z</time>
   </trkpt>
   <trkpt lat="46.1798515319824" lon="6.99522256851196">
    <ele>983.400024414062</ele>
    <time>2012-03-09T11:19:28Z</time>
   </trkpt>
   <trkpt lat="46.179817199707" lon="6.9951024055481">
    <ele>984.622192382812</ele>
    <time>2012-03-09T11:19:33Z</time>
   </trkpt>
   <trkpt lat="46.1798133850098" lon="6.9950680732727">
    <ele>984.866638183594</ele>
    <time>2012-03-09T11:19:34Z</time>
   </trkpt>
   <trkpt lat="46.1798057556152" lon="6.99504613876343">
    <ele>985.111083984375</ele>
    <time>2012-03-09T11:19:35Z</time>
   </trkpt>
   <trkpt lat="46.1797981262207" lon="6.99502325057983">
    <ele>985.355529785156</ele>
    <time>2012-03-09T11:19:36Z</time>
   </trkpt>
   <trkpt lat="46.1797943115234" lon="6.99500465393066">
    <ele>985.599975585938</ele>
    <time>2012-03-09T11:19:37Z</time>
   </trkpt>
   <trkpt lat="46.1797828674316" lon="6.99497699737549">
    <ele>985.599975585938</ele>
    <time>2012-03-09T11:19:38Z</time>
   </trkpt>
   <trkpt lat="46.1797676086426" lon="6.99496126174927">
    <ele>985.849975585938</ele>
    <time>2012-03-09T11:19:39Z</time>
   </trkpt>
   <trkpt lat="46.1797294616699" lon="6.99489402770996">
    <ele>986.599975585938</ele>
    <time>2012-03-09T11:19:42Z</time>
   </trkpt>
   <trkpt lat="46.1797180175781" lon="6.99487686157226">
    <ele>986.849975585938</ele>
    <time>2012-03-09T11:19:43Z</time>
   </trkpt>
   <trkpt lat="46.1797027587891" lon="6.99485492706299">
    <ele>987.099975585938</ele>
    <time>2012-03-09T11:19:44Z</time>
   </trkpt>
   <trkpt lat="46.1796913146973" lon="6.99482917785644">
    <ele>987.349975585938</ele>
    <time>2012-03-09T11:19:45Z</time>
   </trkpt>
   <trkpt lat="46.1796875" lon="6.99480152130127">
    <ele>987.599975585938</ele>
    <time>2012-03-09T11:19:46Z</time>
   </trkpt>
   <trkpt lat="46.1796951293945" lon="6.99477958679199">
    <ele>987.599975585938</ele>
    <time>2012-03-09T11:19:47Z</time>
   </trkpt>
   <trkpt lat="46.1797370910644" lon="6.99471235275268">
    <ele>988.699951171875</ele>
    <time>2012-03-09T11:19:51Z</time>
   </trkpt>
   <trkpt lat="46.179759979248" lon="6.99471712112427">
    <ele>988.974975585938</ele>
    <time>2012-03-09T11:19:52Z</time>
   </trkpt>
   <trkpt lat="46.1797752380371" lon="6.99473810195923">
    <ele>989.25</ele>
    <time>2012-03-09T11:19:53Z</time>
   </trkpt>
   <trkpt lat="46.1797828674316" lon="6.99475479125976">
    <ele>989.524963378906</ele>
    <time>2012-03-09T11:19:54Z</time>
   </trkpt>
   <trkpt lat="46.1797904968262" lon="6.99476766586304">
    <ele>989.799987792969</ele>
    <time>2012-03-09T11:19:55Z</time>
   </trkpt>
   <trkpt lat="46.1798477172852" lon="6.99484729766846">
    <ele>989.799987792969</ele>
    <time>2012-03-09T11:19:59Z</time>
   </trkpt>
   <trkpt lat="46.1798629760742" lon="6.99487066268921">
    <ele>990.200012207031</ele>
    <time>2012-03-09T11:20:00Z</time>
   </trkpt>
   <trkpt lat="46.1798706054688" lon="6.99489116668701">
    <ele>990.599975585938</ele>
    <time>2012-03-09T11:20:01Z</time>
   </trkpt>
   <trkpt lat="46.1798858642578" lon="6.99491119384766">
    <ele>991</ele>
    <time>2012-03-09T11:20:02Z</time>
   </trkpt>
   <trkpt lat="46.1798934936523" lon="6.99492788314819">
    <ele>991.399963378906</ele>
    <time>2012-03-09T11:20:03Z</time>
   </trkpt>
   <trkpt lat="46.1799011230469" lon="6.99494695663452">
    <ele>991.799987792969</ele>
    <time>2012-03-09T11:20:04Z</time>
   </trkpt>
   <trkpt lat="46.1799278259277" lon="6.99500799179077">
    <ele>991.799987792969</ele>
    <time>2012-03-09T11:20:07Z</time>
   </trkpt>
   <trkpt lat="46.1800117492676" lon="6.99513387680054">
    <ele>993.119995117188</ele>
    <time>2012-03-09T11:20:13Z</time>
   </trkpt>
   <trkpt lat="46.1800155639648" lon="6.9951581954956">
    <ele>993.339965820312</ele>
    <time>2012-03-09T11:20:14Z</time>
   </trkpt>
   <trkpt lat="46.1800231933594" lon="6.99517869949341">
    <ele>993.559997558594</ele>
    <time>2012-03-09T11:20:15Z</time>
   </trkpt>
   <trkpt lat="46.1800308227539" lon="6.99519729614258">
    <ele>993.780029296875</ele>
    <time>2012-03-09T11:20:16Z</time>
   </trkpt>
   <trkpt lat="46.1800384521484" lon="6.99521780014038">
    <ele>994</ele>
    <time>2012-03-09T11:20:17Z</time>
   </trkpt>
   <trkpt lat="46.1800956726074" lon="6.99533605575562">
    <ele>994</ele>
    <time>2012-03-09T11:20:22Z</time>
   </trkpt>
   <trkpt lat="46.180103302002" lon="6.99539661407471">
    <ele>994.666687011719</ele>
    <time>2012-03-09T11:20:24Z</time>
   </trkpt>
   <trkpt lat="46.1801071166992" lon="6.99542331695557">
    <ele>995</ele>
    <time>2012-03-09T11:20:25Z</time>
   </trkpt>
   <trkpt lat="46.1801109313965" lon="6.99544286727905">
    <ele>995.333312988281</ele>
    <time>2012-03-09T11:20:26Z</time>
   </trkpt>
   <trkpt lat="46.180118560791" lon="6.99546766281128">
    <ele>995.666687011719</ele>
    <time>2012-03-09T11:20:27Z</time>
   </trkpt>
   <trkpt lat="46.1801223754883" lon="6.99549436569214">
    <ele>996</ele>
    <time>2012-03-09T11:20:28Z</time>
   </trkpt>
   <trkpt lat="46.1801681518555" lon="6.99564933776856">
    <ele>996</ele>
    <time>2012-03-09T11:20:34Z</time>
   </trkpt>
   <trkpt lat="46.1801719665527" lon="6.99567461013794">
    <ele>996.440002441406</ele>
    <time>2012-03-09T11:20:35Z</time>
   </trkpt>
   <trkpt lat="46.1801681518555" lon="6.99570083618164">
    <ele>996.880004882812</ele>
    <time>2012-03-09T11:20:36Z</time>
   </trkpt>
   <trkpt lat="46.1801719665527" lon="6.99572849273682">
    <ele>997.320007324219</ele>
    <time>2012-03-09T11:20:37Z</time>
   </trkpt>
   <trkpt lat="46.18017578125" lon="6.99575090408325">
    <ele>997.760009765625</ele>
    <time>2012-03-09T11:20:38Z</time>
   </trkpt>
   <trkpt lat="46.1801872253418" lon="6.99576663970947">
    <ele>998.200012207031</ele>
    <time>2012-03-09T11:20:39Z</time>
   </trkpt>
   <trkpt lat="46.1801948547363" lon="6.99579572677612">
    <ele>998.200012207031</ele>
    <time>2012-03-09T11:20:40Z</time>
   </trkpt>
   <trkpt lat="46.1802406311035" lon="6.99590253829956">
    <ele>999.300048828125</ele>
    <time>2012-03-09T11:20:45Z</time>
   </trkpt>
   <trkpt lat="46.1802444458008" lon="6.99593305587768">
    <ele>999.52001953125</ele>
    <time>2012-03-09T11:20:46Z</time>
   </trkpt>
   <trkpt lat="46.1802444458008" lon="6.99595880508423">
    <ele>999.739990234375</ele>
    <time>2012-03-09T11:20:47Z</time>
   </trkpt>
   <trkpt lat="46.1802520751953" lon="6.99598073959351">
    <ele>999.960021972656</ele>
    <time>2012-03-09T11:20:48Z</time>
   </trkpt>
   <trkpt lat="46.1802597045898" lon="6.99599695205688">
    <ele>1000.18005371094</ele>
    <time>2012-03-09T11:20:49Z</time>
   </trkpt>
   <trkpt lat="46.1802673339844" lon="6.99602603912354">
    <ele>1000.40002441406</ele>
    <time>2012-03-09T11:20:50Z</time>
   </trkpt>
   <trkpt lat="46.1802787780762" lon="6.99607372283936">
    <ele>1000.40002441406</ele>
    <time>2012-03-09T11:20:52Z</time>
   </trkpt>
   <trkpt lat="46.1803016662598" lon="6.99611902236938">
    <ele>1000.80004882812</ele>
    <time>2012-03-09T11:20:54Z</time>
   </trkpt>
   <trkpt lat="46.1803398132324" lon="6.9961986541748">
    <ele>1001.40002441406</ele>
    <time>2012-03-09T11:20:57Z</time>
   </trkpt>
   <trkpt lat="46.1803512573242" lon="6.99622249603272">
    <ele>1001.60003662109</ele>
    <time>2012-03-09T11:20:58Z</time>
   </trkpt>
   <trkpt lat="46.1803588867188" lon="6.99624490737915">
    <ele>1001.80004882812</ele>
    <time>2012-03-09T11:20:59Z</time>
   </trkpt>
   <trkpt lat="46.1803703308106" lon="6.99627065658569">
    <ele>1002</ele>
    <time>2012-03-09T11:21:00Z</time>
   </trkpt>
   <trkpt lat="46.1803779602051" lon="6.99629640579224">
    <ele>1002.20001220703</ele>
    <time>2012-03-09T11:21:01Z</time>
   </trkpt>
   <trkpt lat="46.1803932189941" lon="6.99632215499878">
    <ele>1002.40002441406</ele>
    <time>2012-03-09T11:21:02Z</time>
   </trkpt>
   <trkpt lat="46.1804428100586" lon="6.99639225006104">
    <ele>1002.40002441406</ele>
    <time>2012-03-09T11:21:05Z</time>
   </trkpt>
   <trkpt lat="46.1804885864258" lon="6.99644041061401">
    <ele>1003.42858886719</ele>
    <time>2012-03-09T11:21:08Z</time>
   </trkpt>
   <trkpt lat="46.1805038452148" lon="6.99646234512329">
    <ele>1003.77142333984</ele>
    <time>2012-03-09T11:21:09Z</time>
   </trkpt>
   <trkpt lat="46.1805229187012" lon="6.99648380279541">
    <ele>1004.1142578125</ele>
    <time>2012-03-09T11:21:10Z</time>
   </trkpt>
   <trkpt lat="46.180534362793" lon="6.99650287628174">
    <ele>1004.45715332031</ele>
    <time>2012-03-09T11:21:11Z</time>
   </trkpt>
   <trkpt lat="46.180549621582" lon="6.99652194976807">
    <ele>1004.79998779297</ele>
    <time>2012-03-09T11:21:12Z</time>
   </trkpt>
   <trkpt lat="46.1805648803711" lon="6.99654150009155">
    <ele>1004.79998779297</ele>
    <time>2012-03-09T11:21:13Z</time>
   </trkpt>
   <trkpt lat="46.1806564331055" lon="6.99661254882812">
    <ele>1005.91107177734</ele>
    <time>2012-03-09T11:21:18Z</time>
   </trkpt>
   <trkpt lat="46.1806716918945" lon="6.99662351608276">
    <ele>1006.13330078125</ele>
    <time>2012-03-09T11:21:19Z</time>
   </trkpt>
   <trkpt lat="46.1806831359863" lon="6.99663877487183">
    <ele>1006.35552978516</ele>
    <time>2012-03-09T11:21:20Z</time>
   </trkpt>
   <trkpt lat="46.1806945800781" lon="6.99666261672974">
    <ele>1006.57775878906</ele>
    <time>2012-03-09T11:21:21Z</time>
   </trkpt>
   <trkpt lat="46.1807098388672" lon="6.99667882919312">
    <ele>1006.79998779297</ele>
    <time>2012-03-09T11:21:22Z</time>
   </trkpt>
   <trkpt lat="46.1807594299316" lon="6.9967098236084">
    <ele>1006.79998779297</ele>
    <time>2012-03-09T11:21:25Z</time>
   </trkpt>
   <trkpt lat="46.180793762207" lon="6.99675130844116">
    <ele>1007.42858886719</ele>
    <time>2012-03-09T11:21:27Z</time>
   </trkpt>
   <trkpt lat="46.1808166503906" lon="6.99675846099854">
    <ele>1007.74285888672</ele>
    <time>2012-03-09T11:21:28Z</time>
   </trkpt>
   <trkpt lat="46.180835723877" lon="6.99676990509033">
    <ele>1008.05712890625</ele>
    <time>2012-03-09T11:21:29Z</time>
   </trkpt>
   <trkpt lat="46.180850982666" lon="6.99678993225098">
    <ele>1008.37139892578</ele>
    <time>2012-03-09T11:21:30Z</time>
   </trkpt>
   <trkpt lat="46.1809425354004" lon="6.99686145782471">
    <ele>1009.94287109375</ele>
    <time>2012-03-09T11:21:35Z</time>
   </trkpt>
   <trkpt lat="46.1809539794922" lon="6.99687719345093">
    <ele>1010.25714111328</ele>
    <time>2012-03-09T11:21:36Z</time>
   </trkpt>
   <trkpt lat="46.180965423584" lon="6.99690580368042">
    <ele>1010.57141113281</ele>
    <time>2012-03-09T11:21:37Z</time>
   </trkpt>
   <trkpt lat="46.180980682373" lon="6.99692916870117">
    <ele>1010.8857421875</ele>
    <time>2012-03-09T11:21:38Z</time>
   </trkpt>
   <trkpt lat="46.1809921264648" lon="6.99694347381592">
    <ele>1011.20001220703</ele>
    <time>2012-03-09T11:21:39Z</time>
   </trkpt>
   <trkpt lat="46.1809997558594" lon="6.99697875976562">
    <ele>1011.20001220703</ele>
    <time>2012-03-09T11:21:40Z</time>
   </trkpt>
   <trkpt lat="46.1810073852539" lon="6.99703931808472">
    <ele>1011.82861328125</ele>
    <time>2012-03-09T11:21:42Z</time>
   </trkpt>
   <trkpt lat="46.181022644043" lon="6.99705123901367">
    <ele>1012.14288330078</ele>
    <time>2012-03-09T11:21:43Z</time>
   </trkpt>
   <trkpt lat="46.181037902832" lon="6.99707794189453">
    <ele>1012.45715332031</ele>
    <time>2012-03-09T11:21:44Z</time>
   </trkpt>
   <trkpt lat="46.1810493469238" lon="6.99711036682129">
    <ele>1012.77142333984</ele>
    <time>2012-03-09T11:21:45Z</time>
   </trkpt>
   <trkpt lat="46.1810607910156" lon="6.99713706970215">
    <ele>1013.08575439453</ele>
    <time>2012-03-09T11:21:46Z</time>
   </trkpt>
   <trkpt lat="46.1810646057129" lon="6.99716997146606">
    <ele>1013.40002441406</ele>
    <time>2012-03-09T11:21:47Z</time>
   </trkpt>
   <trkpt lat="46.1810874938965" lon="6.99719429016113">
    <ele>1013.40002441406</ele>
    <time>2012-03-09T11:21:49Z</time>
   </trkpt>
   <trkpt lat="46.1811714172363" lon="6.99728965759277">
    <ele>1014.5</ele>
    <time>2012-03-09T11:21:53Z</time>
   </trkpt>
   <trkpt lat="46.1811866760254" lon="6.99731969833374">
    <ele>1014.77502441406</ele>
    <time>2012-03-09T11:21:54Z</time>
   </trkpt>
   <trkpt lat="46.1812133789062" lon="6.99733400344849">
    <ele>1015.04998779297</ele>
    <time>2012-03-09T11:21:55Z</time>
   </trkpt>
   <trkpt lat="46.1812362670898" lon="6.99734592437744">
    <ele>1015.32495117188</ele>
    <time>2012-03-09T11:21:56Z</time>
   </trkpt>
   <trkpt lat="46.1812591552734" lon="6.9973578453064">
    <ele>1015.59997558594</ele>
    <time>2012-03-09T11:21:57Z</time>
   </trkpt>
   <trkpt lat="46.1813011169434" lon="6.9973840713501">
    <ele>1015.59997558594</ele>
    <time>2012-03-09T11:21:59Z</time>
   </trkpt>
   <trkpt lat="46.181396484375" lon="6.99738836288452">
    <ele>1016.69995117188</ele>
    <time>2012-03-09T11:22:03Z</time>
   </trkpt>
   <trkpt lat="46.1814193725586" lon="6.99738311767578">
    <ele>1016.97497558594</ele>
    <time>2012-03-09T11:22:04Z</time>
   </trkpt>
   <trkpt lat="46.1814422607422" lon="6.99738216400146">
    <ele>1017.25</ele>
    <time>2012-03-09T11:22:05Z</time>
   </trkpt>
   <trkpt lat="46.1814575195312" lon="6.99738454818726">
    <ele>1017.52496337891</ele>
    <time>2012-03-09T11:22:06Z</time>
   </trkpt>
   <trkpt lat="46.181468963623" lon="6.99738693237305">
    <ele>1017.79998779297</ele>
    <time>2012-03-09T11:22:07Z</time>
   </trkpt>
   <trkpt lat="46.1815643310547" lon="6.99741077423096">
    <ele>1018.90002441406</ele>
    <time>2012-03-09T11:22:11Z</time>
   </trkpt>
   <trkpt lat="46.1815910339356" lon="6.99741458892822">
    <ele>1019.17498779297</ele>
    <time>2012-03-09T11:22:12Z</time>
   </trkpt>
   <trkpt lat="46.1816101074219" lon="6.99742078781128">
    <ele>1019.45001220703</ele>
    <time>2012-03-09T11:22:13Z</time>
   </trkpt>
   <trkpt lat="46.1816253662109" lon="6.99742460250854">
    <ele>1019.72497558594</ele>
    <time>2012-03-09T11:22:14Z</time>
   </trkpt>
   <trkpt lat="46.181640625" lon="6.99743461608887">
    <ele>1020</ele>
    <time>2012-03-09T11:22:15Z</time>
   </trkpt>
   <trkpt lat="46.1816825866699" lon="6.99744558334351">
    <ele>1020</ele>
    <time>2012-03-09T11:22:17Z</time>
   </trkpt>
   <trkpt lat="46.1817474365234" lon="6.99745607376099">
    <ele>1020.57391357422</ele>
    <time>2012-03-09T11:22:19Z</time>
   </trkpt>
   <trkpt lat="46.181770324707" lon="6.99745464324951">
    <ele>1020.86083984375</ele>
    <time>2012-03-09T11:22:20Z</time>
   </trkpt>
   <trkpt lat="46.1817932128906" lon="6.99745845794678">
    <ele>1021.14782714844</ele>
    <time>2012-03-09T11:22:21Z</time>
   </trkpt>
   <trkpt lat="46.1818084716797" lon="6.99745416641235">
    <ele>1021.43475341797</ele>
    <time>2012-03-09T11:22:22Z</time>
   </trkpt>
   <trkpt lat="46.1818923950195" lon="6.99742221832275">
    <ele>1022.58258056641</ele>
    <time>2012-03-09T11:22:26Z</time>
   </trkpt>
   <trkpt lat="46.1819152832031" lon="6.99741888046265">
    <ele>1022.86956787109</ele>
    <time>2012-03-09T11:22:27Z</time>
   </trkpt>
   <trkpt lat="46.1819267272949" lon="6.99741172790527">
    <ele>1023.15649414062</ele>
    <time>2012-03-09T11:22:28Z</time>
   </trkpt>
   <trkpt lat="46.1819496154785" lon="6.99740505218506">
    <ele>1023.44348144531</ele>
    <time>2012-03-09T11:22:29Z</time>
   </trkpt>
   <trkpt lat="46.1819725036621" lon="6.99739694595337">
    <ele>1023.73040771484</ele>
    <time>2012-03-09T11:22:30Z</time>
   </trkpt>
   <trkpt lat="46.1821174621582" lon="6.99733972549438">
    <ele>1025.4521484375</ele>
    <time>2012-03-09T11:22:36Z</time>
   </trkpt>
   <trkpt lat="46.1821403503418" lon="6.99734687805176">
    <ele>1025.73913574219</ele>
    <time>2012-03-09T11:22:37Z</time>
   </trkpt>
   <trkpt lat="46.1821594238281" lon="6.99734449386597">
    <ele>1026.02612304688</ele>
    <time>2012-03-09T11:22:38Z</time>
   </trkpt>
   <trkpt lat="46.1821784973144" lon="6.9973521232605">
    <ele>1026.31298828125</ele>
    <time>2012-03-09T11:22:39Z</time>
   </trkpt>
   <trkpt lat="46.182201385498" lon="6.99735260009766">
    <ele>1026.59997558594</ele>
    <time>2012-03-09T11:22:40Z</time>
   </trkpt>
   <trkpt lat="46.1822204589844" lon="6.99735021591186">
    <ele>1026.59997558594</ele>
    <time>2012-03-09T11:22:41Z</time>
   </trkpt>
   <trkpt lat="46.1823196411133" lon="6.9974045753479">
    <ele>1027.59997558594</ele>
    <time>2012-03-09T11:22:46Z</time>
   </trkpt>
   <trkpt lat="46.1823348999023" lon="6.99742841720581">
    <ele>1027.79992675781</ele>
    <time>2012-03-09T11:22:47Z</time>
   </trkpt>
   <trkpt lat="46.1823501586914" lon="6.99745559692383">
    <ele>1028</ele>
    <time>2012-03-09T11:22:48Z</time>
   </trkpt>
   <trkpt lat="46.1823616027832" lon="6.99748086929321">
    <ele>1028.19995117188</ele>
    <time>2012-03-09T11:22:49Z</time>
   </trkpt>
   <trkpt lat="46.1823692321777" lon="6.99750471115112">
    <ele>1028.40002441406</ele>
    <time>2012-03-09T11:22:50Z</time>
   </trkpt>
   <trkpt lat="46.1823806762695" lon="6.99752569198608">
    <ele>1028.59997558594</ele>
    <time>2012-03-09T11:22:51Z</time>
   </trkpt>
   <trkpt lat="46.1823883056641" lon="6.99754905700684">
    <ele>1028.59997558594</ele>
    <time>2012-03-09T11:22:52Z</time>
   </trkpt>
   <trkpt lat="46.1824188232422" lon="6.99765729904175">
    <ele>1029.69995117188</ele>
    <time>2012-03-09T11:22:56Z</time>
   </trkpt>
   <trkpt lat="46.1824264526367" lon="6.99768686294556">
    <ele>1029.97497558594</ele>
    <time>2012-03-09T11:22:57Z</time>
   </trkpt>
   <trkpt lat="46.1824340820312" lon="6.9977126121521">
    <ele>1030.25</ele>
    <time>2012-03-09T11:22:58Z</time>
   </trkpt>
   <trkpt lat="46.1824417114258" lon="6.99774169921875">
    <ele>1030.52502441406</ele>
    <time>2012-03-09T11:22:59Z</time>
   </trkpt>
   <trkpt lat="46.182445526123" lon="6.99776315689087">
    <ele>1030.80004882812</ele>
    <time>2012-03-09T11:23:00Z</time>
   </trkpt>
   <trkpt lat="46.182487487793" lon="6.99783277511597">
    <ele>1030.80004882812</ele>
    <time>2012-03-09T11:23:03Z</time>
   </trkpt>
   <trkpt lat="46.1825294494629" lon="6.99790954589844">
    <ele>1031.80004882812</ele>
    <time>2012-03-09T11:23:06Z</time>
   </trkpt>
   <trkpt lat="46.1825485229492" lon="6.99793481826782">
    <ele>1032.13342285156</ele>
    <time>2012-03-09T11:23:07Z</time>
   </trkpt>
   <trkpt lat="46.1825637817383" lon="6.99796009063721">
    <ele>1032.46667480469</ele>
    <time>2012-03-09T11:23:08Z</time>
   </trkpt>
   <trkpt lat="46.1825752258301" lon="6.99798727035522">
    <ele>1032.80004882812</ele>
    <time>2012-03-09T11:23:09Z</time>
   </trkpt>
   <trkpt lat="46.1825904846191" lon="6.99801397323608">
    <ele>1032.80004882812</ele>
    <time>2012-03-09T11:23:10Z</time>
   </trkpt>
   <trkpt lat="46.1826782226562" lon="6.99814176559448">
    <ele>1034.20007324219</ele>
    <time>2012-03-09T11:23:16Z</time>
   </trkpt>
   <trkpt lat="46.1826972961426" lon="6.99815654754639">
    <ele>1034.43334960938</ele>
    <time>2012-03-09T11:23:17Z</time>
   </trkpt>
   <trkpt lat="46.1827125549316" lon="6.99817991256714">
    <ele>1034.66674804688</ele>
    <time>2012-03-09T11:23:18Z</time>
   </trkpt>
   <trkpt lat="46.1827278137207" lon="6.99820232391357">
    <ele>1034.90002441406</ele>
    <time>2012-03-09T11:23:19Z</time>
   </trkpt>
   <trkpt lat="46.1827392578125" lon="6.99822568893433">
    <ele>1035.13330078125</ele>
    <time>2012-03-09T11:23:20Z</time>
   </trkpt>
   <trkpt lat="46.1828117370606" lon="6.99829626083374">
    <ele>1036.06665039062</ele>
    <time>2012-03-09T11:23:24Z</time>
   </trkpt>
   <trkpt lat="46.1828231811523" lon="6.99832248687744">
    <ele>1036.30004882812</ele>
    <time>2012-03-09T11:23:25Z</time>
   </trkpt>
   <trkpt lat="46.1828346252441" lon="6.99833917617798">
    <ele>1036.53332519531</ele>
    <time>2012-03-09T11:23:26Z</time>
   </trkpt>
   <trkpt lat="46.1828498840332" lon="6.99835348129272">
    <ele>1036.76672363281</ele>
    <time>2012-03-09T11:23:27Z</time>
   </trkpt>
   <trkpt lat="46.1828689575195" lon="6.99836301803589">
    <ele>1037</ele>
    <time>2012-03-09T11:23:28Z</time>
   </trkpt>
   <trkpt lat="46.1828994750977" lon="6.9983925819397">
    <ele>1037</ele>
    <time>2012-03-09T11:23:30Z</time>
   </trkpt>
   <trkpt lat="46.182975769043" lon="6.99844741821289">
    <ele>1038.09997558594</ele>
    <time>2012-03-09T11:23:34Z</time>
   </trkpt>
   <trkpt lat="46.1829948425293" lon="6.99846410751343">
    <ele>1038.375</ele>
    <time>2012-03-09T11:23:35Z</time>
   </trkpt>
   <trkpt lat="46.1830101013184" lon="6.99847412109375">
    <ele>1038.64990234375</ele>
    <time>2012-03-09T11:23:36Z</time>
   </trkpt>
   <trkpt lat="46.1830253601074" lon="6.99848699569702">
    <ele>1038.92492675781</ele>
    <time>2012-03-09T11:23:37Z</time>
   </trkpt>
   <trkpt lat="46.183048248291" lon="6.99849939346314">
    <ele>1039.19995117188</ele>
    <time>2012-03-09T11:23:38Z</time>
   </trkpt>
   <trkpt lat="46.1831321716309" lon="6.99855613708496">
    <ele>1039.19995117188</ele>
    <time>2012-03-09T11:23:42Z</time>
   </trkpt>
   <trkpt lat="46.1831893920898" lon="6.99859857559204">
    <ele>1040.05712890625</ele>
    <time>2012-03-09T11:23:45Z</time>
   </trkpt>
   <trkpt lat="46.1832122802734" lon="6.99860858917236">
    <ele>1040.3427734375</ele>
    <time>2012-03-09T11:23:46Z</time>
   </trkpt>
   <trkpt lat="46.1832466125488" lon="6.99861860275268">
    <ele>1040.62854003906</ele>
    <time>2012-03-09T11:23:47Z</time>
   </trkpt>
   <trkpt lat="46.1832656860352" lon="6.99862909317017">
    <ele>1040.91418457031</ele>
    <time>2012-03-09T11:23:48Z</time>
   </trkpt>
   <trkpt lat="46.1832809448242" lon="6.9986515045166">
    <ele>1041.19995117188</ele>
    <time>2012-03-09T11:23:49Z</time>
   </trkpt>
   <trkpt lat="46.1833229064941" lon="6.99867105484009">
    <ele>1041.19995117188</ele>
    <time>2012-03-09T11:23:51Z</time>
   </trkpt>
   <trkpt lat="46.1834487915039" lon="6.99872303009033">
    <ele>1042.57495117188</ele>
    <time>2012-03-09T11:23:56Z</time>
   </trkpt>
   <trkpt lat="46.1834716796875" lon="6.99872446060181">
    <ele>1042.84997558594</ele>
    <time>2012-03-09T11:23:57Z</time>
   </trkpt>
   <trkpt lat="46.1834907531738" lon="6.9987359046936">
    <ele>1043.125</ele>
    <time>2012-03-09T11:23:58Z</time>
   </trkpt>
   <trkpt lat="46.1835136413574" lon="6.99873733520508">
    <ele>1043.40002441406</ele>
    <time>2012-03-09T11:23:59Z</time>
   </trkpt>
   <trkpt lat="46.1836166381836" lon="6.99879932403564">
    <ele>1043.40002441406</ele>
    <time>2012-03-09T11:24:04Z</time>
   </trkpt>
   <trkpt lat="46.1836585998535" lon="6.99880981445312">
    <ele>1044.00952148438</ele>
    <time>2012-03-09T11:24:06Z</time>
   </trkpt>
   <trkpt lat="46.1836776733398" lon="6.99882078170776">
    <ele>1044.31433105469</ele>
    <time>2012-03-09T11:24:07Z</time>
   </trkpt>
   <trkpt lat="46.1837005615234" lon="6.99883270263672">
    <ele>1044.61901855469</ele>
    <time>2012-03-09T11:24:08Z</time>
   </trkpt>
   <trkpt lat="46.1837196350098" lon="6.99884748458862">
    <ele>1044.923828125</ele>
    <time>2012-03-09T11:24:09Z</time>
   </trkpt>
   <trkpt lat="46.1837463378906" lon="6.99885416030884">
    <ele>1045.22863769531</ele>
    <time>2012-03-09T11:24:10Z</time>
   </trkpt>
   <trkpt lat="46.1838302612305" lon="6.99891805648804">
    <ele>1046.44763183594</ele>
    <time>2012-03-09T11:24:14Z</time>
   </trkpt>
   <trkpt lat="46.1838493347168" lon="6.99893283843994">
    <ele>1046.75244140625</ele>
    <time>2012-03-09T11:24:15Z</time>
   </trkpt>
   <trkpt lat="46.1838684082031" lon="6.9989447593689">
    <ele>1047.05712890625</ele>
    <time>2012-03-09T11:24:16Z</time>
   </trkpt>
   <trkpt lat="46.1838836669922" lon="6.99896430969238">
    <ele>1047.36193847656</ele>
    <time>2012-03-09T11:24:17Z</time>
   </trkpt>
   <trkpt lat="46.1839027404785" lon="6.99898147583008">
    <ele>1047.66674804688</ele>
    <time>2012-03-09T11:24:18Z</time>
   </trkpt>
   <trkpt lat="46.1839714050293" lon="6.99905395507812">
    <ele>1048.8857421875</ele>
    <time>2012-03-09T11:24:22Z</time>
   </trkpt>
   <trkpt lat="46.1839828491211" lon="6.99907922744751">
    <ele>1049.19055175781</ele>
    <time>2012-03-09T11:24:23Z</time>
   </trkpt>
   <trkpt lat="46.1839981079102" lon="6.99910068511963">
    <ele>1049.49523925781</ele>
    <time>2012-03-09T11:24:24Z</time>
   </trkpt>
   <trkpt lat="46.1840171813965" lon="6.99911642074585">
    <ele>1049.80004882812</ele>
    <time>2012-03-09T11:24:25Z</time>
   </trkpt>
   <trkpt lat="46.1840972900391" lon="6.99922227859497">
    <ele>1049.80004882812</ele>
    <time>2012-03-09T11:24:30Z</time>
   </trkpt>
   <trkpt lat="46.1841201782227" lon="6.99927806854248">
    <ele>1050.53332519531</ele>
    <time>2012-03-09T11:24:32Z</time>
   </trkpt>
   <trkpt lat="46.1841316223144" lon="6.99930334091186">
    <ele>1050.90002441406</ele>
    <time>2012-03-09T11:24:33Z</time>
   </trkpt>
   <trkpt lat="46.184139251709" lon="6.99933052062988">
    <ele>1051.26672363281</ele>
    <time>2012-03-09T11:24:34Z</time>
   </trkpt>
   <trkpt lat="46.1841506958008" lon="6.99935579299927">
    <ele>1051.63330078125</ele>
    <time>2012-03-09T11:24:35Z</time>
   </trkpt>
   <trkpt lat="46.184154510498" lon="6.99938583374024">
    <ele>1052</ele>
    <time>2012-03-09T11:24:36Z</time>
   </trkpt>
   <trkpt lat="46.1841621398926" lon="6.99941730499268">
    <ele>1052</ele>
    <time>2012-03-09T11:24:37Z</time>
   </trkpt>
   <trkpt lat="46.1841583251953" lon="6.99954080581665">
    <ele>1053</ele>
    <time>2012-03-09T11:24:41Z</time>
   </trkpt>
   <trkpt lat="46.1841506958008" lon="6.99957180023193">
    <ele>1053.25</ele>
    <time>2012-03-09T11:24:42Z</time>
   </trkpt>
   <trkpt lat="46.184154510498" lon="6.99960327148438">
    <ele>1053.5</ele>
    <time>2012-03-09T11:24:43Z</time>
   </trkpt>
   <trkpt lat="46.1841506958008" lon="6.99963140487671">
    <ele>1053.75</ele>
    <time>2012-03-09T11:24:44Z</time>
   </trkpt>
   <trkpt lat="46.1841506958008" lon="6.99965858459473">
    <ele>1054</ele>
    <time>2012-03-09T11:24:45Z</time>
   </trkpt>
   <trkpt lat="46.1841583251953" lon="6.99971580505371">
    <ele>1054</ele>
    <time>2012-03-09T11:24:47Z</time>
   </trkpt>
   <trkpt lat="46.1841621398926" lon="6.99974346160889">
    <ele>1054.40002441406</ele>
    <time>2012-03-09T11:24:48Z</time>
   </trkpt>
   <trkpt lat="46.1841621398926" lon="6.99977350234985">
    <ele>1054.80004882812</ele>
    <time>2012-03-09T11:24:49Z</time>
   </trkpt>
   <trkpt lat="46.1841583251953" lon="6.99980163574219">
    <ele>1055.19995117188</ele>
    <time>2012-03-09T11:24:50Z</time>
   </trkpt>
   <trkpt lat="46.1841621398926" lon="6.99983072280884">
    <ele>1055.59997558594</ele>
    <time>2012-03-09T11:24:51Z</time>
   </trkpt>
   <trkpt lat="46.1841659545898" lon="6.99986171722412">
    <ele>1056</ele>
    <time>2012-03-09T11:24:52Z</time>
   </trkpt>
   <trkpt lat="46.1841850280762" lon="6.99998378753662">
    <ele>1056</ele>
    <time>2012-03-09T11:24:56Z</time>
   </trkpt>
   <trkpt lat="46.1842079162598" lon="7.00003814697266">
    <ele>1056.73327636719</ele>
    <time>2012-03-09T11:24:58Z</time>
   </trkpt>
   <trkpt lat="46.1842231750488" lon="7.00006341934204">
    <ele>1057.09997558594</ele>
    <time>2012-03-09T11:24:59Z</time>
   </trkpt>
   <trkpt lat="46.1842346191406" lon="7.00009107589722">
    <ele>1057.46667480469</ele>
    <time>2012-03-09T11:25:00Z</time>
   </trkpt>
   <trkpt lat="46.1842498779297" lon="7.00011396408081">
    <ele>1057.83325195312</ele>
    <time>2012-03-09T11:25:01Z</time>
   </trkpt>
   <trkpt lat="46.1842651367188" lon="7.00014066696167">
    <ele>1058.19995117188</ele>
    <time>2012-03-09T11:25:02Z</time>
   </trkpt>
   <trkpt lat="46.1842918395996" lon="7.00018739700317">
    <ele>1058.19995117188</ele>
    <time>2012-03-09T11:25:04Z</time>
   </trkpt>
   <trkpt lat="46.184383392334" lon="7.00033760070801">
    <ele>1059.59997558594</ele>
    <time>2012-03-09T11:25:11Z</time>
   </trkpt>
   <trkpt lat="46.1843948364258" lon="7.00036430358887">
    <ele>1059.79992675781</ele>
    <time>2012-03-09T11:25:12Z</time>
   </trkpt>
   <trkpt lat="46.1844062805176" lon="7.00039052963257">
    <ele>1060</ele>
    <time>2012-03-09T11:25:13Z</time>
   </trkpt>
   <trkpt lat="46.1844139099121" lon="7.00041675567627">
    <ele>1060.19995117188</ele>
    <time>2012-03-09T11:25:14Z</time>
   </trkpt>
   <trkpt lat="46.1844749450684" lon="7.00055599212646">
    <ele>1060.19995117188</ele>
    <time>2012-03-09T11:25:19Z</time>
   </trkpt>
   <trkpt lat="46.1844902038574" lon="7.00058746337891">
    <ele>1060.59997558594</ele>
    <time>2012-03-09T11:25:20Z</time>
   </trkpt>
   <trkpt lat="46.184497833252" lon="7.00061702728272">
    <ele>1061</ele>
    <time>2012-03-09T11:25:21Z</time>
   </trkpt>
   <trkpt lat="46.1845092773438" lon="7.00063943862915">
    <ele>1061.39990234375</ele>
    <time>2012-03-09T11:25:22Z</time>
   </trkpt>
   <trkpt lat="46.1845245361328" lon="7.00066137313843">
    <ele>1061.79992675781</ele>
    <time>2012-03-09T11:25:23Z</time>
   </trkpt>
   <trkpt lat="46.1845321655273" lon="7.00068855285644">
    <ele>1062.19995117188</ele>
    <time>2012-03-09T11:25:24Z</time>
   </trkpt>
   <trkpt lat="46.1845321655273" lon="7.00072050094604">
    <ele>1062.19995117188</ele>
    <time>2012-03-09T11:25:25Z</time>
   </trkpt>
   <trkpt lat="46.1845741271973" lon="7.0008487701416">
    <ele>1063.43530273438</ele>
    <time>2012-03-09T11:25:30Z</time>
   </trkpt>
   <trkpt lat="46.1845893859863" lon="7.00086975097656">
    <ele>1063.68237304688</ele>
    <time>2012-03-09T11:25:31Z</time>
   </trkpt>
   <trkpt lat="46.1846008300781" lon="7.00088977813721">
    <ele>1063.92944335938</ele>
    <time>2012-03-09T11:25:32Z</time>
   </trkpt>
   <trkpt lat="46.1846199035644" lon="7.00092220306396">
    <ele>1064.17651367188</ele>
    <time>2012-03-09T11:25:33Z</time>
   </trkpt>
   <trkpt lat="46.1846351623535" lon="7.00094318389893">
    <ele>1064.42346191406</ele>
    <time>2012-03-09T11:25:34Z</time>
   </trkpt>
   <trkpt lat="46.1847038269043" lon="7.00099992752075">
    <ele>1065.41174316406</ele>
    <time>2012-03-09T11:25:38Z</time>
   </trkpt>
   <trkpt lat="46.1847229003906" lon="7.00101137161255">
    <ele>1065.65881347656</ele>
    <time>2012-03-09T11:25:39Z</time>
   </trkpt>
   <trkpt lat="46.1847457885742" lon="7.00100755691528">
    <ele>1065.90588378906</ele>
    <time>2012-03-09T11:25:40Z</time>
   </trkpt>
   <trkpt lat="46.1847686767578" lon="7.00100755691528">
    <ele>1066.15295410156</ele>
    <time>2012-03-09T11:25:41Z</time>
   </trkpt>
   <trkpt lat="46.1847877502441" lon="7.00100708007812">
    <ele>1066.40002441406</ele>
    <time>2012-03-09T11:25:42Z</time>
   </trkpt>
   <trkpt lat="46.1848258972168" lon="7.00099277496338">
    <ele>1066.40002441406</ele>
    <time>2012-03-09T11:25:44Z</time>
   </trkpt>
   <trkpt lat="46.1848449707031" lon="7.0009822845459">
    <ele>1066.61999511719</ele>
    <time>2012-03-09T11:25:45Z</time>
   </trkpt>
   <trkpt lat="46.1849327087402" lon="7.00090408325195">
    <ele>1067.71997070312</ele>
    <time>2012-03-09T11:25:50Z</time>
   </trkpt>
   <trkpt lat="46.1849517822266" lon="7.0008864402771">
    <ele>1067.93994140625</ele>
    <time>2012-03-09T11:25:51Z</time>
   </trkpt>
   <trkpt lat="46.1849670410156" lon="7.00086498260498">
    <ele>1068.16003417969</ele>
    <time>2012-03-09T11:25:52Z</time>
   </trkpt>
   <trkpt lat="46.1849822998047" lon="7.00084733963013">
    <ele>1068.38000488281</ele>
    <time>2012-03-09T11:25:53Z</time>
   </trkpt>
   <trkpt lat="46.1849975585938" lon="7.00083684921265">
    <ele>1068.59997558594</ele>
    <time>2012-03-09T11:25:54Z</time>
   </trkpt>
   <trkpt lat="46.1850280761719" lon="7.00076007843018">
    <ele>1068.59997558594</ele>
    <time>2012-03-09T11:25:57Z</time>
   </trkpt>
   <trkpt lat="46.1850318908691" lon="7.00057697296143">
    <ele>1069.92004394531</ele>
    <time>2012-03-09T11:26:03Z</time>
   </trkpt>
   <trkpt lat="46.1850242614746" lon="7.0005464553833">
    <ele>1070.14001464844</ele>
    <time>2012-03-09T11:26:04Z</time>
   </trkpt>
   <trkpt lat="46.1850166320801" lon="7.00051546096802">
    <ele>1070.35998535156</ele>
    <time>2012-03-09T11:26:05Z</time>
   </trkpt>
   <trkpt lat="46.1850128173828" lon="7.00048494338989">
    <ele>1070.580078125</ele>
    <time>2012-03-09T11:26:06Z</time>
   </trkpt>
   <trkpt lat="46.1850090026856" lon="7.00045156478882">
    <ele>1070.80004882812</ele>
    <time>2012-03-09T11:26:07Z</time>
   </trkpt>
   <trkpt lat="46.1849746704102" lon="7.00031518936157">
    <ele>1070.80004882812</ele>
    <time>2012-03-09T11:26:11Z</time>
   </trkpt>
   <trkpt lat="46.1849594116211" lon="7.00025510787964">
    <ele>1071.46667480469</ele>
    <time>2012-03-09T11:26:13Z</time>
   </trkpt>
   <trkpt lat="46.1849517822266" lon="7.00022506713867">
    <ele>1071.80004882812</ele>
    <time>2012-03-09T11:26:14Z</time>
   </trkpt>
   <trkpt lat="46.1849479675293" lon="7.00019407272339">
    <ele>1072.13342285156</ele>
    <time>2012-03-09T11:26:15Z</time>
   </trkpt>
   <trkpt lat="46.1849517822266" lon="7.00016689300537">
    <ele>1072.46667480469</ele>
    <time>2012-03-09T11:26:16Z</time>
   </trkpt>
   <trkpt lat="46.1849517822266" lon="7.00014400482178">
    <ele>1072.80004882812</ele>
    <time>2012-03-09T11:26:17Z</time>
   </trkpt>
   <trkpt lat="46.1849555969238" lon="7.00012350082398">
    <ele>1072.80004882812</ele>
    <time>2012-03-09T11:26:18Z</time>
   </trkpt>
   <trkpt lat="46.1849517822266" lon="7.00009346008301">
    <ele>1072.5556640625</ele>
    <time>2012-03-09T11:26:20Z</time>
   </trkpt>
   <trkpt lat="46.1849403381348" lon="7.00006675720215">
    <ele>1072.31115722656</ele>
    <time>2012-03-09T11:26:22Z</time>
   </trkpt>
   <trkpt lat="46.1849250793457" lon="7.00006818771362">
    <ele>1072.18896484375</ele>
    <time>2012-03-09T11:26:23Z</time>
   </trkpt>
   <trkpt lat="46.1849250793457" lon="7.00012636184692">
    <ele>1071.70007324219</ele>
    <time>2012-03-09T11:26:27Z</time>
   </trkpt>
   <trkpt lat="46.1849555969238" lon="7.00030422210693">
    <ele>1070.96667480469</ele>
    <time>2012-03-09T11:26:33Z</time>
   </trkpt>
   <trkpt lat="46.1849784851074" lon="7.00037956237793">
    <ele>1070.60009765625</ele>
    <time>2012-03-09T11:26:36Z</time>
   </trkpt>
   <trkpt lat="46.1850128173828" lon="7.0004711151123">
    <ele>1070.2333984375</ele>
    <time>2012-03-09T11:26:39Z</time>
   </trkpt>
   <trkpt lat="46.1850395202637" lon="7.00065517425537">
    <ele>1069.74450683594</ele>
    <time>2012-03-09T11:26:43Z</time>
   </trkpt>
   <trkpt lat="46.1850318908691" lon="7.0007586479187">
    <ele>1069.5</ele>
    <time>2012-03-09T11:26:45Z</time>
   </trkpt>
   <trkpt lat="46.1850090026856" lon="7.00080585479736">
    <ele>1069.37780761719</ele>
    <time>2012-03-09T11:26:46Z</time>
   </trkpt>
   <trkpt lat="46.184986114502" lon="7.00084352493286">
    <ele>1069.25561523438</ele>
    <time>2012-03-09T11:26:47Z</time>
   </trkpt>
   <trkpt lat="46.1849632263184" lon="7.00088548660278">
    <ele>1069.13330078125</ele>
    <time>2012-03-09T11:26:48Z</time>
   </trkpt>
   <trkpt lat="46.1849479675293" lon="7.00093269348144">
    <ele>1069.01110839844</ele>
    <time>2012-03-09T11:26:49Z</time>
   </trkpt>
   <trkpt lat="46.1849403381348" lon="7.00097894668579">
    <ele>1068.88891601562</ele>
    <time>2012-03-09T11:26:50Z</time>
   </trkpt>
   <trkpt lat="46.184944152832" lon="7.00102043151856">
    <ele>1068.76672363281</ele>
    <time>2012-03-09T11:26:51Z</time>
   </trkpt>
   <trkpt lat="46.1849403381348" lon="7.00105333328247">
    <ele>1068.64453125</ele>
    <time>2012-03-09T11:26:52Z</time>
   </trkpt>
   <trkpt lat="46.184928894043" lon="7.00107431411743">
    <ele>1068.52221679688</ele>
    <time>2012-03-09T11:26:53Z</time>
   </trkpt>
   <trkpt lat="46.184928894043" lon="7.00108909606934">
    <ele>1068.40002441406</ele>
    <time>2012-03-09T11:26:54Z</time>
   </trkpt>
   <trkpt lat="46.1849327087402" lon="7.00109338760376">
    <ele>1068.40002441406</ele>
    <time>2012-03-09T11:26:59Z</time>
   </trkpt>
   <trkpt lat="46.1849327087402" lon="7.00109338760376">
    <ele>1066.56555175781</ele>
    <time>2012-03-09T11:27:11Z</time>
   </trkpt>
   <trkpt lat="46.1849327087402" lon="7.00109338760376">
    <ele>1066.41271972656</ele>
    <time>2012-03-09T11:27:12Z</time>
   </trkpt>
   <trkpt lat="46.1849327087402" lon="7.00109338760376">
    <ele>1065.18969726562</ele>
    <time>2012-03-09T11:27:20Z</time>
   </trkpt>
   <trkpt lat="46.1849327087402" lon="7.00109338760376">
    <ele>1064.2724609375</ele>
    <time>2012-03-09T11:27:26Z</time>
   </trkpt>
   <trkpt lat="46.1849327087402" lon="7.00109386444092">
    <ele>1062.43798828125</ele>
    <time>2012-03-09T11:27:38Z</time>
   </trkpt>
   <trkpt lat="46.1849327087402" lon="7.00109386444092">
    <ele>1060.603515625</ele>
    <time>2012-03-09T11:27:50Z</time>
   </trkpt>
   <trkpt lat="46.1849327087402" lon="7.00109386444092">
    <ele>1060.29772949219</ele>
    <time>2012-03-09T11:27:52Z</time>
   </trkpt>
   <trkpt lat="46.1849327087402" lon="7.00109386444092">
    <ele>1059.07470703125</ele>
    <time>2012-03-09T11:28:00Z</time>
   </trkpt>
   <trkpt lat="46.1849327087402" lon="7.00109386444092">
    <ele>1058.00463867188</ele>
    <time>2012-03-09T11:28:07Z</time>
   </trkpt>
   <trkpt lat="46.184928894043" lon="7.00108909606934">
    <ele>1056.01733398438</ele>
    <time>2012-03-09T11:28:20Z</time>
   </trkpt>
   <trkpt lat="46.184928894043" lon="7.00108909606934">
    <ele>1054.02990722656</ele>
    <time>2012-03-09T11:28:33Z</time>
   </trkpt>
   <trkpt lat="46.184928894043" lon="7.00108909606934">
    <ele>1053.11267089844</ele>
    <time>2012-03-09T11:28:39Z</time>
   </trkpt>
   <trkpt lat="46.184928894043" lon="7.00108909606934">
    <ele>1052.19543457031</ele>
    <time>2012-03-09T11:28:45Z</time>
   </trkpt>
   <trkpt lat="46.184928894043" lon="7.00108671188354">
    <ele>1049.90234375</ele>
    <time>2012-03-09T11:29:00Z</time>
   </trkpt>
   <trkpt lat="46.184928894043" lon="7.00108623504639">
    <ele>1047.45642089844</ele>
    <time>2012-03-09T11:29:16Z</time>
   </trkpt>
   <trkpt lat="46.1849060058594" lon="7.00104236602783">
    <ele>1046.99780273438</ele>
    <time>2012-03-09T11:29:19Z</time>
   </trkpt>
   <trkpt lat="46.1848907470703" lon="7.00102996826172">
    <ele>1046.84484863281</ele>
    <time>2012-03-09T11:29:20Z</time>
   </trkpt>
   <trkpt lat="46.1848373413086" lon="7.00101661682129">
    <ele>1046.53918457031</ele>
    <time>2012-03-09T11:29:22Z</time>
   </trkpt>
   <trkpt lat="46.1847534179688" lon="7.00100517272949">
    <ele>1046.2333984375</ele>
    <time>2012-03-09T11:29:24Z</time>
   </trkpt>
   <trkpt lat="46.184700012207" lon="7.0009937286377">
    <ele>1046.08044433594</ele>
    <time>2012-03-09T11:29:25Z</time>
   </trkpt>
   <trkpt lat="46.184642791748" lon="7.00095748901367">
    <ele>1045.92761230469</ele>
    <time>2012-03-09T11:29:26Z</time>
   </trkpt>
   <trkpt lat="46.1845932006836" lon="7.00089597702026">
    <ele>1045.77478027344</ele>
    <time>2012-03-09T11:29:27Z</time>
   </trkpt>
   <trkpt lat="46.1845550537109" lon="7.00082159042358">
    <ele>1045.62182617188</ele>
    <time>2012-03-09T11:29:28Z</time>
   </trkpt>
   <trkpt lat="46.1845207214356" lon="7.0007472038269">
    <ele>1045.46899414062</ele>
    <time>2012-03-09T11:29:29Z</time>
   </trkpt>
   <trkpt lat="46.1844863891602" lon="7.00066995620728">
    <ele>1045.31616210938</ele>
    <time>2012-03-09T11:29:30Z</time>
   </trkpt>
   <trkpt lat="46.1844520568848" lon="7.00058650970459">
    <ele>1045.16320800781</ele>
    <time>2012-03-09T11:29:31Z</time>
   </trkpt>
   <trkpt lat="46.1844139099121" lon="7.00049591064453">
    <ele>1045.01037597656</ele>
    <time>2012-03-09T11:29:32Z</time>
   </trkpt>
   <trkpt lat="46.1843719482422" lon="7.00040149688721">
    <ele>1044.85754394531</ele>
    <time>2012-03-09T11:29:33Z</time>
   </trkpt>
   <trkpt lat="46.184326171875" lon="7.00029850006104">
    <ele>1044.70458984375</ele>
    <time>2012-03-09T11:29:34Z</time>
   </trkpt>
   <trkpt lat="46.1842765808106" lon="7.00019598007202">
    <ele>1044.5517578125</ele>
    <time>2012-03-09T11:29:35Z</time>
   </trkpt>
   <trkpt lat="46.1842269897461" lon="7.00008773803711">
    <ele>1044.39892578125</ele>
    <time>2012-03-09T11:29:36Z</time>
   </trkpt>
   <trkpt lat="46.1841850280762" lon="6.9999680519104">
    <ele>1044.24597167969</ele>
    <time>2012-03-09T11:29:37Z</time>
   </trkpt>
   <trkpt lat="46.1841583251953" lon="6.99983501434326">
    <ele>1044.09313964844</ele>
    <time>2012-03-09T11:29:38Z</time>
   </trkpt>
   <trkpt lat="46.1841506958008" lon="6.99968957901001">
    <ele>1043.94030761719</ele>
    <time>2012-03-09T11:29:39Z</time>
   </trkpt>
   <trkpt lat="46.1841506958008" lon="6.99955081939697">
    <ele>1043.78735351562</ele>
    <time>2012-03-09T11:29:40Z</time>
   </trkpt>
   <trkpt lat="46.1841354370117" lon="6.99940824508667">
    <ele>1043.63452148438</ele>
    <time>2012-03-09T11:29:41Z</time>
   </trkpt>
   <trkpt lat="46.1840972900391" lon="6.99928569793701">
    <ele>1043.48168945312</ele>
    <time>2012-03-09T11:29:42Z</time>
   </trkpt>
   <trkpt lat="46.1840400695801" lon="6.99918174743652">
    <ele>1043.32873535156</ele>
    <time>2012-03-09T11:29:43Z</time>
   </trkpt>
   <trkpt lat="46.1839714050293" lon="6.99908876419067">
    <ele>1043.17590332031</ele>
    <time>2012-03-09T11:29:44Z</time>
   </trkpt>
   <trkpt lat="46.1838912963867" lon="6.99900150299072">
    <ele>1043.02307128906</ele>
    <time>2012-03-09T11:29:45Z</time>
   </trkpt>
   <trkpt lat="46.1838073730469" lon="6.99891901016235">
    <ele>1042.8701171875</ele>
    <time>2012-03-09T11:29:46Z</time>
   </trkpt>
   <trkpt lat="46.1837120056152" lon="6.99884605407715">
    <ele>1042.71728515625</ele>
    <time>2012-03-09T11:29:47Z</time>
   </trkpt>
   <trkpt lat="46.1836242675781" lon="6.99879026412964">
    <ele>1042.564453125</ele>
    <time>2012-03-09T11:29:48Z</time>
   </trkpt>
   <trkpt lat="46.1835327148438" lon="6.99874353408814">
    <ele>1042.41149902344</ele>
    <time>2012-03-09T11:29:49Z</time>
   </trkpt>
   <trkpt lat="46.1834602355957" lon="6.998703956604">
    <ele>1042.25866699219</ele>
    <time>2012-03-09T11:29:50Z</time>
   </trkpt>
   <trkpt lat="46.1833992004394" lon="6.9986720085144">
    <ele>1042.10583496094</ele>
    <time>2012-03-09T11:29:51Z</time>
   </trkpt>
   <trkpt lat="46.1833534240723" lon="6.99864912033081">
    <ele>1041.95288085938</ele>
    <time>2012-03-09T11:29:52Z</time>
   </trkpt>
   <trkpt lat="46.1833267211914" lon="6.99863719940186">
    <ele>1041.80004882812</ele>
    <time>2012-03-09T11:29:53Z</time>
   </trkpt>
   <trkpt lat="46.183292388916" lon="6.99862003326416">
    <ele>1041.80004882812</ele>
    <time>2012-03-09T11:29:55Z</time>
   </trkpt>
   <trkpt lat="46.1832389831543" lon="6.9986162185669">
    <ele>1035.71789550781</ele>
    <time>2012-03-09T11:30:01Z</time>
   </trkpt>
   <trkpt lat="46.1832542419434" lon="6.99862146377564">
    <ele>1030.64953613281</ele>
    <time>2012-03-09T11:30:06Z</time>
   </trkpt>
   <trkpt lat="46.1830863952637" lon="6.99852800369263">
    <ele>1026.5947265625</ele>
    <time>2012-03-09T11:30:10Z</time>
   </trkpt>
   <trkpt lat="46.1830406188965" lon="6.99848699569702">
    <ele>1025.5810546875</ele>
    <time>2012-03-09T11:30:11Z</time>
   </trkpt>
   <trkpt lat="46.1829872131348" lon="6.99843978881836">
    <ele>1024.5673828125</ele>
    <time>2012-03-09T11:30:12Z</time>
   </trkpt>
   <trkpt lat="46.182933807373" lon="6.99838209152222">
    <ele>1023.5537109375</ele>
    <time>2012-03-09T11:30:13Z</time>
   </trkpt>
   <trkpt lat="46.1828727722168" lon="6.99831867218018">
    <ele>1022.5400390625</ele>
    <time>2012-03-09T11:30:14Z</time>
   </trkpt>
   <trkpt lat="46.1828117370606" lon="6.99824810028076">
    <ele>1021.5263671875</ele>
    <time>2012-03-09T11:30:15Z</time>
   </trkpt>
   <trkpt lat="46.182746887207" lon="6.9981689453125">
    <ele>1020.5126953125</ele>
    <time>2012-03-09T11:30:16Z</time>
   </trkpt>
   <trkpt lat="46.1826858520508" lon="6.99808502197266">
    <ele>1019.49896240234</ele>
    <time>2012-03-09T11:30:17Z</time>
   </trkpt>
   <trkpt lat="46.1826210021973" lon="6.99799966812134">
    <ele>1018.48529052734</ele>
    <time>2012-03-09T11:30:18Z</time>
   </trkpt>
   <trkpt lat="46.1825637817383" lon="6.99791812896728">
    <ele>1017.47161865234</ele>
    <time>2012-03-09T11:30:19Z</time>
   </trkpt>
   <trkpt lat="46.1825065612793" lon="6.99783086776733">
    <ele>1016.45794677734</ele>
    <time>2012-03-09T11:30:20Z</time>
   </trkpt>
   <trkpt lat="46.1824607849121" lon="6.99773454666138">
    <ele>1015.44427490234</ele>
    <time>2012-03-09T11:30:21Z</time>
   </trkpt>
   <trkpt lat="46.1824226379394" lon="6.99762678146362">
    <ele>1014.43054199219</ele>
    <time>2012-03-09T11:30:22Z</time>
   </trkpt>
   <trkpt lat="46.1823883056641" lon="6.99751329421997">
    <ele>1013.41687011719</ele>
    <time>2012-03-09T11:30:23Z</time>
   </trkpt>
   <trkpt lat="46.1823463439941" lon="6.99741077423096">
    <ele>1012.40319824219</ele>
    <time>2012-03-09T11:30:24Z</time>
   </trkpt>
   <trkpt lat="46.1822929382324" lon="6.99732780456543">
    <ele>1011.38952636719</ele>
    <time>2012-03-09T11:30:25Z</time>
   </trkpt>
   <trkpt lat="46.1822471618652" lon="6.99726915359497">
    <ele>1010.37585449219</ele>
    <time>2012-03-09T11:30:26Z</time>
   </trkpt>
   <trkpt lat="46.1822090148926" lon="6.99722862243652">
    <ele>1009.36212158203</ele>
    <time>2012-03-09T11:30:27Z</time>
   </trkpt>
   <trkpt lat="46.1821517944336" lon="6.99720668792725">
    <ele>1008.34844970703</ele>
    <time>2012-03-09T11:30:28Z</time>
   </trkpt>
   <trkpt lat="46.1820793151856" lon="6.99722242355347">
    <ele>1007.33477783203</ele>
    <time>2012-03-09T11:30:29Z</time>
   </trkpt>
   <trkpt lat="46.1819953918457" lon="6.99725723266602">
    <ele>1006.32110595703</ele>
    <time>2012-03-09T11:30:30Z</time>
   </trkpt>
   <trkpt lat="46.1819114685059" lon="6.99728488922119">
    <ele>1005.30743408203</ele>
    <time>2012-03-09T11:30:31Z</time>
   </trkpt>
   <trkpt lat="46.1818313598633" lon="6.99729442596436">
    <ele>1004.29370117188</ele>
    <time>2012-03-09T11:30:32Z</time>
   </trkpt>
   <trkpt lat="46.1817474365234" lon="6.99727821350098">
    <ele>1003.28002929688</ele>
    <time>2012-03-09T11:30:33Z</time>
   </trkpt>
   <trkpt lat="46.1816596984863" lon="6.9972562789917">
    <ele>1002.26635742188</ele>
    <time>2012-03-09T11:30:34Z</time>
   </trkpt>
   <trkpt lat="46.1815719604492" lon="6.99723863601685">
    <ele>1001.25268554688</ele>
    <time>2012-03-09T11:30:35Z</time>
   </trkpt>
   <trkpt lat="46.1814880371094" lon="6.99722623825073">
    <ele>1000.23901367188</ele>
    <time>2012-03-09T11:30:36Z</time>
   </trkpt>
   <trkpt lat="46.1814041137695" lon="6.99721097946167">
    <ele>999.225280761719</ele>
    <time>2012-03-09T11:30:37Z</time>
   </trkpt>
   <trkpt lat="46.1813278198242" lon="6.99716806411743">
    <ele>998.211608886719</ele>
    <time>2012-03-09T11:30:38Z</time>
   </trkpt>
   <trkpt lat="46.1812553405762" lon="6.99709749221802">
    <ele>997.197937011719</ele>
    <time>2012-03-09T11:30:39Z</time>
   </trkpt>
   <trkpt lat="46.1811790466309" lon="6.99701404571533">
    <ele>996.184265136719</ele>
    <time>2012-03-09T11:30:40Z</time>
   </trkpt>
   <trkpt lat="46.1811027526856" lon="6.99691581726074">
    <ele>995.170593261719</ele>
    <time>2012-03-09T11:30:41Z</time>
   </trkpt>
   <trkpt lat="46.1810264587402" lon="6.99682426452637">
    <ele>994.156860351562</ele>
    <time>2012-03-09T11:30:42Z</time>
   </trkpt>
   <trkpt lat="46.1809463500977" lon="6.99674701690674">
    <ele>993.143188476562</ele>
    <time>2012-03-09T11:30:43Z</time>
   </trkpt>
   <trkpt lat="46.1808624267578" lon="6.99667501449585">
    <ele>992.129516601562</ele>
    <time>2012-03-09T11:30:44Z</time>
   </trkpt>
   <trkpt lat="46.180778503418" lon="6.99660730361938">
    <ele>991.115844726562</ele>
    <time>2012-03-09T11:30:45Z</time>
   </trkpt>
   <trkpt lat="46.1806945800781" lon="6.99654054641724">
    <ele>990.102172851562</ele>
    <time>2012-03-09T11:30:46Z</time>
   </trkpt>
   <trkpt lat="46.1806106567383" lon="6.99645757675171">
    <ele>989.088439941406</ele>
    <time>2012-03-09T11:30:47Z</time>
   </trkpt>
   <trkpt lat="46.1805305480957" lon="6.99634790420532">
    <ele>988.074768066406</ele>
    <time>2012-03-09T11:30:48Z</time>
   </trkpt>
   <trkpt lat="46.1804580688477" lon="6.99623537063599">
    <ele>987.061096191406</ele>
    <time>2012-03-09T11:30:49Z</time>
   </trkpt>
   <trkpt lat="46.1803970336914" lon="6.99612092971802">
    <ele>986.047424316406</ele>
    <time>2012-03-09T11:30:50Z</time>
   </trkpt>
   <trkpt lat="46.1803359985352" lon="6.99600219726562">
    <ele>985.033752441406</ele>
    <time>2012-03-09T11:30:51Z</time>
   </trkpt>
   <trkpt lat="46.1802864074707" lon="6.99588394165039">
    <ele>984.02001953125</ele>
    <time>2012-03-09T11:30:52Z</time>
   </trkpt>
   <trkpt lat="46.1802444458008" lon="6.99576711654663">
    <ele>983.00634765625</ele>
    <time>2012-03-09T11:30:53Z</time>
   </trkpt>
   <trkpt lat="46.1802024841309" lon="6.99565076828003">
    <ele>981.99267578125</ele>
    <time>2012-03-09T11:30:54Z</time>
   </trkpt>
   <trkpt lat="46.1801605224609" lon="6.99552726745606">
    <ele>980.97900390625</ele>
    <time>2012-03-09T11:30:55Z</time>
   </trkpt>
   <trkpt lat="46.1801147460938" lon="6.99540758132935">
    <ele>979.965270996094</ele>
    <time>2012-03-09T11:30:56Z</time>
   </trkpt>
   <trkpt lat="46.1800689697266" lon="6.99528741836548">
    <ele>978.951599121094</ele>
    <time>2012-03-09T11:30:57Z</time>
   </trkpt>
   <trkpt lat="46.1800193786621" lon="6.99517774581909">
    <ele>977.937927246094</ele>
    <time>2012-03-09T11:30:58Z</time>
   </trkpt>
   <trkpt lat="46.1799659729004" lon="6.99508428573608">
    <ele>976.924255371094</ele>
    <time>2012-03-09T11:30:59Z</time>
   </trkpt>
   <trkpt lat="46.1799125671387" lon="6.99501132965088">
    <ele>975.910583496094</ele>
    <time>2012-03-09T11:31:00Z</time>
   </trkpt>
   <trkpt lat="46.179859161377" lon="6.99493551254272">
    <ele>974.896850585938</ele>
    <time>2012-03-09T11:31:01Z</time>
   </trkpt>
   <trkpt lat="46.1798133850098" lon="6.99485206604004">
    <ele>973.883178710938</ele>
    <time>2012-03-09T11:31:02Z</time>
   </trkpt>
   <trkpt lat="46.1797714233398" lon="6.9947681427002">
    <ele>972.869506835938</ele>
    <time>2012-03-09T11:31:03Z</time>
   </trkpt>
   <trkpt lat="46.1797370910644" lon="6.99470376968384">
    <ele>971.855834960938</ele>
    <time>2012-03-09T11:31:04Z</time>
   </trkpt>
   <trkpt lat="46.1797218322754" lon="6.99467325210571">
    <ele>970.842163085938</ele>
    <time>2012-03-09T11:31:05Z</time>
   </trkpt>
   <trkpt lat="46.1797409057617" lon="6.99468851089478">
    <ele>969.828430175781</ele>
    <time>2012-03-09T11:31:06Z</time>
   </trkpt>
   <trkpt lat="46.1797523498535" lon="6.99476623535156">
    <ele>968.814758300781</ele>
    <time>2012-03-09T11:31:07Z</time>
   </trkpt>
   <trkpt lat="46.1798286437988" lon="6.99502468109131">
    <ele>965.773742675781</ele>
    <time>2012-03-09T11:31:10Z</time>
   </trkpt>
   <trkpt lat="46.1798629760742" lon="6.99512100219726">
    <ele>964.760009765625</ele>
    <time>2012-03-09T11:31:11Z</time>
   </trkpt>
   <trkpt lat="46.1799011230469" lon="6.99522495269775">
    <ele>963.746337890625</ele>
    <time>2012-03-09T11:31:12Z</time>
   </trkpt>
   <trkpt lat="46.1799392700195" lon="6.99533700942993">
    <ele>962.732666015625</ele>
    <time>2012-03-09T11:31:13Z</time>
   </trkpt>
   <trkpt lat="46.1799583435059" lon="6.99546670913696">
    <ele>961.718994140625</ele>
    <time>2012-03-09T11:31:14Z</time>
   </trkpt>
   <trkpt lat="46.1799697875977" lon="6.99560832977295">
    <ele>960.705322265625</ele>
    <time>2012-03-09T11:31:15Z</time>
   </trkpt>
   <trkpt lat="46.1799774169922" lon="6.99574995040894">
    <ele>959.691589355469</ele>
    <time>2012-03-09T11:31:16Z</time>
   </trkpt>
   <trkpt lat="46.1799736022949" lon="6.99589014053345">
    <ele>958.677917480469</ele>
    <time>2012-03-09T11:31:17Z</time>
   </trkpt>
   <trkpt lat="46.1799697875977" lon="6.9960412979126">
    <ele>957.664245605469</ele>
    <time>2012-03-09T11:31:18Z</time>
   </trkpt>
   <trkpt lat="46.1799583435059" lon="6.99618148803711">
    <ele>956.650573730469</ele>
    <time>2012-03-09T11:31:19Z</time>
   </trkpt>
   <trkpt lat="46.1799545288086" lon="6.99631118774414">
    <ele>955.636901855469</ele>
    <time>2012-03-09T11:31:20Z</time>
   </trkpt>
   <trkpt lat="46.1799545288086" lon="6.99643707275391">
    <ele>954.623168945312</ele>
    <time>2012-03-09T11:31:21Z</time>
   </trkpt>
   <trkpt lat="46.1799621582031" lon="6.99656295776367">
    <ele>953.609497070312</ele>
    <time>2012-03-09T11:31:22Z</time>
   </trkpt>
   <trkpt lat="46.1799812316894" lon="6.99668550491333">
    <ele>952.595825195312</ele>
    <time>2012-03-09T11:31:23Z</time>
   </trkpt>
   <trkpt lat="46.1800155639648" lon="6.99680614471436">
    <ele>951.582153320312</ele>
    <time>2012-03-09T11:31:24Z</time>
   </trkpt>
   <trkpt lat="46.1800575256348" lon="6.99692153930664">
    <ele>950.568481445312</ele>
    <time>2012-03-09T11:31:25Z</time>
   </trkpt>
   <trkpt lat="46.1801147460938" lon="6.99703311920166">
    <ele>949.554748535156</ele>
    <time>2012-03-09T11:31:26Z</time>
   </trkpt>
   <trkpt lat="46.1801719665527" lon="6.99713230133057">
    <ele>948.541076660156</ele>
    <time>2012-03-09T11:31:27Z</time>
   </trkpt>
   <trkpt lat="46.180233001709" lon="6.99723100662232">
    <ele>947.527404785156</ele>
    <time>2012-03-09T11:31:28Z</time>
   </trkpt>
   <trkpt lat="46.180290222168" lon="6.99734020233154">
    <ele>946.513732910156</ele>
    <time>2012-03-09T11:31:29Z</time>
   </trkpt>
   <trkpt lat="46.1803398132324" lon="6.99745750427246">
    <ele>945.5</ele>
    <time>2012-03-09T11:31:30Z</time>
   </trkpt>
   <trkpt lat="46.1803817749023" lon="6.99758148193359">
    <ele>944.486328125</ele>
    <time>2012-03-09T11:31:31Z</time>
   </trkpt>
   <trkpt lat="46.1804237365723" lon="6.99771213531494">
    <ele>943.47265625</ele>
    <time>2012-03-09T11:31:32Z</time>
   </trkpt>
   <trkpt lat="46.1804618835449" lon="6.99786233901978">
    <ele>942.458984375</ele>
    <time>2012-03-09T11:31:33Z</time>
   </trkpt>
   <trkpt lat="46.1804847717285" lon="6.99801588058472">
    <ele>941.4453125</ele>
    <time>2012-03-09T11:31:34Z</time>
   </trkpt>
   <trkpt lat="46.1805076599121" lon="6.99817371368408">
    <ele>940.431579589844</ele>
    <time>2012-03-09T11:31:35Z</time>
   </trkpt>
   <trkpt lat="46.1805267333984" lon="6.99831676483154">
    <ele>939.417907714844</ele>
    <time>2012-03-09T11:31:36Z</time>
   </trkpt>
   <trkpt lat="46.1805648803711" lon="6.99844360351562">
    <ele>938.404235839844</ele>
    <time>2012-03-09T11:31:37Z</time>
   </trkpt>
   <trkpt lat="46.180606842041" lon="6.99856281280518">
    <ele>937.390563964844</ele>
    <time>2012-03-09T11:31:38Z</time>
   </trkpt>
   <trkpt lat="46.1806564331055" lon="6.99867916107178">
    <ele>936.376892089844</ele>
    <time>2012-03-09T11:31:39Z</time>
   </trkpt>
   <trkpt lat="46.1807098388672" lon="6.99878215789795">
    <ele>935.363159179688</ele>
    <time>2012-03-09T11:31:40Z</time>
   </trkpt>
   <trkpt lat="46.1807708740234" lon="6.99886178970337">
    <ele>934.349487304688</ele>
    <time>2012-03-09T11:31:41Z</time>
   </trkpt>
   <trkpt lat="46.180835723877" lon="6.99889993667602">
    <ele>933.335815429688</ele>
    <time>2012-03-09T11:31:42Z</time>
   </trkpt>
   <trkpt lat="46.1809005737305" lon="6.99891185760498">
    <ele>932.322143554688</ele>
    <time>2012-03-09T11:31:43Z</time>
   </trkpt>
   <trkpt lat="46.1809692382812" lon="6.99891805648804">
    <ele>931.308471679688</ele>
    <time>2012-03-09T11:31:44Z</time>
   </trkpt>
   <trkpt lat="46.1810417175293" lon="6.99892902374268">
    <ele>930.294738769531</ele>
    <time>2012-03-09T11:31:45Z</time>
   </trkpt>
   <trkpt lat="46.1811218261719" lon="6.99897003173828">
    <ele>929.281066894531</ele>
    <time>2012-03-09T11:31:46Z</time>
   </trkpt>
   <trkpt lat="46.1812133789062" lon="6.9990291595459">
    <ele>928.267395019531</ele>
    <time>2012-03-09T11:31:47Z</time>
   </trkpt>
   <trkpt lat="46.1813011169434" lon="6.99909973144531">
    <ele>927.253723144531</ele>
    <time>2012-03-09T11:31:48Z</time>
   </trkpt>
   <trkpt lat="46.1813850402832" lon="6.99915933609009">
    <ele>926.240051269531</ele>
    <time>2012-03-09T11:31:49Z</time>
   </trkpt>
   <trkpt lat="46.1814651489258" lon="6.99921941757202">
    <ele>925.226318359375</ele>
    <time>2012-03-09T11:31:50Z</time>
   </trkpt>
   <trkpt lat="46.1815299987793" lon="6.99930620193482">
    <ele>924.212646484375</ele>
    <time>2012-03-09T11:31:51Z</time>
   </trkpt>
   <trkpt lat="46.1815948486328" lon="6.99940919876099">
    <ele>923.198974609375</ele>
    <time>2012-03-09T11:31:52Z</time>
   </trkpt>
   <trkpt lat="46.1816596984863" lon="6.99953413009644">
    <ele>922.185302734375</ele>
    <time>2012-03-09T11:31:53Z</time>
   </trkpt>
   <trkpt lat="46.1816864013672" lon="6.999680519104">
    <ele>921.171630859375</ele>
    <time>2012-03-09T11:31:54Z</time>
   </trkpt>
   <trkpt lat="46.1817359924316" lon="6.99981021881104">
    <ele>920.157897949219</ele>
    <time>2012-03-09T11:31:55Z</time>
   </trkpt>
   <trkpt lat="46.1817932128906" lon="6.99994039535522">
    <ele>919.144226074219</ele>
    <time>2012-03-09T11:31:56Z</time>
   </trkpt>
   <trkpt lat="46.1818542480469" lon="7.00005388259888">
    <ele>918.130554199219</ele>
    <time>2012-03-09T11:31:57Z</time>
   </trkpt>
   <trkpt lat="46.1818809509277" lon="7.00018644332886">
    <ele>917.116882324219</ele>
    <time>2012-03-09T11:31:58Z</time>
   </trkpt>
   <trkpt lat="46.1818962097168" lon="7.00033235549927">
    <ele>916.103210449219</ele>
    <time>2012-03-09T11:31:59Z</time>
   </trkpt>
   <trkpt lat="46.1819076538086" lon="7.00048017501831">
    <ele>915.089477539062</ele>
    <time>2012-03-09T11:32:00Z</time>
   </trkpt>
   <trkpt lat="46.1819305419922" lon="7.00063419342041">
    <ele>914.075805664062</ele>
    <time>2012-03-09T11:32:01Z</time>
   </trkpt>
   <trkpt lat="46.1819458007812" lon="7.00078821182251">
    <ele>913.062133789062</ele>
    <time>2012-03-09T11:32:02Z</time>
   </trkpt>
   <trkpt lat="46.1819458007812" lon="7.00094318389893">
    <ele>912.048461914062</ele>
    <time>2012-03-09T11:32:03Z</time>
   </trkpt>
   <trkpt lat="46.1819305419922" lon="7.00108003616333">
    <ele>911.034790039062</ele>
    <time>2012-03-09T11:32:04Z</time>
   </trkpt>
   <trkpt lat="46.181884765625" lon="7.00121307373047">
    <ele>910.021057128906</ele>
    <time>2012-03-09T11:32:05Z</time>
   </trkpt>
   <trkpt lat="46.1818695068359" lon="7.00134754180908">
    <ele>909.007385253906</ele>
    <time>2012-03-09T11:32:06Z</time>
   </trkpt>
   <trkpt lat="46.1818580627441" lon="7.00147819519043">
    <ele>907.993713378906</ele>
    <time>2012-03-09T11:32:07Z</time>
   </trkpt>
   <trkpt lat="46.1818618774414" lon="7.00162124633789">
    <ele>906.980041503906</ele>
    <time>2012-03-09T11:32:08Z</time>
   </trkpt>
   <trkpt lat="46.1818771362305" lon="7.00177717208862">
    <ele>905.96630859375</ele>
    <time>2012-03-09T11:32:09Z</time>
   </trkpt>
   <trkpt lat="46.1818962097168" lon="7.0019326210022">
    <ele>904.95263671875</ele>
    <time>2012-03-09T11:32:10Z</time>
   </trkpt>
   <trkpt lat="46.1819305419922" lon="7.00208234786987">
    <ele>903.93896484375</ele>
    <time>2012-03-09T11:32:11Z</time>
   </trkpt>
   <trkpt lat="46.1819763183594" lon="7.00221061706543">
    <ele>902.92529296875</ele>
    <time>2012-03-09T11:32:12Z</time>
   </trkpt>
   <trkpt lat="46.1820373535156" lon="7.00230360031128">
    <ele>901.91162109375</ele>
    <time>2012-03-09T11:32:13Z</time>
   </trkpt>
   <trkpt lat="46.1821098327637" lon="7.00235462188721">
    <ele>900.897888183594</ele>
    <time>2012-03-09T11:32:14Z</time>
   </trkpt>
   <trkpt lat="46.1821784973144" lon="7.00239181518555">
    <ele>899.884216308594</ele>
    <time>2012-03-09T11:32:15Z</time>
   </trkpt>
   <trkpt lat="46.1822395324707" lon="7.00243282318115">
    <ele>898.870544433594</ele>
    <time>2012-03-09T11:32:16Z</time>
   </trkpt>
   <trkpt lat="46.1823043823242" lon="7.00247573852539">
    <ele>897.856872558594</ele>
    <time>2012-03-09T11:32:17Z</time>
   </trkpt>
   <trkpt lat="46.1823654174805" lon="7.0025110244751">
    <ele>896.843200683594</ele>
    <time>2012-03-09T11:32:18Z</time>
   </trkpt>
   <trkpt lat="46.1824264526367" lon="7.00254392623901">
    <ele>895.829467773438</ele>
    <time>2012-03-09T11:32:19Z</time>
   </trkpt>
   <trkpt lat="46.1824798583984" lon="7.00256443023682">
    <ele>894.815795898438</ele>
    <time>2012-03-09T11:32:20Z</time>
   </trkpt>
   <trkpt lat="46.1825332641602" lon="7.0025806427002">
    <ele>893.802124023438</ele>
    <time>2012-03-09T11:32:21Z</time>
   </trkpt>
   <trkpt lat="46.1825904846191" lon="7.00259733200073">
    <ele>892.788452148438</ele>
    <time>2012-03-09T11:32:22Z</time>
   </trkpt>
   <trkpt lat="46.1830825805664" lon="7.00269222259522">
    <ele>884.678955078125</ele>
    <time>2012-03-09T11:32:30Z</time>
   </trkpt>
   <trkpt lat="46.1831474304199" lon="7.00267887115478">
    <ele>883.665283203125</ele>
    <time>2012-03-09T11:32:31Z</time>
   </trkpt>
   <trkpt lat="46.1832084655762" lon="7.00266408920288">
    <ele>882.651611328125</ele>
    <time>2012-03-09T11:32:32Z</time>
   </trkpt>
   <trkpt lat="46.1832733154297" lon="7.00264930725098">
    <ele>881.637939453125</ele>
    <time>2012-03-09T11:32:33Z</time>
   </trkpt>
   <trkpt lat="46.1836280822754" lon="7.00274705886841">
    <ele>875.555786132812</ele>
    <time>2012-03-09T11:32:39Z</time>
   </trkpt>
   <trkpt lat="46.1836929321289" lon="7.00281763076782">
    <ele>874.542114257812</ele>
    <time>2012-03-09T11:32:40Z</time>
   </trkpt>
   <trkpt lat="46.183765411377" lon="7.00289535522461">
    <ele>873.528442382812</ele>
    <time>2012-03-09T11:32:41Z</time>
   </trkpt>
   <trkpt lat="46.1838340759277" lon="7.0029730796814">
    <ele>872.514770507812</ele>
    <time>2012-03-09T11:32:42Z</time>
   </trkpt>
   <trkpt lat="46.1838989257812" lon="7.00305223464966">
    <ele>871.501098632812</ele>
    <time>2012-03-09T11:32:43Z</time>
   </trkpt>
   <trkpt lat="46.183967590332" lon="7.00312232971191">
    <ele>870.487365722656</ele>
    <time>2012-03-09T11:32:44Z</time>
   </trkpt>
   <trkpt lat="46.1840400695801" lon="7.00317621231079">
    <ele>869.473693847656</ele>
    <time>2012-03-09T11:32:45Z</time>
   </trkpt>
   <trkpt lat="46.1841125488281" lon="7.00321865081787">
    <ele>868.460021972656</ele>
    <time>2012-03-09T11:32:46Z</time>
   </trkpt>
   <trkpt lat="46.1841888427734" lon="7.00325965881348">
    <ele>867.446350097656</ele>
    <time>2012-03-09T11:32:47Z</time>
   </trkpt>
   <trkpt lat="46.184268951416" lon="7.00330495834351">
    <ele>866.4326171875</ele>
    <time>2012-03-09T11:32:48Z</time>
   </trkpt>
   <trkpt lat="46.1843528747559" lon="7.00335693359375">
    <ele>865.4189453125</ele>
    <time>2012-03-09T11:32:49Z</time>
   </trkpt>
   <trkpt lat="46.184440612793" lon="7.00340747833252">
    <ele>864.4052734375</ele>
    <time>2012-03-09T11:32:50Z</time>
   </trkpt>
   <trkpt lat="46.1845245361328" lon="7.00345993041992">
    <ele>863.3916015625</ele>
    <time>2012-03-09T11:32:51Z</time>
   </trkpt>
   <trkpt lat="46.1846084594727" lon="7.00351667404175">
    <ele>862.3779296875</ele>
    <time>2012-03-09T11:32:52Z</time>
   </trkpt>
   <trkpt lat="46.1846923828125" lon="7.00358009338379">
    <ele>861.364196777344</ele>
    <time>2012-03-09T11:32:53Z</time>
   </trkpt>
   <trkpt lat="46.1847763061523" lon="7.0036449432373">
    <ele>860.350524902344</ele>
    <time>2012-03-09T11:32:54Z</time>
   </trkpt>
   <trkpt lat="46.1848526000977" lon="7.00370645523071">
    <ele>859.336853027344</ele>
    <time>2012-03-09T11:32:55Z</time>
   </trkpt>
   <trkpt lat="46.1849365234375" lon="7.00376176834106">
    <ele>858.323181152344</ele>
    <time>2012-03-09T11:32:56Z</time>
   </trkpt>
   <trkpt lat="46.1850128173828" lon="7.00378465652466">
    <ele>857.309509277344</ele>
    <time>2012-03-09T11:32:57Z</time>
   </trkpt>
   <trkpt lat="46.1850891113281" lon="7.0037841796875">
    <ele>856.295776367188</ele>
    <time>2012-03-09T11:32:58Z</time>
   </trkpt>
   <trkpt lat="46.1851615905762" lon="7.00377368927002">
    <ele>855.282104492188</ele>
    <time>2012-03-09T11:32:59Z</time>
   </trkpt>
   <trkpt lat="46.1852340698242" lon="7.00375461578369">
    <ele>854.268432617188</ele>
    <time>2012-03-09T11:33:00Z</time>
   </trkpt>
   <trkpt lat="46.1853141784668" lon="7.00372076034546">
    <ele>853.254760742188</ele>
    <time>2012-03-09T11:33:01Z</time>
   </trkpt>
   <trkpt lat="46.1853981018066" lon="7.0036792755127">
    <ele>852.241088867188</ele>
    <time>2012-03-09T11:33:02Z</time>
   </trkpt>
   <trkpt lat="46.1854782104492" lon="7.00363922119141">
    <ele>851.227355957031</ele>
    <time>2012-03-09T11:33:03Z</time>
   </trkpt>
   <trkpt lat="46.1855545043945" lon="7.00359773635864">
    <ele>850.213684082031</ele>
    <time>2012-03-09T11:33:04Z</time>
   </trkpt>
   <trkpt lat="46.1856231689453" lon="7.00355958938599">
    <ele>849.200012207031</ele>
    <time>2012-03-09T11:33:05Z</time>
   </trkpt>
   <trkpt lat="46.1857643127441" lon="7.00348901748657">
    <ele>849.200012207031</ele>
    <time>2012-03-09T11:33:07Z</time>
   </trkpt>
   <trkpt lat="46.1859588623047" lon="7.00359153747559">
    <ele>841.921325683594</ele>
    <time>2012-03-09T11:33:13Z</time>
   </trkpt>
   <trkpt lat="46.1858787536621" lon="7.0036735534668">
    <ele>840.708190917969</ele>
    <time>2012-03-09T11:33:14Z</time>
   </trkpt>
   <trkpt lat="46.1857528686523" lon="7.00376987457275">
    <ele>839.4951171875</ele>
    <time>2012-03-09T11:33:15Z</time>
   </trkpt>
   <trkpt lat="46.1856002807617" lon="7.0038366317749">
    <ele>838.281982421875</ele>
    <time>2012-03-09T11:33:16Z</time>
   </trkpt>
   <trkpt lat="46.1854057312012" lon="7.00387477874756">
    <ele>837.06884765625</ele>
    <time>2012-03-09T11:33:17Z</time>
   </trkpt>
   <trkpt lat="46.1852226257324" lon="7.00387287139893">
    <ele>835.855773925781</ele>
    <time>2012-03-09T11:33:18Z</time>
   </trkpt>
   <trkpt lat="46.1850814819336" lon="7.00390529632568">
    <ele>834.642639160156</ele>
    <time>2012-03-09T11:33:19Z</time>
   </trkpt>
   <trkpt lat="46.1849365234375" lon="7.00391960144043">
    <ele>833.429504394531</ele>
    <time>2012-03-09T11:33:20Z</time>
   </trkpt>
   <trkpt lat="46.1848106384277" lon="7.00392007827759">
    <ele>832.216430664062</ele>
    <time>2012-03-09T11:33:21Z</time>
   </trkpt>
   <trkpt lat="46.1847038269043" lon="7.00392198562622">
    <ele>831.003295898438</ele>
    <time>2012-03-09T11:33:22Z</time>
   </trkpt>
   <trkpt lat="46.1845741271973" lon="7.00393486022949">
    <ele>829.790161132812</ele>
    <time>2012-03-09T11:33:23Z</time>
   </trkpt>
   <trkpt lat="46.184440612793" lon="7.00396680831909">
    <ele>828.577087402344</ele>
    <time>2012-03-09T11:33:24Z</time>
   </trkpt>
   <trkpt lat="46.1843299865723" lon="7.00399494171143">
    <ele>827.363952636719</ele>
    <time>2012-03-09T11:33:25Z</time>
   </trkpt>
   <trkpt lat="46.1841926574707" lon="7.00401639938354">
    <ele>826.150817871094</ele>
    <time>2012-03-09T11:33:26Z</time>
   </trkpt>
   <trkpt lat="46.1840782165527" lon="7.00402212142944">
    <ele>824.937744140625</ele>
    <time>2012-03-09T11:33:27Z</time>
   </trkpt>
   <trkpt lat="46.183967590332" lon="7.00401592254639">
    <ele>823.724609375</ele>
    <time>2012-03-09T11:33:28Z</time>
   </trkpt>
   <trkpt lat="46.1838569641113" lon="7.00400543212891">
    <ele>822.511474609375</ele>
    <time>2012-03-09T11:33:29Z</time>
   </trkpt>
   <trkpt lat="46.1837272644043" lon="7.00399303436279">
    <ele>821.298400878906</ele>
    <time>2012-03-09T11:33:30Z</time>
   </trkpt>
   <trkpt lat="46.1836051940918" lon="7.00397777557373">
    <ele>820.085266113281</ele>
    <time>2012-03-09T11:33:31Z</time>
   </trkpt>
   <trkpt lat="46.1834754943848" lon="7.00397109985352">
    <ele>818.872131347656</ele>
    <time>2012-03-09T11:33:32Z</time>
   </trkpt>
   <trkpt lat="46.1833343505859" lon="7.00396299362183">
    <ele>817.659057617188</ele>
    <time>2012-03-09T11:33:33Z</time>
   </trkpt>
   <trkpt lat="46.1832046508789" lon="7.00395345687866">
    <ele>816.445922851562</ele>
    <time>2012-03-09T11:33:34Z</time>
   </trkpt>
   <trkpt lat="46.1830673217773" lon="7.00395059585571">
    <ele>815.232788085938</ele>
    <time>2012-03-09T11:33:35Z</time>
   </trkpt>
   <trkpt lat="46.1829261779785" lon="7.00394916534424">
    <ele>814.019714355469</ele>
    <time>2012-03-09T11:33:36Z</time>
   </trkpt>
   <trkpt lat="46.1827850341797" lon="7.0039496421814">
    <ele>812.806579589844</ele>
    <time>2012-03-09T11:33:37Z</time>
   </trkpt>
   <trkpt lat="46.1826591491699" lon="7.0039553642273">
    <ele>811.593444824219</ele>
    <time>2012-03-09T11:33:38Z</time>
   </trkpt>
   <trkpt lat="46.1825294494629" lon="7.00397634506226">
    <ele>810.380310058594</ele>
    <time>2012-03-09T11:33:39Z</time>
   </trkpt>
   <trkpt lat="46.1823997497559" lon="7.00400352478027">
    <ele>809.167236328125</ele>
    <time>2012-03-09T11:33:40Z</time>
   </trkpt>
   <trkpt lat="46.1822700500488" lon="7.00403738021851">
    <ele>807.9541015625</ele>
    <time>2012-03-09T11:33:41Z</time>
   </trkpt>
   <trkpt lat="46.1821403503418" lon="7.00407648086548">
    <ele>806.740966796875</ele>
    <time>2012-03-09T11:33:42Z</time>
   </trkpt>
   <trkpt lat="46.1820068359375" lon="7.00412511825562">
    <ele>805.527893066406</ele>
    <time>2012-03-09T11:33:43Z</time>
   </trkpt>
   <trkpt lat="46.1818656921387" lon="7.00416421890259">
    <ele>804.314758300781</ele>
    <time>2012-03-09T11:33:44Z</time>
   </trkpt>
   <trkpt lat="46.1817207336426" lon="7.0041937828064">
    <ele>803.101623535156</ele>
    <time>2012-03-09T11:33:45Z</time>
   </trkpt>
   <trkpt lat="46.181583404541" lon="7.00421285629272">
    <ele>801.888549804688</ele>
    <time>2012-03-09T11:33:46Z</time>
   </trkpt>
   <trkpt lat="46.181453704834" lon="7.00423860549927">
    <ele>800.675415039062</ele>
    <time>2012-03-09T11:33:47Z</time>
   </trkpt>
   <trkpt lat="46.1813316345215" lon="7.0042576789856">
    <ele>799.462280273438</ele>
    <time>2012-03-09T11:33:48Z</time>
   </trkpt>
   <trkpt lat="46.1812133789062" lon="7.00428438186646">
    <ele>798.249206542969</ele>
    <time>2012-03-09T11:33:49Z</time>
   </trkpt>
   <trkpt lat="46.1811065673828" lon="7.00434446334839">
    <ele>797.036071777344</ele>
    <time>2012-03-09T11:33:50Z</time>
   </trkpt>
   <trkpt lat="46.1810150146484" lon="7.00443077087402">
    <ele>795.822937011719</ele>
    <time>2012-03-09T11:33:51Z</time>
   </trkpt>
   <trkpt lat="46.1809158325195" lon="7.00451946258545">
    <ele>794.60986328125</ele>
    <time>2012-03-09T11:33:52Z</time>
   </trkpt>
   <trkpt lat="46.1808128356934" lon="7.00458812713623">
    <ele>793.396728515625</ele>
    <time>2012-03-09T11:33:53Z</time>
   </trkpt>
   <trkpt lat="46.1807289123535" lon="7.00459671020508">
    <ele>792.18359375</ele>
    <time>2012-03-09T11:33:54Z</time>
   </trkpt>
   <trkpt lat="46.1806488037109" lon="7.00457859039307">
    <ele>790.970520019531</ele>
    <time>2012-03-09T11:33:55Z</time>
   </trkpt>
   <trkpt lat="46.1805725097656" lon="7.00454235076904">
    <ele>789.757385253906</ele>
    <time>2012-03-09T11:33:56Z</time>
   </trkpt>
   <trkpt lat="46.1805038452148" lon="7.00449228286743">
    <ele>788.544250488281</ele>
    <time>2012-03-09T11:33:57Z</time>
   </trkpt>
   <trkpt lat="46.1804351806641" lon="7.00441026687622">
    <ele>787.331176757812</ele>
    <time>2012-03-09T11:33:58Z</time>
   </trkpt>
   <trkpt lat="46.1803703308106" lon="7.00429677963257">
    <ele>786.118041992188</ele>
    <time>2012-03-09T11:33:59Z</time>
   </trkpt>
   <trkpt lat="46.1803131103516" lon="7.00417900085449">
    <ele>784.904907226562</ele>
    <time>2012-03-09T11:34:00Z</time>
   </trkpt>
   <trkpt lat="46.180248260498" lon="7.0040693283081">
    <ele>783.691833496094</ele>
    <time>2012-03-09T11:34:01Z</time>
   </trkpt>
   <trkpt lat="46.1801834106445" lon="7.0039529800415">
    <ele>782.478698730469</ele>
    <time>2012-03-09T11:34:02Z</time>
   </trkpt>
   <trkpt lat="46.1801338195801" lon="7.00382423400879">
    <ele>781.265563964844</ele>
    <time>2012-03-09T11:34:03Z</time>
   </trkpt>
   <trkpt lat="46.1801261901856" lon="7.00363969802856">
    <ele>780.052490234375</ele>
    <time>2012-03-09T11:34:04Z</time>
   </trkpt>
   <trkpt lat="46.1801681518555" lon="7.00339031219482">
    <ele>778.83935546875</ele>
    <time>2012-03-09T11:34:05Z</time>
   </trkpt>
   <trkpt lat="46.1801681518555" lon="7.00324726104736">
    <ele>777.626220703125</ele>
    <time>2012-03-09T11:34:06Z</time>
   </trkpt>
   <trkpt lat="46.1801567077637" lon="7.00313711166382">
    <ele>776.413146972656</ele>
    <time>2012-03-09T11:34:07Z</time>
   </trkpt>
   <trkpt lat="46.1801376342773" lon="7.00306940078735">
    <ele>775.200012207031</ele>
    <time>2012-03-09T11:34:08Z</time>
   </trkpt>
   <trkpt lat="46.1800994873047" lon="7.00296354293823">
    <ele>775.200012207031</ele>
    <time>2012-03-09T11:34:10Z</time>
   </trkpt>
   <trkpt lat="46.1800651550293" lon="7.00294208526611">
    <ele>774.200012207031</ele>
    <time>2012-03-09T11:34:11Z</time>
   </trkpt>
   <trkpt lat="46.1800804138184" lon="7.00306510925293">
    <ele>773.200012207031</ele>
    <time>2012-03-09T11:34:12Z</time>
   </trkpt>
   <trkpt lat="46.1800994873047" lon="7.00316476821899">
    <ele>771.200012207031</ele>
    <time>2012-03-09T11:34:14Z</time>
   </trkpt>
   <trkpt lat="46.1801490783691" lon="7.00330829620361">
    <ele>770.200012207031</ele>
    <time>2012-03-09T11:34:15Z</time>
   </trkpt>
   <trkpt lat="46.1802139282227" lon="7.00340509414673">
    <ele>769.200012207031</ele>
    <time>2012-03-09T11:34:16Z</time>
   </trkpt>
   <trkpt lat="46.1802864074707" lon="7.00351428985596">
    <ele>768.200012207031</ele>
    <time>2012-03-09T11:34:17Z</time>
   </trkpt>
   <trkpt lat="46.180305480957" lon="7.00369358062744">
    <ele>767.200012207031</ele>
    <time>2012-03-09T11:34:18Z</time>
   </trkpt>
   <trkpt lat="46.1803283691406" lon="7.00387096405029">
    <ele>766.200012207031</ele>
    <time>2012-03-09T11:34:19Z</time>
   </trkpt>
   <trkpt lat="46.1803588867188" lon="7.00403118133545">
    <ele>765.200012207031</ele>
    <time>2012-03-09T11:34:20Z</time>
   </trkpt>
   <trkpt lat="46.1803932189941" lon="7.00419282913208">
    <ele>764.200012207031</ele>
    <time>2012-03-09T11:34:21Z</time>
   </trkpt>
   <trkpt lat="46.1804237365723" lon="7.00434350967407">
    <ele>763.200012207031</ele>
    <time>2012-03-09T11:34:22Z</time>
   </trkpt>
   <trkpt lat="46.1804618835449" lon="7.00449275970459">
    <ele>762.200012207031</ele>
    <time>2012-03-09T11:34:23Z</time>
   </trkpt>
   <trkpt lat="46.1804962158203" lon="7.00464296340942">
    <ele>761.200012207031</ele>
    <time>2012-03-09T11:34:24Z</time>
   </trkpt>
   <trkpt lat="46.1805267333984" lon="7.00479125976562">
    <ele>760.200012207031</ele>
    <time>2012-03-09T11:34:25Z</time>
   </trkpt>
   <trkpt lat="46.1805572509766" lon="7.00494527816772">
    <ele>759.200012207031</ele>
    <time>2012-03-09T11:34:26Z</time>
   </trkpt>
   <trkpt lat="46.1805953979492" lon="7.00509595870972">
    <ele>758.200012207031</ele>
    <time>2012-03-09T11:34:27Z</time>
   </trkpt>
   <trkpt lat="46.1806373596191" lon="7.0052318572998">
    <ele>757.200012207031</ele>
    <time>2012-03-09T11:34:28Z</time>
   </trkpt>
   <trkpt lat="46.1806869506836" lon="7.00535011291504">
    <ele>756.200012207031</ele>
    <time>2012-03-09T11:34:29Z</time>
   </trkpt>
   <trkpt lat="46.1807441711426" lon="7.00546455383301">
    <ele>755.200012207031</ele>
    <time>2012-03-09T11:34:30Z</time>
   </trkpt>
   <trkpt lat="46.1808090209961" lon="7.00556325912476">
    <ele>754.200012207031</ele>
    <time>2012-03-09T11:34:31Z</time>
   </trkpt>
   <trkpt lat="46.1808815002441" lon="7.00563383102417">
    <ele>753.200012207031</ele>
    <time>2012-03-09T11:34:32Z</time>
   </trkpt>
   <trkpt lat="46.1809539794922" lon="7.00566339492798">
    <ele>752.200012207031</ele>
    <time>2012-03-09T11:34:33Z</time>
   </trkpt>
   <trkpt lat="46.1810340881348" lon="7.00566577911377">
    <ele>751.200012207031</ele>
    <time>2012-03-09T11:34:34Z</time>
   </trkpt>
   <trkpt lat="46.1811408996582" lon="7.00557279586792">
    <ele>750.200012207031</ele>
    <time>2012-03-09T11:34:35Z</time>
   </trkpt>
   <trkpt lat="46.1812362670898" lon="7.00548505783081">
    <ele>749.200012207031</ele>
    <time>2012-03-09T11:34:36Z</time>
   </trkpt>
   <trkpt lat="46.1813125610352" lon="7.00542306900024">
    <ele>748.200012207031</ele>
    <time>2012-03-09T11:34:37Z</time>
   </trkpt>
   <trkpt lat="46.1813926696777" lon="7.00536870956421">
    <ele>747.200012207031</ele>
    <time>2012-03-09T11:34:38Z</time>
   </trkpt>
   <trkpt lat="46.1814804077148" lon="7.0053300857544">
    <ele>746.200012207031</ele>
    <time>2012-03-09T11:34:39Z</time>
   </trkpt>
   <trkpt lat="46.1815795898438" lon="7.005295753479">
    <ele>745.200012207031</ele>
    <time>2012-03-09T11:34:40Z</time>
   </trkpt>
   <trkpt lat="46.1816864013672" lon="7.00527334213257">
    <ele>744.200012207031</ele>
    <time>2012-03-09T11:34:41Z</time>
   </trkpt>
   <trkpt lat="46.1818008422852" lon="7.00527095794678">
    <ele>743.200012207031</ele>
    <time>2012-03-09T11:34:42Z</time>
   </trkpt>
   <trkpt lat="46.1819152832031" lon="7.00527572631836">
    <ele>742.200012207031</ele>
    <time>2012-03-09T11:34:43Z</time>
   </trkpt>
   <trkpt lat="46.1820373535156" lon="7.00527000427246">
    <ele>741.200012207031</ele>
    <time>2012-03-09T11:34:44Z</time>
   </trkpt>
   <trkpt lat="46.1821212768555" lon="7.00530385971069">
    <ele>740.200012207031</ele>
    <time>2012-03-09T11:34:45Z</time>
   </trkpt>
   <trkpt lat="46.1822090148926" lon="7.0053334236145">
    <ele>739.200012207031</ele>
    <time>2012-03-09T11:34:46Z</time>
   </trkpt>
   <trkpt lat="46.182300567627" lon="7.00535726547241">
    <ele>738.200012207031</ele>
    <time>2012-03-09T11:34:47Z</time>
   </trkpt>
   <trkpt lat="46.1823844909668" lon="7.00539064407349">
    <ele>737.200012207031</ele>
    <time>2012-03-09T11:34:48Z</time>
   </trkpt>
   <trkpt lat="46.1824645996094" lon="7.0054178237915">
    <ele>736.200012207031</ele>
    <time>2012-03-09T11:34:49Z</time>
   </trkpt>
   <trkpt lat="46.1825370788574" lon="7.0054292678833">
    <ele>735.200012207031</ele>
    <time>2012-03-09T11:34:50Z</time>
   </trkpt>
   <trkpt lat="46.1826553344727" lon="7.00546407699585">
    <ele>735.200012207031</ele>
    <time>2012-03-09T11:34:52Z</time>
   </trkpt>
   <trkpt lat="46.1827011108398" lon="7.0055422782898">
    <ele>733.25927734375</ele>
    <time>2012-03-09T11:34:54Z</time>
   </trkpt>
   <trkpt lat="46.1825866699219" lon="7.00560808181763">
    <ele>731.318542480469</ele>
    <time>2012-03-09T11:34:56Z</time>
   </trkpt>
   <trkpt lat="46.1825332641602" lon="7.00562143325806">
    <ele>730.34814453125</ele>
    <time>2012-03-09T11:34:57Z</time>
   </trkpt>
   <trkpt lat="46.1824798583984" lon="7.00562858581543">
    <ele>729.377807617188</ele>
    <time>2012-03-09T11:34:58Z</time>
   </trkpt>
   <trkpt lat="46.1824264526367" lon="7.00563716888428">
    <ele>728.407409667969</ele>
    <time>2012-03-09T11:34:59Z</time>
   </trkpt>
   <trkpt lat="46.1823616027832" lon="7.00564384460449">
    <ele>727.437072753906</ele>
    <time>2012-03-09T11:35:00Z</time>
   </trkpt>
   <trkpt lat="46.182300567627" lon="7.00565719604492">
    <ele>726.466674804688</ele>
    <time>2012-03-09T11:35:01Z</time>
   </trkpt>
   <trkpt lat="46.1822280883789" lon="7.00569152832031">
    <ele>725.496337890625</ele>
    <time>2012-03-09T11:35:02Z</time>
   </trkpt>
   <trkpt lat="46.1821556091309" lon="7.00574159622192">
    <ele>724.525939941406</ele>
    <time>2012-03-09T11:35:03Z</time>
   </trkpt>
   <trkpt lat="46.1820755004883" lon="7.0058331489563">
    <ele>723.555541992188</ele>
    <time>2012-03-09T11:35:04Z</time>
   </trkpt>
   <trkpt lat="46.1819915771484" lon="7.00594329833984">
    <ele>722.585205078125</ele>
    <time>2012-03-09T11:35:05Z</time>
   </trkpt>
   <trkpt lat="46.1819190979004" lon="7.00605964660644">
    <ele>721.614807128906</ele>
    <time>2012-03-09T11:35:06Z</time>
   </trkpt>
   <trkpt lat="46.1818504333496" lon="7.0061845779419">
    <ele>720.644470214844</ele>
    <time>2012-03-09T11:35:07Z</time>
   </trkpt>
   <trkpt lat="46.1817855834961" lon="7.00631284713745">
    <ele>719.674072265625</ele>
    <time>2012-03-09T11:35:08Z</time>
   </trkpt>
   <trkpt lat="46.1817169189453" lon="7.00643539428711">
    <ele>718.703735351562</ele>
    <time>2012-03-09T11:35:09Z</time>
   </trkpt>
   <trkpt lat="46.1816558837891" lon="7.0065541267395">
    <ele>717.733337402344</ele>
    <time>2012-03-09T11:35:10Z</time>
   </trkpt>
   <trkpt lat="46.1815986633301" lon="7.00666618347168">
    <ele>716.763000488281</ele>
    <time>2012-03-09T11:35:11Z</time>
   </trkpt>
   <trkpt lat="46.1815567016602" lon="7.00677919387817">
    <ele>715.792602539062</ele>
    <time>2012-03-09T11:35:12Z</time>
   </trkpt>
   <trkpt lat="46.181526184082" lon="7.00689077377319">
    <ele>714.822265625</ele>
    <time>2012-03-09T11:35:13Z</time>
   </trkpt>
   <trkpt lat="46.1815223693848" lon="7.00692892074585">
    <ele>713.851867675781</ele>
    <time>2012-03-09T11:35:14Z</time>
   </trkpt>
   <trkpt lat="46.1815147399902" lon="7.00694131851196">
    <ele>712.881469726562</ele>
    <time>2012-03-09T11:35:15Z</time>
   </trkpt>
   <trkpt lat="46.1815147399902" lon="7.00691318511963">
    <ele>711.9111328125</ele>
    <time>2012-03-09T11:35:16Z</time>
   </trkpt>
   <trkpt lat="46.1815147399902" lon="7.00687742233276">
    <ele>710.940734863281</ele>
    <time>2012-03-09T11:35:17Z</time>
   </trkpt>
   <trkpt lat="46.1815147399902" lon="7.0068187713623">
    <ele>709.970397949219</ele>
    <time>2012-03-09T11:35:18Z</time>
   </trkpt>
   <trkpt lat="46.1815185546875" lon="7.00675868988037">
    <ele>709</ele>
    <time>2012-03-09T11:35:19Z</time>
   </trkpt>
   <trkpt lat="46.1815299987793" lon="7.00672626495361">
    <ele>708.029663085938</ele>
    <time>2012-03-09T11:35:20Z</time>
   </trkpt>
   <trkpt lat="46.1815643310547" lon="7.00667190551758">
    <ele>707.059265136719</ele>
    <time>2012-03-09T11:35:21Z</time>
   </trkpt>
   <trkpt lat="46.1815948486328" lon="7.00664901733398">
    <ele>706.088928222656</ele>
    <time>2012-03-09T11:35:22Z</time>
   </trkpt>
   <trkpt lat="46.1816291809082" lon="7.00663232803345">
    <ele>705.118530273438</ele>
    <time>2012-03-09T11:35:23Z</time>
   </trkpt>
   <trkpt lat="46.1816673278809" lon="7.00662469863892">
    <ele>704.148193359375</ele>
    <time>2012-03-09T11:35:24Z</time>
   </trkpt>
   <trkpt lat="46.1817779541016" lon="7.00661468505859">
    <ele>703.177795410156</ele>
    <time>2012-03-09T11:35:25Z</time>
   </trkpt>
   <trkpt lat="46.1818962097168" lon="7.00660610198975">
    <ele>702.207397460938</ele>
    <time>2012-03-09T11:35:26Z</time>
   </trkpt>
   <trkpt lat="46.1820487976074" lon="7.00650310516357">
    <ele>701.237060546875</ele>
    <time>2012-03-09T11:35:27Z</time>
   </trkpt>
   <trkpt lat="46.182186126709" lon="7.00641584396362">
    <ele>700.266662597656</ele>
    <time>2012-03-09T11:35:28Z</time>
   </trkpt>
   <trkpt lat="46.1823043823242" lon="7.00635671615601">
    <ele>699.296325683594</ele>
    <time>2012-03-09T11:35:29Z</time>
   </trkpt>
   <trkpt lat="46.1824150085449" lon="7.00631761550903">
    <ele>698.325927734375</ele>
    <time>2012-03-09T11:35:30Z</time>
   </trkpt>
   <trkpt lat="46.1825332641602" lon="7.00627136230469">
    <ele>697.355590820312</ele>
    <time>2012-03-09T11:35:31Z</time>
   </trkpt>
   <trkpt lat="46.1826515197754" lon="7.00626230239868">
    <ele>696.385192871094</ele>
    <time>2012-03-09T11:35:32Z</time>
   </trkpt>
   <trkpt lat="46.1827735900879" lon="7.00626993179321">
    <ele>695.414855957031</ele>
    <time>2012-03-09T11:35:33Z</time>
   </trkpt>
   <trkpt lat="46.1828956604004" lon="7.00629138946533">
    <ele>694.444458007812</ele>
    <time>2012-03-09T11:35:34Z</time>
   </trkpt>
   <trkpt lat="46.1830673217773" lon="7.00627326965332">
    <ele>693.47412109375</ele>
    <time>2012-03-09T11:35:35Z</time>
   </trkpt>
   <trkpt lat="46.1832008361816" lon="7.00629234313965">
    <ele>692.503723144531</ele>
    <time>2012-03-09T11:35:36Z</time>
   </trkpt>
   <trkpt lat="46.1833267211914" lon="7.00631856918335">
    <ele>691.533325195312</ele>
    <time>2012-03-09T11:35:37Z</time>
   </trkpt>
   <trkpt lat="46.1834411621094" lon="7.00634813308716">
    <ele>690.56298828125</ele>
    <time>2012-03-09T11:35:38Z</time>
   </trkpt>
   <trkpt lat="46.1835517883301" lon="7.00638389587402">
    <ele>689.592590332031</ele>
    <time>2012-03-09T11:35:39Z</time>
   </trkpt>
   <trkpt lat="46.1836547851562" lon="7.0064287185669">
    <ele>688.622253417969</ele>
    <time>2012-03-09T11:35:40Z</time>
   </trkpt>
   <trkpt lat="46.1837577819824" lon="7.00646686553955">
    <ele>687.65185546875</ele>
    <time>2012-03-09T11:35:41Z</time>
   </trkpt>
   <trkpt lat="46.1838531494141" lon="7.00652408599854">
    <ele>686.681518554688</ele>
    <time>2012-03-09T11:35:42Z</time>
   </trkpt>
   <trkpt lat="46.1839218139648" lon="7.00659418106079">
    <ele>685.711120605469</ele>
    <time>2012-03-09T11:35:43Z</time>
   </trkpt>
   <trkpt lat="46.1840019226074" lon="7.0066556930542">
    <ele>684.740783691406</ele>
    <time>2012-03-09T11:35:44Z</time>
   </trkpt>
   <trkpt lat="46.1840858459473" lon="7.00671434402466">
    <ele>683.770385742188</ele>
    <time>2012-03-09T11:35:45Z</time>
   </trkpt>
   <trkpt lat="46.1841506958008" lon="7.00680303573608">
    <ele>682.800048828125</ele>
    <time>2012-03-09T11:35:46Z</time>
   </trkpt>
   <trkpt lat="46.1841735839844" lon="7.00692319869995">
    <ele>681.829650878906</ele>
    <time>2012-03-09T11:35:47Z</time>
   </trkpt>
   <trkpt lat="46.1842308044434" lon="7.0070071220398">
    <ele>680.859252929688</ele>
    <time>2012-03-09T11:35:48Z</time>
   </trkpt>
   <trkpt lat="46.184268951416" lon="7.00709676742554">
    <ele>679.888916015625</ele>
    <time>2012-03-09T11:35:49Z</time>
   </trkpt>
   <trkpt lat="46.1843147277832" lon="7.00716161727905">
    <ele>678.918518066406</ele>
    <time>2012-03-09T11:35:50Z</time>
   </trkpt>
   <trkpt lat="46.1843681335449" lon="7.00720596313476">
    <ele>677.948181152344</ele>
    <time>2012-03-09T11:35:51Z</time>
   </trkpt>
   <trkpt lat="46.1844291687012" lon="7.00724697113037">
    <ele>676.977783203125</ele>
    <time>2012-03-09T11:35:52Z</time>
   </trkpt>
   <trkpt lat="46.1844940185547" lon="7.0072832107544">
    <ele>676.007446289062</ele>
    <time>2012-03-09T11:35:53Z</time>
   </trkpt>
   <trkpt lat="46.1845664978027" lon="7.00731468200684">
    <ele>675.037048339844</ele>
    <time>2012-03-09T11:35:54Z</time>
   </trkpt>
   <trkpt lat="46.1846504211426" lon="7.00734281539917">
    <ele>674.066711425781</ele>
    <time>2012-03-09T11:35:55Z</time>
   </trkpt>
   <trkpt lat="46.184757232666" lon="7.00734615325928">
    <ele>673.096313476562</ele>
    <time>2012-03-09T11:35:56Z</time>
   </trkpt>
   <trkpt lat="46.184886932373" lon="7.00731420516968">
    <ele>672.125915527344</ele>
    <time>2012-03-09T11:35:57Z</time>
   </trkpt>
   <trkpt lat="46.184986114502" lon="7.00737285614014">
    <ele>671.155578613281</ele>
    <time>2012-03-09T11:35:58Z</time>
   </trkpt>
   <trkpt lat="46.1851119995117" lon="7.00737190246582">
    <ele>670.185180664062</ele>
    <time>2012-03-09T11:35:59Z</time>
   </trkpt>
   <trkpt lat="46.1852035522461" lon="7.00744676589966">
    <ele>669.21484375</ele>
    <time>2012-03-09T11:36:00Z</time>
   </trkpt>
   <trkpt lat="46.1852874755859" lon="7.00749683380127">
    <ele>668.244445800781</ele>
    <time>2012-03-09T11:36:01Z</time>
   </trkpt>
   <trkpt lat="46.1853675842285" lon="7.00752687454224">
    <ele>667.274108886719</ele>
    <time>2012-03-09T11:36:02Z</time>
   </trkpt>
   <trkpt lat="46.1854438781738" lon="7.00754594802856">
    <ele>666.3037109375</ele>
    <time>2012-03-09T11:36:03Z</time>
   </trkpt>
   <trkpt lat="46.1855163574219" lon="7.00755786895752">
    <ele>665.333374023438</ele>
    <time>2012-03-09T11:36:04Z</time>
   </trkpt>
   <trkpt lat="46.1856117248535" lon="7.00751638412476">
    <ele>664.362976074219</ele>
    <time>2012-03-09T11:36:05Z</time>
   </trkpt>
   <trkpt lat="46.185733795166" lon="7.00742387771606">
    <ele>663.392639160156</ele>
    <time>2012-03-09T11:36:06Z</time>
   </trkpt>
   <trkpt lat="46.1858291625977" lon="7.00739574432373">
    <ele>662.422241210938</ele>
    <time>2012-03-09T11:36:07Z</time>
   </trkpt>
   <trkpt lat="46.185920715332" lon="7.00739097595215">
    <ele>661.451843261719</ele>
    <time>2012-03-09T11:36:08Z</time>
   </trkpt>
   <trkpt lat="46.1860160827637" lon="7.00741004943848">
    <ele>660.481506347656</ele>
    <time>2012-03-09T11:36:09Z</time>
   </trkpt>
   <trkpt lat="46.1861190795898" lon="7.00741100311279">
    <ele>659.511108398438</ele>
    <time>2012-03-09T11:36:10Z</time>
   </trkpt>
   <trkpt lat="46.1862030029297" lon="7.00746870040894">
    <ele>658.540771484375</ele>
    <time>2012-03-09T11:36:11Z</time>
   </trkpt>
   <trkpt lat="46.1863098144531" lon="7.00750303268433">
    <ele>657.570373535156</ele>
    <time>2012-03-09T11:36:12Z</time>
   </trkpt>
   <trkpt lat="46.1864128112793" lon="7.00755071640015">
    <ele>656.600036621094</ele>
    <time>2012-03-09T11:36:13Z</time>
   </trkpt>
   <trkpt lat="46.1865081787109" lon="7.00759315490723">
    <ele>655.629638671875</ele>
    <time>2012-03-09T11:36:14Z</time>
   </trkpt>
   <trkpt lat="46.186595916748" lon="7.00764608383179">
    <ele>654.659301757812</ele>
    <time>2012-03-09T11:36:15Z</time>
   </trkpt>
   <trkpt lat="46.1866798400879" lon="7.00770568847656">
    <ele>653.688903808594</ele>
    <time>2012-03-09T11:36:16Z</time>
   </trkpt>
   <trkpt lat="46.1867523193359" lon="7.00775623321533">
    <ele>652.718566894531</ele>
    <time>2012-03-09T11:36:17Z</time>
   </trkpt>
   <trkpt lat="46.186824798584" lon="7.0077714920044">
    <ele>651.748168945312</ele>
    <time>2012-03-09T11:36:18Z</time>
   </trkpt>
   <trkpt lat="46.1868896484375" lon="7.00776624679565">
    <ele>650.777770996094</ele>
    <time>2012-03-09T11:36:19Z</time>
   </trkpt>
   <trkpt lat="46.1869430541992" lon="7.00772714614868">
    <ele>649.807434082031</ele>
    <time>2012-03-09T11:36:20Z</time>
   </trkpt>
   <trkpt lat="46.1870765686035" lon="7.00746202468872">
    <ele>648.837036132812</ele>
    <time>2012-03-09T11:36:21Z</time>
   </trkpt>
   <trkpt lat="46.1871337890625" lon="7.00730991363525">
    <ele>647.86669921875</ele>
    <time>2012-03-09T11:36:22Z</time>
   </trkpt>
   <trkpt lat="46.1871757507324" lon="7.0071816444397">
    <ele>646.896301269531</ele>
    <time>2012-03-09T11:36:23Z</time>
   </trkpt>
   <trkpt lat="46.1872329711914" lon="7.0070538520813">
    <ele>645.925964355469</ele>
    <time>2012-03-09T11:36:24Z</time>
   </trkpt>
   <trkpt lat="46.1872673034668" lon="7.00692653656006">
    <ele>644.95556640625</ele>
    <time>2012-03-09T11:36:25Z</time>
   </trkpt>
   <trkpt lat="46.1872825622559" lon="7.00679540634155">
    <ele>643.985229492188</ele>
    <time>2012-03-09T11:36:26Z</time>
   </trkpt>
   <trkpt lat="46.1872940063477" lon="7.00666522979736">
    <ele>643.014831542969</ele>
    <time>2012-03-09T11:36:27Z</time>
   </trkpt>
   <trkpt lat="46.1872978210449" lon="7.00654363632202">
    <ele>642.044494628906</ele>
    <time>2012-03-09T11:36:28Z</time>
   </trkpt>
   <trkpt lat="46.1873092651367" lon="7.006422996521">
    <ele>641.074096679688</ele>
    <time>2012-03-09T11:36:29Z</time>
   </trkpt>
   <trkpt lat="46.1873321533203" lon="7.00629568099976">
    <ele>640.103698730469</ele>
    <time>2012-03-09T11:36:30Z</time>
   </trkpt>
   <trkpt lat="46.1873664855957" lon="7.00617027282715">
    <ele>639.133361816406</ele>
    <time>2012-03-09T11:36:31Z</time>
   </trkpt>
   <trkpt lat="46.1874122619629" lon="7.00605344772339">
    <ele>638.162963867188</ele>
    <time>2012-03-09T11:36:32Z</time>
   </trkpt>
   <trkpt lat="46.1874694824219" lon="7.00594186782837">
    <ele>637.192626953125</ele>
    <time>2012-03-09T11:36:33Z</time>
   </trkpt>
   <trkpt lat="46.1875419616699" lon="7.00583982467651">
    <ele>636.222229003906</ele>
    <time>2012-03-09T11:36:34Z</time>
   </trkpt>
   <trkpt lat="46.1876106262207" lon="7.00574398040772">
    <ele>635.251892089844</ele>
    <time>2012-03-09T11:36:35Z</time>
   </trkpt>
   <trkpt lat="46.1876792907715" lon="7.00565481185913">
    <ele>634.281494140625</ele>
    <time>2012-03-09T11:36:36Z</time>
   </trkpt>
   <trkpt lat="46.187744140625" lon="7.00557518005371">
    <ele>633.311157226562</ele>
    <time>2012-03-09T11:36:37Z</time>
   </trkpt>
   <trkpt lat="46.1877975463867" lon="7.00551557540894">
    <ele>632.340759277344</ele>
    <time>2012-03-09T11:36:38Z</time>
   </trkpt>
   <trkpt lat="46.1878395080566" lon="7.00550174713135">
    <ele>631.370422363281</ele>
    <time>2012-03-09T11:36:39Z</time>
   </trkpt>
   <trkpt lat="46.1878814697266" lon="7.0055365562439">
    <ele>630.400024414062</ele>
    <time>2012-03-09T11:36:40Z</time>
   </trkpt>
   <trkpt lat="46.1879119873047" lon="7.00561141967774">
    <ele>630.400024414062</ele>
    <time>2012-03-09T11:36:41Z</time>
   </trkpt>
   <trkpt lat="46.1879234313965" lon="7.00571489334106">
    <ele>629.461730957031</ele>
    <time>2012-03-09T11:36:42Z</time>
   </trkpt>
   <trkpt lat="46.1879348754883" lon="7.00581932067871">
    <ele>628.523498535156</ele>
    <time>2012-03-09T11:36:43Z</time>
   </trkpt>
   <trkpt lat="46.1879348754883" lon="7.00592708587646">
    <ele>627.585205078125</ele>
    <time>2012-03-09T11:36:44Z</time>
   </trkpt>
   <trkpt lat="46.1878623962402" lon="7.00602579116821">
    <ele>626.646911621094</ele>
    <time>2012-03-09T11:36:45Z</time>
   </trkpt>
   <trkpt lat="46.1878623962402" lon="7.00612878799438">
    <ele>625.708679199219</ele>
    <time>2012-03-09T11:36:46Z</time>
   </trkpt>
   <trkpt lat="46.1878509521484" lon="7.0062141418457">
    <ele>624.770385742188</ele>
    <time>2012-03-09T11:36:47Z</time>
   </trkpt>
   <trkpt lat="46.1878433227539" lon="7.00628089904785">
    <ele>623.832153320312</ele>
    <time>2012-03-09T11:36:48Z</time>
   </trkpt>
   <trkpt lat="46.1878471374512" lon="7.00635051727295">
    <ele>622.893859863281</ele>
    <time>2012-03-09T11:36:49Z</time>
   </trkpt>
   <trkpt lat="46.1878700256348" lon="7.00644445419312">
    <ele>621.95556640625</ele>
    <time>2012-03-09T11:36:50Z</time>
   </trkpt>
   <trkpt lat="46.1879043579102" lon="7.00654029846191">
    <ele>621.017333984375</ele>
    <time>2012-03-09T11:36:51Z</time>
   </trkpt>
   <trkpt lat="46.1879272460938" lon="7.00664281845093">
    <ele>620.079040527344</ele>
    <time>2012-03-09T11:36:52Z</time>
   </trkpt>
   <trkpt lat="46.1879577636719" lon="7.00674152374268">
    <ele>619.140747070312</ele>
    <time>2012-03-09T11:36:53Z</time>
   </trkpt>
   <trkpt lat="46.1880073547363" lon="7.00682497024536">
    <ele>618.202514648438</ele>
    <time>2012-03-09T11:36:54Z</time>
   </trkpt>
   <trkpt lat="46.1880645751953" lon="7.00690269470215">
    <ele>617.264221191406</ele>
    <time>2012-03-09T11:36:55Z</time>
   </trkpt>
   <trkpt lat="46.1881370544434" lon="7.0069727897644">
    <ele>616.325927734375</ele>
    <time>2012-03-09T11:36:56Z</time>
   </trkpt>
   <trkpt lat="46.1882286071777" lon="7.00703620910644">
    <ele>615.3876953125</ele>
    <time>2012-03-09T11:36:57Z</time>
   </trkpt>
   <trkpt lat="46.1883201599121" lon="7.00709342956543">
    <ele>614.449401855469</ele>
    <time>2012-03-09T11:36:58Z</time>
   </trkpt>
   <trkpt lat="46.1884117126465" lon="7.00714588165283">
    <ele>613.511108398438</ele>
    <time>2012-03-09T11:36:59Z</time>
   </trkpt>
   <trkpt lat="46.1884994506836" lon="7.00718927383423">
    <ele>612.572875976562</ele>
    <time>2012-03-09T11:37:00Z</time>
   </trkpt>
   <trkpt lat="46.1885757446289" lon="7.00724601745606">
    <ele>611.634582519531</ele>
    <time>2012-03-09T11:37:01Z</time>
   </trkpt>
   <trkpt lat="46.1886405944824" lon="7.00732135772705">
    <ele>610.696350097656</ele>
    <time>2012-03-09T11:37:02Z</time>
   </trkpt>
   <trkpt lat="46.1886940002441" lon="7.00741815567017">
    <ele>609.758056640625</ele>
    <time>2012-03-09T11:37:03Z</time>
   </trkpt>
   <trkpt lat="46.1887321472168" lon="7.0075101852417">
    <ele>608.819763183594</ele>
    <time>2012-03-09T11:37:04Z</time>
   </trkpt>
   <trkpt lat="46.1887016296387" lon="7.00761079788208">
    <ele>607.881530761719</ele>
    <time>2012-03-09T11:37:05Z</time>
   </trkpt>
   <trkpt lat="46.1886711120606" lon="7.0076847076416">
    <ele>606.943237304688</ele>
    <time>2012-03-09T11:37:06Z</time>
   </trkpt>
   <trkpt lat="46.1886444091797" lon="7.0077395439148">
    <ele>606.004943847656</ele>
    <time>2012-03-09T11:37:07Z</time>
   </trkpt>
   <trkpt lat="46.1885986328125" lon="7.00780153274536">
    <ele>605.066711425781</ele>
    <time>2012-03-09T11:37:08Z</time>
   </trkpt>
   <trkpt lat="46.1885223388672" lon="7.00790357589722">
    <ele>604.12841796875</ele>
    <time>2012-03-09T11:37:09Z</time>
   </trkpt>
   <trkpt lat="46.1884384155273" lon="7.00802898406982">
    <ele>603.190124511719</ele>
    <time>2012-03-09T11:37:10Z</time>
   </trkpt>
   <trkpt lat="46.1883697509766" lon="7.00815343856812">
    <ele>602.251892089844</ele>
    <time>2012-03-09T11:37:11Z</time>
   </trkpt>
   <trkpt lat="46.1882972717285" lon="7.00830793380737">
    <ele>601.313598632812</ele>
    <time>2012-03-09T11:37:12Z</time>
   </trkpt>
   <trkpt lat="46.1882781982422" lon="7.00847578048706">
    <ele>600.375305175781</ele>
    <time>2012-03-09T11:37:13Z</time>
   </trkpt>
   <trkpt lat="46.1882553100586" lon="7.00863170623779">
    <ele>599.437072753906</ele>
    <time>2012-03-09T11:37:14Z</time>
   </trkpt>
   <trkpt lat="46.1882133483887" lon="7.00877809524536">
    <ele>598.498779296875</ele>
    <time>2012-03-09T11:37:15Z</time>
   </trkpt>
   <trkpt lat="46.1881828308106" lon="7.00891542434692">
    <ele>597.560546875</ele>
    <time>2012-03-09T11:37:16Z</time>
   </trkpt>
   <trkpt lat="46.1881713867188" lon="7.00902605056763">
    <ele>596.622253417969</ele>
    <time>2012-03-09T11:37:17Z</time>
   </trkpt>
   <trkpt lat="46.1881217956543" lon="7.00915002822876">
    <ele>595.683959960938</ele>
    <time>2012-03-09T11:37:18Z</time>
   </trkpt>
   <trkpt lat="46.1880531311035" lon="7.00923824310303">
    <ele>594.745727539062</ele>
    <time>2012-03-09T11:37:19Z</time>
   </trkpt>
   <trkpt lat="46.1879577636719" lon="7.00929975509644">
    <ele>593.807434082031</ele>
    <time>2012-03-09T11:37:20Z</time>
   </trkpt>
   <trkpt lat="46.1878776550293" lon="7.00935316085815">
    <ele>592.869140625</ele>
    <time>2012-03-09T11:37:21Z</time>
   </trkpt>
   <trkpt lat="46.1877403259277" lon="7.00940275192261">
    <ele>591.930908203125</ele>
    <time>2012-03-09T11:37:22Z</time>
   </trkpt>
   <trkpt lat="46.1875991821289" lon="7.00944137573242">
    <ele>590.992614746094</ele>
    <time>2012-03-09T11:37:23Z</time>
   </trkpt>
   <trkpt lat="46.1874732971191" lon="7.00949192047119">
    <ele>590.054321289062</ele>
    <time>2012-03-09T11:37:24Z</time>
   </trkpt>
   <trkpt lat="46.1873397827148" lon="7.00955152511597">
    <ele>589.116088867188</ele>
    <time>2012-03-09T11:37:25Z</time>
   </trkpt>
   <trkpt lat="46.1872100830078" lon="7.009605884552">
    <ele>588.177795410156</ele>
    <time>2012-03-09T11:37:26Z</time>
   </trkpt>
   <trkpt lat="46.1870880126953" lon="7.00965929031372">
    <ele>587.239501953125</ele>
    <time>2012-03-09T11:37:27Z</time>
   </trkpt>
   <trkpt lat="46.1869773864746" lon="7.00971937179565">
    <ele>586.30126953125</ele>
    <time>2012-03-09T11:37:28Z</time>
   </trkpt>
   <trkpt lat="46.1868743896484" lon="7.00979852676392">
    <ele>585.362976074219</ele>
    <time>2012-03-09T11:37:29Z</time>
   </trkpt>
   <trkpt lat="46.1867065429688" lon="7.00988245010376">
    <ele>584.424743652344</ele>
    <time>2012-03-09T11:37:30Z</time>
   </trkpt>
   <trkpt lat="46.1865615844727" lon="7.00996112823486">
    <ele>583.486450195312</ele>
    <time>2012-03-09T11:37:31Z</time>
   </trkpt>
   <trkpt lat="46.1864471435547" lon="7.01003408432007">
    <ele>582.548156738281</ele>
    <time>2012-03-09T11:37:32Z</time>
   </trkpt>
   <trkpt lat="46.186336517334" lon="7.01009654998779">
    <ele>581.609924316406</ele>
    <time>2012-03-09T11:37:33Z</time>
   </trkpt>
   <trkpt lat="46.186222076416" lon="7.01015043258667">
    <ele>580.671630859375</ele>
    <time>2012-03-09T11:37:34Z</time>
   </trkpt>
   <trkpt lat="46.1860961914062" lon="7.01019716262817">
    <ele>579.733337402344</ele>
    <time>2012-03-09T11:37:35Z</time>
   </trkpt>
   <trkpt lat="46.1859703063965" lon="7.01024341583252">
    <ele>578.795104980469</ele>
    <time>2012-03-09T11:37:36Z</time>
   </trkpt>
   <trkpt lat="46.185848236084" lon="7.01028680801392">
    <ele>577.856811523438</ele>
    <time>2012-03-09T11:37:37Z</time>
   </trkpt>
   <trkpt lat="46.1857299804688" lon="7.01031875610352">
    <ele>576.918518066406</ele>
    <time>2012-03-09T11:37:38Z</time>
   </trkpt>
   <trkpt lat="46.185619354248" lon="7.01035213470459">
    <ele>575.980285644531</ele>
    <time>2012-03-09T11:37:39Z</time>
   </trkpt>
   <trkpt lat="46.1855163574219" lon="7.01037693023682">
    <ele>575.0419921875</ele>
    <time>2012-03-09T11:37:40Z</time>
   </trkpt>
   <trkpt lat="46.185417175293" lon="7.01039552688599">
    <ele>574.103698730469</ele>
    <time>2012-03-09T11:37:41Z</time>
   </trkpt>
   <trkpt lat="46.1853103637695" lon="7.01041603088379">
    <ele>573.165466308594</ele>
    <time>2012-03-09T11:37:42Z</time>
   </trkpt>
   <trkpt lat="46.1852149963379" lon="7.01046943664551">
    <ele>572.227172851562</ele>
    <time>2012-03-09T11:37:43Z</time>
   </trkpt>
   <trkpt lat="46.1851234436035" lon="7.01054811477661">
    <ele>571.288940429688</ele>
    <time>2012-03-09T11:37:44Z</time>
   </trkpt>
   <trkpt lat="46.1850318908691" lon="7.01062822341919">
    <ele>570.350646972656</ele>
    <time>2012-03-09T11:37:45Z</time>
   </trkpt>
   <trkpt lat="46.1849517822266" lon="7.01072120666504">
    <ele>569.412353515625</ele>
    <time>2012-03-09T11:37:46Z</time>
   </trkpt>
   <trkpt lat="46.184871673584" lon="7.01080989837646">
    <ele>568.47412109375</ele>
    <time>2012-03-09T11:37:47Z</time>
   </trkpt>
   <trkpt lat="46.1847877502441" lon="7.01087856292725">
    <ele>567.535827636719</ele>
    <time>2012-03-09T11:37:48Z</time>
   </trkpt>
   <trkpt lat="46.1847038269043" lon="7.01092624664307">
    <ele>566.597534179688</ele>
    <time>2012-03-09T11:37:49Z</time>
   </trkpt>
   <trkpt lat="46.1846199035644" lon="7.01098442077637">
    <ele>565.659301757812</ele>
    <time>2012-03-09T11:37:50Z</time>
   </trkpt>
   <trkpt lat="46.1845359802246" lon="7.01102876663208">
    <ele>564.721008300781</ele>
    <time>2012-03-09T11:37:51Z</time>
   </trkpt>
   <trkpt lat="46.184440612793" lon="7.01105880737305">
    <ele>563.78271484375</ele>
    <time>2012-03-09T11:37:52Z</time>
   </trkpt>
   <trkpt lat="46.1843452453613" lon="7.01110219955444">
    <ele>562.844482421875</ele>
    <time>2012-03-09T11:37:53Z</time>
   </trkpt>
   <trkpt lat="46.1842498779297" lon="7.01115417480469">
    <ele>561.906188964844</ele>
    <time>2012-03-09T11:37:54Z</time>
   </trkpt>
   <trkpt lat="46.1841583251953" lon="7.01120519638062">
    <ele>560.967895507812</ele>
    <time>2012-03-09T11:37:55Z</time>
   </trkpt>
   <trkpt lat="46.1840744018555" lon="7.01123952865601">
    <ele>560.029663085938</ele>
    <time>2012-03-09T11:37:56Z</time>
   </trkpt>
   <trkpt lat="46.1839866638184" lon="7.0112829208374">
    <ele>559.091369628906</ele>
    <time>2012-03-09T11:37:57Z</time>
   </trkpt>
   <trkpt lat="46.1839141845703" lon="7.01131772994995">
    <ele>558.153137207031</ele>
    <time>2012-03-09T11:37:58Z</time>
   </trkpt>
   <trkpt lat="46.1838455200195" lon="7.01135015487671">
    <ele>557.21484375</ele>
    <time>2012-03-09T11:37:59Z</time>
   </trkpt>
   <trkpt lat="46.1837692260742" lon="7.01133680343628">
    <ele>556.276550292969</ele>
    <time>2012-03-09T11:38:00Z</time>
   </trkpt>
   <trkpt lat="46.1836967468262" lon="7.01133823394775">
    <ele>555.338317871094</ele>
    <time>2012-03-09T11:38:01Z</time>
   </trkpt>
   <trkpt lat="46.1836318969727" lon="7.01133823394775">
    <ele>554.400024414062</ele>
    <time>2012-03-09T11:38:02Z</time>
   </trkpt>
   <trkpt lat="46.1835746765137" lon="7.01137161254883">
    <ele>554.799987792969</ele>
    <time>2012-03-09T11:38:03Z</time>
   </trkpt>
   <trkpt lat="46.1835250854492" lon="7.0113959312439">
    <ele>555.38330078125</ele>
    <time>2012-03-09T11:38:04Z</time>
   </trkpt>
   <trkpt lat="46.1834754943848" lon="7.01140689849854">
    <ele>555.966674804688</ele>
    <time>2012-03-09T11:38:05Z</time>
   </trkpt>
   <trkpt lat="46.1834411621094" lon="7.01140975952148">
    <ele>556.549987792969</ele>
    <time>2012-03-09T11:38:06Z</time>
   </trkpt>
   <trkpt lat="46.1834182739258" lon="7.01139831542969">
    <ele>557.13330078125</ele>
    <time>2012-03-09T11:38:07Z</time>
   </trkpt>
   <trkpt lat="46.1833915710449" lon="7.01137590408325">
    <ele>557.716674804688</ele>
    <time>2012-03-09T11:38:08Z</time>
   </trkpt>
   <trkpt lat="46.1833610534668" lon="7.01136064529419">
    <ele>558.299987792969</ele>
    <time>2012-03-09T11:38:09Z</time>
   </trkpt>
   <trkpt lat="46.1833381652832" lon="7.01134824752808">
    <ele>558.88330078125</ele>
    <time>2012-03-09T11:38:10Z</time>
   </trkpt>
   <trkpt lat="46.1833114624023" lon="7.01133489608765">
    <ele>559.466674804688</ele>
    <time>2012-03-09T11:38:11Z</time>
   </trkpt>
   <trkpt lat="46.1832809448242" lon="7.01132869720459">
    <ele>560.049987792969</ele>
    <time>2012-03-09T11:38:12Z</time>
   </trkpt>
   <trkpt lat="46.1832618713379" lon="7.0113034248352">
    <ele>560.63330078125</ele>
    <time>2012-03-09T11:38:13Z</time>
   </trkpt>
   <trkpt lat="46.183235168457" lon="7.01129341125488">
    <ele>561.216674804688</ele>
    <time>2012-03-09T11:38:14Z</time>
   </trkpt>
   <trkpt lat="46.1832084655762" lon="7.01128244400024">
    <ele>561.799987792969</ele>
    <time>2012-03-09T11:38:15Z</time>
   </trkpt>
   <trkpt lat="46.1831893920898" lon="7.01125288009644">
    <ele>561.799987792969</ele>
    <time>2012-03-09T11:38:16Z</time>
   </trkpt>
   <trkpt lat="46.1831665039062" lon="7.01124048233032">
    <ele>562.266662597656</ele>
    <time>2012-03-09T11:38:17Z</time>
   </trkpt>
   <trkpt lat="46.1831550598144" lon="7.01121044158936">
    <ele>562.733337402344</ele>
    <time>2012-03-09T11:38:18Z</time>
   </trkpt>
   <trkpt lat="46.1831436157227" lon="7.01117563247681">
    <ele>563.200012207031</ele>
    <time>2012-03-09T11:38:19Z</time>
   </trkpt>
   <trkpt lat="46.1831245422363" lon="7.0111403465271">
    <ele>563.666625976562</ele>
    <time>2012-03-09T11:38:20Z</time>
   </trkpt>
   <trkpt lat="46.18310546875" lon="7.01110649108887">
    <ele>564.13330078125</ele>
    <time>2012-03-09T11:38:21Z</time>
   </trkpt>
   <trkpt lat="46.1830863952637" lon="7.01108264923096">
    <ele>564.599975585938</ele>
    <time>2012-03-09T11:38:22Z</time>
   </trkpt>
   <trkpt lat="46.1830635070801" lon="7.01106023788452">
    <ele>565.066650390625</ele>
    <time>2012-03-09T11:38:23Z</time>
   </trkpt>
   <trkpt lat="46.1830406188965" lon="7.01104021072388">
    <ele>565.533325195312</ele>
    <time>2012-03-09T11:38:24Z</time>
   </trkpt>
   <trkpt lat="46.1830177307129" lon="7.01102352142334">
    <ele>566</ele>
    <time>2012-03-09T11:38:25Z</time>
   </trkpt>
   <trkpt lat="46.1829872131348" lon="7.01100158691406">
    <ele>566.466674804688</ele>
    <time>2012-03-09T11:38:26Z</time>
   </trkpt>
   <trkpt lat="46.1829643249512" lon="7.01097393035889">
    <ele>566.933349609375</ele>
    <time>2012-03-09T11:38:27Z</time>
   </trkpt>
   <trkpt lat="46.1829452514648" lon="7.01094245910644">
    <ele>567.400024414062</ele>
    <time>2012-03-09T11:38:28Z</time>
   </trkpt>
   <trkpt lat="46.1829223632812" lon="7.01091146469116">
    <ele>567.866638183594</ele>
    <time>2012-03-09T11:38:29Z</time>
   </trkpt>
   <trkpt lat="46.1829032897949" lon="7.0108814239502">
    <ele>568.333312988281</ele>
    <time>2012-03-09T11:38:30Z</time>
   </trkpt>
   <trkpt lat="46.1828842163086" lon="7.01085472106934">
    <ele>568.799987792969</ele>
    <time>2012-03-09T11:38:31Z</time>
   </trkpt>
   <trkpt lat="46.1828689575195" lon="7.01082181930542">
    <ele>569.266662597656</ele>
    <time>2012-03-09T11:38:32Z</time>
   </trkpt>
   <trkpt lat="46.182861328125" lon="7.0107855796814">
    <ele>569.733337402344</ele>
    <time>2012-03-09T11:38:33Z</time>
   </trkpt>
   <trkpt lat="46.1828536987305" lon="7.0107421875">
    <ele>570.200012207031</ele>
    <time>2012-03-09T11:38:34Z</time>
   </trkpt>
   <trkpt lat="46.1828422546387" lon="7.01069831848144">
    <ele>570.666687011719</ele>
    <time>2012-03-09T11:38:35Z</time>
   </trkpt>
   <trkpt lat="46.1828308105469" lon="7.01065826416016">
    <ele>571.13330078125</ele>
    <time>2012-03-09T11:38:36Z</time>
   </trkpt>
   <trkpt lat="46.1828193664551" lon="7.01061248779297">
    <ele>571.599975585938</ele>
    <time>2012-03-09T11:38:37Z</time>
   </trkpt>
   <trkpt lat="46.1828155517578" lon="7.0105619430542">
    <ele>572.066650390625</ele>
    <time>2012-03-09T11:38:38Z</time>
   </trkpt>
   <trkpt lat="46.1828155517578" lon="7.0105094909668">
    <ele>572.533325195312</ele>
    <time>2012-03-09T11:38:39Z</time>
   </trkpt>
   <trkpt lat="46.182804107666" lon="7.01047229766846">
    <ele>573</ele>
    <time>2012-03-09T11:38:40Z</time>
   </trkpt>
   <trkpt lat="46.1827850341797" lon="7.01043462753296">
    <ele>573</ele>
    <time>2012-03-09T11:38:41Z</time>
   </trkpt>
   <trkpt lat="46.1827659606934" lon="7.01032972335815">
    <ele>573.770751953125</ele>
    <time>2012-03-09T11:38:43Z</time>
   </trkpt>
   <trkpt lat="46.1827621459961" lon="7.01028203964233">
    <ele>574.156066894531</ele>
    <time>2012-03-09T11:38:44Z</time>
   </trkpt>
   <trkpt lat="46.1827507019043" lon="7.0102481842041">
    <ele>574.541442871094</ele>
    <time>2012-03-09T11:38:45Z</time>
   </trkpt>
   <trkpt lat="46.182746887207" lon="7.01020050048828">
    <ele>574.926818847656</ele>
    <time>2012-03-09T11:38:46Z</time>
   </trkpt>
   <trkpt lat="46.1827392578125" lon="7.01016235351562">
    <ele>575.312194824219</ele>
    <time>2012-03-09T11:38:47Z</time>
   </trkpt>
   <trkpt lat="46.1827278137207" lon="7.01007509231567">
    <ele>576.082946777344</ele>
    <time>2012-03-09T11:38:49Z</time>
   </trkpt>
   <trkpt lat="46.1827239990234" lon="7.01001119613648">
    <ele>576.46826171875</ele>
    <time>2012-03-09T11:38:50Z</time>
   </trkpt>
   <trkpt lat="46.1827125549316" lon="7.00996112823486">
    <ele>576.853637695312</ele>
    <time>2012-03-09T11:38:51Z</time>
   </trkpt>
   <trkpt lat="46.1827087402344" lon="7.00990200042725">
    <ele>577.239013671875</ele>
    <time>2012-03-09T11:38:52Z</time>
   </trkpt>
   <trkpt lat="46.1827087402344" lon="7.00984621047974">
    <ele>577.624389648438</ele>
    <time>2012-03-09T11:38:53Z</time>
   </trkpt>
   <trkpt lat="46.1827011108398" lon="7.00973701477051">
    <ele>578.395141601562</ele>
    <time>2012-03-09T11:38:55Z</time>
   </trkpt>
   <trkpt lat="46.1826858520508" lon="7.00968837738037">
    <ele>578.780456542969</ele>
    <time>2012-03-09T11:38:56Z</time>
   </trkpt>
   <trkpt lat="46.1826782226562" lon="7.00964403152466">
    <ele>579.165832519531</ele>
    <time>2012-03-09T11:38:57Z</time>
   </trkpt>
   <trkpt lat="46.1826705932617" lon="7.00960206985474">
    <ele>579.551208496094</ele>
    <time>2012-03-09T11:38:58Z</time>
   </trkpt>
   <trkpt lat="46.1826667785644" lon="7.00956869125366">
    <ele>579.936584472656</ele>
    <time>2012-03-09T11:38:59Z</time>
   </trkpt>
   <trkpt lat="46.1826667785644" lon="7.00949430465698">
    <ele>580.707336425781</ele>
    <time>2012-03-09T11:39:01Z</time>
   </trkpt>
   <trkpt lat="46.1826591491699" lon="7.00945377349854">
    <ele>581.092651367188</ele>
    <time>2012-03-09T11:39:02Z</time>
   </trkpt>
   <trkpt lat="46.1826438903809" lon="7.0094165802002">
    <ele>581.47802734375</ele>
    <time>2012-03-09T11:39:03Z</time>
   </trkpt>
   <trkpt lat="46.1826133728027" lon="7.00939226150513">
    <ele>581.863403320312</ele>
    <time>2012-03-09T11:39:04Z</time>
   </trkpt>
   <trkpt lat="46.1825866699219" lon="7.00936460494995">
    <ele>582.248779296875</ele>
    <time>2012-03-09T11:39:05Z</time>
   </trkpt>
   <trkpt lat="46.1825637817383" lon="7.00934600830078">
    <ele>582.634155273438</ele>
    <time>2012-03-09T11:39:06Z</time>
   </trkpt>
   <trkpt lat="46.1825408935547" lon="7.00932598114014">
    <ele>583.01953125</ele>
    <time>2012-03-09T11:39:07Z</time>
   </trkpt>
   <trkpt lat="46.1825065612793" lon="7.00930404663086">
    <ele>583.404846191406</ele>
    <time>2012-03-09T11:39:08Z</time>
   </trkpt>
   <trkpt lat="46.1824722290039" lon="7.00929355621338">
    <ele>583.790222167969</ele>
    <time>2012-03-09T11:39:09Z</time>
   </trkpt>
   <trkpt lat="46.182445526123" lon="7.00928688049316">
    <ele>584.175598144531</ele>
    <time>2012-03-09T11:39:10Z</time>
   </trkpt>
   <trkpt lat="46.1823959350586" lon="7.00926923751831">
    <ele>584.946350097656</ele>
    <time>2012-03-09T11:39:12Z</time>
   </trkpt>
   <trkpt lat="46.1823768615723" lon="7.0092658996582">
    <ele>585.331726074219</ele>
    <time>2012-03-09T11:39:13Z</time>
   </trkpt>
   <trkpt lat="46.1823539733887" lon="7.00925827026367">
    <ele>585.717041015625</ele>
    <time>2012-03-09T11:39:14Z</time>
   </trkpt>
   <trkpt lat="46.1823310852051" lon="7.00924968719482">
    <ele>586.102416992188</ele>
    <time>2012-03-09T11:39:15Z</time>
   </trkpt>
   <trkpt lat="46.182243347168" lon="7.00924777984619">
    <ele>587.258544921875</ele>
    <time>2012-03-09T11:39:18Z</time>
   </trkpt>
   <trkpt lat="46.1822090148926" lon="7.0092306137085">
    <ele>587.643920898438</ele>
    <time>2012-03-09T11:39:19Z</time>
   </trkpt>
   <trkpt lat="46.1821746826172" lon="7.00921821594238">
    <ele>588.029235839844</ele>
    <time>2012-03-09T11:39:20Z</time>
   </trkpt>
   <trkpt lat="46.1821403503418" lon="7.00920820236206">
    <ele>588.414611816406</ele>
    <time>2012-03-09T11:39:21Z</time>
   </trkpt>
   <trkpt lat="46.1820983886719" lon="7.00920248031616">
    <ele>588.799987792969</ele>
    <time>2012-03-09T11:39:22Z</time>
   </trkpt>
   <trkpt lat="46.1820678710938" lon="7.0091872215271">
    <ele>588.799987792969</ele>
    <time>2012-03-09T11:39:23Z</time>
   </trkpt>
   <trkpt lat="46.1820373535156" lon="7.00916576385498">
    <ele>589.279968261719</ele>
    <time>2012-03-09T11:39:24Z</time>
   </trkpt>
   <trkpt lat="46.1820068359375" lon="7.00915718078613">
    <ele>589.760009765625</ele>
    <time>2012-03-09T11:39:25Z</time>
   </trkpt>
   <trkpt lat="46.1819686889648" lon="7.00915145874024">
    <ele>590.239990234375</ele>
    <time>2012-03-09T11:39:26Z</time>
   </trkpt>
   <trkpt lat="46.1819343566894" lon="7.0091609954834">
    <ele>590.720031738281</ele>
    <time>2012-03-09T11:39:27Z</time>
   </trkpt>
   <trkpt lat="46.1819076538086" lon="7.00917768478394">
    <ele>591.200012207031</ele>
    <time>2012-03-09T11:39:28Z</time>
   </trkpt>
   <trkpt lat="46.1818504333496" lon="7.00927066802978">
    <ele>591.200012207031</ele>
    <time>2012-03-09T11:39:31Z</time>
   </trkpt>
   <trkpt lat="46.181755065918" lon="7.00938653945923">
    <ele>589.485717773438</ele>
    <time>2012-03-09T11:39:36Z</time>
   </trkpt>
   <trkpt lat="46.1817436218262" lon="7.00940895080566">
    <ele>589.142883300781</ele>
    <time>2012-03-09T11:39:37Z</time>
   </trkpt>
   <trkpt lat="46.1816596984863" lon="7.00953722000122">
    <ele>587.428588867188</ele>
    <time>2012-03-09T11:39:42Z</time>
   </trkpt>
   <trkpt lat="46.1816558837891" lon="7.00958204269409">
    <ele>587.085754394531</ele>
    <time>2012-03-09T11:39:43Z</time>
   </trkpt>
   <trkpt lat="46.1816864013672" lon="7.00973224639893">
    <ele>586.05712890625</ele>
    <time>2012-03-09T11:39:46Z</time>
   </trkpt>
   <trkpt lat="46.1818161010742" lon="7.00994205474854">
    <ele>584.685729980469</ele>
    <time>2012-03-09T11:39:50Z</time>
   </trkpt>
   <trkpt lat="46.1818962097168" lon="7.01007127761841">
    <ele>584</ele>
    <time>2012-03-09T11:39:52Z</time>
   </trkpt>
   <trkpt lat="46.181941986084" lon="7.01012992858887">
    <ele>583.657165527344</ele>
    <time>2012-03-09T11:39:53Z</time>
   </trkpt>
   <trkpt lat="46.1819877624512" lon="7.01019096374512">
    <ele>583.314270019531</ele>
    <time>2012-03-09T11:39:54Z</time>
   </trkpt>
   <trkpt lat="46.1820297241211" lon="7.01024961471558">
    <ele>582.971435546875</ele>
    <time>2012-03-09T11:39:55Z</time>
   </trkpt>
   <trkpt lat="46.1820793151856" lon="7.01031637191772">
    <ele>582.628601074219</ele>
    <time>2012-03-09T11:39:56Z</time>
   </trkpt>
   <trkpt lat="46.1821136474609" lon="7.01039218902588">
    <ele>582.285705566406</ele>
    <time>2012-03-09T11:39:57Z</time>
   </trkpt>
   <trkpt lat="46.1821517944336" lon="7.01045656204224">
    <ele>581.94287109375</ele>
    <time>2012-03-09T11:39:58Z</time>
   </trkpt>
   <trkpt lat="46.1821784973144" lon="7.01052808761597">
    <ele>581.600036621094</ele>
    <time>2012-03-09T11:39:59Z</time>
   </trkpt>
   <trkpt lat="46.1821670532227" lon="7.01059770584106">
    <ele>581.257141113281</ele>
    <time>2012-03-09T11:40:00Z</time>
   </trkpt>
   <trkpt lat="46.1821479797363" lon="7.01065349578857">
    <ele>580.914306640625</ele>
    <time>2012-03-09T11:40:01Z</time>
   </trkpt>
   <trkpt lat="46.18212890625" lon="7.01070499420166">
    <ele>580.571411132812</ele>
    <time>2012-03-09T11:40:02Z</time>
   </trkpt>
   <trkpt lat="46.1820907592773" lon="7.01075124740601">
    <ele>580.228576660156</ele>
    <time>2012-03-09T11:40:03Z</time>
   </trkpt>
   <trkpt lat="46.1820449829102" lon="7.0107889175415">
    <ele>579.8857421875</ele>
    <time>2012-03-09T11:40:04Z</time>
   </trkpt>
   <trkpt lat="46.1820068359375" lon="7.01083517074585">
    <ele>579.542846679688</ele>
    <time>2012-03-09T11:40:05Z</time>
   </trkpt>
   <trkpt lat="46.1819801330566" lon="7.01090383529663">
    <ele>579.200012207031</ele>
    <time>2012-03-09T11:40:06Z</time>
   </trkpt>
   <trkpt lat="46.1819725036621" lon="7.01097965240478">
    <ele>579.200012207031</ele>
    <time>2012-03-09T11:40:07Z</time>
   </trkpt>
   <trkpt lat="46.1819763183594" lon="7.01107549667358">
    <ele>577.440002441406</ele>
    <time>2012-03-09T11:40:09Z</time>
   </trkpt>
   <trkpt lat="46.1819839477539" lon="7.01107549667358">
    <ele>576.559997558594</ele>
    <time>2012-03-09T11:40:10Z</time>
   </trkpt>
   <trkpt lat="46.1819877624512" lon="7.01106882095337">
    <ele>575.679992675781</ele>
    <time>2012-03-09T11:40:11Z</time>
   </trkpt>
   <trkpt lat="46.1820030212402" lon="7.0110502243042">
    <ele>574.799987792969</ele>
    <time>2012-03-09T11:40:12Z</time>
   </trkpt>
   <trkpt lat="46.1820869445801" lon="7.01102209091186">
    <ele>573.919982910156</ele>
    <time>2012-03-09T11:40:13Z</time>
   </trkpt>
   <trkpt lat="46.1821784973144" lon="7.01104402542114">
    <ele>573.039978027344</ele>
    <time>2012-03-09T11:40:14Z</time>
   </trkpt>
   <trkpt lat="46.1822700500488" lon="7.01108694076538">
    <ele>572.159973144531</ele>
    <time>2012-03-09T11:40:15Z</time>
   </trkpt>
   <trkpt lat="46.1823501586914" lon="7.01114463806152">
    <ele>571.279968261719</ele>
    <time>2012-03-09T11:40:16Z</time>
   </trkpt>
   <trkpt lat="46.1824531555176" lon="7.01120042800903">
    <ele>570.400024414062</ele>
    <time>2012-03-09T11:40:17Z</time>
   </trkpt>
   <trkpt lat="46.1825561523438" lon="7.01126098632812">
    <ele>569.52001953125</ele>
    <time>2012-03-09T11:40:18Z</time>
   </trkpt>
   <trkpt lat="46.1826553344727" lon="7.01132106781006">
    <ele>568.640014648438</ele>
    <time>2012-03-09T11:40:19Z</time>
   </trkpt>
   <trkpt lat="46.1827583312988" lon="7.01137638092041">
    <ele>567.760009765625</ele>
    <time>2012-03-09T11:40:20Z</time>
   </trkpt>
   <trkpt lat="46.1828575134277" lon="7.01142978668213">
    <ele>566.880004882812</ele>
    <time>2012-03-09T11:40:21Z</time>
   </trkpt>
   <trkpt lat="46.1829452514648" lon="7.01148796081543">
    <ele>566</ele>
    <time>2012-03-09T11:40:22Z</time>
   </trkpt>
   <trkpt lat="46.183032989502" lon="7.01155233383179">
    <ele>565.119995117188</ele>
    <time>2012-03-09T11:40:23Z</time>
   </trkpt>
   <trkpt lat="46.1831359863281" lon="7.01159811019898">
    <ele>564.239990234375</ele>
    <time>2012-03-09T11:40:24Z</time>
   </trkpt>
   <trkpt lat="46.1832275390625" lon="7.01164102554321">
    <ele>563.359985351562</ele>
    <time>2012-03-09T11:40:25Z</time>
   </trkpt>
   <trkpt lat="46.1832885742188" lon="7.01169395446777">
    <ele>562.47998046875</ele>
    <time>2012-03-09T11:40:26Z</time>
   </trkpt>
   <trkpt lat="46.1833305358887" lon="7.01176166534424">
    <ele>561.599975585938</ele>
    <time>2012-03-09T11:40:27Z</time>
   </trkpt>
   <trkpt lat="46.1832885742188" lon="7.01192855834961">
    <ele>561.599975585938</ele>
    <time>2012-03-09T11:40:29Z</time>
   </trkpt>
   <trkpt lat="46.1831474304199" lon="7.01195812225342">
    <ele>559.581359863281</ele>
    <time>2012-03-09T11:40:31Z</time>
   </trkpt>
   <trkpt lat="46.1830444335938" lon="7.01194524765015">
    <ele>558.572082519531</ele>
    <time>2012-03-09T11:40:32Z</time>
   </trkpt>
   <trkpt lat="46.1829452514648" lon="7.0119366645813">
    <ele>557.562744140625</ele>
    <time>2012-03-09T11:40:33Z</time>
   </trkpt>
   <trkpt lat="46.1828384399414" lon="7.01194334030151">
    <ele>556.553466796875</ele>
    <time>2012-03-09T11:40:34Z</time>
   </trkpt>
   <trkpt lat="46.1827507019043" lon="7.01199531555176">
    <ele>555.544189453125</ele>
    <time>2012-03-09T11:40:35Z</time>
   </trkpt>
   <trkpt lat="46.1826820373535" lon="7.01207685470581">
    <ele>554.534851074219</ele>
    <time>2012-03-09T11:40:36Z</time>
   </trkpt>
   <trkpt lat="46.1826171875" lon="7.01217985153198">
    <ele>553.525573730469</ele>
    <time>2012-03-09T11:40:37Z</time>
   </trkpt>
   <trkpt lat="46.1825714111328" lon="7.01225280761719">
    <ele>552.516235351562</ele>
    <time>2012-03-09T11:40:38Z</time>
   </trkpt>
   <trkpt lat="46.1825294494629" lon="7.01233053207398">
    <ele>551.506958007812</ele>
    <time>2012-03-09T11:40:39Z</time>
   </trkpt>
   <trkpt lat="46.1824951171875" lon="7.01243448257446">
    <ele>550.497680664062</ele>
    <time>2012-03-09T11:40:40Z</time>
   </trkpt>
   <trkpt lat="46.1824798583984" lon="7.01255655288696">
    <ele>549.488342285156</ele>
    <time>2012-03-09T11:40:41Z</time>
   </trkpt>
   <trkpt lat="46.1824836730957" lon="7.01268482208252">
    <ele>548.479064941406</ele>
    <time>2012-03-09T11:40:42Z</time>
   </trkpt>
   <trkpt lat="46.1825180053711" lon="7.01278829574585">
    <ele>547.4697265625</ele>
    <time>2012-03-09T11:40:43Z</time>
   </trkpt>
   <trkpt lat="46.1825637817383" lon="7.01289081573486">
    <ele>546.46044921875</ele>
    <time>2012-03-09T11:40:44Z</time>
   </trkpt>
   <trkpt lat="46.1826210021973" lon="7.01299953460693">
    <ele>545.451110839844</ele>
    <time>2012-03-09T11:40:45Z</time>
   </trkpt>
   <trkpt lat="46.1826858520508" lon="7.0131049156189">
    <ele>544.441833496094</ele>
    <time>2012-03-09T11:40:46Z</time>
   </trkpt>
   <trkpt lat="46.1827697753906" lon="7.01316785812378">
    <ele>543.432556152344</ele>
    <time>2012-03-09T11:40:47Z</time>
   </trkpt>
   <trkpt lat="46.1828346252441" lon="7.01325511932373">
    <ele>542.423217773438</ele>
    <time>2012-03-09T11:40:48Z</time>
   </trkpt>
   <trkpt lat="46.1828536987305" lon="7.01338291168213">
    <ele>541.413940429688</ele>
    <time>2012-03-09T11:40:49Z</time>
   </trkpt>
   <trkpt lat="46.1828460693359" lon="7.013512134552">
    <ele>540.404602050781</ele>
    <time>2012-03-09T11:40:50Z</time>
   </trkpt>
   <trkpt lat="46.1828193664551" lon="7.01363754272461">
    <ele>539.395324707031</ele>
    <time>2012-03-09T11:40:51Z</time>
   </trkpt>
   <trkpt lat="46.1827774047852" lon="7.01374530792236">
    <ele>538.386047363281</ele>
    <time>2012-03-09T11:40:52Z</time>
   </trkpt>
   <trkpt lat="46.1827239990234" lon="7.01383638381958">
    <ele>537.376708984375</ele>
    <time>2012-03-09T11:40:53Z</time>
   </trkpt>
   <trkpt lat="46.1826667785644" lon="7.01392459869385">
    <ele>536.367431640625</ele>
    <time>2012-03-09T11:40:54Z</time>
   </trkpt>
   <trkpt lat="46.1826133728027" lon="7.0140175819397">
    <ele>535.358093261719</ele>
    <time>2012-03-09T11:40:55Z</time>
   </trkpt>
   <trkpt lat="46.1825523376465" lon="7.01413059234619">
    <ele>534.348815917969</ele>
    <time>2012-03-09T11:40:56Z</time>
   </trkpt>
   <trkpt lat="46.182487487793" lon="7.01424169540405">
    <ele>533.339538574219</ele>
    <time>2012-03-09T11:40:57Z</time>
   </trkpt>
   <trkpt lat="46.1824378967285" lon="7.01434946060181">
    <ele>532.330200195312</ele>
    <time>2012-03-09T11:40:58Z</time>
   </trkpt>
   <trkpt lat="46.1823997497559" lon="7.01446390151978">
    <ele>531.320922851562</ele>
    <time>2012-03-09T11:40:59Z</time>
   </trkpt>
   <trkpt lat="46.1823806762695" lon="7.01458263397217">
    <ele>530.311584472656</ele>
    <time>2012-03-09T11:41:00Z</time>
   </trkpt>
   <trkpt lat="46.1823806762695" lon="7.01470422744751">
    <ele>529.302307128906</ele>
    <time>2012-03-09T11:41:01Z</time>
   </trkpt>
   <trkpt lat="46.1823921203613" lon="7.014817237854">
    <ele>528.293029785156</ele>
    <time>2012-03-09T11:41:02Z</time>
   </trkpt>
   <trkpt lat="46.1824111938477" lon="7.01491451263428">
    <ele>527.28369140625</ele>
    <time>2012-03-09T11:41:03Z</time>
   </trkpt>
   <trkpt lat="46.1824645996094" lon="7.01497507095337">
    <ele>526.2744140625</ele>
    <time>2012-03-09T11:41:04Z</time>
   </trkpt>
   <trkpt lat="46.1825485229492" lon="7.01500654220581">
    <ele>525.265075683594</ele>
    <time>2012-03-09T11:41:05Z</time>
   </trkpt>
   <trkpt lat="46.1826477050781" lon="7.01503038406372">
    <ele>524.255798339844</ele>
    <time>2012-03-09T11:41:06Z</time>
   </trkpt>
   <trkpt lat="46.1827278137207" lon="7.01507043838501">
    <ele>523.246520996094</ele>
    <time>2012-03-09T11:41:07Z</time>
   </trkpt>
   <trkpt lat="46.1827850341797" lon="7.01513290405274">
    <ele>522.237182617188</ele>
    <time>2012-03-09T11:41:08Z</time>
   </trkpt>
   <trkpt lat="46.1828079223633" lon="7.01520586013794">
    <ele>521.227905273438</ele>
    <time>2012-03-09T11:41:09Z</time>
   </trkpt>
   <trkpt lat="46.1828079223633" lon="7.0152850151062">
    <ele>520.218566894531</ele>
    <time>2012-03-09T11:41:10Z</time>
   </trkpt>
   <trkpt lat="46.1827735900879" lon="7.01543664932251">
    <ele>518.199951171875</ele>
    <time>2012-03-09T11:41:12Z</time>
   </trkpt>
   <trkpt lat="46.1827430725098" lon="7.01552534103394">
    <ele>517.190673828125</ele>
    <time>2012-03-09T11:41:13Z</time>
   </trkpt>
   <trkpt lat="46.1827125549316" lon="7.01561975479126">
    <ele>516.181396484375</ele>
    <time>2012-03-09T11:41:14Z</time>
   </trkpt>
   <trkpt lat="46.1826820373535" lon="7.01572608947754">
    <ele>515.172058105469</ele>
    <time>2012-03-09T11:41:15Z</time>
   </trkpt>
   <trkpt lat="46.1826438903809" lon="7.01583671569824">
    <ele>514.162780761719</ele>
    <time>2012-03-09T11:41:16Z</time>
   </trkpt>
   <trkpt lat="46.1826133728027" lon="7.01595163345337">
    <ele>513.153442382812</ele>
    <time>2012-03-09T11:41:17Z</time>
   </trkpt>
   <trkpt lat="46.1825637817383" lon="7.01608610153198">
    <ele>512.144165039062</ele>
    <time>2012-03-09T11:41:18Z</time>
   </trkpt>
   <trkpt lat="46.1825141906738" lon="7.01623868942261">
    <ele>511.134857177734</ele>
    <time>2012-03-09T11:41:19Z</time>
   </trkpt>
   <trkpt lat="46.1824760437012" lon="7.01640892028809">
    <ele>510.125549316406</ele>
    <time>2012-03-09T11:41:20Z</time>
   </trkpt>
   <trkpt lat="46.1824417114258" lon="7.01658153533936">
    <ele>509.116271972656</ele>
    <time>2012-03-09T11:41:21Z</time>
   </trkpt>
   <trkpt lat="46.1824150085449" lon="7.01675701141357">
    <ele>508.106964111328</ele>
    <time>2012-03-09T11:41:22Z</time>
   </trkpt>
   <trkpt lat="46.1823883056641" lon="7.01692295074463">
    <ele>507.09765625</ele>
    <time>2012-03-09T11:41:23Z</time>
   </trkpt>
   <trkpt lat="46.1823692321777" lon="7.01707315444946">
    <ele>506.088348388672</ele>
    <time>2012-03-09T11:41:24Z</time>
   </trkpt>
   <trkpt lat="46.1823387145996" lon="7.01721334457398">
    <ele>505.079040527344</ele>
    <time>2012-03-09T11:41:25Z</time>
   </trkpt>
   <trkpt lat="46.1823043823242" lon="7.01734638214111">
    <ele>504.069763183594</ele>
    <time>2012-03-09T11:41:26Z</time>
   </trkpt>
   <trkpt lat="46.1822547912598" lon="7.01745653152466">
    <ele>503.060455322266</ele>
    <time>2012-03-09T11:41:27Z</time>
   </trkpt>
   <trkpt lat="46.1821975708008" lon="7.0175633430481">
    <ele>502.051147460938</ele>
    <time>2012-03-09T11:41:28Z</time>
   </trkpt>
   <trkpt lat="46.1821250915527" lon="7.01765537261963">
    <ele>501.041839599609</ele>
    <time>2012-03-09T11:41:29Z</time>
   </trkpt>
   <trkpt lat="46.1820411682129" lon="7.01773262023926">
    <ele>500.032531738281</ele>
    <time>2012-03-09T11:41:30Z</time>
   </trkpt>
   <trkpt lat="46.181957244873" lon="7.01780652999878">
    <ele>499.023254394531</ele>
    <time>2012-03-09T11:41:31Z</time>
   </trkpt>
   <trkpt lat="46.1818580627441" lon="7.01788711547852">
    <ele>498.013946533203</ele>
    <time>2012-03-09T11:41:32Z</time>
   </trkpt>
   <trkpt lat="46.1817626953125" lon="7.01796722412109">
    <ele>497.004638671875</ele>
    <time>2012-03-09T11:41:33Z</time>
   </trkpt>
   <trkpt lat="46.1816749572754" lon="7.01807260513306">
    <ele>495.995330810547</ele>
    <time>2012-03-09T11:41:34Z</time>
   </trkpt>
   <trkpt lat="46.1816101074219" lon="7.01819658279419">
    <ele>494.986022949219</ele>
    <time>2012-03-09T11:41:35Z</time>
   </trkpt>
   <trkpt lat="46.1815490722656" lon="7.01833438873291">
    <ele>493.976715087891</ele>
    <time>2012-03-09T11:41:36Z</time>
   </trkpt>
   <trkpt lat="46.1814880371094" lon="7.01847839355469">
    <ele>492.967437744141</ele>
    <time>2012-03-09T11:41:37Z</time>
   </trkpt>
   <trkpt lat="46.1814193725586" lon="7.01862335205078">
    <ele>491.958129882812</ele>
    <time>2012-03-09T11:41:38Z</time>
   </trkpt>
   <trkpt lat="46.1813468933106" lon="7.01876735687256">
    <ele>490.948822021484</ele>
    <time>2012-03-09T11:41:39Z</time>
   </trkpt>
   <trkpt lat="46.181266784668" lon="7.01891136169434">
    <ele>489.939514160156</ele>
    <time>2012-03-09T11:41:40Z</time>
   </trkpt>
   <trkpt lat="46.1811866760254" lon="7.01905727386475">
    <ele>488.930206298828</ele>
    <time>2012-03-09T11:41:41Z</time>
   </trkpt>
   <trkpt lat="46.1811218261719" lon="7.01918601989746">
    <ele>487.920928955078</ele>
    <time>2012-03-09T11:41:42Z</time>
   </trkpt>
   <trkpt lat="46.1810607910156" lon="7.01932096481323">
    <ele>486.91162109375</ele>
    <time>2012-03-09T11:41:43Z</time>
   </trkpt>
   <trkpt lat="46.1810073852539" lon="7.01945161819458">
    <ele>485.902313232422</ele>
    <time>2012-03-09T11:41:44Z</time>
   </trkpt>
   <trkpt lat="46.180965423584" lon="7.0195779800415">
    <ele>484.893005371094</ele>
    <time>2012-03-09T11:41:45Z</time>
   </trkpt>
   <trkpt lat="46.1809310913086" lon="7.01970434188843">
    <ele>483.883697509766</ele>
    <time>2012-03-09T11:41:46Z</time>
   </trkpt>
   <trkpt lat="46.1809043884277" lon="7.01982069015503">
    <ele>482.874420166016</ele>
    <time>2012-03-09T11:41:47Z</time>
   </trkpt>
   <trkpt lat="46.1808815002441" lon="7.01993322372436">
    <ele>481.865112304688</ele>
    <time>2012-03-09T11:41:48Z</time>
   </trkpt>
   <trkpt lat="46.1808547973633" lon="7.02004384994507">
    <ele>480.855804443359</ele>
    <time>2012-03-09T11:41:49Z</time>
   </trkpt>
   <trkpt lat="46.1808242797852" lon="7.02012872695923">
    <ele>479.846496582031</ele>
    <time>2012-03-09T11:41:50Z</time>
   </trkpt>
   <trkpt lat="46.1807861328125" lon="7.02017831802368">
    <ele>478.837188720703</ele>
    <time>2012-03-09T11:41:51Z</time>
   </trkpt>
   <trkpt lat="46.1807556152344" lon="7.02018737792969">
    <ele>477.827880859375</ele>
    <time>2012-03-09T11:41:52Z</time>
   </trkpt>
   <trkpt lat="46.180736541748" lon="7.02016830444336">
    <ele>476.818603515625</ele>
    <time>2012-03-09T11:41:53Z</time>
   </trkpt>
   <trkpt lat="46.1807327270508" lon="7.02014207839966">
    <ele>475.809295654297</ele>
    <time>2012-03-09T11:41:54Z</time>
   </trkpt>
   <trkpt lat="46.1807250976562" lon="7.02012825012207">
    <ele>474.799987792969</ele>
    <time>2012-03-09T11:41:55Z</time>
   </trkpt>
   <trkpt lat="46.1806259155273" lon="7.02011966705322">
    <ele>474.799987792969</ele>
    <time>2012-03-09T11:41:59Z</time>
   </trkpt>
   <trkpt lat="46.180534362793" lon="7.02009439468384">
    <ele>473.599975585938</ele>
    <time>2012-03-09T11:42:01Z</time>
   </trkpt>
   <trkpt lat="46.1804733276367" lon="7.02008008956909">
    <ele>473</ele>
    <time>2012-03-09T11:42:02Z</time>
   </trkpt>
   <trkpt lat="46.1804161071777" lon="7.02006483078003">
    <ele>472.399993896484</ele>
    <time>2012-03-09T11:42:03Z</time>
   </trkpt>
   <trkpt lat="46.1803550720215" lon="7.02004337310791">
    <ele>471.799987792969</ele>
    <time>2012-03-09T11:42:04Z</time>
   </trkpt>
   <trkpt lat="46.180305480957" lon="7.02003335952759">
    <ele>471.200012207031</ele>
    <time>2012-03-09T11:42:05Z</time>
   </trkpt>
   <trkpt lat="46.1802673339844" lon="7.02004623413086">
    <ele>470.600006103516</ele>
    <time>2012-03-09T11:42:06Z</time>
   </trkpt>
   <trkpt lat="46.180233001709" lon="7.02005910873413">
    <ele>470</ele>
    <time>2012-03-09T11:42:07Z</time>
   </trkpt>
   <trkpt lat="46.1801643371582" lon="7.02009153366089">
    <ele>470</ele>
    <time>2012-03-09T11:42:10Z</time>
   </trkpt>
   <trkpt lat="46.1801452636719" lon="7.02011585235596">
    <ele>469.633331298828</ele>
    <time>2012-03-09T11:42:11Z</time>
   </trkpt>
   <trkpt lat="46.1801261901856" lon="7.0201416015625">
    <ele>469.266662597656</ele>
    <time>2012-03-09T11:42:12Z</time>
   </trkpt>
   <trkpt lat="46.1800994873047" lon="7.02017211914062">
    <ele>468.899993896484</ele>
    <time>2012-03-09T11:42:13Z</time>
   </trkpt>
   <trkpt lat="46.1800689697266" lon="7.02020025253296">
    <ele>468.533325195312</ele>
    <time>2012-03-09T11:42:14Z</time>
   </trkpt>
   <trkpt lat="46.1800308227539" lon="7.02022743225098">
    <ele>468.166656494141</ele>
    <time>2012-03-09T11:42:15Z</time>
   </trkpt>
   <trkpt lat="46.1799850463867" lon="7.02025890350342">
    <ele>467.799987792969</ele>
    <time>2012-03-09T11:42:16Z</time>
   </trkpt>
   <trkpt lat="46.1799087524414" lon="7.02031517028809">
    <ele>467.066680908203</ele>
    <time>2012-03-09T11:42:18Z</time>
   </trkpt>
   <trkpt lat="46.1798706054688" lon="7.0203447341919">
    <ele>466.700012207031</ele>
    <time>2012-03-09T11:42:19Z</time>
   </trkpt>
   <trkpt lat="46.1798515319824" lon="7.02036666870117">
    <ele>466.333343505859</ele>
    <time>2012-03-09T11:42:20Z</time>
   </trkpt>
   <trkpt lat="46.1798286437988" lon="7.02038431167602">
    <ele>465.966674804688</ele>
    <time>2012-03-09T11:42:21Z</time>
   </trkpt>
   <trkpt lat="46.1798057556152" lon="7.02040815353394">
    <ele>465.600006103516</ele>
    <time>2012-03-09T11:42:22Z</time>
   </trkpt>
   <trkpt lat="46.179744720459" lon="7.02047395706177">
    <ele>465.600006103516</ele>
    <time>2012-03-09T11:42:24Z</time>
   </trkpt>
   <trkpt lat="46.1797027587891" lon="7.02050924301148">
    <ele>464.708343505859</ele>
    <time>2012-03-09T11:42:25Z</time>
   </trkpt>
   <trkpt lat="46.1796493530273" lon="7.0205488204956">
    <ele>463.816680908203</ele>
    <time>2012-03-09T11:42:26Z</time>
   </trkpt>
   <trkpt lat="46.1795959472656" lon="7.02059125900268">
    <ele>462.925018310547</ele>
    <time>2012-03-09T11:42:27Z</time>
   </trkpt>
   <trkpt lat="46.1795387268066" lon="7.02063703536987">
    <ele>462.033325195312</ele>
    <time>2012-03-09T11:42:28Z</time>
   </trkpt>
   <trkpt lat="46.1794776916504" lon="7.02069759368896">
    <ele>461.141662597656</ele>
    <time>2012-03-09T11:42:29Z</time>
   </trkpt>
   <trkpt lat="46.1794166564941" lon="7.0207667350769">
    <ele>460.25</ele>
    <time>2012-03-09T11:42:30Z</time>
   </trkpt>
   <trkpt lat="46.1793518066406" lon="7.02084302902222">
    <ele>459.358337402344</ele>
    <time>2012-03-09T11:42:31Z</time>
   </trkpt>
   <trkpt lat="46.1792869567871" lon="7.02092504501343">
    <ele>458.466674804688</ele>
    <time>2012-03-09T11:42:32Z</time>
   </trkpt>
   <trkpt lat="46.1792106628418" lon="7.02101898193359">
    <ele>457.575012207031</ele>
    <time>2012-03-09T11:42:33Z</time>
   </trkpt>
   <trkpt lat="46.1791381835938" lon="7.02111196517944">
    <ele>456.683349609375</ele>
    <time>2012-03-09T11:42:34Z</time>
   </trkpt>
   <trkpt lat="46.1790657043457" lon="7.02120447158814">
    <ele>455.791687011719</ele>
    <time>2012-03-09T11:42:35Z</time>
   </trkpt>
   <trkpt lat="46.1789894104004" lon="7.02130031585693">
    <ele>454.900024414062</ele>
    <time>2012-03-09T11:42:36Z</time>
   </trkpt>
   <trkpt lat="46.1789169311523" lon="7.02140045166016">
    <ele>454.008331298828</ele>
    <time>2012-03-09T11:42:37Z</time>
   </trkpt>
   <trkpt lat="46.1788444519043" lon="7.0214991569519">
    <ele>453.116668701172</ele>
    <time>2012-03-09T11:42:38Z</time>
   </trkpt>
   <trkpt lat="46.178768157959" lon="7.02159786224365">
    <ele>452.225006103516</ele>
    <time>2012-03-09T11:42:39Z</time>
   </trkpt>
   <trkpt lat="46.1786918640137" lon="7.02169704437256">
    <ele>451.333343505859</ele>
    <time>2012-03-09T11:42:40Z</time>
   </trkpt>
   <trkpt lat="46.1786231994629" lon="7.02179861068726">
    <ele>450.441680908203</ele>
    <time>2012-03-09T11:42:41Z</time>
   </trkpt>
   <trkpt lat="46.1785545349121" lon="7.02189016342163">
    <ele>449.550018310547</ele>
    <time>2012-03-09T11:42:42Z</time>
   </trkpt>
   <trkpt lat="46.1784934997559" lon="7.02198219299316">
    <ele>448.658355712891</ele>
    <time>2012-03-09T11:42:43Z</time>
   </trkpt>
   <trkpt lat="46.1784286499023" lon="7.02206373214722">
    <ele>447.766662597656</ele>
    <time>2012-03-09T11:42:44Z</time>
   </trkpt>
   <trkpt lat="46.1783714294434" lon="7.02213621139526">
    <ele>446.875</ele>
    <time>2012-03-09T11:42:45Z</time>
   </trkpt>
   <trkpt lat="46.1783256530762" lon="7.02219581604004">
    <ele>445.983337402344</ele>
    <time>2012-03-09T11:42:46Z</time>
   </trkpt>
   <trkpt lat="46.1782875061035" lon="7.02224636077881">
    <ele>445.091674804688</ele>
    <time>2012-03-09T11:42:47Z</time>
   </trkpt>
   <trkpt lat="46.1782608032227" lon="7.02229452133179">
    <ele>444.200012207031</ele>
    <time>2012-03-09T11:42:48Z</time>
   </trkpt>
   <trkpt lat="46.1781921386719" lon="7.02233409881592">
    <ele>444.200012207031</ele>
    <time>2012-03-09T11:42:51Z</time>
   </trkpt>
   <trkpt lat="46.1781768798828" lon="7.02244710922241">
    <ele>444.200012207031</ele>
    <time>2012-03-09T11:42:55Z</time>
   </trkpt>
   <trkpt lat="46.1782112121582" lon="7.02247095108032">
    <ele>444.200012207031</ele>
    <time>2012-03-09T11:42:56Z</time>
   </trkpt>
   <trkpt lat="46.1783027648926" lon="7.02252721786499">
    <ele>444.200012207031</ele>
    <time>2012-03-09T11:42:59Z</time>
   </trkpt>
   <trkpt lat="46.1783638000488" lon="7.02269124984741">
    <ele>444.200012207031</ele>
    <time>2012-03-09T11:43:03Z</time>
   </trkpt>
   <trkpt lat="46.1784210205078" lon="7.02282571792602">
    <ele>444.200012207031</ele>
    <time>2012-03-09T11:43:06Z</time>
   </trkpt>
   <trkpt lat="46.1784553527832" lon="7.02280855178833">
    <ele>444.200012207031</ele>
    <time>2012-03-09T11:43:07Z</time>
   </trkpt>
   <trkpt lat="46.1784706115723" lon="7.02278423309326">
    <ele>444.200012207031</ele>
    <time>2012-03-09T11:43:10Z</time>
   </trkpt>
  </trkseg>
 </trk>
</gpx>